# Wetter Temperatur Luftdruck Luftfeuchtigkeit Sichtweite Windgeschwindigkeit Windrichtung Zeit
1 Clouds 6 1006 56 10000 5.1 240 21:37 02.04.2020
2 Clouds 6 1007 56 10000 4.6 260 21:19 02.04.2020
3 Clouds 7 1007 56 10000 4.6 270 20:55 02.04.2020
4 Clouds 7 1007 56 10000 4.6 270 20:37 02.04.2020
5 Clouds 8 1007 52 10000 5.7 280 20:19 02.04.2020
6 Clouds 8 1007 49 10000 6.7 270 19:42 02.04.2020
7 Clouds 9 1007 45 10000 8.7 260 19:20 02.04.2020
8 Clouds 9 1007 45 10000 8.7 260 19:20 02.04.2020
9 Clouds 9 1007 45 10000 8.7 260 19:20 02.04.2020
10 Clouds 10 1007 43 10000 8.7 260 18:57 02.04.2020
11 Clouds 10 1007 43 10000 8.7 260 18:39 02.04.2020
12 Clouds 10 1007 43 10000 7.2 260 18:20 02.04.2020
13 Clouds 11 1007 39 10000 7.7 250 17:55 02.04.2020
14 Clouds 11 1007 39 10000 7.7 250 17:37 02.04.2020
15 Clouds 11 1008 40 10000 8.7 260 17:18 02.04.2020
16 Clouds 11 1008 39 10000 8.2 260 16:55 02.04.2020
17 Clouds 11 1008 39 10000 8.2 260 16:36 02.04.2020
18 Clouds 11 1008 39 10000 8.2 260 16:36 02.04.2020
19 Clouds 11 1009 39 10000 7.7 230 16:18 02.04.2020
20 Clouds 11 1009 39 10000 7.7 230 16:18 02.04.2020
21 Clouds 10 1009 39 10000 7.7 240 15:44 02.04.2020
22 Clouds 10 1009 39 10000 7.7 240 15:44 02.04.2020
23 -273 0 0 0 0 0 15:44 02.04.2020
24 Clouds 10 1009 39 10000 7.7 240 15:44 02.04.2020
25 Clouds 10 1009 43 10000 7.2 240 15:21 02.04.2020
26 Clouds 10 1010 45 10000 7.2 240 14:58 02.04.2020
27 Clouds 10 1010 45 10000 7.2 240 14:39 02.04.2020
28 Clouds 9 1010 45 10000 6.7 250 14:19 02.04.2020
29 Clouds 9 1011 49 10000 5.1 270 13:56 02.04.2020
30 Clouds 9 1011 49 10000 5.1 270 13:38 02.04.2020
31 Clouds 9 1011 49 10000 7.7 260 13:19 02.04.2020
32 Clouds 9 1011 49 10000 7.7 250 12:55 02.04.2020
33 Clouds 9 1011 49 10000 7.7 250 12:36 02.04.2020
34 Clouds 9 1011 57 10000 7.2 260 12:18 02.04.2020
35 Clouds 9 1012 61 10000 6.2 250 11:55 02.04.2020
36 Clouds 9 1012 61 10000 6.2 250 11:36 02.04.2020
37 Clouds 8 1012 65 10000 6.2 250 11:18 02.04.2020
38 Clouds 8 1012 65 10000 6.2 250 10:54 02.04.2020
39 Clouds 7 1012 70 10000 5.7 250 10:36 02.04.2020
40 Clouds 7 1012 70 10000 5.7 250 10:18 02.04.2020
41 Clouds 6 1012 75 10000 5.7 250 09:42 02.04.2020
42 Clouds 5 1012 75 10000 5.7 260 09:24 02.04.2020
43 Clouds 5 1012 80 10000 4.6 260 08:58 02.04.2020
44 Clouds 4 1012 80 10000 4.6 260 08:40 02.04.2020
45 Clouds 5 1012 75 10000 5.1 240 08:20 02.04.2020
46 Clouds 4 1012 75 10000 4.6 240 07:43 02.04.2020
47 Clouds 4 1012 75 10000 4.1 250 07:20 02.04.2020
48 Clouds 4 1013 75 10000 4.6 240 06:57 02.04.2020
49 Clouds 4 1013 75 10000 4.1 250 06:21 02.04.2020
50 Clouds 4 1013 75 10000 3.1 250 05:44 02.04.2020
51 Clouds 4 1013 75 10000 4.1 260 03:57 02.04.2020
52 Clouds 4 1014 70 10000 3.6 280 01:34 02.04.2020
53 Clouds 5 1015 82 10000 4.6 270 00:48 02.04.2020
54 Clouds 5 1015 73 10000 4.1 260 00:26 02.04.2020
55 Clouds 5 1015 60 10000 4.6 260 23:54 01.04.2020
56 Clouds 5 1015 60 10000 4.6 260 23:36 01.04.2020
57 Clouds 5 1015 60 10000 4.1 260 23:18 01.04.2020
58 Clouds 5 1015 60 10000 4.6 260 22:40 01.04.2020
59 Clouds 6 1015 56 10000 4.1 270 22:21 01.04.2020
60 Clouds 6 1015 56 10000 4.1 270 21:55 01.04.2020
61 Clouds 6 1016 60 10000 4.1 260 21:37 01.04.2020
62 Clouds 6 1016 60 10000 4.1 260 21:18 01.04.2020
63 Clouds 6 1016 56 10000 2.1 290 20:54 01.04.2020
64 Clouds 6 1016 56 10000 2.1 290 20:54 01.04.2020
65 Clouds 6 1016 56 10000 2.1 290 20:36 01.04.2020
66 Clouds 7 1016 52 10000 3.1 280 20:18 01.04.2020
67 Clouds 7 1016 56 10000 4.6 260 19:42 01.04.2020
68 Clouds 8 1016 49 10000 5.7 280 19:22 01.04.2020
69 Clouds 8 1016 49 10000 5.7 280 18:59 01.04.2020
70 Clouds 9 1016 49 10000 5.1 280 18:40 01.04.2020
71 Clouds 9 1016 49 10000 5.1 300 18:21 01.04.2020
72 Clouds 9 1017 52 10000 5.1 300 17:55 01.04.2020
73 Clouds 9 1017 52 10000 5.1 300 17:36 01.04.2020
74 Clouds 10 1017 45 10000 5.7 290 17:18 01.04.2020
75 Clouds 10 1017 39 10000 6.2 300 16:42 01.04.2020
76 Clouds 10 1017 39 10000 6.7 250 16:24 01.04.2020
77 Clouds 10 1017 39 10000 6.7 250 15:59 01.04.2020
78 Clouds 10 1018 42 10000 5.1 290 15:41 01.04.2020
79 Clouds 10 1018 42 10000 5.7 260 15:22 01.04.2020
80 Clouds 9 1018 42 10000 5.7 260 14:58 01.04.2020
81 Clouds 9 1018 42 10000 7.2 260 14:39 01.04.2020
82 Clouds 9 1019 42 10000 6.2 270 14:20 01.04.2020
83 Clouds 9 1019 42 10000 6.2 270 13:58 01.04.2020
84 Clouds 9 1019 42 10000 6.7 260 13:38 01.04.2020
85 Clouds 9 1020 39 10000 8.2 250 13:19 01.04.2020
86 Clouds 8 1020 42 10000 8.2 260 12:56 01.04.2020
87 Clouds 8 1020 42 10000 8.2 260 12:37 01.04.2020
88 Clouds 7 1021 45 10000 8.2 260 12:18 01.04.2020
89 Clouds 7 1021 42 10000 7.2 250 11:54 01.04.2020
90 Clouds 7 1021 42 10000 7.2 250 11:36 01.04.2020
91 Clouds 6 1021 45 10000 6.2 250 11:18 01.04.2020
92 Clear 5 1022 48 10000 5.7 260 10:38 01.04.2020
93 Clear 5 1022 48 10000 5.1 260 10:20 01.04.2020
94 Clear 4 1022 51 10000 5.1 250 09:58 01.04.2020
95 Clear 4 1022 51 10000 5.1 250 09:39 01.04.2020
96 Clear 2 1022 55 10000 5.1 250 09:19 01.04.2020
97 Clear 1 1022 59 10000 4.1 250 08:44 01.04.2020
98 Clear 0 1022 83 10000 4.1 250 08:19 01.04.2020
99 Clear 0 1022 83 10000 4.1 250 07:56 01.04.2020
100 Clear -2 1022 68 10000 4.1 250 07:38 01.04.2020
101 Clear -2 1023 73 10000 4.1 260 07:18 01.04.2020
102 Clear -2 1023 73 10000 4.1 260 06:39 01.04.2020
103 Clear -2 1023 68 10000 3.6 250 06:20 01.04.2020
104 Clear -2 1023 73 10000 3.6 250 05:24 01.04.2020
105 Clear -2 1024 68 10000 3.6 240 03:39 01.04.2020
106 Clear -2 1025 68 10000 3.6 250 02:59 01.04.2020
107 Clear -2 1025 68 10000 3.6 250 02:31 01.04.2020
108 Clear -2 1026 68 10000 2.6 250 01:49 01.04.2020
109 Clear -1 1026 68 10000 2.6 250 01:25 01.04.2020
110 Clear -1 1026 73 10000 2.6 240 00:47 01.04.2020
111 Clear -1 1027 68 10000 2.6 260 00:22 01.04.2020
112 Clear -1 1027 68 10000 2.6 260 23:57 31.03.2020
113 Clear -1 1027 63 10000 1 250 23:38 31.03.2020
114 Clear -1 1027 63 10000 1 230 23:19 31.03.2020
115 Clear -1 1027 81 10000 1 260 22:40 31.03.2020
116 Clear -1 1027 81 10000 1 260 22:21 31.03.2020
117 Clear 0 1028 81 10000 1.5 270 21:58 31.03.2020
118 Clear 0 1028 81 10000 1.5 270 21:40 31.03.2020
119 Clouds 1 1028 55 10000 1.5 280 21:21 31.03.2020
120 Clouds 2 1028 55 10000 1.5 280 20:57 31.03.2020
121 Clouds 1 1028 55 10000 1.5 280 20:57 31.03.2020
122 Clouds 2 1028 55 10000 1.5 280 20:57 31.03.2020
123 Clouds 2 1028 55 10000 1.5 280 20:57 31.03.2020
124 Clouds 2 1028 47 10000 2.1 300 20:37 31.03.2020
125 Clouds 3 1028 47 10000 2.1 300 20:19 31.03.2020
126 Clouds 3 1028 41 10000 3.6 300 19:56 31.03.2020
127 Clouds 4 1028 41 10000 3.6 300 19:38 31.03.2020
128 Clouds 4 1028 41 10000 3.1 280 19:19 31.03.2020
129 Clouds 5 1028 38 10000 3.6 310 18:44 31.03.2020
130 Clouds 5 1028 41 10000 2.1 290 18:21 31.03.2020
131 Clouds 5 1029 38 10000 2.6 280 17:57 31.03.2020
132 Clouds 5 1029 38 10000 2.6 280 17:39 31.03.2020
133 Clouds 5 1029 41 10000 2.6 340 17:21 31.03.2020
134 Clouds 5 1029 41 10000 2.6 340 16:56 31.03.2020
135 Clouds 5 1029 48 10000 3.1 10 16:37 31.03.2020
136 Clouds 5 1030 41 10000 2.1 310 16:18 31.03.2020
137 Clouds 5 1030 38 10000 3.1 0 15:56 31.03.2020
138 Clouds 5 1030 38 10000 3.1 0 15:37 31.03.2020
139 Clouds 5 1030 44 10000 2.1 0 15:18 31.03.2020
140 Clouds 5 1030 44 10000 2.1 350 14:43 31.03.2020
141 Clouds 5 1030 44 10000 3.1 30 14:24 31.03.2020
142 Clouds 5 1030 44 10000 3.1 30 13:59 31.03.2020
143 Clouds 5 1031 41 10000 3.1 360 13:41 31.03.2020
144 Clouds 4 1031 51 10000 3.1 40 13:19 31.03.2020
145 Clouds 5 1031 48 10000 2.1 0 12:54 31.03.2020
146 Clouds 4 1031 48 10000 2.1 0 12:36 31.03.2020
147 Clouds 4 1031 51 10000 3.1 20 12:18 31.03.2020
148 Clouds 4 1031 51 10000 3.6 350 11:38 31.03.2020
149 Clouds 4 1031 51 10000 3.6 20 11:19 31.03.2020
150 Clouds 4 1031 51 10000 3.6 30 10:57 31.03.2020
151 Clouds 4 1031 51 10000 3.6 30 10:39 31.03.2020
152 Clouds 3 1031 64 10000 3.1 10 10:21 31.03.2020
153 Clouds 3 1031 64 10000 3.1 10 10:21 31.03.2020
154 Clouds 3 1031 69 10000 2.6 30 09:56 31.03.2020
155 Clouds 3 1031 69 10000 2.6 30 09:37 31.03.2020
156 Clouds 1 1031 74 10000 2.6 20 09:19 31.03.2020
157 Clear 1 1030 88 10000 2.1 360 08:55 31.03.2020
158 Clear 0 1030 88 10000 2.1 360 08:37 31.03.2020
159 Clear 0 1030 88 10000 2.6 30 08:18 31.03.2020
160 Clouds -1 1030 86 10000 2.1 30 07:44 31.03.2020
161 Clouds -1 1030 86 10000 2.1 360 07:25 31.03.2020
162 Clear -1 1029 86 10000 2.1 20 06:59 31.03.2020
163 Clear -1 1029 86 10000 2.1 20 06:41 31.03.2020
164 Clear -1 1029 92 10000 2.6 20 05:53 31.03.2020
165 Clear -1 1028 92 10000 1.5 360 05:26 31.03.2020
166 Clouds 0 1028 92 10000 2.1 40 02:57 31.03.2020
167 Clouds 1 1027 86 10000 2.6 360 01:47 31.03.2020
168 Clouds 1 1027 93 10000 2.1 350 01:27 31.03.2020
169 Clouds 1 1027 93 10000 2.1 350 00:43 31.03.2020
170 Clouds 1 1027 90 10000 2.1 350 00:23 31.03.2020
171 Clouds 1 1026 90 10000 2.6 340 23:41 30.03.2020
172 Clouds 2 1026 100 10000 2.1 310 23:20 30.03.2020
173 Clouds 2 1026 100 10000 2.1 310 23:20 30.03.2020
174 Clouds 2 1026 100 10000 2.1 310 23:20 30.03.2020
175 Clouds 2 1026 100 10000 2.1 310 22:58 30.03.2020
176 Clouds 2 1026 100 10000 2.1 290 22:58 30.03.2020
177 Clouds 2 1026 100 10000 2.1 290 22:58 30.03.2020
178 Clouds 2 1026 100 10000 2.1 290 22:39 30.03.2020
179 Clouds 2 1026 90 10000 2.1 300 22:19 30.03.2020
180 Clouds 2 1025 90 10000 1.5 290 21:58 30.03.2020
181 Clouds 2 1025 91 10000 1.5 290 21:38 30.03.2020
182 Snow 2 1025 88 10000 2.1 260 21:20 30.03.2020
183 Snow 2 1025 88 10000 2.1 280 20:58 30.03.2020
184 Snow 2 1025 88 10000 2.1 280 20:39 30.03.2020
185 Clouds 2 1025 88 10000 1.5 290 20:20 30.03.2020
186 Clouds 2 1024 88 10000 3.1 280 19:56 30.03.2020
187 Clouds 2 1024 88 10000 3.1 280 19:38 30.03.2020
188 Clouds 2 1024 88 10000 2.6 280 19:20 30.03.2020
189 Clouds 2 1024 88 10000 2.1 290 18:43 30.03.2020
190 Clouds 2 1024 89 10000 2.6 300 18:25 30.03.2020
191 Clouds 2 1024 89 10000 3.6 280 17:58 30.03.2020
192 Clouds 2 1024 89 10000 3.6 280 17:39 30.03.2020
193 Clouds 2 1024 89 10000 3.6 280 17:39 30.03.2020
194 Clouds 2 1024 89 10000 4.1 280 17:20 30.03.2020
195 Clouds 2 1024 89 10000 5.1 270 16:59 30.03.2020
196 Clouds 2 1024 89 10000 5.1 270 16:40 30.03.2020
197 -273 0 0 0 0 0 16:20 30.03.2020
198 Rain 1 1025 89 10000 5.1 250 16:20 30.03.2020
199 Rain 2 1025 89 10000 5.7 260 15:56 30.03.2020
200 Rain 2 1025 89 10000 5.7 260 15:38 30.03.2020
201 Snow 2 1025 67 10000 3.6 250 15:20 30.03.2020
202 Snow 3 1025 67 900 6.7 260 14:56 30.03.2020
203 Rain 3 1025 55 10000 7.2 270 14:37 30.03.2020
204 Rain 3 1025 64 10000 7.2 260 14:18 30.03.2020
205 Rain 3 1025 64 10000 7.2 260 14:18 30.03.2020
206 Rain 4 1025 64 10000 7.2 260 13:57 30.03.2020
207 Snow 4 1025 55 10000 8.2 250 13:38 30.03.2020
208 Clouds 4 1025 47 10000 8.2 250 13:19 30.03.2020
209 Clouds 4 1026 47 10000 8.2 240 12:45 30.03.2020
210 Clouds 4 1026 47 10000 7.2 270 12:21 30.03.2020
211 Clouds 4 1026 47 10000 7.2 270 12:21 30.03.2020
212 Clouds 3 1027 51 10000 6.7 280 11:59 30.03.2020
213 Clouds 3 1027 51 10000 6.7 280 11:59 30.03.2020
214 Clouds 3 1027 51 10000 6.7 280 11:41 30.03.2020
215 Clouds 3 1027 51 10000 6.2 280 11:22 30.03.2020
216 Clouds 3 1027 51 10000 6.2 280 10:55 30.03.2020
217 Clouds 3 1027 51 10000 5.7 260 10:37 30.03.2020
218 Clouds 2 1027 55 10000 5.1 260 10:18 30.03.2020
219 Clouds 1 1027 55 10000 4.6 260 09:40 30.03.2020
220 Clouds 1 1027 55 10000 4.6 260 09:40 30.03.2020
221 Clouds 1 1027 86 10000 4.1 270 09:20 30.03.2020
222 Clear 1 1027 86 10000 4.1 270 09:20 30.03.2020
223 Clear 0 1027 86 10000 4.1 270 08:57 30.03.2020
224 Clear -1 1027 63 10000 3.1 270 08:38 30.03.2020
225 Clear -2 1027 68 10000 2.6 260 08:19 30.03.2020
226 Clear -3 1027 73 10000 3.1 260 07:43 30.03.2020
227 Clear -4 1028 79 10000 2.6 270 07:23 30.03.2020
228 Clear -4 1028 79 10000 2.6 260 06:47 30.03.2020
229 Clear -3 1028 73 10000 2.1 250 06:25 30.03.2020
230 Clear -3 1028 73 10000 2.6 250 05:44 30.03.2020
231 Clear -3 1029 73 10000 1.5 250 04:37 30.03.2020
232 Clear -3 1029 73 10000 2.1 270 04:18 30.03.2020
233 Clear -2 1030 58 10000 2.1 310 02:45 30.03.2020
234 Clear -2 1030 58 10000 1.5 300 01:58 30.03.2020
235 Clear -1 1030 54 10000 2.1 310 01:18 30.03.2020
236 Clear -1 1030 54 10000 2.1 320 00:29 30.03.2020
237 Clouds -1 1030 80 10000 1 0 23:59 29.03.2020
238 Clouds -1 1030 80 10000 1 0 23:40 29.03.2020
239 Clouds 0 1030 80 10000 2.1 340 23:21 29.03.2020
240 Clouds 0 1030 80 10000 2.1 340 22:56 29.03.2020
241 Clouds 1 1029 47 10000 2.1 350 22:37 29.03.2020
242 Clouds 1 1029 47 10000 2.6 10 22:18 29.03.2020
243 Clouds 1 1029 47 10000 3.1 10 21:40 29.03.2020
244 Clouds 2 1029 51 10000 4.1 360 21:21 29.03.2020
245 Clouds 2 1028 51 10000 4.6 10 20:56 29.03.2020
246 Clouds 2 1028 51 10000 4.6 10 20:38 29.03.2020
247 Clouds 2 1028 59 10000 5.1 360 20:19 29.03.2020
248 Clouds 3 1027 55 10000 6.2 10 19:59 29.03.2020
249 Clouds 3 1027 55 10000 6.2 10 19:59 29.03.2020
250 Clouds 3 1027 55 10000 6.2 10 19:41 29.03.2020
251 Clouds 3 1027 59 10000 6.2 10 19:23 29.03.2020
252 Clouds 4 1026 51 10000 7.2 20 18:57 29.03.2020
253 Clouds 4 1026 51 10000 7.2 20 18:39 29.03.2020
254 -273 0 0 0 0 0 18:20 29.03.2020
255 Rain 4 1025 64 10000 6.7 20 17:57 29.03.2020
256 Rain 4 1025 64 10000 6.7 20 17:39 29.03.2020
257 Rain 5 1025 69 10000 6.7 360 17:20 29.03.2020
258 Rain 5 1025 69 10000 6.7 360 16:57 29.03.2020
259 Clouds 5 1025 65 10000 7.7 20 16:39 29.03.2020
260 Clouds 5 1025 65 10000 7.7 20 16:39 29.03.2020
261 Rain 5 1024 60 10000 6.7 30 16:20 29.03.2020
262 Clouds 4 1024 70 10000 6.7 30 15:56 29.03.2020
263 Clouds 4 1024 70 10000 6.7 30 15:37 29.03.2020
264 Rain 4 1024 78 10000 6.2 30 15:19 29.03.2020
265 Rain 4 1023 80 10000 6.7 30 14:55 29.03.2020
266 Rain 4 1023 80 10000 6.7 30 14:36 29.03.2020
267 Rain 4 1022 82 10000 9.8 30 14:18 29.03.2020
268 Rain 4 1023 80 10000 6.7 30 13:41 29.03.2020
269 Rain 5 1022 80 10000 7.2 30 13:22 29.03.2020
270 Rain 5 1021 80 10000 5.7 20 12:58 29.03.2020
271 Rain 5 1021 80 10000 5.7 20 12:39 29.03.2020
272 Rain 5 1021 80 10000 4.6 20 12:19 29.03.2020
273 Rain 5 1020 80 10000 5.7 20 11:58 29.03.2020
274 Rain 5 1020 80 10000 5.7 20 11:38 29.03.2020
275 Rain 6 1020 86 10000 3.6 360 11:19 29.03.2020
276 Clouds 5 1019 75 10000 3.6 20 10:39 29.03.2020
277 Clouds 5 1019 80 10000 3.6 360 10:20 29.03.2020
278 Clouds 5 1019 80 10000 3.6 360 09:56 29.03.2020
279 Clouds 4 1019 86 8000 2.6 320 09:38 29.03.2020
280 Clouds 4 1018 80 10000 2.6 300 09:18 29.03.2020
281 Clouds 4 1018 86 10000 2.6 300 08:45 29.03.2020
282 Clouds 4 1018 87 10000 2.6 300 08:26 29.03.2020
283 Clouds 3 1017 87 10000 2.6 300 07:47 29.03.2020
284 Clouds 3 1017 87 10000 3.1 290 07:23 29.03.2020
285 Clouds 3 1017 87 10000 3.1 290 06:55 29.03.2020
286 Clouds 3 1017 85 10000 2.6 290 04:57 29.03.2020
287 Clouds 3 1018 85 10000 4.1 320 03:41 29.03.2020
288 Clouds 4 1018 71 10000 3.1 310 03:23 29.03.2020
289 Clouds 4 1018 69 10000 3.1 320 01:50 29.03.2020
290 Clouds 4 1018 69 10000 3.1 320 01:23 29.03.2020
291 Clouds 4 1018 64 10000 3.1 310 00:48 29.03.2020
292 Clouds 5 1018 65 10000 2.6 310 00:29 29.03.2020
293 Clouds 5 1018 60 10000 2.6 330 23:41 28.03.2020
294 Clouds 5 1018 60 10000 2.6 330 23:41 28.03.2020
295 Clouds 6 1018 60 10000 2.6 330 23:23 28.03.2020
296 Clouds 6 1018 56 10000 2.6 340 22:57 28.03.2020
297 Clouds 7 1018 56 10000 2.6 340 22:37 28.03.2020
298 Clouds 7 1018 68 10000 2.6 340 22:18 28.03.2020
299 Clouds 8 1018 68 10000 3.6 340 21:41 28.03.2020
300 Clouds 8 1018 68 10000 2.6 330 21:23 28.03.2020
301 Clouds 8 1018 68 10000 2.6 330 20:58 28.03.2020
302 Clouds 8 1018 68 10000 3.6 340 20:39 28.03.2020
303 Clouds 9 1018 53 10000 3.6 340 20:21 28.03.2020
304 Clouds 10 1018 55 10000 4.1 340 19:56 28.03.2020
305 Clouds 10 1018 55 10000 4.1 340 19:37 28.03.2020
306 Clouds 10 1018 55 10000 4.1 340 19:37 28.03.2020
307 Clouds 11 1017 40 10000 2.6 350 19:19 28.03.2020
308 Clouds 11 1017 37 10000 3.6 350 18:56 28.03.2020
309 Clouds 12 1017 37 10000 3.6 350 18:38 28.03.2020
310 Clouds 13 1017 32 10000 4.1 340 18:19 28.03.2020
311 Clouds 14 1017 30 10000 4.6 340 17:38 28.03.2020
312 Clouds 14 1017 30 10000 4.6 340 17:20 28.03.2020
313 Clouds 15 1017 28 10000 5.1 330 16:42 28.03.2020
314 Clouds 15 1017 28 10000 4.1 350 16:20 28.03.2020
315 Clouds 15 1017 28 10000 4.6 340 15:57 28.03.2020
316 Clouds 15 1017 28 10000 4.6 340 15:39 28.03.2020
317 Clouds 15 1017 28 10000 4.6 350 15:19 28.03.2020
318 Clouds 15 1017 30 10000 4.6 330 14:54 28.03.2020
319 Clouds 15 1017 30 10000 4.6 330 14:36 28.03.2020
320 Clear 15 1018 30 10000 5.1 330 14:18 28.03.2020
321 Clear 15 1018 30 10000 4.6 340 13:38 28.03.2020
322 Clear 15 1018 33 10000 5.1 340 13:20 28.03.2020
323 Clear 14 1019 49 10000 4.1 340 12:39 28.03.2020
324 Clear 13 1019 49 10000 4.6 360 12:21 28.03.2020
325 Clear 12 1019 49 10000 4.1 320 11:42 28.03.2020
326 Clear 11 1019 60 10000 3.6 330 11:23 28.03.2020
327 Clear 11 1020 53 10000 3.1 310 10:56 28.03.2020
328 Clear 10 1020 53 10000 3.1 310 10:38 28.03.2020
329 Clear 10 1020 57 10000 3.1 330 10:18 28.03.2020
330 Clear 8 1020 65 10000 2.6 330 09:42 28.03.2020
331 Clear 7 1020 75 10000 3.1 310 09:23 28.03.2020
332 Clear 7 1020 75 10000 3.1 310 09:23 28.03.2020
333 Clear 6 1020 75 10000 2.6 340 08:55 28.03.2020
334 Clear 5 1020 75 10000 2.6 340 08:37 28.03.2020
335 Clouds 5 1020 80 7000 2.6 340 08:18 28.03.2020
336 Mist 3 1020 93 5000 2.1 340 07:41 28.03.2020
337 Mist 2 1020 100 4500 1.5 330 06:58 28.03.2020
338 Mist 2 1020 79 5000 1.5 330 06:35 28.03.2020
339 Clouds 2 1020 79 10000 1.5 330 05:43 28.03.2020
340 Clouds 3 1020 93 10000 2.1 350 05:21 28.03.2020
341 Clouds 3 1020 93 10000 2.1 350 04:41 28.03.2020
342 Clouds 3 1020 78 10000 2.1 360 03:42 28.03.2020
343 Clear 5 1021 75 10000 2.6 360 02:21 28.03.2020
344 Clear 4 1021 76 10000 2.1 360 01:30 28.03.2020
345 Clear 5 1021 65 10000 2.1 360 00:59 28.03.2020
346 Clear 5 1021 65 10000 1.5 360 00:36 28.03.2020
347 Clear 6 1021 56 10000 2.1 20 23:57 27.03.2020
348 Clear 6 1021 56 10000 2.1 20 23:39 27.03.2020
349 Clear 7 1021 52 10000 3.1 30 23:21 27.03.2020
350 Clear 7 1021 52 10000 1.5 20 22:56 27.03.2020
351 Clear 7 1021 52 10000 1.5 20 22:37 27.03.2020
352 Clear 8 1021 49 10000 3.1 30 22:19 27.03.2020
353 Clear 9 1021 46 10000 2.6 20 21:45 27.03.2020
354 Clear 9 1021 46 10000 2.6 30 21:25 27.03.2020
355 Clear 9 1021 46 10000 2.6 30 20:59 27.03.2020
356 Clear 10 1021 74 10000 2.6 20 20:41 27.03.2020
357 Clear 10 1021 64 10000 3.1 20 20:21 27.03.2020
358 Clear 11 1021 64 10000 3.1 20 19:58 27.03.2020
359 Clear 12 1021 64 10000 3.1 40 19:40 27.03.2020
360 Clear 12 1021 64 10000 1.5 70 19:21 27.03.2020
361 Clear 12 1021 64 10000 1.5 70 18:56 27.03.2020
362 Clear 13 1021 35 10000 2.6 50 18:38 27.03.2020
363 Clear 14 1021 64 10000 3.1 60 18:19 27.03.2020
364 Clear 15 1021 64 10000 3.6 70 17:40 27.03.2020
365 Clouds 15 1021 47 10000 4.1 80 17:20 27.03.2020
366 Clouds 16 1021 47 10000 3.1 60 16:54 27.03.2020
367 Clouds 16 1021 47 10000 3.1 60 16:36 27.03.2020
368 Clouds 16 1021 31 10000 3.1 70 16:18 27.03.2020
369 Clouds 16 1021 31 10000 4.1 60 15:41 27.03.2020
370 Clouds 16 1022 47 10000 4.1 60 15:22 27.03.2020
371 Clouds 16 1022 31 10000 3.6 60 14:46 27.03.2020
372 Clouds 16 1022 46 10000 3.6 70 14:25 27.03.2020
373 Clouds 15 1023 33 10000 3.6 0 13:56 27.03.2020
374 Clouds 15 1023 33 10000 3.6 0 13:37 27.03.2020
375 Clouds 15 1023 33 10000 3.6 0 13:37 27.03.2020
376 Clouds 15 1023 33 10000 3.1 90 13:19 27.03.2020
377 Clouds 15 1023 33 10000 3.1 80 12:55 27.03.2020
378 Clouds 15 1023 33 10000 3.1 80 12:37 27.03.2020
379 Clouds 15 1023 35 10000 4.1 110 12:18 27.03.2020
380 Clouds 13 1023 37 10000 3.1 90 11:41 27.03.2020
381 Clear 12 1024 40 10000 3.6 60 11:23 27.03.2020
382 Clear 12 1024 40 10000 3.1 70 10:55 27.03.2020
383 Clear 12 1024 40 10000 3.1 70 10:37 27.03.2020
384 Clear 11 1024 43 10000 3.6 110 10:18 27.03.2020
385 Clear 10 1024 45 10000 3.1 90 09:56 27.03.2020
386 Clear 9 1024 45 10000 3.1 90 09:37 27.03.2020
387 Clear 9 1024 49 10000 3.1 50 09:18 27.03.2020
388 Clear 8 1024 48 10000 3.1 70 08:56 27.03.2020
389 Clear 8 1024 48 10000 3.1 70 08:37 27.03.2020
390 Clouds 5 1024 52 10000 2.6 80 08:19 27.03.2020
391 Clouds 5 1024 56 10000 2.1 60 07:50 27.03.2020
392 Clouds 5 1024 52 10000 2.6 60 07:23 27.03.2020
393 Clouds 4 1024 55 10000 2.1 50 06:51 27.03.2020
394 Clouds 4 1024 55 10000 2.1 50 06:33 27.03.2020
395 Clouds 5 1024 52 10000 2.6 60 04:23 27.03.2020
396 Clouds 6 1025 48 10000 2.6 50 02:32 27.03.2020
397 Clouds 6 1025 45 10000 3.1 50 01:23 27.03.2020
398 Clouds 7 1025 45 10000 2.1 60 00:48 27.03.2020
399 Clouds 7 1025 45 10000 2.6 50 00:24 27.03.2020
400 Clouds 7 1025 42 10000 3.1 70 23:44 26.03.2020
401 Clear 8 1026 39 10000 3.6 70 23:22 26.03.2020
402 Clear 8 1026 39 10000 3.1 50 22:59 26.03.2020
403 Clear 8 1026 39 10000 3.1 50 22:38 26.03.2020
404 Clear 8 1026 39 10000 2.6 70 22:20 26.03.2020
405 Clear 8 1026 39 10000 2.6 70 22:20 26.03.2020
406 Clear 8 1026 39 10000 2.6 60 21:57 26.03.2020
407 Clear 8 1026 39 10000 2.6 60 21:38 26.03.2020
408 Clear 8 1026 42 10000 2.1 70 21:20 26.03.2020
409 Clear 8 1026 39 10000 2.6 70 20:58 26.03.2020
410 Clear 8 1026 39 10000 2.6 70 20:38 26.03.2020
411 Clear 9 1026 36 10000 4.6 90 20:20 26.03.2020
412 Clear 9 1026 39 10000 3.1 80 19:55 26.03.2020
413 Clear 9 1026 39 10000 3.1 80 19:37 26.03.2020
414 Clear 10 1026 34 10000 3.6 70 19:19 26.03.2020
415 Clear 10 1026 34 10000 4.1 80 18:55 26.03.2020
416 Clear 10 1026 34 10000 4.1 80 18:36 26.03.2020
417 Clear 10 1026 34 10000 4.6 70 18:18 26.03.2020
418 Clear 11 1026 29 10000 5.7 70 17:42 26.03.2020
419 Clear 11 1026 29 10000 5.7 80 17:19 26.03.2020
420 Clear 11 1026 32 10000 5.1 80 16:45 26.03.2020
421 Clear 11 1026 32 10000 5.1 80 16:27 26.03.2020
422 Clear 11 1026 32 10000 5.1 90 15:59 26.03.2020
423 Clear 11 1026 29 10000 5.7 100 15:40 26.03.2020
424 Clear 11 1027 29 10000 4.6 80 15:21 26.03.2020
425 Clear 11 1027 29 10000 4.6 80 14:58 26.03.2020
426 Clear 11 1027 29 10000 6.2 90 14:38 26.03.2020
427 Clear 11 1027 29 10000 4.6 80 14:19 26.03.2020
428 Clear 10 1028 29 10000 5.7 90 13:43 26.03.2020
429 Clear 10 1028 29 10000 5.7 90 13:23 26.03.2020
430 Clear 10 1028 29 10000 3.6 100 12:57 26.03.2020
431 Clear 10 1028 29 10000 3.6 100 12:38 26.03.2020
432 Clear 10 1028 34 10000 4.1 70 12:19 26.03.2020
433 Clear 9 1029 33 10000 4.1 80 11:45 26.03.2020
434 Clear 7 1029 33 10000 4.6 80 11:22 26.03.2020
435 Clear 7 1029 33 10000 3.6 60 10:56 26.03.2020
436 Clear 7 1029 33 10000 3.6 60 10:37 26.03.2020
437 Clear 6 1029 38 10000 3.6 80 10:19 26.03.2020
438 Clear 5 1029 38 10000 4.1 110 09:44 26.03.2020
439 Clear 4 1029 41 10000 4.1 100 09:20 26.03.2020
440 Clear 4 1029 44 10000 3.6 90 08:55 26.03.2020
441 Clear 4 1029 44 10000 3.6 90 08:37 26.03.2020
442 Clear 2 1029 47 10000 3.1 90 08:18 26.03.2020
443 Clear 1 1029 50 10000 3.1 80 07:44 26.03.2020
444 Clear 0 1029 87 10000 2.1 60 07:22 26.03.2020
445 Clear 0 1029 87 10000 2.6 60 06:56 26.03.2020
446 Clear 0 1029 87 10000 3.1 80 05:59 26.03.2020
447 Clear 1 1028 47 10000 3.1 70 04:49 26.03.2020
448 Clear 1 1028 47 10000 3.1 80 03:44 26.03.2020
449 Clear 1 1029 40 10000 3.1 90 02:55 26.03.2020
450 Clear 3 1029 37 10000 3.1 90 01:50 26.03.2020
451 Clear 3 1029 35 10000 4.1 100 00:53 26.03.2020
452 Clear 3 1029 35 10000 3.1 90 00:22 26.03.2020
453 Clear 4 1029 35 10000 3.1 80 23:41 25.03.2020
454 Clear 4 1030 32 10000 2.6 80 23:21 25.03.2020
455 Clear 4 1030 35 10000 3.1 80 22:42 25.03.2020
456 Clear 4 1030 35 10000 3.1 90 22:21 25.03.2020
457 Clear 4 1030 35 10000 3.1 80 21:56 25.03.2020
458 Clear 5 1030 35 10000 3.1 80 21:38 25.03.2020
459 Clear 5 1030 33 10000 4.1 90 21:20 25.03.2020
460 Clear 5 1030 33 10000 3.6 90 20:56 25.03.2020
461 Clear 5 1030 33 10000 3.6 90 20:37 25.03.2020
462 Clear 6 1030 28 10000 3.6 90 20:18 25.03.2020
463 Clear 6 1030 28 10000 4.1 80 19:43 25.03.2020
464 Clear 6 1030 28 10000 4.1 80 19:43 25.03.2020
465 Clear 7 1030 28 10000 3.6 80 19:23 25.03.2020
466 Clear 7 1029 24 10000 4.1 70 18:59 25.03.2020
467 Clear 8 1029 24 10000 4.1 70 18:40 25.03.2020
468 Clear 8 1029 24 10000 4.1 80 18:22 25.03.2020
469 Clear 9 1029 21 10000 5.1 90 17:57 25.03.2020
470 Clear 9 1029 21 10000 5.1 90 17:39 25.03.2020
471 Clear 9 1030 19 10000 6.2 100 17:21 25.03.2020
472 Clear 10 1030 21 10000 5.1 60 16:55 25.03.2020
473 Clear 10 1030 23 10000 5.7 80 16:36 25.03.2020
474 Clear 10 1030 23 10000 5.7 80 16:18 25.03.2020
475 Clear 10 1031 19 10000 6.2 100 15:41 25.03.2020
476 Clear 10 1031 23 10000 4.6 100 15:20 25.03.2020
477 Clear 10 1031 21 10000 5.1 80 14:56 25.03.2020
478 Clear 10 1031 21 10000 5.1 80 14:37 25.03.2020
479 Clouds 9 1032 23 10000 6.2 90 14:18 25.03.2020
480 Clouds 9 1032 23 10000 5.1 90 13:42 25.03.2020
481 Clouds 9 1033 24 10000 5.7 100 13:22 25.03.2020
482 Clouds 8 1033 28 10000 4.6 110 12:38 25.03.2020
483 Clouds 8 1033 28 10000 4.1 80 12:20 25.03.2020
484 Clouds 7 1034 28 10000 5.1 120 11:57 25.03.2020
485 Clouds 7 1034 28 10000 5.1 120 11:39 25.03.2020
486 Clear 6 1034 30 10000 5.7 120 11:20 25.03.2020
487 Clear 5 1034 32 10000 6.2 110 10:57 25.03.2020
488 Clear 5 1034 32 10000 6.2 110 10:39 25.03.2020
489 Clear 5 1034 32 10000 7.7 120 10:18 25.03.2020
490 Clear 4 1034 35 10000 7.2 130 09:43 25.03.2020
491 Clear 4 1035 35 10000 5.7 130 09:25 25.03.2020
492 Clear 4 1035 35 10000 5.7 130 08:58 25.03.2020
493 Clear 3 1035 37 10000 4.1 110 08:58 25.03.2020
494 Clear 3 1035 37 10000 4.1 110 08:39 25.03.2020
495 Clear 2 1035 40 10000 4.6 120 08:20 25.03.2020
496 Clear 1 1035 43 10000 2.6 90 07:44 25.03.2020
497 Clear 0 1034 83 10000 2.6 90 07:24 25.03.2020
498 Clear 0 1034 50 10000 3.1 110 06:57 25.03.2020
499 Clear -1 1034 50 10000 3.1 110 06:37 25.03.2020
500 Clear 0 1034 50 10000 3.1 100 06:19 25.03.2020
501 Clear -1 1034 50 10000 3.1 100 05:42 25.03.2020
502 Clear 0 1034 84 10000 3.1 110 04:41 25.03.2020
503 Clear 0 1034 84 10000 2.6 90 03:57 25.03.2020
504 Clear 0 1035 43 10000 3.1 80 03:30 25.03.2020
505 Clear 1 1034 43 10000 4.1 120 01:40 25.03.2020
506 Clear 1 1035 40 10000 4.1 120 00:50 25.03.2020
507 Clear 1 1035 40 10000 4.1 110 00:27 25.03.2020
508 Clear 1 1035 40 10000 4.1 120 23:55 24.03.2020
509 Clear 3 1035 37 10000 3.6 120 23:28 24.03.2020
510 Clear 3 1035 37 10000 3.6 120 22:58 24.03.2020
511 Clear 3 1035 37 10000 3.6 120 22:38 24.03.2020
512 Clear 3 1035 37 10000 3.6 120 22:38 24.03.2020
513 Clear 3 1035 37 10000 4.1 120 22:20 24.03.2020
514 Clear 3 1035 32 10000 4.1 120 21:58 24.03.2020
515 Clear 3 1035 32 10000 4.1 120 21:40 24.03.2020
516 Clear 4 1035 32 10000 4.1 120 21:19 24.03.2020
517 Clear 4 1035 35 10000 4.1 110 20:59 24.03.2020
518 Clear 4 1035 35 10000 4.1 110 20:40 24.03.2020
519 Clear 4 1035 32 10000 2.6 80 20:22 24.03.2020
520 Clear 5 1035 32 10000 3.1 80 19:48 24.03.2020
521 Clear 5 1035 30 10000 3.1 70 19:23 24.03.2020
522 Clear 6 1035 24 10000 4.1 100 18:59 24.03.2020
523 Clear 6 1035 24 10000 4.1 100 18:40 24.03.2020
524 Clear 7 1035 24 10000 4.6 100 18:20 24.03.2020
525 Clear 7 1035 22 10000 3.1 100 17:58 24.03.2020
526 Clear 7 1035 22 10000 3.1 100 17:40 24.03.2020
527 Clear 8 1035 22 10000 3.6 120 17:22 24.03.2020
528 Clear 8 1035 22 10000 4.6 140 16:57 24.03.2020
529 Clear 8 1035 22 10000 4.6 140 16:38 24.03.2020
530 Clear 8 1035 22 10000 4.1 90 16:20 24.03.2020
531 Clear 8 1036 22 10000 3.1 110 15:44 24.03.2020
532 Clear 8 1036 24 10000 4.1 130 15:25 24.03.2020
533 Clear 8 1036 24 10000 4.1 130 14:59 24.03.2020
534 Clear 8 1036 22 10000 4.1 130 14:40 24.03.2020
535 Clear 7 1036 24 10000 4.6 130 14:18 24.03.2020
536 Clear 8 1037 22 10000 4.1 140 13:42 24.03.2020
537 Clear 7 1037 26 10000 4.1 130 13:23 24.03.2020
538 Clear 7 1037 26 10000 4.1 130 13:23 24.03.2020
539 Clear 7 1038 26 10000 3.1 130 12:54 24.03.2020
540 Clear 7 1038 26 10000 3.1 130 12:36 24.03.2020
541 Clear 7 1038 28 10000 4.6 140 12:18 24.03.2020
542 Clear 6 1038 28 10000 4.6 110 11:39 24.03.2020
543 Clear 5 1038 30 10000 5.1 150 11:19 24.03.2020
544 Clear 4 1039 30 10000 3.6 140 10:43 24.03.2020
545 Clear 4 1039 30 10000 3.6 140 10:43 24.03.2020
546 Clear 4 1039 32 10000 5.1 150 10:20 24.03.2020
547 Clear 4 1039 35 10000 4.6 120 09:59 24.03.2020
548 Clear 4 1039 35 10000 4.6 120 09:40 24.03.2020
549 Clear 3 1039 37 10000 3.6 130 09:22 24.03.2020
550 Clear 2 1039 40 10000 3.1 110 08:39 24.03.2020
551 Clear 0 1039 43 10000 2.6 100 08:20 24.03.2020
552 Clear -1 1038 47 10000 2.1 90 07:48 24.03.2020
553 Clear -2 1038 54 10000 2.1 90 07:25 24.03.2020
554 Clear -3 1038 63 10000 1.5 90 06:58 24.03.2020
555 Clear -3 1038 63 10000 1.5 90 06:58 24.03.2020
556 Clear -3 1038 63 10000 1.5 90 06:32 24.03.2020
557 Clear -3 1038 63 10000 1 0 05:27 24.03.2020
558 Clear -3 1038 58 10000 1 0 04:31 24.03.2020
559 Clear -2 1037 50 10000 1.5 130 03:19 24.03.2020
560 Clear -2 1038 48 10000 2.6 110 01:50 24.03.2020
561 Clear -1 1038 47 10000 1.5 110 00:51 24.03.2020
562 Clear -1 1038 43 10000 2.1 110 00:26 24.03.2020
563 Clear -1 1038 43 10000 2.1 120 23:49 23.03.2020
564 Clear -1 1038 43 10000 2.1 110 23:29 23.03.2020
565 Clear 0 1038 47 10000 1.5 80 22:59 23.03.2020
566 Clear 0 1038 47 10000 1.5 80 22:40 23.03.2020
567 Clear 0 1038 43 10000 2.1 70 22:22 23.03.2020
568 Clear 0 1038 43 10000 1.5 60 21:44 23.03.2020
569 Clear 1 1038 40 10000 1.5 50 21:21 23.03.2020
570 Clear 1 1038 40 10000 1.5 50 21:00 23.03.2020
571 Clear 2 1038 37 10000 1.5 100 20:41 23.03.2020
572 Clear 2 1038 37 10000 1.5 110 20:23 23.03.2020
573 Clear 2 1038 37 10000 1.5 110 19:55 23.03.2020
574 Clear 2 1038 35 10000 2.6 100 19:55 23.03.2020
575 Clear 3 1038 35 10000 2.6 100 19:55 23.03.2020
576 Clear 3 1038 35 10000 2.6 100 19:37 23.03.2020
577 Clear 3 1038 35 10000 2.1 80 19:18 23.03.2020
578 Clear 4 1037 32 10000 3.6 80 18:43 23.03.2020
579 Clear 4 1037 30 10000 3.6 80 18:24 23.03.2020
580 Clear 4 1037 30 10000 3.6 80 18:24 23.03.2020
581 Clear 5 1037 28 10000 3.1 70 17:59 23.03.2020
582 Clear 5 1037 28 10000 3.1 70 17:40 23.03.2020
583 Clear 6 1037 28 10000 3.6 60 17:19 23.03.2020
584 Clear 6 1037 28 10000 4.1 60 16:43 23.03.2020
585 Clear 7 1038 26 10000 4.1 80 16:25 23.03.2020
586 Clear 7 1038 26 10000 4.1 80 16:25 23.03.2020
587 Clear 6 1038 30 10000 4.1 100 15:54 23.03.2020
588 Clear 6 1038 30 10000 4.1 100 15:36 23.03.2020
589 Clear 7 1038 26 10000 4.1 100 15:18 23.03.2020
590 Clear 6 1039 26 10000 4.1 70 14:37 23.03.2020
591 Clear 6 1039 26 10000 4.1 70 14:37 23.03.2020
592 Clear 6 1039 30 10000 4.1 90 14:19 23.03.2020
593 Clear 6 1039 28 10000 2.6 0 13:57 23.03.2020
594 Clear 6 1039 28 10000 2.6 0 13:38 23.03.2020
595 Clear 6 1039 27 10000 4.1 110 13:20 23.03.2020
596 Clear 6 1040 30 10000 4.1 110 12:43 23.03.2020
597 Clear 6 1040 30 10000 4.1 100 12:23 23.03.2020
598 Clear 5 1040 32 10000 4.6 100 11:56 23.03.2020
599 Clear 5 1040 32 10000 4.6 100 11:37 23.03.2020
600 Clear 5 1040 29 10000 4.1 100 11:19 23.03.2020
601 Clear 4 1041 32 10000 3.6 90 10:56 23.03.2020
602 Clear 4 1041 32 10000 3.6 90 10:36 23.03.2020
603 Clear 4 1041 37 10000 3.1 110 10:18 23.03.2020
604 Clear 3 1041 40 10000 1.5 0 09:42 23.03.2020
605 Clear 2 1041 43 10000 1.5 70 09:20 23.03.2020
606 Clear 0 1041 47 10000 2.1 80 08:40 23.03.2020
607 Clear -1 1041 54 10000 2.6 100 08:20 23.03.2020
608 Clear -1 1041 54 10000 2.1 80 07:58 23.03.2020
609 Clear -2 1041 54 10000 2.1 80 07:37 23.03.2020
610 Clear -3 1040 58 10000 2.1 60 07:18 23.03.2020
611 Clear -4 1040 58 10000 1.5 60 06:48 23.03.2020
612 Clear -3 1040 58 10000 1.5 60 05:45 23.03.2020
613 Clear -3 1040 54 10000 1.5 60 04:41 23.03.2020
614 Clear -2 1040 50 10000 2.1 70 03:23 23.03.2020
615 Clear -2 1040 50 10000 2.1 60 01:50 23.03.2020
616 Clear -2 1040 44 10000 2.6 60 00:52 23.03.2020
617 Clear -2 1040 44 10000 2.6 60 00:33 23.03.2020
618 Clear -1 1039 44 10000 2.1 70 23:46 22.03.2020
619 Clear -1 1039 43 10000 1.5 70 23:25 22.03.2020
620 Clear -1 1039 43 10000 2.1 80 22:45 22.03.2020
621 Clear -1 1039 40 10000 2.1 80 22:23 22.03.2020
622 Clear 0 1038 37 10000 2.1 50 21:55 22.03.2020
623 Clear 0 1038 37 10000 2.1 50 21:37 22.03.2020
624 Clear 1 1038 40 10000 2.6 80 21:19 22.03.2020
625 Clear 1 1038 40 10000 1.5 70 20:46 22.03.2020
626 Clear 1 1038 34 10000 1.5 60 20:25 22.03.2020
627 Clear 2 1038 34 10000 1.5 60 19:58 22.03.2020
628 Clear 2 1038 34 10000 2.1 70 19:40 22.03.2020
629 Clear 3 1037 32 10000 2.6 70 19:20 22.03.2020
630 Clear 3 1037 29 10000 3.1 70 18:59 22.03.2020
631 Clear 4 1037 29 10000 3.1 70 18:41 22.03.2020
632 Clear 4 1037 25 10000 4.6 80 18:22 22.03.2020
633 Clear 5 1037 25 10000 4.6 80 17:59 22.03.2020
634 Clear 5 1036 27 10000 3.6 80 17:39 22.03.2020
635 Clear 5 1036 24 10000 4.6 50 17:21 22.03.2020
636 Clear 6 1036 26 10000 4.1 80 16:58 22.03.2020
637 Clear 6 1036 26 10000 4.1 80 16:40 22.03.2020
638 Clear 6 1036 26 10000 5.1 40 16:21 22.03.2020
639 Clear 6 1036 26 10000 4.1 50 15:57 22.03.2020
640 Clear 6 1036 26 10000 4.1 50 15:39 22.03.2020
641 Clear 6 1037 30 10000 4.1 50 14:47 22.03.2020
642 Clear 6 1037 33 10000 4.6 50 14:19 22.03.2020
643 Clear 6 1037 33 10000 5.1 60 13:57 22.03.2020
644 Clear 6 1037 33 10000 5.1 60 13:39 22.03.2020
645 Clear 6 1037 38 10000 5.7 90 13:19 22.03.2020
646 Clouds 6 1037 38 10000 5.1 80 12:44 22.03.2020
647 Clouds 6 1037 41 10000 5.7 60 12:20 22.03.2020
648 Clouds 5 1037 44 10000 5.7 70 11:57 22.03.2020
649 Clouds 6 1037 44 10000 5.7 70 11:39 22.03.2020
650 Clouds 5 1037 44 10000 5.1 60 11:20 22.03.2020
651 Clouds 4 1036 48 10000 5.7 80 10:43 22.03.2020
652 Clouds 4 1036 51 10000 6.2 80 10:24 22.03.2020
653 Clouds 4 1036 55 10000 5.1 50 09:54 22.03.2020
654 Clouds 3 1036 55 10000 5.1 50 09:36 22.03.2020
655 Clouds 3 1036 64 10000 3.6 50 09:18 22.03.2020
656 Clouds 2 1036 59 10000 2.6 40 08:41 22.03.2020
657 Clear 1 1036 64 10000 2.6 40 08:21 22.03.2020
658 Clear 0 1036 57 10000 2.1 20 07:50 22.03.2020
659 Clear -1 1036 74 10000 1.5 20 07:19 22.03.2020
660 Clear -2 1035 74 10000 2.1 40 05:56 22.03.2020
661 Clear -2 1035 74 10000 2.1 40 05:21 22.03.2020
662 Clear -1 1034 74 10000 2.1 20 02:58 22.03.2020
663 Clear 0 1034 55 10000 3.6 40 01:22 22.03.2020
664 Clear 0 1034 55 10000 3.6 40 01:22 22.03.2020
665 Clear 0 1034 63 10000 2.6 50 00:41 22.03.2020
666 Clear 0 1034 59 10000 2.6 50 00:23 22.03.2020
667 Clear 1 1034 64 10000 3.1 50 23:41 21.03.2020
668 Clear 1 1034 64 10000 3.1 60 23:19 21.03.2020
669 Clear 1 1033 59 10000 3.6 50 22:39 21.03.2020
670 Clear 2 1033 59 10000 3.6 40 22:21 21.03.2020
671 Clear 2 1033 59 10000 3.6 30 21:59 21.03.2020
672 Clear 2 1033 59 10000 3.6 30 21:41 21.03.2020
673 Clear 2 1033 55 10000 3.1 30 21:22 21.03.2020
674 Clear 2 1033 55 10000 3.1 30 21:22 21.03.2020
675 Clear 3 1032 51 10000 4.1 40 20:56 21.03.2020
676 Clear 3 1032 51 10000 4.1 40 20:38 21.03.2020
677 Clear 3 1032 44 10000 4.1 40 20:19 21.03.2020
678 Clear 4 1032 44 10000 4.1 40 19:43 21.03.2020
679 Clear 4 1031 41 10000 4.1 40 19:25 21.03.2020
680 Clear 4 1031 41 10000 4.1 40 19:25 21.03.2020
681 Clear 4 1031 38 10000 4.6 40 18:55 21.03.2020
682 Clear 5 1031 38 10000 4.6 40 18:37 21.03.2020
683 Clear 5 1031 38 10000 4.6 80 18:19 21.03.2020
684 Clear 6 1031 38 10000 5.1 60 17:55 21.03.2020
685 Clear 6 1031 36 10000 5.1 40 17:37 21.03.2020
686 Clear 6 1031 36 10000 5.1 40 17:18 21.03.2020
687 Clear 6 1031 36 10000 5.1 40 17:18 21.03.2020
688 Clear 7 1031 36 10000 4.1 60 16:41 21.03.2020
689 Clear 7 1030 33 10000 5.7 40 16:20 21.03.2020
690 Clear 7 1030 33 10000 5.7 40 16:20 21.03.2020
691 Clear 7 1031 36 10000 5.1 50 15:56 21.03.2020
692 Clear 7 1031 36 10000 5.1 50 15:37 21.03.2020
693 Clear 7 1031 36 10000 5.7 60 15:19 21.03.2020
694 Clear 7 1031 38 10000 6.7 30 14:54 21.03.2020
695 Clear 7 1031 38 10000 6.7 30 14:36 21.03.2020
696 Clouds 7 1031 42 10000 5.1 70 14:18 21.03.2020
697 Clouds 7 1031 45 10000 6.7 40 13:57 21.03.2020
698 Clouds 7 1031 45 10000 6.7 40 13:38 21.03.2020
699 Clear 7 1031 41 10000 6.2 60 13:19 21.03.2020
700 Clear 7 1031 45 10000 6.2 40 12:40 21.03.2020
701 Clouds 7 1031 41 10000 6.2 50 12:20 21.03.2020
702 Clouds 7 1031 45 10000 6.7 60 11:59 21.03.2020
703 Clouds 6 1031 45 10000 6.7 60 11:39 21.03.2020
704 Clouds 6 1031 52 10000 6.2 60 11:19 21.03.2020
705 Clouds 6 1031 52 10000 6.2 60 11:19 21.03.2020
706 Clouds 5 1031 60 10000 5.1 50 10:58 21.03.2020
707 Clouds 5 1031 60 10000 5.1 50 10:39 21.03.2020
708 Clouds 5 1031 60 10000 6.7 60 10:21 21.03.2020
709 Clouds 4 1031 64 10000 6.7 50 09:58 21.03.2020
710 Clouds 4 1031 64 10000 6.7 50 09:39 21.03.2020
711 Clouds 4 1031 69 10000 5.1 60 09:20 21.03.2020
712 Clouds 4 1030 69 10000 5.7 50 08:55 21.03.2020
713 Clouds 4 1030 69 10000 5.7 50 08:37 21.03.2020
714 Clouds 3 1030 74 10000 5.1 40 08:18 21.03.2020
715 Clouds 2 1030 74 0 4.1 40 07:37 21.03.2020
716 Clouds 2 1030 74 10000 2.6 50 07:18 21.03.2020
717 Clouds 2 1030 74 10000 2.6 50 06:42 21.03.2020
718 Clouds 2 1029 74 10000 4.1 40 06:23 21.03.2020
719 Clouds 2 1029 74 10000 3.6 40 05:39 21.03.2020
720 Clouds 4 1028 80 10000 3.6 40 03:49 21.03.2020
721 Clouds 4 1028 75 10000 3.1 30 02:37 21.03.2020
722 Clouds 5 1028 75 10000 3.1 30 01:44 21.03.2020
723 Clouds 5 1028 80 10000 3.1 30 01:23 21.03.2020
724 Clouds 5 1027 80 10000 3.1 30 00:39 21.03.2020
725 Clouds 6 1027 75 10000 4.1 30 00:21 21.03.2020
726 Clouds 6 1027 75 10000 4.1 30 23:43 20.03.2020
727 Clouds 6 1027 75 10000 4.1 30 23:22 20.03.2020
728 Clouds 6 1027 81 10000 3.6 10 22:44 20.03.2020
729 Clouds 6 1027 75 10000 3.6 360 22:25 20.03.2020
730 Clouds 6 1027 75 10000 3.6 360 21:58 20.03.2020
731 Clouds 7 1026 70 10000 3.6 10 21:40 20.03.2020
732 Clouds 7 1026 70 10000 3.6 10 21:20 20.03.2020
733 Clouds 7 1026 61 10000 3.6 360 20:59 20.03.2020
734 Clouds 7 1026 61 10000 3.6 360 20:41 20.03.2020
735 Clouds 7 1026 65 10000 2.1 360 20:20 20.03.2020
736 Clouds 7 1026 65 10000 2.6 360 19:48 20.03.2020
737 Clouds 7 1026 65 10000 2.6 360 19:22 20.03.2020
738 Clouds 7 1026 65 10000 2.6 360 19:22 20.03.2020
739 Clouds 8 1025 52 10000 1.5 50 18:59 20.03.2020
740 Clouds 8 1025 57 10000 3.6 10 18:39 20.03.2020
741 Clouds 8 1025 57 10000 1.5 20 18:20 20.03.2020
742 Clouds 9 1025 45 10000 3.1 30 17:56 20.03.2020
743 Clouds 9 1025 45 10000 3.1 30 17:38 20.03.2020
744 Rain 9 1025 49 10000 5.1 10 17:19 20.03.2020
745 Rain 9 1025 49 10000 5.1 10 17:19 20.03.2020
746 Clouds 10 1025 43 10000 4.1 360 16:43 20.03.2020
747 Clouds 10 1025 53 10000 3.1 350 16:21 20.03.2020
748 Clouds 10 1025 57 10000 3.1 360 15:59 20.03.2020
749 Clouds 10 1025 57 10000 3.1 360 15:41 20.03.2020
750 Clouds 10 1025 57 10000 3.1 340 15:20 20.03.2020
751 Clouds 9 1025 61 10000 3.1 360 14:42 20.03.2020
752 Clouds 9 1025 66 10000 2.1 10 14:21 20.03.2020
753 Clouds 9 1025 66 10000 2.1 10 13:55 20.03.2020
754 Clouds 9 1025 66 10000 2.1 10 13:37 20.03.2020
755 Clouds 9 1025 66 10000 2.6 40 13:19 20.03.2020
756 Clouds 9 1025 70 10000 2.6 10 12:39 20.03.2020
757 Clouds 9 1025 66 10000 2.1 0 12:20 20.03.2020
758 Clouds 9 1025 66 10000 2.1 0 12:20 20.03.2020
759 Clouds 9 1026 66 10000 2.1 20 11:56 20.03.2020
760 Clouds 9 1026 65 10000 2.1 40 11:38 20.03.2020
761 Rain 8 1026 65 10000 2.1 40 11:18 20.03.2020
762 Clouds 8 1026 70 10000 2.1 30 10:41 20.03.2020
763 Rain 8 1025 65 10000 1 0 10:21 20.03.2020
764 Rain 8 1025 65 10000 3.1 40 09:56 20.03.2020
765 Rain 8 1025 65 10000 3.1 40 09:37 20.03.2020
766 Clouds 8 1026 65 10000 2.1 30 09:18 20.03.2020
767 Clouds 8 1026 70 10000 2.6 50 08:42 20.03.2020
768 Rain 7 1025 70 10000 3.1 80 08:22 20.03.2020
769 Clouds 7 1025 75 10000 2.1 60 07:51 20.03.2020
770 Clouds 7 1025 75 10000 2.1 60 07:33 20.03.2020
771 Clouds 7 1025 81 10000 1.5 60 06:58 20.03.2020
772 Rain 7 1025 81 10000 1.5 60 06:40 20.03.2020
773 Clouds 7 1025 87 10000 2.1 40 04:51 20.03.2020
774 Clouds 7 1025 81 10000 2.1 40 03:22 20.03.2020
775 Clouds 8 1026 81 10000 1.5 40 01:58 20.03.2020
776 Clouds 8 1026 81 10000 2.1 50 00:59 20.03.2020
777 Clouds 8 1025 81 10000 1.5 50 00:31 20.03.2020
778 Clouds 8 1025 81 10000 1.5 50 23:49 19.03.2020
779 Clouds 8 1026 81 10000 1.5 30 23:30 19.03.2020
780 Clouds 8 1026 81 10000 1.5 50 22:57 19.03.2020
781 Clouds 8 1026 81 10000 1.5 50 22:38 19.03.2020
782 Clouds 8 1026 76 10000 2.1 30 22:20 19.03.2020
783 Clouds 8 1026 76 10000 2.1 30 21:56 19.03.2020
784 Clouds 8 1026 76 10000 1.5 90 21:37 19.03.2020
785 Clouds 9 1026 76 10000 1.5 60 21:18 19.03.2020
786 Clouds 9 1026 76 10000 2.1 80 20:42 19.03.2020
787 Clouds 9 1026 76 10000 2.6 60 20:23 19.03.2020
788 Clouds 9 1026 81 10000 3.6 40 19:57 19.03.2020
789 Clouds 9 1026 81 10000 3.6 40 19:38 19.03.2020
790 Clouds 10 1026 76 10000 3.6 40 19:20 19.03.2020
791 Clouds 10 1025 76 10000 3.1 10 18:56 19.03.2020
792 Clouds 10 1025 76 10000 3.1 10 18:38 19.03.2020
793 Clouds 11 1025 76 10000 3.6 30 18:19 19.03.2020
794 Clouds 12 1025 76 10000 3.1 30 17:42 19.03.2020
795 Clouds 12 1025 71 10000 3.1 350 17:20 19.03.2020
796 Clouds 13 1025 71 10000 3.1 350 16:57 19.03.2020
797 Clouds 13 1025 71 10000 3.1 350 16:39 19.03.2020
798 -273 0 0 0 0 0 16:21 19.03.2020
799 Clouds 13 1025 71 10000 3.6 340 15:42 19.03.2020
800 Clouds 14 1025 71 10000 3.6 340 15:23 19.03.2020
801 Clouds 13 1025 67 10000 3.1 360 14:43 19.03.2020
802 Clouds 13 1025 71 10000 3.1 340 14:22 19.03.2020
803 Clouds 13 1024 62 10000 4.1 320 13:57 19.03.2020
804 Clouds 14 1025 71 10000 3.6 350 13:37 19.03.2020
805 Clouds 14 1025 67 10000 3.1 330 13:18 19.03.2020
806 Clouds 14 1025 67 10000 3.6 330 12:41 19.03.2020
807 Clouds 14 1025 71 10000 4.1 310 12:22 19.03.2020
808 Clouds 14 1025 71 10000 4.1 290 11:58 19.03.2020
809 Clouds 14 1025 67 10000 3.6 290 11:40 19.03.2020
810 Clouds 14 1025 67 10000 3.6 290 11:22 19.03.2020
811 Clouds 13 1025 71 10000 4.1 290 10:42 19.03.2020
812 Clouds 13 1024 66 10000 3.6 270 10:21 19.03.2020
813 Clouds 12 1024 66 10000 3.6 270 09:58 19.03.2020
814 Clouds 12 1024 66 10000 3.1 260 09:38 19.03.2020
815 Clouds 11 1024 66 10000 3.1 250 09:19 19.03.2020
816 Clouds 10 1024 71 10000 2.1 240 08:46 19.03.2020
817 Clouds 10 1024 71 10000 2.1 260 08:22 19.03.2020
818 Clouds 10 1023 71 10000 3.1 240 07:47 19.03.2020
819 Clouds 10 1023 71 10000 3.1 240 07:29 19.03.2020
820 Clouds 10 1023 76 10000 2.6 250 06:51 19.03.2020
821 Clouds 9 1023 76 10000 2.1 260 05:53 19.03.2020
822 Clouds 10 1023 76 10000 2.1 250 05:22 19.03.2020
823 Clouds 10 1023 71 10000 3.1 250 04:41 19.03.2020
824 Clouds 10 1023 66 10000 3.6 250 03:39 19.03.2020
825 Clouds 9 1023 71 10000 3.1 240 01:45 19.03.2020
826 Clouds 9 1023 71 10000 3.1 250 00:38 19.03.2020
827 Clouds 9 1023 71 10000 3.6 250 00:18 19.03.2020
828 Clouds 9 1023 71 10000 3.1 250 23:41 18.03.2020
829 Clouds 9 1023 66 10000 2.1 240 23:21 18.03.2020
830 Clouds 10 1024 66 10000 2.6 260 22:42 18.03.2020
831 Clouds 10 1024 66 10000 2.1 200 22:22 18.03.2020
832 Clouds 10 1024 66 10000 1.5 230 21:55 18.03.2020
833 Clouds 10 1024 66 10000 1.5 230 21:37 18.03.2020
834 Clouds 10 1024 66 10000 2.1 230 21:19 18.03.2020
835 Clouds 10 1024 62 10000 2.6 210 20:55 18.03.2020
836 Clouds 10 1024 62 10000 2.6 210 20:37 18.03.2020
837 Clouds 11 1024 62 10000 1.5 230 20:18 18.03.2020
838 Clouds 12 1024 58 10000 1.5 260 19:40 18.03.2020
839 Clouds 12 1024 58 10000 2.1 270 19:21 18.03.2020
840 Clouds 13 1024 50 10000 3.1 280 18:57 18.03.2020
841 Clouds 14 1024 50 10000 3.1 280 18:38 18.03.2020
842 Clouds 15 1023 47 10000 4.6 270 18:19 18.03.2020
843 Clouds 16 1023 38 10000 4.6 250 17:55 18.03.2020
844 Clouds 16 1023 38 10000 4.6 250 17:37 18.03.2020
845 Clouds 16 1023 38 10000 6.2 240 17:18 18.03.2020
846 Clouds 17 1023 38 10000 7.2 250 16:42 18.03.2020
847 Clouds 17 1023 33 10000 8.2 250 16:20 18.03.2020
848 Clouds 17 1023 33 10000 8.2 250 16:20 18.03.2020
849 Clouds 17 1024 33 10000 7.2 240 15:57 18.03.2020
850 Clouds 18 1024 33 10000 7.2 240 15:38 18.03.2020
851 Clouds 17 1024 42 10000 7.7 250 15:20 18.03.2020
852 Clouds 17 1024 29 10000 7.2 260 14:42 18.03.2020
853 Clouds 17 1024 27 10000 7.7 250 14:21 18.03.2020
854 Clouds 17 1024 25 10000 6.7 230 13:42 18.03.2020
855 Clouds 17 1025 23 10000 8.2 230 13:19 18.03.2020
856 Clouds 17 1025 26 10000 7.7 230 12:55 18.03.2020
857 Clouds 16 1025 26 10000 7.7 230 12:37 18.03.2020
858 Clouds 16 1025 26 10000 7.7 230 12:19 18.03.2020
859 Clouds 16 1025 31 10000 6.7 240 11:38 18.03.2020
860 Clouds 15 1026 33 10000 7.2 240 11:19 18.03.2020
861 Clouds 14 1026 57 10000 7.2 240 10:57 18.03.2020
862 Clouds 14 1026 57 10000 7.2 240 10:37 18.03.2020
863 Clouds 13 1026 47 10000 5.7 240 10:19 18.03.2020
864 Clouds 12 1026 47 10000 5.1 230 09:43 18.03.2020
865 Clouds 11 1026 53 10000 3.6 230 09:24 18.03.2020
866 Clouds 10 1026 61 10000 2.6 210 08:56 18.03.2020
867 Clouds 9 1026 61 10000 2.6 210 08:38 18.03.2020
868 Clouds 9 1026 61 10000 2.6 210 08:38 18.03.2020
869 Clouds 8 1026 75 10000 2.1 200 08:20 18.03.2020
870 Clouds 7 1026 81 10000 2.1 210 07:44 18.03.2020
871 Clouds 7 1026 81 10000 1.5 180 07:25 18.03.2020
872 Clouds 6 1026 81 10000 1.5 190 06:44 18.03.2020
873 Clouds 6 1026 81 10000 1 170 06:20 18.03.2020
874 Clouds 6 1026 75 10000 1.5 170 05:34 18.03.2020
875 Clouds 6 1027 65 10000 1 170 04:24 18.03.2020
876 Clouds 7 1027 65 10000 0.5 0 02:44 18.03.2020
877 Clouds 8 1027 61 10000 1 190 01:48 18.03.2020
878 Clouds 8 1027 61 10000 1.5 180 01:26 18.03.2020
879 Clouds 9 1028 61 10000 1 0 00:24 18.03.2020
880 Clouds 9 1028 57 10000 1.5 260 23:49 17.03.2020
881 Clouds 9 1028 61 10000 1.5 240 23:27 17.03.2020
882 Clouds 9 1028 57 10000 1 0 22:59 17.03.2020
883 Clouds 9 1028 57 10000 1 0 22:40 17.03.2020
884 Clouds 9 1028 57 10000 1 230 22:22 17.03.2020
885 Clouds 9 1028 57 10000 1.5 250 21:40 17.03.2020
886 Clouds 9 1028 61 10000 1 280 21:21 17.03.2020
887 Clouds 9 1028 57 10000 1 250 20:41 17.03.2020
888 Clouds 10 1028 57 10000 1 260 20:23 17.03.2020
889 Clouds 10 1028 53 10000 1.5 290 19:59 17.03.2020
890 Clouds 10 1028 53 10000 1.5 290 19:40 17.03.2020
891 Clouds 11 1027 46 10000 2.1 300 19:18 17.03.2020
892 Clouds 12 1027 51 10000 3.1 300 18:56 17.03.2020
893 Clouds 12 1027 51 10000 3.1 300 18:38 17.03.2020
894 Clouds 13 1027 51 10000 3.6 290 18:20 17.03.2020
895 Clouds 14 1027 38 10000 3.1 280 17:41 17.03.2020
896 Clouds 14 1026 38 10000 4.1 280 17:41 17.03.2020
897 Clouds 15 1026 38 10000 4.1 280 17:22 17.03.2020
898 Clouds 15 1027 41 10000 5.1 250 16:56 17.03.2020
899 Clouds 15 1027 41 10000 5.1 250 16:38 17.03.2020
900 Clouds 15 1027 41 10000 4.6 260 16:18 17.03.2020
901 Clouds 16 1027 41 10000 5.7 280 15:44 17.03.2020
902 Clouds 16 1027 51 10000 4.6 260 15:22 17.03.2020
903 Clouds 15 1027 44 10000 5.1 290 14:44 17.03.2020
904 Clouds 15 1027 50 10000 6.7 260 14:24 17.03.2020
905 Clouds 15 1027 50 10000 6.7 260 13:57 17.03.2020
906 Clouds 15 1027 58 10000 3.6 280 13:39 17.03.2020
907 Clouds 15 1027 62 10000 4.1 300 13:20 17.03.2020
908 Clouds 14 1027 62 10000 5.7 260 12:43 17.03.2020
909 Clouds 14 1027 62 10000 4.1 270 12:24 17.03.2020
910 Clouds 13 1027 66 10000 3.6 290 11:48 17.03.2020
911 Clouds 12 1027 66 10000 3.6 250 11:29 17.03.2020
912 Clouds 11 1027 71 10000 2.6 240 10:58 17.03.2020
913 Clouds 11 1027 71 10000 2.6 240 10:40 17.03.2020
914 Clouds 10 1027 76 10000 2.6 220 10:22 17.03.2020
915 Clouds 9 1027 76 10000 2.6 220 09:59 17.03.2020
916 Clouds 9 1027 76 10000 1.5 210 09:41 17.03.2020
917 Clouds 8 1026 81 10000 1 0 09:20 17.03.2020
918 Clouds 8 1026 81 10000 1 0 09:20 17.03.2020
919 Clouds 7 1026 87 10000 0.5 0 08:50 17.03.2020
920 Clouds 6 1026 87 10000 1 0 08:24 17.03.2020
921 Clear 6 1026 87 10000 1 0 07:58 17.03.2020
922 Clear 5 1026 87 10000 1 150 07:39 17.03.2020
923 Clear 5 1025 93 10000 1 0 07:19 17.03.2020
924 Clear 5 1025 93 10000 0.5 0 06:40 17.03.2020
925 Clear 5 1025 93 10000 0.5 0 06:19 17.03.2020
926 Clear 5 1025 93 10000 0.5 0 06:19 17.03.2020
927 Clear 4 1025 100 10000 1 60 04:51 17.03.2020
928 Clear 5 1025 100 10000 0.5 0 03:26 17.03.2020
929 Clear 6 1024 100 10000 0.5 0 01:49 17.03.2020
930 Clear 6 1024 93 10000 1 360 01:29 17.03.2020
931 Clear 6 1024 93 10000 0.5 0 00:50 17.03.2020
932 Clear 7 1024 87 10000 0.59 269 23:52 16.03.2020
933 Clear 8 1024 81 10000 0.5 50 23:34 16.03.2020
934 Clear 8 1024 76 10000 1 0 22:55 16.03.2020
935 Clear 8 1024 76 10000 1 0 22:36 16.03.2020
936 Clear 8 1023 76 10000 1.5 350 22:18 16.03.2020
937 Clear 8 1023 76 10000 2.1 340 21:41 16.03.2020
938 Clear 9 1023 81 10000 1 340 21:23 16.03.2020
939 Clear 8 1023 81 10000 1 340 20:58 16.03.2020
940 Clear 9 1022 76 10000 1 280 20:38 16.03.2020
941 Clear 9 1022 76 10000 1 280 20:38 16.03.2020
942 Clouds 10 1022 71 10000 0.5 0 20:20 16.03.2020
943 Clouds 10 1021 62 10000 0.5 0 19:44 16.03.2020
944 Clouds 11 1021 62 10000 1 260 19:23 16.03.2020
945 Clouds 12 1021 54 10000 1.5 300 18:57 16.03.2020
946 Clouds 13 1021 54 10000 1.5 300 18:38 16.03.2020
947 Clouds 14 1020 51 10000 2.6 310 18:18 16.03.2020
948 Clouds 15 1020 44 10000 3.1 280 17:45 16.03.2020
949 Clouds 16 1020 44 10000 3.1 290 17:24 16.03.2020
950 Clouds 16 1019 44 10000 5.7 250 16:54 16.03.2020
951 Clouds 16 1019 44 10000 5.7 250 16:36 16.03.2020
952 Clouds 17 1019 42 10000 5.7 250 16:18 16.03.2020
953 Clouds 17 1019 42 10000 5.1 260 15:42 16.03.2020
954 Clouds 16 1019 44 10000 5.1 260 15:22 16.03.2020
955 Clouds 17 1019 39 10000 5.1 280 14:45 16.03.2020
956 Clouds 16 1019 41 10000 5.7 270 14:20 16.03.2020
957 Clouds 16 1019 41 10000 4.1 250 13:45 16.03.2020
958 Clouds 16 1018 38 10000 3.1 250 13:26 16.03.2020
959 Clouds 15 1018 38 10000 3.1 250 12:57 16.03.2020
960 Clouds 15 1018 38 10000 3.1 210 12:38 16.03.2020
961 Clouds 15 1018 41 10000 3.6 240 12:19 16.03.2020
962 Clouds 14 1018 49 10000 3.6 240 11:42 16.03.2020
963 Clouds 12 1018 51 10000 2.6 180 11:23 16.03.2020
964 Clouds 11 1018 43 10000 3.1 170 10:43 16.03.2020
965 Clouds 10 1018 46 10000 2.6 190 10:24 16.03.2020
966 Clouds 9 1018 49 10000 3.1 190 09:49 16.03.2020
967 Clouds 8 1017 48 10000 3.6 180 09:30 16.03.2020
968 Clouds 7 1017 52 10000 3.6 180 08:59 16.03.2020
969 Clouds 6 1017 52 10000 3.6 180 08:39 16.03.2020
970 Clouds 5 1017 52 10000 3.1 190 08:20 16.03.2020
971 Clouds 3 1017 55 10000 2.6 190 07:41 16.03.2020
972 Clouds 3 1016 55 10000 2.1 190 07:18 16.03.2020
973 Clouds 3 1016 51 10000 2.6 180 06:28 16.03.2020
974 Clouds 3 1016 51 10000 3.1 180 05:55 16.03.2020
975 Clouds 4 1016 48 10000 2.6 170 04:21 16.03.2020
976 Clouds 5 1016 48 10000 3.6 170 01:46 16.03.2020
977 Clouds 5 1016 45 10000 4.1 170 00:45 16.03.2020
978 Clouds 5 1016 45 10000 3.1 170 00:26 16.03.2020
979 Clouds 6 1016 45 10000 3.1 170 23:40 15.03.2020
980 Clouds 6 1016 45 10000 3.6 160 23:19 15.03.2020
981 Clouds 6 1016 42 10000 4.6 160 22:42 15.03.2020
982 Clouds 6 1016 42 10000 4.6 160 22:21 15.03.2020
983 Clouds 7 1016 42 10000 4.1 160 21:39 15.03.2020
984 Clouds 7 1016 36 10000 4.1 160 21:21 15.03.2020
985 Clouds 7 1016 36 10000 4.1 160 20:58 15.03.2020
986 Clouds 7 1016 36 10000 4.1 150 20:40 15.03.2020
987 Clouds 7 1016 34 10000 5.1 160 20:19 15.03.2020
988 Clouds 8 1016 34 10000 5.1 160 19:55 15.03.2020
989 Clouds 8 1017 34 10000 5.1 160 19:37 15.03.2020
990 Clouds 8 1017 31 10000 4.6 160 19:18 15.03.2020
991 Clouds 9 1017 27 10000 5.1 160 18:42 15.03.2020
992 Clouds 9 1017 27 10000 6.2 170 18:24 15.03.2020
993 Clouds 10 1017 27 10000 6.2 170 17:59 15.03.2020
994 Clouds 10 1017 23 10000 6.7 170 17:39 15.03.2020
995 Clouds 11 1017 23 10000 7.7 170 17:20 15.03.2020
996 Clouds 11 1017 23 10000 7.2 160 16:55 15.03.2020
997 Clouds 11 1017 23 10000 7.2 160 16:37 15.03.2020
998 Clouds 12 1018 25 10000 8.2 160 16:18 15.03.2020
999 Clouds 12 1018 25 10000 8.2 170 15:42 15.03.2020
1000 Clouds 12 1018 25 10000 8.2 170 15:22 15.03.2020
1001 Clouds 12 1019 27 10000 8.7 170 14:47 15.03.2020
1002 Clouds 12 1019 27 10000 8.7 170 14:28 15.03.2020
1003 Clouds 12 1019 37 10000 8.2 170 13:59 15.03.2020
1004 Clouds 12 1019 40 10000 8.2 170 13:40 15.03.2020
1005 Clouds 12 1020 43 10000 8.7 170 13:21 15.03.2020
1006 Clouds 12 1020 43 10000 8.7 170 12:58 15.03.2020
1007 Clouds 12 1021 43 10000 6.7 180 12:38 15.03.2020
1008 Clouds 11 1021 43 10000 8.7 180 12:20 15.03.2020
1009 Clouds 11 1021 43 10000 8.2 180 11:42 15.03.2020
1010 Clouds 9 1021 45 10000 7.7 180 11:22 15.03.2020
1011 Clouds 9 1022 45 10000 6.7 170 10:57 15.03.2020
1012 Clouds 8 1022 45 10000 6.7 170 10:38 15.03.2020
1013 Clouds 8 1022 48 10000 6.7 170 10:20 15.03.2020
1014 Clouds 7 1022 48 10000 6.2 160 09:42 15.03.2020
1015 Clouds 5 1022 51 10000 6.2 170 09:22 15.03.2020
1016 Clouds 5 1022 51 10000 6.2 170 08:58 15.03.2020
1017 Clouds 3 1022 55 10000 6.2 160 08:39 15.03.2020
1018 Clouds 2 1022 59 10000 5.1 160 08:18 15.03.2020
1019 Clouds 1 1022 64 10000 4.6 150 07:44 15.03.2020
1020 Clouds 0 1023 58 10000 4.1 150 06:59 15.03.2020
1021 Clouds 0 1023 58 10000 4.1 150 06:35 15.03.2020
1022 Clouds 0 1023 58 10000 3.6 150 05:46 15.03.2020
1023 Clear 0 1023 59 10000 4.1 150 04:50 15.03.2020
1024 Clear 0 1023 59 10000 4.1 150 04:32 15.03.2020
1025 Clear 0 1024 59 10000 4.1 150 03:59 15.03.2020
1026 Clear 1 1024 55 10000 4.1 150 02:48 15.03.2020
1027 Clear 1 1024 55 10000 4.1 150 01:56 15.03.2020
1028 Clear 1 1025 51 10000 3.1 150 00:57 15.03.2020
1029 Clear 1 1025 51 10000 3.1 150 00:38 15.03.2020
1030 Clear 1 1025 51 10000 3.6 150 00:18 15.03.2020
1031 Clear 1 1025 55 10000 3.1 150 23:38 14.03.2020
1032 Clear 2 1025 59 10000 2.6 130 23:19 14.03.2020
1033 Clear 2 1025 64 10000 3.1 130 22:55 14.03.2020
1034 Clear 2 1025 64 10000 3.1 130 22:37 14.03.2020
1035 Clear 2 1025 51 10000 3.1 120 22:19 14.03.2020
1036 Clear 2 1025 55 10000 2.6 130 21:54 14.03.2020
1037 Clear 2 1025 55 10000 2.6 130 21:36 14.03.2020
1038 Clear 2 1025 51 10000 2.1 150 21:18 14.03.2020
1039 Clear 3 1025 48 10000 3.1 150 20:55 14.03.2020
1040 Clear 3 1025 48 10000 3.1 150 20:36 14.03.2020
1041 Clouds 3 1025 44 10000 3.1 150 20:18 14.03.2020
1042 Clouds 4 1025 48 10000 2.1 140 19:40 14.03.2020
1043 Clouds 4 1025 48 10000 2.1 150 19:20 14.03.2020
1044 Clouds 5 1025 41 10000 2.6 170 18:39 14.03.2020
1045 Clouds 6 1025 45 10000 2.6 190 18:20 14.03.2020
1046 Clouds 7 1024 39 10000 2.1 120 17:42 14.03.2020
1047 Clouds 7 1024 36 10000 2.6 70 17:21 14.03.2020
1048 Clouds 8 1024 33 10000 2.1 180 16:58 14.03.2020
1049 Clouds 8 1024 33 10000 2.1 180 16:38 14.03.2020
1050 Clouds 8 1024 36 10000 1.5 0 16:18 14.03.2020
1051 Clouds 9 1024 36 10000 2.6 130 15:44 14.03.2020
1052 Clouds 8 1025 36 10000 2.6 0 15:22 14.03.2020
1053 Clouds 8 1025 39 10000 1.5 0 14:40 14.03.2020
1054 Clear 8 1025 36 10000 1 0 14:21 14.03.2020
1055 Clear 8 1025 42 10000 2.6 190 13:57 14.03.2020
1056 Clear 8 1025 42 10000 2.6 190 13:38 14.03.2020
1057 Clear 8 1025 39 10000 1 0 13:20 14.03.2020
1058 Clouds 8 1025 39 10000 2.1 180 12:44 14.03.2020
1059 Clouds 7 1025 48 10000 2.6 310 12:26 14.03.2020
1060 Clouds 7 1025 48 10000 1 0 11:47 14.03.2020
1061 Clouds 6 1025 52 10000 1.5 300 11:26 14.03.2020
1062 Clouds 6 1025 52 10000 1.5 0 10:59 14.03.2020
1063 Clouds 6 1025 52 10000 1.5 0 10:40 14.03.2020
1064 Clouds 6 1025 60 10000 1 0 10:22 14.03.2020
1065 Clear 5 1025 69 10000 1 0 09:43 14.03.2020
1066 Rain 4 1024 44 10000 1.5 260 09:24 14.03.2020
1067 Clear 3 1024 80 10000 1 0 08:47 14.03.2020
1068 Clear 1 1023 86 10000 1 0 08:29 14.03.2020
1069 Clear 0 1023 92 10000 1.5 250 07:55 14.03.2020
1070 Clear -1 1023 92 10000 1.5 250 07:37 14.03.2020
1071 Clear -1 1023 100 10000 0.5 300 07:18 14.03.2020
1072 Clear -2 1022 100 10000 1.5 230 06:40 14.03.2020
1073 Clear -2 1022 100 10000 1.5 230 06:40 14.03.2020
1074 Clear -1 1022 92 10000 0.5 280 05:24 14.03.2020
1075 Clear 0 1021 86 10000 0.5 270 03:46 14.03.2020
1076 Clear 1 1021 86 10000 1 300 03:24 14.03.2020
1077 Rain 2 1020 80 10000 2.1 310 02:22 14.03.2020
1078 Clouds 3 1019 74 10000 4.6 290 00:46 14.03.2020
1079 Clouds 4 1018 69 10000 5.1 290 23:50 13.03.2020
1080 Clouds 4 1018 69 10000 5.7 290 23:30 13.03.2020
1081 Clouds 4 1017 69 10000 5.7 290 22:52 13.03.2020
1082 Clouds 5 1016 69 10000 6.2 280 22:26 13.03.2020
1083 Rain 5 1016 65 10000 7.7 290 21:44 13.03.2020
1084 Rain 6 1015 75 10000 5.7 300 21:22 13.03.2020
1085 Clouds 6 1015 75 10000 5.7 290 20:59 13.03.2020
1086 Clouds 6 1015 75 10000 5.7 290 20:41 13.03.2020
1087 Clouds 6 1014 81 10000 5.7 280 20:21 13.03.2020
1088 Clouds 7 1013 81 10000 8.2 280 19:49 13.03.2020
1089 Clouds 7 1013 81 10000 8.2 280 19:30 13.03.2020
1090 Clouds 7 1012 75 10000 10.3 270 18:55 13.03.2020
1091 Clouds 7 1012 75 10000 10.3 270 18:36 13.03.2020
1092 Rain 7 1011 75 10000 9.8 270 18:18 13.03.2020
1093 Rain 8 1011 81 10000 6.7 280 17:41 13.03.2020
1094 Rain 8 1010 70 10000 10.3 260 17:21 13.03.2020
1095 Clouds 8 1010 70 10000 10.3 260 16:56 13.03.2020
1096 Clouds 8 1010 70 10000 10.3 260 16:37 13.03.2020
1097 Clouds 9 1010 66 10000 11.3 270 16:19 13.03.2020
1098 Clouds 8 1010 70 10000 12.9 270 15:41 13.03.2020
1099 Clouds 9 1009 61 10000 13.9 270 15:21 13.03.2020
1100 Clouds 9 1008 61 10000 13.9 260 14:55 13.03.2020
1101 Clouds 9 1008 61 10000 13.9 260 14:36 13.03.2020
1102 Rain 9 1008 61 10000 11.3 260 14:18 13.03.2020
1103 Clouds 9 1008 65 10000 11.3 250 13:42 13.03.2020
1104 Clouds 9 1008 65 10000 13.4 250 13:21 13.03.2020
1105 Rain 9 1008 65 10000 13.4 240 12:57 13.03.2020
1106 Rain 9 1008 65 10000 13.4 240 12:38 13.03.2020
1107 Rain 9 1008 61 10000 13.4 240 12:19 13.03.2020
1108 Clouds 9 1008 74 10000 13.9 240 11:55 13.03.2020
1109 Clouds 9 1008 57 10000 11.3 240 11:36 13.03.2020
1110 Clouds 9 1008 57 10000 11.3 240 11:18 13.03.2020
1111 Clouds 9 1008 60 10000 11.3 240 10:42 13.03.2020
1112 Clouds 9 1008 60 10000 10.8 240 10:24 13.03.2020
1113 Clouds 8 1008 61 10000 8.7 230 09:46 13.03.2020
1114 Clouds 7 1008 65 10000 7.2 220 09:27 13.03.2020
1115 Clouds 7 1008 70 10000 6.7 220 08:57 13.03.2020
1116 Clouds 6 1008 70 10000 6.7 220 08:38 13.03.2020
1117 Clouds 6 1008 70 10000 6.7 230 08:19 13.03.2020
1118 Rain 5 1008 70 10000 7.2 220 07:44 13.03.2020
1119 Clouds 5 1008 75 10000 5.7 220 07:23 13.03.2020
1120 Clouds 4 1008 75 10000 5.7 220 06:46 13.03.2020
1121 Rain 4 1008 75 10000 6.2 230 06:21 13.03.2020
1122 Clouds 4 1008 75 10000 5.1 240 05:45 13.03.2020
1123 Clear 4 1008 70 10000 5.1 250 04:57 13.03.2020
1124 Clear 4 1008 75 10000 5.7 240 04:26 13.03.2020
1125 Clear 4 1008 70 10000 4.1 240 02:43 13.03.2020
1126 Clouds 5 1009 67 10000 8.7 270 01:39 13.03.2020
1127 Rain 5 1008 67 10000 6.7 250 01:18 13.03.2020
1128 Rain 6 1008 60 10000 7.2 260 00:42 13.03.2020
1129 Clouds 6 1008 60 10000 8.7 250 00:19 13.03.2020
1130 Rain 6 1008 56 10000 3.6 210 23:40 12.03.2020
1131 Clear 6 1008 56 10000 3.6 210 23:22 12.03.2020
1132 Clear 6 1008 56 10000 4.1 210 22:47 12.03.2020
1133 Clear 5 1008 56 10000 4.1 210 22:29 12.03.2020
1134 Clear 6 1008 48 10000 5.7 230 21:59 12.03.2020
1135 Clear 6 1008 48 10000 5.7 230 21:40 12.03.2020
1136 Clear 6 1008 52 10000 4.6 220 21:21 12.03.2020
1137 Clear 6 1008 56 10000 4.1 230 20:55 12.03.2020
1138 Clear 6 1008 56 10000 4.1 230 20:36 12.03.2020
1139 Clouds 6 1008 56 10000 4.6 240 20:18 12.03.2020
1140 Clouds 7 1008 48 10000 5.1 260 19:39 12.03.2020
1141 Clouds 8 1008 48 10000 4.6 260 19:19 12.03.2020
1142 Clouds 8 1008 48 10000 4.6 260 19:19 12.03.2020
1143 Clouds 8 1008 42 10000 6.7 270 18:42 12.03.2020
1144 Clouds 9 1008 39 10000 9.3 270 18:23 12.03.2020
1145 Clouds 9 1008 36 10000 10.3 270 17:56 12.03.2020
1146 Clouds 9 1008 36 10000 10.3 270 17:37 12.03.2020
1147 Clouds 10 1007 37 10000 6.7 290 17:18 12.03.2020
1148 Clouds 10 1007 37 10000 12.3 270 16:43 12.03.2020
1149 Clouds 11 1007 34 10000 14.9 270 16:24 12.03.2020
1150 Clouds 11 1007 34 10000 14.9 270 15:59 12.03.2020
1151 Clouds 11 1006 39 10000 10.8 280 15:39 12.03.2020
1152 Clouds 11 1006 34 10000 13.9 270 15:21 12.03.2020
1153 Clouds 11 1005 40 10000 10.3 300 14:38 12.03.2020
1154 Clouds 11 1005 43 10000 12.3 270 14:19 12.03.2020
1155 Clouds 10 1005 53 10000 11.3 280 13:40 12.03.2020
1156 Clouds 10 1005 57 10000 11.3 270 13:22 12.03.2020
1157 Clouds 10 1004 61 10000 11.8 280 12:55 12.03.2020
1158 Clouds 10 1004 61 10000 11.8 280 12:37 12.03.2020
1159 Clouds 10 1004 61 10000 11.8 280 12:37 12.03.2020
1160 Clouds 11 1003 66 10000 12.3 260 12:18 12.03.2020
1161 Clouds 11 1002 66 10000 12.9 260 11:56 12.03.2020
1162 Rain 11 1003 76 9000 12.3 260 11:37 12.03.2020
1163 Rain 11 1003 76 9000 12.3 260 11:19 12.03.2020
1164 Clouds 12 1001 76 10000 11.8 250 10:56 12.03.2020
1165 Clouds 12 1001 76 10000 11.8 250 10:38 12.03.2020
1166 Rain 11 1001 81 10000 9.3 260 10:19 12.03.2020
1167 Rain 12 1001 87 10000 10.3 260 09:43 12.03.2020
1168 Rain 12 1000 76 10000 11.3 230 09:25 12.03.2020
1169 Clouds 13 1000 71 10000 9.8 220 08:41 12.03.2020
1170 Clouds 13 1000 71 10000 9.3 220 08:19 12.03.2020
1171 Clouds 13 1000 76 10000 9.8 220 07:53 12.03.2020
1172 Clouds 13 1001 76 10000 7.7 220 07:23 12.03.2020
1173 Clouds 13 1001 76 10000 7.7 220 06:44 12.03.2020
1174 Clouds 12 1002 87 10000 7.7 220 05:41 12.03.2020
1175 Clouds 11 1003 87 10000 7.7 220 04:29 12.03.2020
1176 Rain 10 1005 100 10000 4.6 200 02:36 12.03.2020
1177 Rain 10 1006 93 10000 5.7 210 01:30 12.03.2020
1178 Rain 10 1007 87 10000 4.1 200 00:44 12.03.2020
1179 Rain 9 1008 81 10000 3.6 200 00:26 12.03.2020
1180 Rain 9 1008 87 10000 4.6 200 23:45 11.03.2020
1181 Rain 9 1008 81 0 5.1 200 23:24 11.03.2020
1182 Clouds 8 1008 87 10000 3.6 190 22:48 11.03.2020
1183 Clouds 8 1009 81 10000 4.1 190 22:29 11.03.2020
1184 Clouds 8 1009 81 10000 4.1 190 21:59 11.03.2020
1185 Clouds 8 1009 81 10000 4.1 190 21:59 11.03.2020
1186 Clouds 8 1009 81 10000 3.6 190 21:41 11.03.2020
1187 Clouds 8 1010 81 10000 3.1 210 21:22 11.03.2020
1188 Clouds 8 1010 81 10000 3.1 210 20:58 11.03.2020
1189 Clouds 9 1010 81 10000 4.1 210 20:39 11.03.2020
1190 Clouds 9 1010 76 10000 4.1 220 20:19 11.03.2020
1191 Clouds 9 1010 71 10000 4.6 220 19:44 11.03.2020
1192 Clouds 10 1010 71 10000 3.6 230 19:25 11.03.2020
1193 Clouds 10 1010 71 10000 3.6 230 18:59 11.03.2020
1194 Clouds 10 1010 71 10000 4.6 240 18:40 11.03.2020
1195 Clouds 11 1010 66 10000 5.7 250 18:22 11.03.2020
1196 Clouds 11 1010 62 10000 4.1 270 17:58 11.03.2020
1197 Clouds 12 1010 58 10000 5.7 270 17:39 11.03.2020
1198 Clouds 12 1010 58 10000 5.7 270 17:20 11.03.2020
1199 Clouds 13 1010 58 10000 4.1 270 16:47 11.03.2020
1200 Clouds 13 1010 54 10000 7.2 260 16:23 11.03.2020
1201 Clouds 13 1010 54 10000 6.7 270 15:59 11.03.2020
1202 Clouds 13 1010 54 10000 6.7 270 15:40 11.03.2020
1203 Clouds 13 1010 54 10000 6.7 270 15:22 11.03.2020
1204 Clouds 13 1009 58 10000 5.7 270 14:42 11.03.2020
1205 Clouds 13 1009 54 10000 8.7 270 14:22 11.03.2020
1206 Clouds 12 1009 54 10000 7.7 280 13:56 11.03.2020
1207 Clouds 12 1009 54 10000 7.7 280 13:37 11.03.2020
1208 Clouds 13 1009 54 10000 9.8 260 13:19 11.03.2020
1209 Clouds 12 1009 62 10000 9.3 260 12:40 11.03.2020
1210 Clouds 12 1008 58 10000 9.3 260 12:20 11.03.2020
1211 Clouds 12 1008 66 10000 9.8 260 11:56 11.03.2020
1212 Clouds 11 1008 66 10000 9.8 260 11:37 11.03.2020
1213 Clouds 11 1008 71 10000 8.2 250 11:19 11.03.2020
1214 Clouds 10 1008 71 10000 8.2 260 10:43 11.03.2020
1215 Clouds 10 1008 76 10000 7.2 270 10:19 11.03.2020
1216 Clouds 10 1007 81 10000 6.2 270 09:43 11.03.2020
1217 Clouds 10 1007 76 10000 8.2 260 09:25 11.03.2020
1218 Clouds 9 1007 76 10000 8.2 260 08:58 11.03.2020
1219 Clear 9 1007 76 10000 6.7 270 08:40 11.03.2020
1220 Clouds 9 1006 81 10000 5.7 260 08:19 11.03.2020
1221 Clouds 8 1006 81 10000 5.7 270 07:44 11.03.2020
1222 Clouds 8 1005 87 10000 4.1 280 07:19 11.03.2020
1223 Clouds 8 1005 81 10000 5.1 290 06:46 11.03.2020
1224 Clouds 9 1003 87 10000 6.7 280 05:41 11.03.2020
1225 Clouds 9 1002 93 10000 7.7 260 04:52 11.03.2020
1226 Rain 9 1000 93 10000 4.1 260 02:30 11.03.2020
1227 Rain 10 1000 87 10000 6.7 290 01:43 11.03.2020
1228 Rain 10 998 100 10000 7.7 230 00:49 11.03.2020
1229 Rain 10 998 93 9000 7.7 230 00:21 11.03.2020
1230 Rain 10 998 93 10000 7.2 230 23:45 10.03.2020
1231 Rain 9 999 93 10000 7.2 230 23:22 10.03.2020
1232 Rain 9 999 93 10000 7.2 230 22:55 10.03.2020
1233 Rain 9 999 93 10000 7.2 230 22:36 10.03.2020
1234 Rain 9 999 93 10000 6.7 220 22:18 10.03.2020
1235 Rain 8 999 100 10000 6.7 210 21:55 10.03.2020
1236 Rain 8 999 100 10000 6.7 210 21:37 10.03.2020
1237 Rain 8 999 93 10000 7.2 210 21:18 10.03.2020
1238 Rain 8 1000 93 9000 6.7 210 20:42 10.03.2020
1239 Rain 8 1000 93 10000 6.7 210 20:19 10.03.2020
1240 Rain 8 1000 93 10000 6.7 210 19:58 10.03.2020
1241 Rain 8 1001 93 10000 6.7 200 19:40 10.03.2020
1242 Rain 8 1001 93 10000 7.2 200 19:22 10.03.2020
1243 Rain 7 1001 93 10000 6.2 200 18:55 10.03.2020
1244 Rain 7 1001 93 10000 6.2 200 18:37 10.03.2020
1245 Rain 7 1002 93 6000 6.2 210 18:18 10.03.2020
1246 Rain 8 1002 93 10000 5.7 210 17:41 10.03.2020
1247 Rain 8 1002 87 10000 5.7 210 17:22 10.03.2020
1248 Rain 8 1002 87 10000 5.7 200 16:57 10.03.2020
1249 Clouds 8 1002 87 10000 5.7 200 16:37 10.03.2020
1250 Clouds 8 1002 93 10000 4.6 190 16:18 10.03.2020
1251 Clouds 7 1002 93 10000 4.6 190 15:41 10.03.2020
1252 Drizzle 7 1003 93 8000 5.1 200 15:20 10.03.2020
1253 Drizzle 7 1003 93 4400 6.2 200 14:58 10.03.2020
1254 Drizzle 7 1003 93 4400 6.2 200 14:40 10.03.2020
1255 Rain 7 1003 100 4700 6.7 200 14:19 10.03.2020
1256 Rain 7 1004 87 10000 6.7 200 13:44 10.03.2020
1257 Rain 7 1004 87 10000 6.7 200 13:25 10.03.2020
1258 Rain 7 1004 87 10000 7.2 200 12:56 10.03.2020
1259 Rain 7 1004 87 10000 7.2 200 12:37 10.03.2020
1260 Rain 7 1004 81 10000 7.2 200 12:18 10.03.2020
1261 Rain 7 1005 81 10000 7.7 190 11:42 10.03.2020
1262 Rain 7 1005 81 10000 7.7 190 11:24 10.03.2020
1263 Rain 7 1006 81 10000 7.7 190 10:57 10.03.2020
1264 Rain 7 1006 81 10000 7.7 190 10:39 10.03.2020
1265 Rain 7 1006 81 10000 6.7 200 10:19 10.03.2020
1266 Rain 7 1007 75 10000 6.7 190 09:55 10.03.2020
1267 Clouds 6 1007 75 10000 6.7 190 09:36 10.03.2020
1268 Clouds 6 1007 81 10000 6.2 190 09:18 10.03.2020
1269 Clouds 5 1008 80 10000 6.2 190 08:42 10.03.2020
1270 Clouds 5 1008 80 10000 6.7 200 08:24 10.03.2020
1271 Clouds 4 1008 80 10000 5.7 190 07:45 10.03.2020
1272 Clouds 4 1009 86 10000 5.1 180 07:27 10.03.2020
1273 Clouds 4 1009 86 10000 4.1 180 06:38 10.03.2020
1274 Clouds 4 1010 86 10000 4.6 190 05:58 10.03.2020
1275 Rain 3 1010 86 10000 4.6 190 05:38 10.03.2020
1276 Clouds 3 1011 86 10000 4.1 190 04:34 10.03.2020
1277 Clouds 4 1012 86 10000 3.1 190 03:31 10.03.2020
1278 Clear 4 1012 86 10000 3.1 210 01:43 10.03.2020
1279 Clouds 4 1013 86 10000 3.6 230 00:52 10.03.2020
1280 Clouds 4 1013 93 10000 3.1 250 00:30 10.03.2020
1281 Clouds 4 1013 86 10000 3.6 250 23:56 09.03.2020
1282 Clouds 5 1013 86 10000 3.6 240 23:37 09.03.2020
1283 Clouds 5 1013 86 10000 3.6 240 23:19 09.03.2020
1284 Clouds 5 1013 86 10000 3.6 250 22:40 09.03.2020
1285 Clouds 5 1013 86 10000 3.6 240 22:21 09.03.2020
1286 Clouds 5 1013 86 10000 3.6 250 21:56 09.03.2020
1287 Clouds 5 1013 86 10000 3.6 250 21:56 09.03.2020
1288 Clouds 5 1013 86 10000 3.6 250 21:38 09.03.2020
1289 Clouds 6 1013 86 10000 3.6 250 21:20 09.03.2020
1290 Clouds 6 1013 81 10000 2.6 240 20:55 09.03.2020
1291 Clouds 6 1013 81 10000 2.6 240 20:36 09.03.2020
1292 Clouds 6 1012 81 10000 2.6 230 20:18 09.03.2020
1293 Clouds 6 1012 87 10000 2.1 230 19:42 09.03.2020
1294 Clouds 7 1012 87 10000 2.1 250 19:20 09.03.2020
1295 Clouds 7 1012 87 10000 2.1 260 18:57 09.03.2020
1296 Clouds 8 1012 87 10000 2.1 260 18:38 09.03.2020
1297 Clouds 8 1012 81 10000 2.1 270 18:19 09.03.2020
1298 Clouds 9 1011 76 10000 2.6 270 17:57 09.03.2020
1299 Clouds 9 1011 76 10000 2.6 270 17:37 09.03.2020
1300 Clouds 10 1011 71 10000 4.1 280 17:19 09.03.2020
1301 Clouds 10 1011 76 10000 4.1 270 16:57 09.03.2020
1302 Clouds 10 1011 76 10000 4.1 270 16:39 09.03.2020
1303 Rain 10 1011 81 10000 1.5 220 16:20 09.03.2020
1304 Rain 10 1011 81 10000 1.5 220 15:57 09.03.2020
1305 Rain 10 1011 87 10000 5.1 290 15:38 09.03.2020
1306 Rain 10 1011 81 10000 3.6 250 15:19 09.03.2020
1307 Rain 10 1010 81 10000 3.1 260 14:41 09.03.2020
1308 Clouds 10 1010 81 10000 3.6 250 14:23 09.03.2020
1309 Clouds 9 1010 81 10000 4.1 270 13:59 09.03.2020
1310 Clouds 10 1010 87 10000 4.1 260 13:40 09.03.2020
1311 Clouds 9 1010 87 10000 4.1 260 13:22 09.03.2020
1312 Clouds 9 1010 87 10000 4.1 260 13:22 09.03.2020
1313 Clouds 9 1010 87 10000 3.6 270 12:59 09.03.2020
1314 Clouds 9 1010 87 10000 3.6 270 12:40 09.03.2020
1315 Clouds 9 1010 87 10000 4.1 250 12:20 09.03.2020
1316 Rain 8 1010 93 7000 3.6 250 11:41 09.03.2020
1317 Rain 8 1010 93 7000 3.6 250 11:21 09.03.2020
1318 Rain 8 1010 100 6000 2.6 230 10:58 09.03.2020
1319 Drizzle 7 1009 93 6000 2.6 220 10:40 09.03.2020
1320 Drizzle 7 1009 93 6000 2.6 220 10:20 09.03.2020
1321 Rain 7 1009 100 7000 2.6 200 09:44 09.03.2020
1322 Rain 7 1009 100 7000 2.6 200 09:24 09.03.2020
1323 Rain 6 1009 93 8000 2.1 200 08:59 09.03.2020
1324 Rain 6 1009 93 10000 2.6 190 08:41 09.03.2020
1325 Rain 6 1009 93 10000 2.6 190 08:23 09.03.2020
1326 Rain 6 1009 81 10000 3.1 210 07:41 09.03.2020
1327 Rain 6 1009 81 10000 3.1 210 07:21 09.03.2020
1328 Clouds 6 1008 75 10000 2.1 190 06:43 09.03.2020
1329 Clouds 6 1008 75 10000 2.1 190 06:24 09.03.2020
1330 Rain 6 1008 75 10000 1.5 190 05:47 09.03.2020
1331 Clouds 6 1008 75 10000 2.1 180 05:20 09.03.2020
1332 Clouds 6 1009 75 10000 2.6 180 04:40 09.03.2020
1333 Clouds 6 1009 75 10000 2.6 180 04:21 09.03.2020
1334 Clouds 6 1009 75 10000 2.6 180 02:59 09.03.2020
1335 Clouds 6 1010 75 10000 3.1 180 01:26 09.03.2020
1336 Clouds 6 1010 75 10000 3.6 190 00:38 09.03.2020
1337 Clouds 7 1010 75 10000 3.1 190 00:20 09.03.2020
1338 Clouds 7 1010 75 10000 2.6 190 23:48 08.03.2020
1339 Clouds 7 1011 81 10000 2.6 190 23:22 08.03.2020
1340 Clouds 7 1011 81 10000 3.1 190 22:57 08.03.2020
1341 Clouds 7 1011 75 10000 3.1 190 22:38 08.03.2020
1342 Clouds 7 1011 75 10000 3.1 190 22:20 08.03.2020
1343 Clouds 7 1011 81 10000 2.6 180 21:54 08.03.2020
1344 Clouds 7 1011 81 10000 2.6 180 21:54 08.03.2020
1345 Clouds 7 1011 75 10000 3.6 190 21:36 08.03.2020
1346 Clouds 7 1011 75 10000 3.6 190 21:36 08.03.2020
1347 Clouds 7 1011 75 10000 3.6 190 21:18 08.03.2020
1348 Clouds 7 1012 75 10000 4.1 170 20:39 08.03.2020
1349 Clouds 7 1012 75 10000 4.1 170 20:21 08.03.2020
1350 Clouds 7 1012 75 10000 4.1 170 20:21 08.03.2020
1351 Clouds 7 1012 75 10000 4.1 170 19:56 08.03.2020
1352 Clouds 8 1012 75 10000 4.6 170 19:37 08.03.2020
1353 Clouds 8 1012 75 10000 4.6 170 19:18 08.03.2020
1354 Clouds 8 1012 70 10000 4.6 180 18:42 08.03.2020
1355 Clouds 8 1012 70 10000 4.6 180 18:42 08.03.2020
1356 Clouds 8 1012 70 10000 5.1 180 18:24 08.03.2020
1357 Clouds 9 1012 70 10000 5.1 180 17:56 08.03.2020
1358 Clouds 9 1012 70 10000 4.6 180 17:38 08.03.2020
1359 Clouds 9 1012 70 10000 4.6 180 17:19 08.03.2020
1360 Clouds 9 1012 70 10000 4.6 180 16:46 08.03.2020
1361 Clouds 9 1012 70 10000 4.6 180 16:28 08.03.2020
1362 Clouds 10 1013 66 10000 5.1 170 15:58 08.03.2020
1363 Clouds 10 1013 66 10000 5.7 170 15:39 08.03.2020
1364 Clouds 10 1013 66 10000 5.7 170 15:20 08.03.2020
1365 Clouds 10 1014 66 10000 5.1 190 14:42 08.03.2020
1366 Clouds 9 1014 66 10000 5.1 190 14:21 08.03.2020
1367 Clouds 9 1014 66 10000 5.1 190 13:59 08.03.2020
1368 Clouds 9 1015 70 10000 5.7 180 13:39 08.03.2020
1369 Clouds 8 1015 65 10000 6.2 180 13:19 08.03.2020
1370 Clouds 8 1016 70 10000 5.7 190 12:43 08.03.2020
1371 Clouds 8 1016 70 10000 5.7 190 12:43 08.03.2020
1372 Clouds 8 1016 70 10000 5.7 200 12:24 08.03.2020
1373 Clouds 7 1016 65 10000 5.7 190 11:57 08.03.2020
1374 Clouds 7 1017 70 10000 5.1 190 11:39 08.03.2020
1375 Clouds 6 1017 70 10000 5.1 190 11:20 08.03.2020
1376 Clouds 6 1017 70 10000 4.6 190 10:41 08.03.2020
1377 Clouds 6 1017 69 10000 4.6 180 10:23 08.03.2020
1378 Clouds 5 1017 69 10000 4.6 190 09:57 08.03.2020
1379 Clouds 4 1017 69 10000 4.6 190 09:36 08.03.2020
1380 Clouds 4 1017 69 10000 4.1 180 09:18 08.03.2020
1381 Clouds 3 1017 69 10000 3.1 180 08:41 08.03.2020
1382 Clear 3 1017 84 10000 3.6 170 08:20 08.03.2020
1383 Clear 1 1017 84 10000 2.6 180 07:45 08.03.2020
1384 Clear 1 1017 86 10000 2.6 170 07:25 08.03.2020
1385 Clear 0 1017 84 10000 1 0 06:43 08.03.2020
1386 Clear 0 1017 84 10000 1 0 06:23 08.03.2020
1387 Clear 1 1018 86 10000 1.5 180 05:41 08.03.2020
1388 Clear 1 1018 81 10000 1.5 160 03:52 08.03.2020
1389 Clear 1 1019 81 10000 0.5 0 02:38 08.03.2020
1390 Clouds 1 1019 85 10000 2.1 250 01:34 08.03.2020
1391 Clouds 1 1019 85 10000 2.1 250 00:58 08.03.2020
1392 Clouds 2 1019 85 10000 1.5 250 00:28 08.03.2020
1393 Clouds 2 1019 85 10000 1.5 250 23:48 07.03.2020
1394 Clouds 3 1019 85 10000 2.1 260 23:26 07.03.2020
1395 Clouds 3 1019 85 10000 2.1 260 22:58 07.03.2020
1396 Clouds 3 1019 85 10000 2.1 270 22:37 07.03.2020
1397 Clouds 3 1019 85 10000 2.1 270 22:19 07.03.2020
1398 Clouds 4 1018 85 10000 2.1 270 21:43 07.03.2020
1399 Clouds 4 1018 85 10000 2.1 270 21:43 07.03.2020
1400 Clouds 4 1018 85 10000 2.1 270 21:22 07.03.2020
1401 Clouds 4 1018 80 10000 2.1 260 20:41 07.03.2020
1402 Clouds 4 1018 80 10000 2.1 260 20:21 07.03.2020
1403 Clouds 5 1017 70 10000 3.6 280 19:42 07.03.2020
1404 Clouds 5 1017 70 10000 3.6 280 19:23 07.03.2020
1405 Clouds 6 1017 70 10000 5.1 280 18:59 07.03.2020
1406 Clouds 6 1016 65 10000 5.1 280 18:39 07.03.2020
1407 Clouds 6 1016 65 10000 5.1 280 18:21 07.03.2020
1408 Clouds 6 1016 65 10000 3.1 280 17:42 07.03.2020
1409 Clouds 6 1015 70 10000 3.6 290 17:20 07.03.2020
1410 Clouds 6 1015 75 10000 4.6 280 16:57 07.03.2020
1411 Clouds 6 1015 70 10000 5.1 300 16:39 07.03.2020
1412 Clouds 6 1015 70 10000 5.1 300 16:21 07.03.2020
1413 Clouds 6 1014 75 10000 6.2 290 15:55 07.03.2020
1414 Clouds 6 1014 75 10000 6.7 280 15:37 07.03.2020
1415 Clouds 6 1014 75 10000 6.7 280 15:19 07.03.2020
1416 Clouds 6 1013 75 10000 6.7 290 14:45 07.03.2020
1417 Clouds 6 1013 75 10000 6.7 290 14:24 07.03.2020
1418 Clouds 6 1012 81 10000 6.2 280 13:58 07.03.2020
1419 Clouds 6 1012 80 10000 5.1 290 13:38 07.03.2020
1420 Clouds 5 1012 80 10000 6.2 290 13:19 07.03.2020
1421 Clouds 5 1012 80 10000 6.2 290 12:41 07.03.2020
1422 Clouds 5 1011 80 10000 6.2 290 12:20 07.03.2020
1423 Drizzle 5 1011 80 10000 6.7 290 11:57 07.03.2020
1424 Drizzle 5 1010 80 10000 6.2 290 11:39 07.03.2020
1425 Drizzle 5 1010 80 10000 6.2 290 11:20 07.03.2020
1426 Clouds 5 1009 86 10000 5.1 290 10:41 07.03.2020
1427 Clouds 5 1009 86 10000 5.1 290 10:20 07.03.2020
1428 Clouds 5 1008 86 10000 5.1 290 09:56 07.03.2020
1429 Clouds 5 1008 86 10000 5.1 290 09:37 07.03.2020
1430 Clouds 5 1007 86 9000 5.1 290 09:18 07.03.2020
1431 Rain 5 1007 86 9000 5.1 290 08:44 07.03.2020
1432 Rain 4 1007 93 9000 4.6 300 08:21 07.03.2020
1433 Rain 4 1007 93 9000 4.6 300 08:21 07.03.2020
1434 Drizzle 4 1005 93 9000 5.1 300 07:49 07.03.2020
1435 Drizzle 4 1005 93 9000 5.1 300 07:23 07.03.2020
1436 Rain 4 1004 86 0 4.47 315 06:55 07.03.2020
1437 Rain 4 1004 87 0 3.58 292 06:29 07.03.2020
1438 Drizzle 4 1003 100 6000 3.6 290 05:52 07.03.2020
1439 Drizzle 3 1002 93 7000 3.1 280 04:42 07.03.2020
1440 Clouds 3 1001 100 10000 4.6 280 02:47 07.03.2020
1441 Clouds 3 1000 100 7000 5.7 280 02:24 07.03.2020
1442 Clouds 4 1000 100 7000 7.2 280 01:26 07.03.2020
1443 Mist 4 999 100 3000 5.7 280 00:39 07.03.2020
1444 Mist 5 999 100 3000 5.7 280 00:20 07.03.2020
1445 Mist 5 998 100 1200 5.1 290 23:45 06.03.2020
1446 Mist 6 998 100 1200 5.1 290 23:26 06.03.2020
1447 Drizzle 6 997 100 2500 4.1 280 22:48 06.03.2020
1448 Clouds 6 996 93 8000 4.1 260 22:22 06.03.2020
1449 Clouds 6 996 100 10000 2.1 250 21:59 06.03.2020
1450 Clouds 6 996 100 10000 2.1 250 21:41 06.03.2020
1451 Clouds 6 996 100 10000 0.5 0 21:18 06.03.2020
1452 Rain 6 995 93 10000 1 0 20:39 06.03.2020
1453 Rain 6 995 93 10000 1 0 20:20 06.03.2020
1454 Rain 7 995 100 10000 0.5 0 19:51 06.03.2020
1455 Rain 7 994 93 9000 1.5 270 19:33 06.03.2020
1456 Rain 7 994 93 10000 1.5 100 18:58 06.03.2020
1457 Rain 7 994 93 10000 1.5 100 18:39 06.03.2020
1458 Rain 7 993 93 10000 2.6 100 18:19 06.03.2020
1459 Rain 7 993 93 10000 3.6 110 17:43 06.03.2020
1460 Rain 7 993 93 10000 3.6 110 17:43 06.03.2020
1461 Rain 7 993 93 5000 3.6 130 17:25 06.03.2020
1462 Drizzle 7 993 93 8000 2.6 100 16:59 06.03.2020
1463 Drizzle 7 993 93 8000 2.6 100 16:41 06.03.2020
1464 Drizzle 7 993 93 8000 2.6 100 16:20 06.03.2020
1465 Clouds 7 992 93 10000 3.1 90 15:45 06.03.2020
1466 Rain 7 992 93 10000 3.1 90 15:25 06.03.2020
1467 Rain 7 992 100 10000 3.1 100 14:59 06.03.2020
1468 Clouds 7 992 93 10000 3.1 90 14:39 06.03.2020
1469 Clouds 7 992 93 10000 3.1 90 14:19 06.03.2020
1470 Drizzle 6 992 93 8000 3.1 90 13:43 06.03.2020
1471 Drizzle 6 992 93 7000 2.6 100 13:22 06.03.2020
1472 Rain 6 992 100 6000 2.6 100 12:57 06.03.2020
1473 Drizzle 6 991 100 2700 4.6 100 12:38 06.03.2020
1474 Drizzle 5 991 100 2700 4.6 100 12:19 06.03.2020
1475 Drizzle 5 991 93 2500 4.6 110 11:57 06.03.2020
1476 Rain 5 991 93 4000 5.1 110 11:39 06.03.2020
1477 Rain 5 991 93 4000 5.1 110 11:20 06.03.2020
1478 Drizzle 5 991 100 6000 4.6 100 10:40 06.03.2020
1479 Drizzle 5 991 100 6000 4.6 100 10:21 06.03.2020
1480 Drizzle 4 991 93 6000 5.1 100 09:55 06.03.2020
1481 Drizzle 4 991 93 9000 5.1 100 09:37 06.03.2020
1482 Drizzle 4 991 93 9000 5.1 100 09:19 06.03.2020
1483 Drizzle 4 991 93 9000 5.7 100 08:46 06.03.2020
1484 Drizzle 4 991 93 9000 5.7 100 08:27 06.03.2020
1485 Clouds 4 991 93 10000 5.1 100 07:57 06.03.2020
1486 Clouds 4 991 93 8000 4.6 100 07:39 06.03.2020
1487 Rain 4 991 93 8000 4.6 100 06:59 06.03.2020
1488 Rain 4 991 86 10000 4.6 100 06:41 06.03.2020
1489 Rain 4 991 93 10000 4.6 90 05:47 06.03.2020
1490 Rain 4 991 93 10000 5.1 100 05:28 06.03.2020
1491 Rain 4 991 93 10000 4.1 90 04:58 06.03.2020
1492 Rain 5 992 84 10000 4.6 110 02:56 06.03.2020
1493 Clouds 5 993 63 10000 5.1 90 01:42 06.03.2020
1494 Clouds 5 993 63 10000 5.1 90 01:23 06.03.2020
1495 Clouds 5 994 64 10000 5.1 100 00:47 06.03.2020
1496 Clouds 5 994 64 10000 5.7 100 00:20 06.03.2020
1497 Clouds 6 995 64 10000 5.7 90 23:43 05.03.2020
1498 Clouds 6 995 64 10000 5.7 90 23:24 05.03.2020
1499 Clouds 5 995 64 10000 4.6 90 22:55 05.03.2020
1500 Clouds 6 996 60 10000 4.1 90 22:36 05.03.2020
1501 Clouds 6 996 60 10000 4.1 90 22:18 05.03.2020
1502 Clouds 6 996 56 10000 4.6 100 21:54 05.03.2020
1503 Clouds 6 997 56 10000 4.6 90 21:36 05.03.2020
1504 Clouds 6 997 56 10000 4.6 90 21:18 05.03.2020
1505 Clouds 6 997 56 10000 3.6 100 20:42 05.03.2020
1506 Clouds 6 997 56 0 4.1 100 20:20 05.03.2020
1507 Clouds 6 997 52 10000 5.1 110 19:59 05.03.2020
1508 Clouds 7 998 52 10000 5.1 110 19:39 05.03.2020
1509 Clouds 7 998 52 10000 5.1 110 19:21 05.03.2020
1510 Clouds 7 998 52 10000 5.1 110 18:58 05.03.2020
1511 Clouds 7 998 45 10000 5.7 130 18:37 05.03.2020
1512 Clouds 8 998 45 10000 5.7 130 18:19 05.03.2020
1513 Clouds 8 999 58 10000 4.6 110 17:57 05.03.2020
1514 Clouds 9 999 58 10000 5.7 130 17:39 05.03.2020
1515 Clouds 9 999 50 10000 5.7 130 17:20 05.03.2020
1516 Clouds 10 1000 53 10000 5.1 140 16:41 05.03.2020
1517 Clouds 10 1000 53 10000 5.1 140 16:23 05.03.2020
1518 Clouds 10 1000 46 10000 5.1 150 15:57 05.03.2020
1519 Clouds 10 1001 50 10000 5.7 140 15:37 05.03.2020
1520 Clouds 10 1001 50 10000 5.7 140 15:19 05.03.2020
1521 Clouds 11 1002 50 10000 4.6 150 14:41 05.03.2020
1522 Clouds 10 1002 55 10000 4.6 150 14:22 05.03.2020
1523 Clouds 10 1002 53 10000 3.6 160 13:58 05.03.2020
1524 Clouds 10 1003 61 10000 3.6 160 13:40 05.03.2020
1525 Clouds 10 1003 61 10000 3.6 160 13:20 05.03.2020
1526 Clouds 10 1003 61 10000 3.6 160 13:20 05.03.2020
1527 Clouds 10 1003 61 10000 4.6 170 12:55 05.03.2020
1528 Clouds 10 1004 61 10000 2.6 170 12:37 05.03.2020
1529 Clouds 10 1004 61 10000 2.6 170 12:18 05.03.2020
1530 Clouds 9 1004 65 10000 3.1 180 11:56 05.03.2020
1531 Clouds 9 1005 70 10000 2.6 140 11:36 05.03.2020
1532 Clouds 8 1005 70 10000 2.6 140 11:18 05.03.2020
1533 Clouds 7 1005 75 10000 3.1 160 10:55 05.03.2020
1534 Clouds 6 1005 80 10000 3.1 160 10:37 05.03.2020
1535 Clouds 5 1005 80 10000 3.1 160 10:19 05.03.2020
1536 Clouds 4 1006 86 10000 2.6 160 09:41 05.03.2020
1537 Clouds 3 1006 86 10000 2.6 160 09:23 05.03.2020
1538 Clouds 2 1006 93 10000 2.1 170 08:43 05.03.2020
1539 Clouds 1 1006 87 9000 1.5 140 08:25 05.03.2020
1540 Clouds 1 1007 100 10000 1 0 07:46 05.03.2020
1541 Clouds 1 1007 100 10000 1 0 07:22 05.03.2020
1542 Clouds 1 1007 87 10000 1.5 170 06:48 05.03.2020
1543 Clouds 1 1007 100 10000 1 0 06:22 05.03.2020
1544 Clouds 1 1007 100 10000 1 0 06:22 05.03.2020
1545 Clouds 1 1007 87 10000 1 0 05:39 05.03.2020
1546 Clouds 1 1007 93 10000 0.5 0 04:55 05.03.2020
1547 Clouds 1 1008 93 10000 0.5 0 04:22 05.03.2020
1548 Clouds 2 1008 93 10000 2.1 180 03:34 05.03.2020
1549 Clouds 2 1008 86 10000 1.5 180 01:58 05.03.2020
1550 Clouds 3 1008 86 10000 1.5 190 01:22 05.03.2020
1551 Clouds 3 1009 86 10000 2.1 180 00:26 05.03.2020
1552 Clouds 2 1009 86 10000 2.1 200 23:43 04.03.2020
1553 Clouds 3 1009 86 10000 2.1 200 23:23 04.03.2020
1554 Clouds 3 1009 80 10000 2.6 200 22:59 04.03.2020
1555 Clouds 3 1009 80 10000 2.6 210 22:39 04.03.2020
1556 Clouds 3 1009 80 10000 2.6 210 22:19 04.03.2020
1557 Clouds 4 1009 75 10000 3.6 240 21:58 04.03.2020
1558 Clouds 4 1009 75 10000 3.6 250 21:40 04.03.2020
1559 Clouds 4 1009 75 10000 3.6 250 21:20 04.03.2020
1560 Clouds 4 1009 80 10000 3.1 250 20:56 04.03.2020
1561 Clouds 5 1009 75 10000 4.1 250 20:37 04.03.2020
1562 Clouds 5 1009 75 10000 4.1 250 20:19 04.03.2020
1563 Clouds 5 1009 65 10000 4.6 250 19:42 04.03.2020
1564 Clouds 5 1009 65 10000 4.6 250 19:23 04.03.2020
1565 Rain 5 1009 70 10000 3.1 230 18:57 04.03.2020
1566 Rain 5 1009 71 10000 2.6 260 18:37 04.03.2020
1567 Rain 6 1009 71 10000 2.6 260 18:18 04.03.2020
1568 Clouds 7 1009 71 10000 4.1 260 17:56 04.03.2020
1569 Clouds 7 1009 61 10000 4.1 250 17:37 04.03.2020
1570 Clouds 8 1009 61 10000 4.1 250 17:19 04.03.2020
1571 Clouds 8 1009 61 10000 5.1 270 16:44 04.03.2020
1572 Clouds 8 1009 61 10000 5.1 270 16:25 04.03.2020
1573 Rain 8 1009 54 10000 5.7 240 15:59 04.03.2020
1574 Rain 8 1009 61 10000 6.2 240 15:41 04.03.2020
1575 Rain 8 1009 61 10000 6.2 240 15:22 04.03.2020
1576 Rain 8 1009 61 10000 6.2 230 14:55 04.03.2020
1577 Rain 8 1009 65 10000 6.2 250 14:37 04.03.2020
1578 Rain 8 1009 65 10000 6.2 250 14:18 04.03.2020
1579 Clouds 8 1009 65 10000 5.7 260 13:56 04.03.2020
1580 Clouds 8 1009 70 10000 4.6 260 13:38 04.03.2020
1581 Clouds 8 1009 70 10000 4.6 260 13:19 04.03.2020
1582 Clouds 7 1010 81 10000 5.7 250 12:45 04.03.2020
1583 Rain 7 1010 75 10000 5.1 260 12:27 04.03.2020
1584 Clouds 7 1010 75 10000 4.6 250 11:59 04.03.2020
1585 Clouds 6 1010 75 10000 4.6 230 11:41 04.03.2020
1586 Clouds 6 1010 75 10000 4.6 230 11:22 04.03.2020
1587 Clouds 6 1010 75 10000 5.1 250 10:56 04.03.2020
1588 Clouds 5 1010 80 10000 4.6 260 10:38 04.03.2020
1589 Clouds 5 1010 80 10000 4.6 260 10:18 04.03.2020
1590 Clouds 4 1010 80 10000 4.6 250 09:42 04.03.2020
1591 Clouds 4 1010 80 10000 4.6 250 09:21 04.03.2020
1592 Clear 3 1009 69 10000 3.1 250 08:44 04.03.2020
1593 Clouds 2 1009 86 10000 3.1 250 08:26 04.03.2020
1594 Clouds 2 1009 86 10000 2.6 250 07:56 04.03.2020
1595 Clouds 1 1009 86 10000 3.1 250 07:37 04.03.2020
1596 Clouds 1 1009 86 10000 3.1 250 07:18 04.03.2020
1597 Clouds 1 1008 86 10000 2.1 250 06:41 04.03.2020
1598 Clouds 1 1008 86 10000 2.1 250 06:23 04.03.2020
1599 Clouds 1 1008 86 10000 3.1 250 05:47 04.03.2020
1600 Clear 1 1008 81 10000 3.1 250 04:21 04.03.2020
1601 Clouds 1 1007 81 10000 2.1 280 03:40 04.03.2020
1602 Clouds 1 1007 81 10000 2.1 280 03:21 04.03.2020
1603 Clouds 1 1007 81 10000 2.1 270 02:53 04.03.2020
1604 Clouds 1 1007 79 10000 3.1 270 02:19 04.03.2020
1605 Clouds 2 1006 86 10000 3.1 260 01:52 04.03.2020
1606 Clouds 2 1005 78 10000 3.1 270 00:49 04.03.2020
1607 Clouds 3 1005 78 10000 3.1 270 00:25 04.03.2020
1608 Clouds 3 1005 100 10000 1.5 270 23:46 03.03.2020
1609 Clouds 3 1005 100 10000 1 0 23:27 03.03.2020
1610 Clouds 3 1005 100 10000 1.5 250 22:58 03.03.2020
1611 Clouds 3 1004 100 10000 1.5 280 22:40 03.03.2020
1612 Clouds 4 1004 100 10000 1.5 280 22:19 03.03.2020
1613 Clouds 4 1004 93 10000 2.1 260 21:57 03.03.2020
1614 Clouds 4 1004 93 10000 2.6 270 21:38 03.03.2020
1615 Clouds 4 1004 93 10000 2.6 270 21:19 03.03.2020
1616 Clouds 5 1003 86 10000 2.6 280 20:55 03.03.2020
1617 Clouds 5 1003 86 10000 3.1 270 20:36 03.03.2020
1618 Clouds 5 1003 86 10000 3.1 270 20:18 03.03.2020
1619 Clouds 5 1003 80 10000 3.6 290 19:54 03.03.2020
1620 Clouds 5 1002 80 10000 4.1 300 19:36 03.03.2020
1621 Clouds 5 1002 80 10000 4.1 300 19:18 03.03.2020
1622 Clouds 5 1001 86 10000 4.6 300 18:42 03.03.2020
1623 Clouds 5 1001 86 10000 4.6 300 18:21 03.03.2020
1624 Rain 5 1000 93 10000 5.7 290 17:59 03.03.2020
1625 Rain 5 1000 93 10000 5.7 280 17:40 03.03.2020
1626 Rain 5 1000 93 10000 5.7 280 17:21 03.03.2020
1627 Rain 5 1000 93 10000 5.7 280 16:57 03.03.2020
1628 Rain 5 1000 93 10000 5.7 280 16:38 03.03.2020
1629 Rain 6 999 87 10000 6.2 280 16:19 03.03.2020
1630 Rain 6 999 93 10000 4.1 280 15:57 03.03.2020
1631 Rain 7 998 81 10000 3.6 290 15:39 03.03.2020
1632 Rain 7 998 81 10000 3.6 290 15:19 03.03.2020
1633 Clouds 7 998 87 10000 4.6 290 14:41 03.03.2020
1634 Clouds 7 998 87 10000 4.6 290 14:20 03.03.2020
1635 Clouds 7 998 87 10000 3.1 280 13:58 03.03.2020
1636 Rain 6 998 93 10000 4.1 280 13:40 03.03.2020
1637 Rain 6 998 93 10000 4.1 280 13:21 03.03.2020
1638 Rain 6 997 93 10000 3.1 290 13:21 03.03.2020
1639 Rain 6 997 93 10000 3.1 290 12:47 03.03.2020
1640 Rain 6 997 86 10000 3.6 300 12:27 03.03.2020
1641 Clouds 6 997 81 10000 2.6 300 11:58 03.03.2020
1642 Clouds 6 996 86 10000 2.6 310 11:37 03.03.2020
1643 Clouds 6 996 86 10000 2.6 310 11:19 03.03.2020
1644 Clouds 5 996 86 10000 2.6 350 10:56 03.03.2020
1645 Clouds 6 996 86 10000 2.6 350 10:56 03.03.2020
1646 Clouds 5 996 86 10000 2.6 350 10:56 03.03.2020
1647 Clouds 5 996 86 10000 3.1 360 10:38 03.03.2020
1648 Clouds 5 996 86 10000 3.1 360 10:19 03.03.2020
1649 Clouds 5 996 86 10000 3.1 360 10:19 03.03.2020
1650 Clouds 5 996 86 10000 3.1 340 09:44 03.03.2020
1651 Clouds 5 996 93 10000 2.1 310 09:23 03.03.2020
1652 Rain 4 996 86 10000 2.1 310 08:58 03.03.2020
1653 Rain 4 996 86 10000 1.5 330 08:39 03.03.2020
1654 Rain 4 996 86 10000 1.5 330 08:21 03.03.2020
1655 Clouds 4 995 86 10000 1.5 350 07:44 03.03.2020
1656 Clouds 4 995 86 10000 1.5 350 07:23 03.03.2020
1657 Clouds 4 994 80 10000 2.6 40 06:53 03.03.2020
1658 Clouds 4 994 86 10000 2.1 40 06:26 03.03.2020
1659 Clouds 4 995 86 10000 1.5 50 05:48 03.03.2020
1660 Clouds 4 995 86 10000 1.5 50 05:29 03.03.2020
1661 Clouds 4 994 86 10000 1.5 60 04:38 03.03.2020
1662 Clouds 4 994 86 10000 3.1 90 01:41 03.03.2020
1663 Clouds 3 994 86 10000 2.6 70 01:20 03.03.2020
1664 Clouds 3 994 86 10000 2.1 80 00:38 03.03.2020
1665 Clouds 3 994 86 10000 2.1 80 00:19 03.03.2020
1666 Clouds 3 994 80 10000 2.1 60 23:43 02.03.2020
1667 Clouds 4 994 80 10000 2.1 60 23:23 02.03.2020
1668 Clouds 4 994 86 10000 1.5 70 22:56 02.03.2020
1669 Clouds 4 994 86 10000 1.5 70 22:56 02.03.2020
1670 Clouds 4 994 86 10000 1.5 70 22:56 02.03.2020
1671 Clouds 4 994 86 10000 2.1 80 22:38 02.03.2020
1672 Clouds 4 994 81 10000 3.1 90 22:19 02.03.2020
1673 Clouds 4 994 81 10000 3.1 90 21:55 02.03.2020
1674 Clouds 4 994 81 10000 3.1 90 21:36 02.03.2020
1675 Clouds 5 994 81 10000 3.1 90 21:18 02.03.2020
1676 Clouds 5 995 81 10000 3.6 130 20:41 02.03.2020
1677 Clouds 5 995 81 10000 3.6 130 20:22 02.03.2020
1678 Clouds 5 994 81 10000 3.1 140 19:59 02.03.2020
1679 Clouds 6 994 75 10000 3.6 130 19:39 02.03.2020
1680 Clouds 6 994 75 10000 3.6 130 19:21 02.03.2020
1681 Clouds 6 994 75 10000 3.1 140 18:56 02.03.2020
1682 Clouds 6 994 70 10000 2.6 160 18:38 02.03.2020
1683 Clouds 7 994 70 10000 2.6 160 18:18 02.03.2020
1684 Clouds 7 994 65 10000 3.6 140 17:56 02.03.2020
1685 Clouds 8 993 61 10000 1.5 120 17:38 02.03.2020
1686 Clouds 8 993 61 10000 1.5 120 17:20 02.03.2020
1687 Clouds 9 993 57 10000 1.5 90 16:43 02.03.2020
1688 Clouds 9 993 61 10000 2.6 60 16:24 02.03.2020
1689 Clouds 9 993 65 10000 0.5 0 15:58 02.03.2020
1690 Clouds 9 993 61 10000 1 0 15:40 02.03.2020
1691 Clouds 9 993 61 10000 1 0 15:18 02.03.2020
1692 Clouds 9 994 70 10000 2.6 270 14:40 02.03.2020
1693 Clouds 9 994 70 10000 2.6 270 14:20 02.03.2020
1694 Clouds 9 994 70 10000 4.1 240 13:57 02.03.2020
1695 Clouds 9 994 75 10000 4.1 270 13:38 02.03.2020
1696 Clouds 8 994 75 10000 4.1 270 13:18 02.03.2020
1697 Clouds 8 995 81 10000 5.1 270 12:43 02.03.2020
1698 Clouds 8 995 81 10000 6.2 270 12:43 02.03.2020
1699 Clouds 7 995 81 10000 6.2 270 12:19 02.03.2020
1700 Clouds 7 995 81 10000 6.2 270 12:19 02.03.2020
1701 Clouds 7 994 93 10000 3.6 270 11:40 02.03.2020
1702 Clouds 7 994 93 10000 3.6 270 11:22 02.03.2020
1703 Clouds 7 993 87 10000 4.6 290 10:59 02.03.2020
1704 Rain 6 993 93 10000 4.6 280 10:41 02.03.2020
1705 Rain 6 993 93 10000 4.6 280 10:20 02.03.2020
1706 Rain 6 993 93 10000 8.2 270 09:56 02.03.2020
1707 Clouds 6 993 87 10000 5.1 240 09:37 02.03.2020
1708 Clouds 6 993 87 10000 5.1 240 09:18 02.03.2020
1709 Clouds 6 992 93 10000 3.1 190 08:41 02.03.2020
1710 Clouds 6 992 93 10000 3.1 190 08:19 02.03.2020
1711 Clouds 6 991 87 10000 4.1 180 07:41 02.03.2020
1712 Rain 5 991 87 10000 3.1 170 06:57 02.03.2020
1713 Rain 5 991 87 10000 3.6 160 06:37 02.03.2020
1714 Rain 5 991 87 10000 4.6 150 05:52 02.03.2020
1715 Rain 5 992 93 10000 3.6 140 04:23 02.03.2020
1716 Rain 5 992 86 10000 3.1 130 03:20 02.03.2020
1717 Clouds 5 993 81 10000 3.6 160 02:37 02.03.2020
1718 Clouds 5 993 86 10000 3.1 130 01:47 02.03.2020
1719 Clouds 5 994 80 10000 2.1 130 01:28 02.03.2020
1720 Clouds 5 994 86 10000 2.6 150 00:23 02.03.2020
1721 Clouds 5 995 86 10000 3.6 140 23:57 01.03.2020
1722 Clouds 5 995 81 10000 3.6 150 23:39 01.03.2020
1723 Clouds 5 995 81 10000 3.1 150 23:19 01.03.2020
1724 Clouds 5 995 81 10000 3.1 150 22:43 01.03.2020
1725 Clouds 5 995 75 10000 3.6 160 22:20 01.03.2020
1726 Clouds 5 995 75 10000 3.1 170 21:56 01.03.2020
1727 Clouds 5 995 70 10000 3.1 170 21:38 01.03.2020
1728 Clouds 5 995 70 10000 3.1 170 21:19 01.03.2020
1729 Clouds 5 995 70 10000 3.1 180 20:44 01.03.2020
1730 Clouds 5 996 70 10000 4.6 190 20:25 01.03.2020
1731 Clouds 6 996 70 10000 4.1 180 19:57 01.03.2020
1732 Clouds 6 996 70 10000 3.6 180 19:39 01.03.2020
1733 Clouds 6 996 70 10000 3.6 180 19:21 01.03.2020
1734 Clouds 7 996 65 10000 5.1 200 18:41 01.03.2020
1735 Clouds 7 996 65 10000 5.1 200 18:20 01.03.2020
1736 Clouds 8 995 66 10000 6.2 220 17:58 01.03.2020
1737 Clouds 8 995 66 10000 6.2 220 17:40 01.03.2020
1738 Clouds 9 995 57 10000 6.2 240 17:22 01.03.2020
1739 Clouds 9 995 66 10000 6.2 230 16:59 01.03.2020
1740 Clouds 9 995 71 10000 5.7 230 16:39 01.03.2020
1741 Clouds 9 995 71 10000 5.7 230 16:39 01.03.2020
1742 Clouds 9 995 71 10000 5.7 230 16:19 01.03.2020
1743 Clouds 9 995 76 10000 4.1 220 15:59 01.03.2020
1744 Clouds 8 995 81 10000 4.1 210 15:40 01.03.2020
1745 Clouds 9 995 81 10000 4.1 210 15:22 01.03.2020
1746 Rain 9 995 81 10000 4.6 240 14:58 01.03.2020
1747 Rain 9 995 81 10000 5.7 230 14:39 01.03.2020
1748 Rain 9 995 81 10000 5.7 230 14:21 01.03.2020
1749 Rain 9 995 81 10000 5.7 230 14:21 01.03.2020
1750 Rain 9 995 81 10000 5.7 230 14:21 01.03.2020
1751 Rain 9 995 57 10000 6.7 210 13:59 01.03.2020
1752 Rain 10 995 57 10000 7.7 220 13:41 01.03.2020
1753 Clouds 10 995 57 10000 7.7 220 13:20 01.03.2020
1754 Clouds 10 995 57 10000 6.7 220 12:56 01.03.2020
1755 Clouds 10 996 57 10000 8.2 220 12:38 01.03.2020
1756 Clouds 10 996 57 10000 8.2 220 12:19 01.03.2020
1757 Clouds 10 996 61 10000 8.2 210 11:40 01.03.2020
1758 Clouds 9 996 61 10000 8.2 210 11:20 01.03.2020
1759 Clouds 9 997 70 10000 8.2 220 10:56 01.03.2020
1760 Clouds 9 996 66 10000 6.7 200 10:37 01.03.2020
1761 Clouds 9 996 66 10000 6.7 200 10:37 01.03.2020
1762 Clouds 9 996 66 10000 6.7 200 10:37 01.03.2020
1763 Clouds 8 996 66 10000 6.7 200 10:18 01.03.2020
1764 Clouds 8 997 65 10000 7.7 210 09:45 01.03.2020
1765 Clouds 7 997 65 10000 7.2 210 09:26 01.03.2020
1766 Clouds 7 997 65 10000 6.2 210 08:51 01.03.2020
1767 Clouds 6 997 75 10000 6.2 210 08:29 01.03.2020
1768 Clouds 6 996 75 10000 5.1 200 07:59 01.03.2020
1769 Clouds 5 996 75 10000 4.6 200 07:40 01.03.2020
1770 Clouds 5 996 75 10000 4.6 200 07:22 01.03.2020
1771 Clouds 5 996 70 10000 5.1 200 06:44 01.03.2020
1772 Clouds 5 996 70 10000 5.7 210 06:23 01.03.2020
1773 Clouds 6 996 75 10000 4.6 210 03:40 01.03.2020
1774 Clouds 6 996 81 10000 4.6 210 02:23 01.03.2020
1775 Clouds 7 996 75 10000 5.7 240 01:48 01.03.2020
1776 Clouds 7 995 75 10000 7.2 250 01:20 01.03.2020
1777 Clouds 8 994 75 10000 7.2 240 00:41 01.03.2020
1778 Clouds 8 994 75 10000 7.2 240 00:21 01.03.2020
1779 Clouds 8 994 81 10000 6.2 240 23:46 29.02.2020
1780 Clouds 8 994 76 10000 7.7 240 23:28 29.02.2020
1781 Rain 9 992 87 10000 8.2 220 22:42 29.02.2020
1782 Rain 9 992 87 10000 8.2 220 22:23 29.02.2020
1783 Rain 9 991 76 10000 6.7 190 21:42 29.02.2020
1784 Rain 9 991 76 10000 6.7 190 21:23 29.02.2020
1785 Rain 9 991 76 10000 7.7 170 20:43 29.02.2020
1786 Rain 10 991 76 10000 5.7 170 20:22 29.02.2020
1787 Rain 10 991 76 10000 6.7 170 19:57 29.02.2020
1788 Rain 10 992 71 10000 6.2 180 19:38 29.02.2020
1789 Rain 10 992 71 10000 6.2 180 19:19 29.02.2020
1790 Rain 10 991 71 10000 6.7 170 18:43 29.02.2020
1791 Rain 10 991 71 10000 6.7 170 18:25 29.02.2020
1792 Rain 11 991 71 10000 5.7 170 17:58 29.02.2020
1793 Rain 11 992 71 10000 5.7 180 17:40 29.02.2020
1794 Clouds 11 992 71 10000 5.7 180 17:21 29.02.2020
1795 Clouds 11 992 66 10000 6.7 170 16:56 29.02.2020
1796 Clouds 11 993 62 10000 4.6 180 16:37 29.02.2020
1797 Clouds 12 993 62 10000 4.6 180 16:18 29.02.2020
1798 Clouds 12 994 62 10000 5.7 190 15:41 29.02.2020
1799 Clouds 12 994 62 10000 5.7 190 15:23 29.02.2020
1800 Clouds 12 995 66 10000 5.7 190 14:55 29.02.2020
1801 Clouds 12 995 66 10000 5.7 200 14:37 29.02.2020
1802 Clouds 11 995 66 10000 5.7 200 14:19 29.02.2020
1803 Clouds 11 996 76 10000 7.2 210 13:42 29.02.2020
1804 Clouds 10 996 76 10000 7.2 210 13:23 29.02.2020
1805 Clouds 10 996 81 10000 6.2 200 12:43 29.02.2020
1806 Clouds 10 996 81 10000 6.2 200 12:43 29.02.2020
1807 Clouds 9 997 81 10000 5.1 190 12:23 29.02.2020
1808 Clouds 8 997 87 10000 4.6 190 11:59 29.02.2020
1809 Clouds 7 998 87 10000 5.1 190 11:40 29.02.2020
1810 Clouds 6 998 87 10000 5.1 190 11:22 29.02.2020
1811 Clouds 5 998 93 10000 4.6 190 10:49 29.02.2020
1812 Clouds 5 998 86 10000 5.7 190 10:29 29.02.2020
1813 Clouds 5 998 86 10000 5.7 190 10:29 29.02.2020
1814 Clouds 4 999 93 10000 6.2 190 09:51 29.02.2020
1815 Clouds 4 999 93 10000 5.1 180 09:27 29.02.2020
1816 Clouds 3 1000 93 9000 4.6 180 08:58 29.02.2020
1817 Clouds 3 1000 93 8000 5.7 180 08:38 29.02.2020
1818 Rain 3 1000 93 8000 5.7 180 08:19 29.02.2020
1819 Rain 2 1000 93 8000 5.1 170 07:45 29.02.2020
1820 Drizzle 2 1001 100 7000 5.7 170 07:19 29.02.2020
1821 Drizzle 2 1001 93 8000 5.7 170 06:53 29.02.2020
1822 Rain 2 1002 93 10000 5.7 180 06:27 29.02.2020
1823 Rain 2 1002 93 8000 6.7 160 05:49 29.02.2020
1824 Rain 2 1003 93 7000 6.2 170 05:21 29.02.2020
1825 Clouds 3 1005 69 10000 4.6 180 03:46 29.02.2020
1826 Clouds 3 1006 69 10000 4.1 170 03:23 29.02.2020
1827 Clouds 3 1007 69 10000 4.6 180 02:47 29.02.2020
1828 Clouds 3 1009 74 10000 4.6 180 01:32 29.02.2020
1829 Clouds 3 1010 74 10000 5.1 180 00:46 29.02.2020
1830 Clouds 3 1010 74 10000 5.1 180 00:26 29.02.2020
1831 Clouds 3 1011 74 10000 4.6 190 23:38 28.02.2020
1832 Clouds 3 1011 74 10000 4.6 190 23:20 28.02.2020
1833 Clouds 3 1011 74 10000 4.1 190 22:42 28.02.2020
1834 Clouds 3 1011 74 10000 4.1 200 22:22 28.02.2020
1835 Clouds 3 1012 69 10000 4.6 200 21:42 28.02.2020
1836 Clouds 3 1012 69 10000 4.6 210 21:22 28.02.2020
1837 Clouds 3 1012 69 10000 4.6 210 21:22 28.02.2020
1838 Clouds 4 1012 69 10000 4.6 200 20:57 28.02.2020
1839 Clouds 4 1013 69 10000 3.6 200 20:38 28.02.2020
1840 Clouds 4 1013 69 10000 3.6 200 20:20 28.02.2020
1841 Clouds 4 1013 69 10000 3.6 210 19:56 28.02.2020
1842 Clouds 4 1013 66 10000 4.1 230 19:38 28.02.2020
1843 Clouds 4 1013 66 10000 4.1 230 19:20 28.02.2020
1844 Clouds 5 1013 66 10000 5.7 230 18:46 28.02.2020
1845 Clouds 5 1013 66 10000 5.7 240 18:25 28.02.2020
1846 Clouds 6 1013 60 10000 5.1 260 17:57 28.02.2020
1847 Clouds 6 1013 56 10000 5.1 270 17:38 28.02.2020
1848 Clouds 7 1013 56 10000 5.1 270 17:20 28.02.2020
1849 Clouds 7 1013 56 10000 6.7 280 16:38 28.02.2020
1850 Clouds 7 1013 56 10000 6.7 280 16:20 28.02.2020
1851 Clouds 8 1013 52 10000 6.7 290 15:57 28.02.2020
1852 Clouds 8 1013 56 10000 7.2 280 15:38 28.02.2020
1853 Clouds 8 1013 56 10000 7.2 280 15:19 28.02.2020
1854 Clouds 8 1013 56 10000 7.7 290 14:55 28.02.2020
1855 Clouds 8 1013 65 10000 7.2 280 14:37 28.02.2020
1856 Clouds 8 1013 65 10000 7.2 280 14:18 28.02.2020
1857 Clouds 7 1013 70 10000 6.7 270 13:41 28.02.2020
1858 Clouds 7 1013 70 10000 6.7 270 13:20 28.02.2020
1859 Clouds 7 1013 70 10000 6.7 270 13:20 28.02.2020
1860 Clouds 6 1013 70 10000 6.2 280 12:56 28.02.2020
1861 Clouds 6 1013 70 10000 6.7 280 12:37 28.02.2020
1862 Clouds 6 1013 70 10000 6.7 280 12:18 28.02.2020
1863 Clouds 5 1012 80 10000 6.2 270 11:41 28.02.2020
1864 Clouds 5 1012 80 10000 6.2 270 11:22 28.02.2020
1865 Clouds 4 1012 80 10000 5.7 270 10:55 28.02.2020
1866 Rain 4 1011 86 10000 5.7 260 10:36 28.02.2020
1867 Rain 4 1011 86 10000 5.7 260 10:18 28.02.2020
1868 Clouds 3 1011 86 10000 6.2 270 09:42 28.02.2020
1869 Clouds 3 1011 86 10000 5.7 280 09:20 28.02.2020
1870 Clouds 3 1010 93 10000 5.1 270 08:54 28.02.2020
1871 Rain 2 1010 93 10000 5.7 260 08:36 28.02.2020
1872 Clouds 2 1009 95 10000 4.6 270 08:18 28.02.2020
1873 Clouds 2 1009 95 10000 4.6 270 07:38 28.02.2020
1874 Rain 2 1009 95 10000 4.6 260 07:19 28.02.2020
1875 Clouds 2 1008 95 10000 3.6 270 06:41 28.02.2020
1876 Snow 1 1007 86 10000 3.1 280 05:37 28.02.2020
1877 Clouds 1 1006 76 10000 2.1 280 04:33 28.02.2020
1878 Clouds 1 1005 76 10000 2.6 270 03:39 28.02.2020
1879 Clouds 1 1004 76 10000 1.5 270 02:45 28.02.2020
1880 Snow 2 1003 73 10000 1.5 300 02:20 28.02.2020
1881 Snow 2 1001 75 10000 2.6 320 00:39 28.02.2020
1882 Snow 2 1001 75 10000 2.6 320 00:21 28.02.2020
1883 Clouds 2 1000 75 10000 0.5 0 23:41 27.02.2020
1884 Clouds 2 1000 75 10000 0.5 0 23:41 27.02.2020
1885 Clouds 3 1000 75 10000 0.5 0 23:19 27.02.2020
1886 Rain 3 1000 75 10000 2.1 260 22:41 27.02.2020
1887 Rain 3 1000 75 10000 2.1 260 22:23 27.02.2020
1888 Clouds 3 999 75 10000 1 30 21:56 27.02.2020
1889 Clouds 3 999 75 10000 1.5 60 21:38 27.02.2020
1890 Clouds 3 999 75 10000 1.5 60 21:18 27.02.2020
1891 Rain 3 998 69 10000 1.5 40 20:56 27.02.2020
1892 Rain 3 998 69 10000 1.5 40 20:56 27.02.2020
1893 Rain 3 998 69 10000 1.5 40 20:37 27.02.2020
1894 Clouds 3 998 69 10000 1.5 40 20:19 27.02.2020
1895 Clouds 3 998 69 10000 0.5 320 19:42 27.02.2020
1896 Clouds 3 998 69 10000 0.5 320 19:24 27.02.2020
1897 Clouds 4 998 69 10000 1.03 124 18:58 27.02.2020
1898 Clouds 4 997 69 10000 1 320 18:40 27.02.2020
1899 Clouds 4 997 69 10000 1 320 18:21 27.02.2020
1900 Clouds 4 997 65 10000 2.1 210 17:57 27.02.2020
1901 Clouds 4 997 65 10000 2.1 210 17:57 27.02.2020
1902 Clouds 5 998 65 10000 3.1 220 17:39 27.02.2020
1903 Clouds 5 998 65 10000 3.1 220 17:19 27.02.2020
1904 Clouds 5 998 65 10000 3.1 250 16:56 27.02.2020
1905 Clouds 6 998 60 10000 3.6 250 16:37 27.02.2020
1906 Clouds 6 998 60 10000 3.6 250 16:18 27.02.2020
1907 Clouds 6 999 60 10000 5.1 230 15:56 27.02.2020
1908 Clouds 6 999 60 10000 4.6 260 15:36 27.02.2020
1909 Clouds 6 999 60 10000 5.7 240 15:18 27.02.2020
1910 Clouds 6 999 60 10000 4.6 260 15:18 27.02.2020
1911 Clouds 6 1000 60 10000 6.2 260 14:41 27.02.2020
1912 Clouds 6 1000 59 10000 6.2 260 14:23 27.02.2020
1913 Rain 6 1000 75 10000 5.7 240 13:57 27.02.2020
1914 Rain 6 1001 86 10000 5.1 270 13:39 27.02.2020
1915 Rain 6 1001 86 10000 5.1 270 13:39 27.02.2020
1916 Rain 6 1001 86 10000 5.1 270 13:20 27.02.2020
1917 Rain 6 1001 70 10000 5.7 250 12:45 27.02.2020
1918 Clouds 5 1002 75 10000 6.7 260 12:45 27.02.2020
1919 Clouds 5 1002 75 10000 6.7 260 12:23 27.02.2020
1920 Clouds 5 1002 80 10000 6.2 250 11:57 27.02.2020
1921 Clouds 5 1002 80 10000 6.2 240 11:38 27.02.2020
1922 Clouds 5 1002 80 10000 6.2 240 11:20 27.02.2020
1923 Clouds 4 1002 93 10000 5.7 250 10:42 27.02.2020
1924 Clouds 4 1002 93 10000 5.7 250 10:20 27.02.2020
1925 Clouds 3 1003 93 10000 5.1 240 09:46 27.02.2020
1926 Rain 3 1003 93 10000 5.1 240 09:28 27.02.2020
1927 Drizzle 3 1002 93 10000 5.7 240 08:56 27.02.2020
1928 Rain 2 1002 93 10000 4.1 250 08:38 27.02.2020
1929 Clouds 2 1002 93 10000 4.1 250 08:18 27.02.2020
1930 Clouds 2 1002 93 10000 4.6 250 07:43 27.02.2020
1931 Clouds 2 1002 93 10000 3.6 250 07:24 27.02.2020
1932 Clouds 2 1002 93 10000 3.6 250 07:24 27.02.2020
1933 Clouds 2 1002 93 10000 3.6 260 06:30 27.02.2020
1934 Rain 2 1002 93 10000 3.1 290 05:23 27.02.2020
1935 Clouds 3 1001 93 10000 3.6 270 03:20 27.02.2020
1936 Clouds 3 1000 93 10000 4.6 260 01:39 27.02.2020
1937 Clouds 3 1000 93 10000 4.6 270 00:42 27.02.2020
1938 Clouds 3 1000 93 10000 4.6 270 00:19 27.02.2020
1939 Clouds 3 999 93 10000 5.1 270 23:38 26.02.2020
1940 Clouds 3 999 93 10000 5.1 270 23:18 26.02.2020
1941 Clouds 3 999 93 10000 5.7 260 22:56 26.02.2020
1942 Clouds 2 999 93 10000 5.7 260 22:37 26.02.2020
1943 Clouds 3 999 93 10000 5.7 260 22:19 26.02.2020
1944 Clouds 3 998 93 10000 5.1 270 21:40 26.02.2020
1945 Clouds 3 998 93 10000 5.1 270 21:20 26.02.2020
1946 Clouds 3 998 93 10000 5.7 260 20:57 26.02.2020
1947 Rain 3 997 93 10000 4.1 290 20:38 26.02.2020
1948 Rain 3 997 93 10000 4.1 290 20:38 26.02.2020
1949 Rain 3 997 93 10000 4.1 290 20:19 26.02.2020
1950 Rain 3 997 86 10000 4.1 270 19:57 26.02.2020
1951 Rain 3 997 86 10000 4.1 260 19:38 26.02.2020
1952 Rain 3 997 86 10000 4.1 260 19:19 26.02.2020
1953 Rain 3 996 86 10000 3.6 260 18:57 26.02.2020
1954 Rain 4 996 93 9000 5.1 240 18:39 26.02.2020
1955 Rain 4 996 93 9000 5.1 240 18:20 26.02.2020
1956 Clouds 4 995 93 10000 3.6 240 17:42 26.02.2020
1957 Clouds 4 995 93 10000 3.6 240 17:21 26.02.2020
1958 Clouds 4 995 86 10000 3.6 240 16:57 26.02.2020
1959 -273 0 0 0 0 0 16:39 26.02.2020
1960 Clouds 4 994 86 10000 3.6 260 16:21 26.02.2020
1961 Clouds 4 994 93 10000 3.1 270 15:46 26.02.2020
1962 Clouds 4 994 93 10000 2.6 270 15:28 26.02.2020
1963 Clouds 4 993 93 10000 4.1 260 14:57 26.02.2020
1964 Clouds 4 993 100 10000 3.6 250 14:39 26.02.2020
1965 Clouds 3 993 100 10000 3.6 250 14:21 26.02.2020
1966 Rain 3 993 93 10000 3.6 270 13:42 26.02.2020
1967 Rain 3 993 100 8000 4.6 260 13:42 26.02.2020
1968 Rain 3 993 100 8000 4.6 260 13:21 26.02.2020
1969 Rain 3 992 93 6000 3.6 250 12:40 26.02.2020
1970 Snow 2 992 93 6000 3.6 250 12:22 26.02.2020
1971 Rain 3 992 93 7000 3.6 250 11:58 26.02.2020
1972 Rain 3 992 93 9000 4.6 260 11:40 26.02.2020
1973 Rain 3 992 93 9000 4.6 260 11:21 26.02.2020
1974 Drizzle 3 991 93 10000 3.6 240 10:43 26.02.2020
1975 Drizzle 3 991 93 10000 3.6 240 10:24 26.02.2020
1976 Drizzle 3 991 93 10000 4.6 250 09:58 26.02.2020
1977 Clouds 3 991 93 10000 3.1 220 09:40 26.02.2020
1978 Clouds 3 991 93 10000 3.1 220 09:40 26.02.2020
1979 Clouds 3 991 93 10000 3.1 220 09:21 26.02.2020
1980 Clouds 3 991 93 10000 3.1 220 09:21 26.02.2020
1981 Rain 3 991 93 10000 3.1 210 08:54 26.02.2020
1982 Rain 3 991 93 10000 3.6 210 08:36 26.02.2020
1983 Rain 2 991 93 10000 3.6 210 08:18 26.02.2020
1984 Clouds 2 991 93 10000 3.1 230 07:41 26.02.2020
1985 Clouds 2 991 93 10000 3.1 230 07:21 26.02.2020
1986 Clouds 2 991 93 10000 4.6 240 06:46 26.02.2020
1987 Clouds 2 991 93 10000 4.6 240 06:23 26.02.2020
1988 Clouds 2 991 93 10000 3.6 240 05:48 26.02.2020
1989 Rain 2 991 100 10000 3.1 230 05:18 26.02.2020
1990 Clouds 3 991 93 10000 4.1 220 03:33 26.02.2020
1991 Rain 4 992 80 10000 7.2 240 01:59 26.02.2020
1992 Rain 4 992 75 10000 3.6 240 01:26 26.02.2020
1993 Rain 4 992 75 10000 4.1 250 00:46 26.02.2020
1994 Clouds 4 992 74 10000 3.1 250 00:21 26.02.2020
1995 Clouds 4 992 74 10000 3.6 230 23:42 25.02.2020
1996 Clouds 4 993 74 10000 3.6 230 23:24 25.02.2020
1997 Clear 4 993 69 10000 3.6 240 22:57 25.02.2020
1998 Clear 5 994 69 10000 4.1 250 22:39 25.02.2020
1999 Clear 5 994 69 10000 4.1 250 22:19 25.02.2020
2000 Clear 5 994 60 10000 6.2 240 21:38 25.02.2020
2001 Clear 5 994 60 10000 6.2 240 21:20 25.02.2020
2002 Clear 6 994 60 10000 6.2 230 20:57 25.02.2020
2003 Clear 5 994 60 10000 6.2 230 20:57 25.02.2020
2004 Clear 6 994 60 10000 6.2 230 20:39 25.02.2020
2005 Clouds 6 994 60 10000 5.1 230 20:20 25.02.2020
2006 Clouds 6 994 56 10000 6.2 240 19:58 25.02.2020
2007 Clouds 6 994 52 10000 6.7 240 19:40 25.02.2020
2008 Clouds 7 994 52 10000 7.2 260 19:19 25.02.2020
2009 Clouds 7 994 52 10000 6.7 250 18:41 25.02.2020
2010 Clouds 8 994 52 10000 6.7 250 18:21 25.02.2020
2011 Clouds 8 994 52 10000 7.7 260 17:58 25.02.2020
2012 Clouds 8 994 61 10000 7.7 260 17:38 25.02.2020
2013 Clouds 9 994 54 10000 7.7 260 17:19 25.02.2020
2014 Clouds 9 994 61 10000 10.3 250 16:58 25.02.2020
2015 Clouds 9 994 61 10000 9.3 250 16:40 25.02.2020
2016 Clouds 9 994 61 10000 9.3 250 16:22 25.02.2020
2017 Clouds 10 994 53 10000 11.8 250 15:56 25.02.2020
2018 Clouds 10 994 53 10000 11.8 250 15:56 25.02.2020
2019 Clouds 10 994 53 10000 11.8 250 15:56 25.02.2020
2020 Clouds 10 994 53 10000 8.2 260 15:38 25.02.2020
2021 Clouds 10 994 53 10000 8.2 260 15:18 25.02.2020
2022 Clouds 10 995 57 10000 9.3 260 14:56 25.02.2020
2023 Clouds 10 995 53 10000 11.8 260 14:37 25.02.2020
2024 Clouds 10 995 53 10000 11.8 260 14:37 25.02.2020
2025 Clouds 10 995 53 10000 11.8 260 14:18 25.02.2020
2026 Clouds 10 995 53 10000 11.8 260 14:18 25.02.2020
2027 Clouds 10 995 58 10000 11.8 260 13:55 25.02.2020
2028 Clouds 10 996 53 10000 10.8 260 13:37 25.02.2020
2029 Clouds 9 996 66 10000 8.7 250 13:18 25.02.2020
2030 Rain 9 996 70 10000 9.8 260 12:41 25.02.2020
2031 Rain 9 996 70 10000 9.8 260 12:21 25.02.2020
2032 Rain 9 996 70 10000 6.7 250 11:57 25.02.2020
2033 Rain 9 996 70 10000 6.7 250 11:38 25.02.2020
2034 Clouds 9 996 70 10000 6.7 250 11:19 25.02.2020
2035 Clouds 9 996 76 10000 5.7 250 10:59 25.02.2020
2036 Clouds 9 997 75 10000 6.2 260 10:40 25.02.2020
2037 Clouds 9 997 75 10000 6.2 260 10:21 25.02.2020
2038 Clouds 9 997 81 10000 4.6 270 09:41 25.02.2020
2039 Clouds 9 997 81 10000 6.7 270 09:22 25.02.2020
2040 Clouds 9 997 87 10000 4.1 280 08:54 25.02.2020
2041 Rain 9 997 81 10000 7.2 260 08:36 25.02.2020
2042 Rain 9 997 81 10000 7.2 260 08:18 25.02.2020
2043 Clouds 9 997 87 10000 5.1 260 07:39 25.02.2020
2044 Clouds 9 996 87 10000 6.2 220 07:19 25.02.2020
2045 Rain 9 997 93 10000 5.7 210 06:37 25.02.2020
2046 Rain 9 997 87 10000 7.7 230 05:29 25.02.2020
2047 Rain 9 998 100 6000 5.1 220 03:35 25.02.2020
2048 Rain 8 999 93 10000 5.7 230 01:36 25.02.2020
2049 Rain 8 999 93 10000 6.2 230 00:48 25.02.2020
2050 Rain 7 999 93 7000 5.1 220 00:29 25.02.2020
2051 Drizzle 7 1000 100 10000 4.6 220 23:43 24.02.2020
2052 Drizzle 6 1000 93 10000 5.1 210 23:21 24.02.2020
2053 Rain 5 1002 93 10000 5.1 180 22:43 24.02.2020
2054 Rain 5 1002 93 10000 5.1 180 22:21 24.02.2020
2055 Rain 5 1002 100 6000 4.6 180 21:57 24.02.2020
2056 Rain 5 1002 100 6000 4.6 180 21:57 24.02.2020
2057 Rain 5 1003 93 10000 3.6 180 21:39 24.02.2020
2058 Rain 4 1003 93 10000 3.6 180 21:20 24.02.2020
2059 Rain 4 1004 93 10000 5.1 180 20:58 24.02.2020
2060 Rain 4 1004 93 10000 5.1 180 20:40 24.02.2020
2061 Rain 4 1005 86 10000 5.7 180 20:19 24.02.2020
2062 Rain 5 1006 80 10000 7.2 180 19:58 24.02.2020
2063 Rain 5 1007 80 10000 7.7 180 19:40 24.02.2020
2064 Rain 5 1007 80 10000 7.7 180 19:21 24.02.2020
2065 Rain 6 1008 70 10000 6.2 200 18:55 24.02.2020
2066 Rain 6 1009 65 10000 5.7 180 18:37 24.02.2020
2067 Clouds 6 1009 65 10000 5.7 180 18:19 24.02.2020
2068 Clouds 6 1009 65 10000 4.6 180 17:42 24.02.2020
2069 Clouds 7 1011 65 10000 4.6 190 17:21 24.02.2020
2070 Rain 7 1011 65 10000 5.1 200 16:59 24.02.2020
2071 Clouds 7 1012 65 10000 4.6 210 16:40 24.02.2020
2072 Clouds 7 1012 65 10000 4.6 210 16:21 24.02.2020
2073 Clouds 7 1013 65 10000 5.1 220 15:59 24.02.2020
2074 Clouds 7 1014 65 10000 4.1 210 15:40 24.02.2020
2075 Clouds 7 1014 65 10000 4.1 210 15:21 24.02.2020
2076 Clouds 7 1015 65 10000 5.1 240 14:59 24.02.2020
2077 Clouds 7 1015 70 10000 4.1 240 14:40 24.02.2020
2078 Clouds 7 1015 70 10000 4.1 240 14:19 24.02.2020
2079 Clouds 7 1016 70 10000 4.6 250 13:57 24.02.2020
2080 Clouds 7 1017 75 10000 4.6 250 13:38 24.02.2020
2081 Clouds 7 1017 75 10000 4.6 250 13:20 24.02.2020
2082 Clouds 7 1017 75 10000 6.2 250 12:56 24.02.2020
2083 Clouds 7 1018 75 10000 5.7 250 12:38 24.02.2020
2084 Clouds 7 1018 81 10000 6.2 250 12:19 24.02.2020
2085 Clouds 6 1018 81 10000 6.2 250 11:45 24.02.2020
2086 Clouds 6 1018 81 10000 5.7 260 11:26 24.02.2020
2087 Rain 5 1019 86 10000 7.2 250 10:45 24.02.2020
2088 Rain 5 1019 86 10000 7.2 250 10:27 24.02.2020
2089 Clouds 5 1019 80 10000 7.7 260 09:54 24.02.2020
2090 Clouds 5 1018 80 10000 5.7 260 09:36 24.02.2020
2091 Clouds 5 1018 80 10000 5.7 260 09:36 24.02.2020
2092 Clouds 5 1018 80 10000 5.7 260 09:18 24.02.2020
2093 Rain 5 1019 86 10000 6.7 270 08:46 24.02.2020
2094 Rain 5 1018 86 10000 7.2 270 08:27 24.02.2020
2095 Clouds 4 1018 80 10000 8.2 260 07:46 24.02.2020
2096 Rain 4 1018 80 10000 8.7 260 07:27 24.02.2020
2097 Clouds 4 1017 80 10000 8.2 270 06:37 24.02.2020
2098 Clouds 4 1017 80 10000 8.2 270 06:18 24.02.2020
2099 Clouds 4 1017 80 10000 7.7 270 05:30 24.02.2020
2100 Clouds 4 1016 80 10000 6.2 270 04:42 24.02.2020
2101 Clouds 4 1015 80 10000 6.7 280 02:56 24.02.2020
2102 Clouds 4 1014 80 10000 6.7 290 01:47 24.02.2020
2103 Clouds 4 1013 80 10000 8.2 290 01:18 24.02.2020
2104 Clouds 4 1012 75 10000 9.8 290 00:36 24.02.2020
2105 Clouds 5 1012 75 10000 9.8 290 00:18 24.02.2020
2106 Clouds 5 1010 80 10000 8.2 280 23:41 23.02.2020
2107 Clouds 5 1010 80 10000 8.2 280 23:20 23.02.2020
2108 Clouds 5 1009 80 10000 7.7 290 22:57 23.02.2020
2109 Rain 5 1008 86 10000 7.2 290 22:39 23.02.2020
2110 Rain 5 1008 86 10000 7.2 290 22:19 23.02.2020
2111 Rain 5 1007 86 10000 8.7 290 21:46 23.02.2020
2112 Rain 5 1006 86 10000 7.2 290 21:46 23.02.2020
2113 Rain 5 1006 86 10000 7.2 290 21:20 23.02.2020
2114 Clouds 5 1005 93 10000 7.2 300 20:57 23.02.2020
2115 Rain 6 1004 87 10000 8.7 300 20:39 23.02.2020
2116 Rain 6 1004 87 10000 8.7 300 20:21 23.02.2020
2117 Clouds 6 1002 93 10000 7.2 290 19:59 23.02.2020
2118 Clouds 6 1001 93 10000 5.1 290 19:40 23.02.2020
2119 Clouds 6 1001 93 10000 5.1 290 19:19 23.02.2020
2120 Clouds 6 1000 93 10000 3.6 300 18:59 23.02.2020
2121 Rain 6 999 100 10000 3.1 330 18:37 23.02.2020
2122 Rain 7 999 100 10000 3.1 330 18:19 23.02.2020
2123 Rain 7 999 93 6000 1 0 17:57 23.02.2020
2124 Rain 7 999 100 6000 2.1 350 17:39 23.02.2020
2125 Rain 7 999 100 6000 2.1 350 17:20 23.02.2020
2126 Rain 7 999 100 3700 1.5 340 16:54 23.02.2020
2127 Rain 7 999 100 3100 1 0 16:36 23.02.2020
2128 Rain 7 999 100 3100 1 0 16:18 23.02.2020
2129 Rain 7 1001 93 6000 1 0 15:40 23.02.2020
2130 Rain 7 1001 93 6000 1 0 15:21 23.02.2020
2131 Rain 7 1001 93 10000 3.1 180 14:59 23.02.2020
2132 Rain 7 1001 93 10000 3.1 180 14:59 23.02.2020
2133 Rain 7 1003 100 10000 4.1 180 14:41 23.02.2020
2134 Rain 7 1003 100 10000 4.1 180 14:23 23.02.2020
2135 Rain 6 1004 100 10000 3.6 180 13:58 23.02.2020
2136 Rain 6 1005 93 10000 5.1 200 13:39 23.02.2020
2137 Rain 6 1005 93 10000 5.1 200 13:21 23.02.2020
2138 Rain 6 1008 93 10000 4.1 220 12:44 23.02.2020
2139 Rain 6 1008 93 10000 4.1 220 12:23 23.02.2020
2140 Rain 6 1009 93 10000 4.6 220 11:59 23.02.2020
2141 Rain 6 1010 93 10000 4.6 220 11:38 23.02.2020
2142 Rain 6 1010 93 10000 4.6 220 11:19 23.02.2020
2143 Rain 6 1011 87 10000 4.6 240 10:56 23.02.2020
2144 Rain 6 1011 87 1800 6.2 260 10:38 23.02.2020
2145 Rain 7 1011 87 1800 6.2 260 10:20 23.02.2020
2146 Rain 7 1011 70 10000 7.2 250 09:54 23.02.2020
2147 Rain 8 1011 75 10000 7.2 240 09:36 23.02.2020
2148 Clouds 8 1011 75 10000 7.2 240 09:18 23.02.2020
2149 Clouds 8 1012 70 10000 7.7 250 08:42 23.02.2020
2150 Clouds 8 1012 70 10000 7.7 250 08:23 23.02.2020
2151 Clouds 8 1013 65 10000 6.7 250 07:41 23.02.2020
2152 Clouds 8 1013 65 10000 6.7 250 07:18 23.02.2020
2153 Clouds 8 1013 65 10000 7.7 260 06:19 23.02.2020
2154 Clouds 8 1013 70 10000 9.3 260 04:51 23.02.2020
2155 Rain 8 1013 70 10000 8.7 260 03:52 23.02.2020
2156 Rain 8 1013 75 10000 8.2 260 02:40 23.02.2020
2157 Rain 8 1013 75 10000 10.3 260 01:27 23.02.2020
2158 Rain 8 1013 75 10000 10.3 260 01:27 23.02.2020
2159 Rain 8 1013 70 10000 9.3 260 00:59 23.02.2020
2160 Clouds 8 1013 75 10000 10.3 250 00:41 23.02.2020
2161 Clouds 8 1013 75 10000 10.3 250 00:19 23.02.2020
2162 Clouds 8 1013 75 10000 9.3 250 23:42 22.02.2020
2163 Clouds 8 1013 75 10000 9.3 250 23:20 22.02.2020
2164 Rain 8 1013 75 10000 10.3 250 22:45 22.02.2020
2165 Rain 8 1014 75 10000 9.3 250 22:20 22.02.2020
2166 Rain 8 1014 70 10000 9.8 270 21:43 22.02.2020
2167 Rain 8 1014 70 10000 9.8 270 21:25 22.02.2020
2168 Rain 8 1014 70 10000 9.3 270 20:58 22.02.2020
2169 Rain 8 1014 75 10000 9.3 280 20:39 22.02.2020
2170 Rain 8 1014 75 10000 9.3 280 20:21 22.02.2020
2171 Rain 8 1014 87 10000 9.8 300 19:43 22.02.2020
2172 Rain 10 1012 66 10000 9.8 250 19:24 22.02.2020
2173 Clouds 11 1011 62 10000 10.3 250 18:57 22.02.2020
2174 Clouds 11 1011 57 10000 11.3 240 18:37 22.02.2020
2175 Clouds 11 1011 57 10000 11.3 240 18:19 22.02.2020
2176 Clouds 11 1011 57 10000 11.3 240 17:44 22.02.2020
2177 Clouds 11 1011 50 10000 11.3 240 17:26 22.02.2020
2178 Clouds 12 1011 50 10000 11.3 250 17:00 22.02.2020
2179 Clouds 12 1011 46 10000 11.3 250 16:40 22.02.2020
2180 Clouds 12 1011 46 10000 11.3 250 16:20 22.02.2020
2181 Clouds 12 1011 46 10000 9.3 250 15:57 22.02.2020
2182 Clouds 12 1011 46 10000 11.3 240 15:39 22.02.2020
2183 Clouds 12 1011 46 10000 11.3 240 15:21 22.02.2020
2184 Clouds 11 1011 50 10000 8.7 240 14:42 22.02.2020
2185 Clouds 11 1011 31 10000 8.7 240 14:22 22.02.2020
2186 Clouds 11 1011 43 10000 10.3 230 13:55 22.02.2020
2187 Clouds 11 1011 43 10000 10.3 220 13:36 22.02.2020
2188 Clouds 11 1011 43 10000 10.3 220 13:18 22.02.2020
2189 Clouds 10 1012 46 10000 8.7 210 12:41 22.02.2020
2190 Clouds 10 1012 36 10000 8.7 210 12:22 22.02.2020
2191 Clouds 9 1014 36 10000 7.2 210 11:44 22.02.2020
2192 Clouds 8 1014 36 10000 7.2 210 11:26 22.02.2020
2193 Clouds 8 1014 61 10000 7.7 210 10:56 22.02.2020
2194 Clouds 7 1015 65 10000 6.7 210 10:38 22.02.2020
2195 Clouds 7 1015 65 10000 6.7 210 10:19 22.02.2020
2196 Clouds 6 1015 70 10000 6.2 210 09:56 22.02.2020
2197 Clouds 6 1016 70 10000 6.7 210 09:38 22.02.2020
2198 Clouds 6 1016 70 10000 6.7 210 09:19 22.02.2020
2199 Clouds 6 1016 70 10000 7.2 210 08:44 22.02.2020
2200 Clouds 6 1016 70 10000 7.2 210 08:26 22.02.2020
2201 Clouds 6 1016 65 10000 7.7 210 07:43 22.02.2020
2202 Clouds 6 1016 65 10000 7.7 210 07:19 22.02.2020
2203 Clouds 7 1017 65 10000 6.7 210 06:47 22.02.2020
2204 Clouds 7 1018 65 10000 7.2 210 06:26 22.02.2020
2205 Clouds 7 1019 65 10000 6.2 220 04:30 22.02.2020
2206 Clouds 7 1021 65 10000 6.7 220 02:46 22.02.2020
2207 Clouds 7 1021 65 10000 6.7 220 02:28 22.02.2020
2208 Clouds 6 1021 65 10000 6.2 210 01:41 22.02.2020
2209 Clouds 6 1021 65 10000 6.2 210 01:23 22.02.2020
2210 Clouds 6 1022 75 10000 5.1 210 00:41 22.02.2020
2211 Clouds 6 1022 75 10000 5.1 210 00:21 22.02.2020
2212 Clouds 6 1023 65 10000 5.1 220 23:43 21.02.2020
2213 Clouds 6 1023 65 10000 5.1 220 23:21 21.02.2020
2214 Clouds 6 1022 70 10000 4.1 210 22:45 21.02.2020
2215 Clouds 6 1023 71 10000 5.1 210 22:27 21.02.2020
2216 Clouds 6 1023 71 10000 5.1 200 21:59 21.02.2020
2217 Clouds 6 1023 65 10000 4.6 210 21:40 21.02.2020
2218 Clouds 6 1023 65 10000 4.6 210 21:22 21.02.2020
2219 Clouds 6 1023 65 10000 5.1 220 20:48 21.02.2020
2220 Clouds 6 1023 65 10000 5.1 220 20:48 21.02.2020
2221 Clouds 6 1023 65 10000 5.7 220 20:29 21.02.2020
2222 Clouds 6 1023 65 10000 5.1 220 19:42 21.02.2020
2223 Clouds 6 1023 65 10000 5.1 220 19:24 21.02.2020
2224 Clouds 6 1023 70 10000 5.1 220 18:58 21.02.2020
2225 Clouds 6 1023 70 10000 5.7 240 18:39 21.02.2020
2226 Clouds 6 1023 70 10000 5.7 240 18:21 21.02.2020
2227 Clouds 7 1023 65 10000 6.7 250 17:41 21.02.2020
2228 Clouds 7 1023 65 10000 6.7 250 17:23 21.02.2020
2229 Clouds 7 1023 65 10000 6.7 250 17:23 21.02.2020
2230 Clouds 7 1022 65 10000 6.7 260 16:58 21.02.2020
2231 Clouds 8 1022 65 10000 7.2 260 16:40 21.02.2020
2232 Clouds 8 1022 65 10000 7.2 260 16:21 21.02.2020
2233 Clouds 8 1022 60 10000 8.2 270 15:56 21.02.2020
2234 Clouds 8 1022 61 10000 9.3 270 15:38 21.02.2020
2235 Clouds 8 1022 61 10000 9.3 270 15:18 21.02.2020
2236 Clouds 8 1021 65 10000 8.7 270 14:42 21.02.2020
2237 Clouds 8 1021 65 10000 8.7 270 14:19 21.02.2020
2238 Clouds 7 1021 65 10000 7.2 270 13:44 21.02.2020
2239 Clouds 7 1021 65 10000 7.2 270 13:24 21.02.2020
2240 Clouds 7 1021 70 10000 6.7 270 12:56 21.02.2020
2241 Clouds 7 1021 70 10000 6.7 270 12:37 21.02.2020
2242 Clouds 7 1021 70 10000 6.7 270 12:19 21.02.2020
2243 Clouds 7 1020 75 10000 8.2 270 11:43 21.02.2020
2244 Clouds 7 1020 75 10000 8.2 270 11:23 21.02.2020
2245 Clouds 7 1019 75 10000 7.7 270 10:59 21.02.2020
2246 Clouds 6 1019 80 10000 8.2 270 10:41 21.02.2020
2247 Clouds 6 1019 80 10000 8.2 270 10:19 21.02.2020
2248 Clouds 6 1019 75 10000 8.2 270 09:58 21.02.2020
2249 Clouds 5 1018 75 10000 8.2 270 09:38 21.02.2020
2250 Clouds 5 1018 75 10000 8.2 270 09:38 21.02.2020
2251 Clouds 5 1018 75 10000 8.2 270 09:20 21.02.2020
2252 Clouds 5 1017 80 10000 7.2 270 08:45 21.02.2020
2253 Clouds 4 1017 80 10000 7.7 270 08:22 21.02.2020
2254 Clouds 4 1016 80 10000 7.2 270 07:59 21.02.2020
2255 Clouds 4 1015 86 10000 7.7 280 07:41 21.02.2020
2256 Clouds 4 1015 86 10000 7.7 280 07:20 21.02.2020
2257 Clouds 4 1015 80 10000 7.7 270 06:55 21.02.2020
2258 Clouds 4 1014 86 10000 7.2 270 06:31 21.02.2020
2259 Clouds 5 1013 80 10000 7.2 280 05:55 21.02.2020
2260 Rain 5 1011 86 10000 7.7 290 04:50 21.02.2020
2261 Rain 5 1009 86 10000 9.3 280 04:25 21.02.2020
2262 Rain 6 1009 87 10000 8.2 290 03:46 21.02.2020
2263 Rain 6 1006 93 10000 8.2 240 02:58 21.02.2020
2264 Rain 6 1007 87 10000 7.2 210 01:29 21.02.2020
2265 Rain 7 1007 81 10000 7.2 200 00:46 21.02.2020
2266 Rain 7 1007 81 10000 6.7 200 00:24 21.02.2020
2267 Rain 7 1008 75 10000 6.7 200 23:58 20.02.2020
2268 Rain 7 1008 81 10000 7.2 190 23:39 20.02.2020
2269 Clouds 7 1008 81 10000 7.2 190 23:21 20.02.2020
2270 Clouds 7 1009 81 10000 6.2 190 22:40 20.02.2020
2271 Clouds 7 1009 81 10000 6.2 190 22:21 20.02.2020
2272 Clouds 7 1010 81 10000 6.2 190 21:57 20.02.2020
2273 Rain 7 1011 81 10000 5.7 190 21:39 20.02.2020
2274 Rain 7 1011 81 10000 5.7 190 21:39 20.02.2020
2275 Rain 7 1011 81 10000 5.7 190 21:20 20.02.2020
2276 Clouds 7 1011 81 10000 5.7 190 20:56 20.02.2020
2277 Clouds 7 1012 81 10000 5.7 190 20:38 20.02.2020
2278 Clouds 7 1012 81 10000 5.7 190 20:19 20.02.2020
2279 Clouds 7 1012 81 10000 6.2 180 19:59 20.02.2020
2280 Clouds 7 1012 81 10000 6.2 180 19:41 20.02.2020
2281 Clouds 7 1012 81 10000 6.2 180 19:23 20.02.2020
2282 Clouds 6 1013 87 10000 5.7 180 18:55 20.02.2020
2283 Clouds 6 1013 87 10000 5.1 180 18:37 20.02.2020
2284 Clouds 6 1013 87 10000 5.1 180 18:18 20.02.2020
2285 Clouds 6 1013 87 10000 5.7 180 17:39 20.02.2020
2286 Clouds 6 1015 93 10000 5.1 190 17:20 20.02.2020
2287 Clouds 6 1015 93 10000 5.1 190 16:58 20.02.2020
2288 Clouds 6 1015 93 10000 5.1 190 16:39 20.02.2020
2289 Clouds 6 1015 93 10000 5.1 190 16:39 20.02.2020
2290 Clouds 6 1015 93 10000 5.1 190 16:19 20.02.2020
2291 Rain 6 1015 93 10000 4.6 190 15:56 20.02.2020
2292 Rain 6 1016 93 10000 5.1 190 15:37 20.02.2020
2293 Rain 6 1016 93 10000 5.1 190 15:19 20.02.2020
2294 Rain 6 1017 87 10000 4.6 200 14:44 20.02.2020
2295 Rain 6 1017 87 10000 4.6 200 14:25 20.02.2020
2296 Rain 6 1017 87 10000 6.2 200 13:59 20.02.2020
2297 Rain 6 1017 81 10000 4.6 200 13:41 20.02.2020
2298 Rain 6 1017 81 10000 4.6 200 13:19 20.02.2020
2299 Clouds 7 1018 75 10000 4.6 200 12:43 20.02.2020
2300 Clouds 7 1018 75 10000 4.6 200 12:21 20.02.2020
2301 Clouds 6 1018 70 10000 5.7 200 11:59 20.02.2020
2302 Clouds 6 1018 82 10000 4.6 190 11:41 20.02.2020
2303 Clouds 6 1018 77 10000 4.6 190 11:22 20.02.2020
2304 Clouds 5 1018 77 10000 5.1 200 10:57 20.02.2020
2305 Clouds 5 1019 77 10000 4.6 190 10:38 20.02.2020
2306 Clouds 5 1019 77 10000 4.6 190 10:20 20.02.2020
2307 Clouds 4 1019 74 10000 4.1 190 09:44 20.02.2020
2308 Clouds 3 1019 74 10000 4.1 190 09:24 20.02.2020
2309 Clouds 3 1019 74 10000 4.1 190 09:24 20.02.2020
2310 Clouds 3 1019 74 10000 3.6 190 08:57 20.02.2020
2311 Clouds 3 1019 80 10000 4.1 180 08:38 20.02.2020
2312 Clouds 2 1019 80 10000 4.1 180 08:19 20.02.2020
2313 Clouds 2 1019 80 10000 4.1 190 07:45 20.02.2020
2314 Clouds 1 1019 80 10000 3.6 190 07:21 20.02.2020
2315 Clouds 1 1019 80 10000 3.6 190 06:52 20.02.2020
2316 Clouds 1 1019 80 10000 3.1 190 06:26 20.02.2020
2317 Clouds 2 1019 80 10000 3.1 180 05:45 20.02.2020
2318 Clouds 2 1019 79 10000 2.1 230 04:54 20.02.2020
2319 Clouds 3 1019 79 10000 4.1 250 03:58 20.02.2020
2320 Clouds 4 1019 80 10000 4.6 250 03:29 20.02.2020
2321 Clouds 5 1019 80 10000 5.7 260 02:25 20.02.2020
2322 Clouds 5 1018 75 10000 5.7 270 01:18 20.02.2020
2323 Clouds 4 1018 86 10000 5.7 260 00:33 20.02.2020
2324 Clouds 5 1018 86 10000 6.2 270 23:52 19.02.2020
2325 Clouds 5 1018 86 10000 5.1 270 23:23 19.02.2020
2326 Clouds 5 1017 86 10000 6.7 280 22:54 19.02.2020
2327 Rain 5 1017 86 10000 7.2 270 22:36 19.02.2020
2328 Rain 5 1017 86 10000 7.2 270 22:18 19.02.2020
2329 Rain 5 1017 93 10000 6.7 270 21:55 19.02.2020
2330 Rain 5 1017 86 8000 5.7 280 21:36 19.02.2020
2331 Rain 5 1017 86 8000 5.7 280 21:18 19.02.2020
2332 Rain 5 1016 86 7000 6.7 270 20:55 19.02.2020
2333 Rain 5 1016 86 10000 7.2 270 20:36 19.02.2020
2334 Rain 5 1016 86 10000 7.2 270 20:18 19.02.2020
2335 Rain 5 1016 86 10000 6.2 260 19:54 19.02.2020
2336 Rain 5 1015 86 10000 6.7 270 19:36 19.02.2020
2337 Rain 5 1015 86 10000 6.7 270 19:18 19.02.2020
2338 Rain 5 1015 93 10000 6.2 270 18:55 19.02.2020
2339 Rain 4 1014 93 10000 2.1 280 18:37 19.02.2020
2340 Rain 4 1014 93 10000 2.1 280 18:19 19.02.2020
2341 Rain 4 1014 93 4000 5.1 330 17:42 19.02.2020
2342 Rain 5 1014 93 4000 5.1 330 17:19 19.02.2020
2343 Rain 6 1013 75 10000 7.7 270 16:44 19.02.2020
2344 Clouds 6 1013 75 10000 7.7 270 16:19 19.02.2020
2345 Clouds 6 1012 75 10000 6.2 280 15:58 19.02.2020
2346 Clouds 7 1012 70 10000 8.2 270 15:39 19.02.2020
2347 Clouds 7 1012 70 10000 8.2 270 15:20 19.02.2020
2348 Rain 7 1011 70 10000 9.3 270 14:55 19.02.2020
2349 Clouds 7 1011 70 10000 8.2 270 14:36 19.02.2020
2350 Clouds 7 1011 70 10000 8.2 270 14:18 19.02.2020
2351 Clouds 7 1011 81 10000 5.1 280 13:41 19.02.2020
2352 Clouds 6 1011 81 10000 5.1 280 13:20 19.02.2020
2353 Clouds 6 1011 81 10000 6.2 270 12:41 19.02.2020
2354 Clouds 6 1010 81 10000 5.7 270 12:19 19.02.2020
2355 Clouds 5 1010 93 10000 5.7 270 11:58 19.02.2020
2356 Clouds 5 1010 93 10000 5.7 270 11:37 19.02.2020
2357 Rain 5 1010 93 10000 5.7 270 11:19 19.02.2020
2358 Rain 5 1010 93 10000 6.7 270 10:57 19.02.2020
2359 Rain 5 1009 87 10000 7.2 220 10:38 19.02.2020
2360 Rain 5 1009 87 10000 7.2 220 10:19 19.02.2020
2361 Rain 5 1009 93 10000 6.2 210 09:57 19.02.2020
2362 Rain 5 1009 86 10000 6.7 210 09:37 19.02.2020
2363 Rain 5 1009 86 10000 6.7 210 09:18 19.02.2020
2364 Rain 5 1009 86 10000 6.7 210 09:18 19.02.2020
2365 Rain 5 1009 86 10000 6.7 210 09:18 19.02.2020
2366 Rain 5 1009 81 10000 7.2 210 08:44 19.02.2020
2367 Rain 5 1009 81 10000 7.2 210 08:24 19.02.2020
2368 Rain 5 1009 81 10000 7.2 210 08:24 19.02.2020
2369 Clouds 6 1010 70 10000 6.7 200 07:42 19.02.2020
2370 Clouds 6 1010 70 10000 6.7 200 07:21 19.02.2020
2371 Clouds 6 1010 70 10000 6.2 200 06:53 19.02.2020
2372 Clouds 6 1010 70 10000 6.2 200 06:53 19.02.2020
2373 Clouds 6 1011 70 10000 6.7 200 06:27 19.02.2020
2374 Clouds 5 1012 70 10000 7.2 210 04:24 19.02.2020
2375 Clouds 5 1014 70 10000 6.7 220 02:56 19.02.2020
2376 Clouds 5 1014 70 10000 6.2 220 02:31 19.02.2020
2377 Clouds 5 1015 70 10000 6.7 230 01:24 19.02.2020
2378 Clouds 5 1016 75 10000 6.2 220 00:51 19.02.2020
2379 Clouds 5 1016 75 10000 6.2 220 00:51 19.02.2020
2380 Clouds 5 1016 70 10000 5.7 220 00:32 19.02.2020
2381 Clouds 5 1016 70 10000 6.7 230 23:56 18.02.2020
2382 Clouds 5 1017 70 10000 7.2 220 23:37 18.02.2020
2383 Clouds 5 1017 70 10000 7.2 220 23:19 18.02.2020
2384 Clouds 5 1017 70 10000 6.2 230 22:43 18.02.2020
2385 Clouds 6 1017 70 10000 6.2 230 22:20 18.02.2020
2386 Clouds 6 1017 70 10000 7.2 240 21:58 18.02.2020
2387 Clouds 6 1017 65 10000 6.7 230 21:38 18.02.2020
2388 Clouds 6 1017 65 10000 6.7 230 21:19 18.02.2020
2389 Clouds 6 1017 65 10000 6.2 230 20:58 18.02.2020
2390 Clouds 7 1017 65 10000 6.7 230 20:38 18.02.2020
2391 Clouds 7 1017 65 10000 6.7 230 20:20 18.02.2020
2392 Clouds 7 1018 63 10000 6.7 220 19:56 18.02.2020
2393 Clouds 7 1018 63 10000 7.2 230 19:37 18.02.2020
2394 Clouds 7 1018 63 10000 4.6 230 19:18 18.02.2020
2395 Rain 7 1017 65 10000 6.2 240 18:41 18.02.2020
2396 Rain 7 1017 65 10000 6.2 240 18:21 18.02.2020
2397 Clouds 7 1017 65 10000 5.7 230 17:57 18.02.2020
2398 Rain 7 1017 65 10000 5.1 250 17:38 18.02.2020
2399 Rain 8 1017 65 10000 5.1 250 17:19 18.02.2020
2400 Rain 8 1018 56 10000 7.2 260 16:40 18.02.2020
2401 Rain 8 1018 56 10000 7.2 260 16:21 18.02.2020
2402 Clouds 8 1018 56 10000 9.3 260 15:54 18.02.2020
2403 Clouds 8 1018 56 10000 9.3 260 15:36 18.02.2020
2404 Clouds 8 1018 61 10000 7.7 260 15:18 18.02.2020
2405 Clouds 8 1018 61 10000 7.7 260 14:54 18.02.2020
2406 Clouds 8 1018 65 10000 8.7 260 14:36 18.02.2020
2407 Clouds 8 1018 65 10000 8.7 260 14:18 18.02.2020
2408 Rain 7 1018 75 10000 8.7 260 13:41 18.02.2020
2409 Rain 7 1018 75 10000 8.7 260 13:21 18.02.2020
2410 Rain 7 1018 65 10000 11.3 250 12:44 18.02.2020
2411 Rain 8 1018 70 10000 9.3 260 12:25 18.02.2020
2412 Clouds 7 1018 75 10000 9.8 260 11:56 18.02.2020
2413 Clouds 7 1017 75 10000 9.3 260 11:38 18.02.2020
2414 Clouds 7 1017 75 10000 9.3 260 11:20 18.02.2020
2415 Clouds 7 1017 75 10000 7.7 260 10:44 18.02.2020
2416 Rain 6 1017 81 10000 7.7 270 10:24 18.02.2020
2417 Rain 7 1016 81 9000 9.8 240 09:57 18.02.2020
2418 Rain 7 1016 75 10000 7.7 250 09:39 18.02.2020
2419 Clouds 7 1016 75 10000 7.7 250 09:20 18.02.2020
2420 Clouds 7 1016 75 10000 7.7 250 09:20 18.02.2020
2421 Clouds 7 1016 75 10000 7.2 230 08:58 18.02.2020
2422 Clouds 7 1015 87 10000 6.7 240 08:39 18.02.2020
2423 Clouds 6 1015 87 10000 6.7 240 08:19 18.02.2020
2424 Clouds 6 1015 81 10000 7.2 240 07:51 18.02.2020
2425 Clouds 6 1015 81 10000 7.2 250 07:26 18.02.2020
2426 Clouds 6 1014 75 10000 8.2 250 06:55 18.02.2020
2427 Clouds 7 1014 75 10000 8.7 250 06:29 18.02.2020
2428 Clouds 7 1014 81 10000 7.7 240 05:49 18.02.2020
2429 Clouds 7 1014 75 10000 7.7 240 05:22 18.02.2020
2430 Clouds 7 1014 81 10000 6.7 230 03:55 18.02.2020
2431 Rain 7 1014 70 0 8.7 240 02:58 18.02.2020
2432 Clouds 7 1013 70 10000 6.7 230 01:27 18.02.2020
2433 Clouds 7 1013 70 10000 6.7 240 00:44 18.02.2020
2434 Clouds 7 1013 70 10000 6.7 240 00:19 18.02.2020
2435 Clouds 7 1013 70 10000 8.2 230 23:44 17.02.2020
2436 Clouds 8 1013 70 10000 8.2 230 23:24 17.02.2020
2437 Clouds 8 1013 70 10000 6.2 230 22:59 17.02.2020
2438 Clear 8 1013 70 10000 7.7 240 22:40 17.02.2020
2439 Clear 8 1013 70 10000 7.7 240 22:20 17.02.2020
2440 Clear 8 1013 70 10000 7.7 240 22:20 17.02.2020
2441 Clouds 8 1013 70 10000 7.7 230 21:40 17.02.2020
2442 Clear 8 1013 65 10000 6.7 220 21:19 17.02.2020
2443 Clear 8 1012 65 10000 5.7 220 20:57 17.02.2020
2444 Clear 8 1012 65 10000 6.2 220 20:38 17.02.2020
2445 Clouds 8 1012 65 10000 6.2 220 20:20 17.02.2020
2446 Clouds 8 1012 65 10000 6.7 220 19:54 17.02.2020
2447 Clouds 8 1012 61 10000 6.7 220 19:36 17.02.2020
2448 Clouds 8 1012 61 10000 6.7 220 19:18 17.02.2020
2449 Clouds 9 1012 61 10000 5.7 220 18:37 17.02.2020
2450 Clouds 9 1012 61 10000 5.7 220 18:37 17.02.2020
2451 Clouds 9 1012 61 10000 5.7 220 18:19 17.02.2020
2452 Clouds 9 1012 57 10000 5.7 220 17:55 17.02.2020
2453 Clouds 10 1012 57 10000 6.2 220 17:36 17.02.2020
2454 Clouds 10 1012 57 10000 6.2 220 17:18 17.02.2020
2455 Clouds 10 1012 57 10000 6.2 230 16:43 17.02.2020
2456 Clouds 10 1012 57 10000 6.2 230 16:23 17.02.2020
2457 Clouds 11 1012 53 10000 6.7 230 15:59 17.02.2020
2458 Clouds 11 1012 53 10000 7.2 230 15:41 17.02.2020
2459 Clouds 11 1012 53 10000 7.2 230 15:22 17.02.2020
2460 Clouds 11 1012 50 10000 7.7 240 14:46 17.02.2020
2461 Clouds 11 1012 50 10000 9.3 230 14:27 17.02.2020
2462 Clouds 11 1012 50 10000 7.2 240 13:59 17.02.2020
2463 Clouds 11 1012 50 10000 10.3 240 13:40 17.02.2020
2464 Clouds 11 1012 50 10000 10.3 240 13:20 17.02.2020
2465 Clouds 11 1012 48 10000 9.8 240 12:56 17.02.2020
2466 Clouds 11 1012 50 10000 10.3 240 12:37 17.02.2020
2467 Clouds 11 1012 50 10000 10.3 240 12:19 17.02.2020
2468 Clouds 11 1013 53 10000 10.8 240 11:43 17.02.2020
2469 Clouds 10 1012 53 10000 10.3 240 11:24 17.02.2020
2470 Clouds 10 1012 57 10000 10.3 240 10:56 17.02.2020
2471 Clouds 10 1012 57 10000 8.2 230 10:38 17.02.2020
2472 Clouds 10 1012 57 10000 8.2 230 10:19 17.02.2020
2473 Clouds 10 1012 57 10000 8.7 240 09:56 17.02.2020
2474 Clouds 10 1012 61 10000 7.7 240 09:37 17.02.2020
2475 Clouds 10 1012 61 10000 7.7 240 09:18 17.02.2020
2476 Clouds 10 1011 57 10000 10.3 240 08:41 17.02.2020
2477 Clouds 10 1011 57 10000 10.3 240 08:23 17.02.2020
2478 Clouds 10 1010 57 10000 9.3 240 07:57 17.02.2020
2479 Clouds 10 1010 57 10000 10.8 240 07:28 17.02.2020
2480 Clouds 10 1009 61 10000 10.3 250 06:57 17.02.2020
2481 Clouds 10 1009 66 10000 10.3 250 06:39 17.02.2020
2482 Clouds 10 1009 66 10000 10.3 250 06:19 17.02.2020
2483 Clouds 10 1008 71 10000 7.7 240 05:40 17.02.2020
2484 Rain 10 1007 76 10000 9.3 240 04:23 17.02.2020
2485 Rain 10 1006 76 10000 8.2 250 02:49 17.02.2020
2486 Rain 12 1006 76 10000 11.3 280 01:22 17.02.2020
2487 Clouds 14 1001 44 10000 8.2 220 00:39 17.02.2020
2488 Clouds 15 1001 44 10000 8.2 220 00:19 17.02.2020
2489 Clouds 15 1000 41 10000 8.7 210 23:48 16.02.2020
2490 Clouds 15 1000 41 10000 8.2 200 23:27 16.02.2020
2491 Clouds 15 1000 44 10000 7.2 200 22:56 16.02.2020
2492 Clouds 15 1001 44 10000 6.2 190 22:38 16.02.2020
2493 Clouds 15 1001 44 10000 6.2 190 22:19 16.02.2020
2494 Clouds 14 1001 44 10000 7.2 200 21:55 16.02.2020
2495 Clouds 14 1001 44 10000 7.2 200 21:36 16.02.2020
2496 Clouds 14 1001 44 10000 7.2 200 21:18 16.02.2020
2497 Clouds 14 1001 44 10000 7.7 210 20:54 16.02.2020
2498 Clouds 14 1002 44 10000 8.7 200 20:36 16.02.2020
2499 Clouds 14 1002 44 10000 8.7 200 20:18 16.02.2020
2500 Clouds 14 1002 44 10000 8.2 200 19:56 16.02.2020
2501 Clouds 14 1002 44 10000 8.2 200 19:36 16.02.2020
2502 Clouds 14 1002 44 10000 8.2 200 19:18 16.02.2020
2503 Clouds 14 1003 47 10000 9.8 200 18:41 16.02.2020
2504 Clouds 14 1003 47 10000 9.8 200 18:23 16.02.2020
2505 Clouds 14 1003 54 10000 6.7 200 17:45 16.02.2020
2506 Rain 14 1003 54 10000 7.2 200 17:21 16.02.2020
2507 Rain 14 1004 54 10000 6.7 200 16:58 16.02.2020
2508 Rain 14 1004 54 10000 7.7 210 16:39 16.02.2020
2509 Rain 14 1004 54 10000 7.7 210 16:21 16.02.2020
2510 Rain 14 1004 58 10000 6.7 200 15:59 16.02.2020
2511 Rain 14 1005 62 10000 6.7 200 15:39 16.02.2020
2512 Rain 14 1005 62 10000 6.7 200 15:21 16.02.2020
2513 Rain 14 1005 62 10000 6.7 200 15:21 16.02.2020
2514 Rain 13 1006 66 10000 6.2 200 14:41 16.02.2020
2515 Rain 13 1006 66 10000 6.2 200 14:23 16.02.2020
2516 Rain 12 1006 66 10000 7.7 200 13:49 16.02.2020
2517 Rain 11 1006 66 10000 7.7 200 13:25 16.02.2020
2518 Rain 11 1007 71 10000 7.7 190 12:58 16.02.2020
2519 Rain 10 1007 81 10000 7.2 190 12:39 16.02.2020
2520 Rain 10 1007 81 10000 7.2 190 12:19 16.02.2020
2521 Rain 10 1008 81 10000 7.7 200 11:40 16.02.2020
2522 Rain 10 1008 81 10000 7.7 200 11:19 16.02.2020
2523 Rain 10 1008 66 10000 7.7 200 10:58 16.02.2020
2524 Rain 11 1009 62 10000 7.2 200 10:40 16.02.2020
2525 Rain 11 1009 62 10000 7.2 200 10:21 16.02.2020
2526 Rain 11 1009 62 10000 7.2 200 10:21 16.02.2020
2527 Rain 11 1009 57 10000 6.7 200 09:59 16.02.2020
2528 Clouds 11 1009 57 10000 6.2 190 09:38 16.02.2020
2529 Clouds 11 1009 57 10000 6.2 190 09:20 16.02.2020
2530 Clouds 10 1009 61 10000 6.2 180 08:50 16.02.2020
2531 Clouds 10 1009 61 10000 6.7 180 08:22 16.02.2020
2532 Clouds 10 1010 61 10000 7.2 180 07:59 16.02.2020
2533 Clouds 9 1010 61 10000 5.7 180 07:40 16.02.2020
2534 Clouds 9 1010 61 10000 6.2 190 06:54 16.02.2020
2535 Clouds 9 1011 66 10000 6.2 190 06:29 16.02.2020
2536 Clouds 8 1011 70 10000 6.2 190 04:37 16.02.2020
2537 Clouds 8 1012 65 10000 5.1 190 03:20 16.02.2020
2538 Clouds 8 1014 70 10000 5.7 200 01:58 16.02.2020
2539 Clouds 8 1013 75 10000 6.2 180 01:38 16.02.2020
2540 Clouds 7 1013 75 10000 6.2 180 01:19 16.02.2020
2541 Clouds 7 1014 75 10000 5.1 190 00:51 16.02.2020
2542 Clouds 7 1015 75 10000 5.7 190 00:27 16.02.2020
2543 Clouds 7 1014 75 10000 4.6 180 23:44 15.02.2020
2544 Clouds 7 1014 75 10000 4.6 180 23:25 15.02.2020
2545 Clouds 7 1015 75 10000 5.7 190 22:59 15.02.2020
2546 Clouds 7 1015 75 10000 5.7 190 22:40 15.02.2020
2547 Clouds 7 1015 70 10000 5.7 190 22:21 15.02.2020
2548 Clouds 7 1016 70 10000 5.7 190 21:56 15.02.2020
2549 Clouds 6 1016 75 10000 5.7 180 21:37 15.02.2020
2550 Clouds 7 1016 75 10000 5.7 180 21:19 15.02.2020
2551 Clouds 7 1017 81 10000 3.6 170 20:39 15.02.2020
2552 Clouds 7 1017 81 10000 3.6 170 20:39 15.02.2020
2553 Clouds 7 1017 81 10000 3.6 170 20:21 15.02.2020
2554 Clouds 7 1017 75 10000 4.6 170 19:44 15.02.2020
2555 Clouds 7 1017 75 10000 4.6 170 19:22 15.02.2020
2556 Clouds 7 1017 75 10000 4.6 170 19:22 15.02.2020
2557 Clouds 8 1018 70 10000 3.6 170 18:45 15.02.2020
2558 Clouds 8 1019 70 10000 4.1 190 18:24 15.02.2020
2559 Clouds 8 1019 70 10000 3.6 200 17:58 15.02.2020
2560 Clouds 8 1019 70 10000 3.6 200 17:58 15.02.2020
2561 Clouds 9 1018 66 10000 4.1 200 17:39 15.02.2020
2562 Clouds 9 1018 66 10000 4.1 200 17:39 15.02.2020
2563 Clouds 9 1018 66 10000 4.1 200 17:21 15.02.2020
2564 Clouds 10 1018 66 10000 6.2 200 16:55 15.02.2020
2565 Clouds 10 1018 62 10000 6.2 200 16:36 15.02.2020
2566 Clouds 10 1018 62 10000 6.2 200 16:18 15.02.2020
2567 Clouds 10 1019 66 10000 6.7 210 15:41 15.02.2020
2568 Clouds 11 1019 66 10000 6.7 210 15:23 15.02.2020
2569 Clouds 11 1019 66 10000 6.2 200 14:45 15.02.2020
2570 Clouds 10 1020 71 10000 5.7 220 14:21 15.02.2020
2571 Clouds 10 1020 70 10000 5.1 200 13:56 15.02.2020
2572 Clouds 10 1020 75 10000 5.1 200 13:38 15.02.2020
2573 Clouds 9 1020 75 10000 5.1 200 13:20 15.02.2020
2574 Clouds 8 1021 70 10000 6.7 200 12:43 15.02.2020
2575 Clouds 8 1021 75 10000 5.7 200 12:25 15.02.2020
2576 Clouds 8 1021 75 10000 5.7 200 12:25 15.02.2020
2577 Clouds 7 1021 75 10000 4.1 200 11:55 15.02.2020
2578 Clouds 7 1022 81 10000 5.7 190 11:36 15.02.2020
2579 Clouds 6 1022 81 10000 5.7 190 11:18 15.02.2020
2580 Clouds 5 1022 86 10000 3.6 180 10:39 15.02.2020
2581 Clouds 4 1022 86 10000 3.6 180 10:21 15.02.2020
2582 Clouds 4 1022 80 10000 3.1 190 09:44 15.02.2020
2583 Clouds 3 1022 86 10000 4.1 180 09:25 15.02.2020
2584 Clouds 2 1023 86 10000 3.6 190 08:58 15.02.2020
2585 Clouds 2 1023 86 10000 3.1 180 08:39 15.02.2020
2586 Clouds 2 1023 86 10000 3.1 180 08:19 15.02.2020
2587 Clouds 2 1023 93 10000 3.6 170 07:41 15.02.2020
2588 Clouds 2 1023 93 10000 3.6 170 07:22 15.02.2020
2589 Clouds 2 1023 100 10000 3.6 190 06:38 15.02.2020
2590 Clouds 2 1023 100 10000 3.6 190 06:20 15.02.2020
2591 Clouds 2 1024 100 8000 3.1 180 04:51 15.02.2020
2592 Clouds 2 1024 100 10000 1.5 190 04:26 15.02.2020
2593 Clouds 2 1024 100 10000 1.5 190 02:59 15.02.2020
2594 Clouds 2 1024 100 10000 1.5 170 02:28 15.02.2020
2595 Clouds 2 1024 100 10000 1.5 240 01:59 15.02.2020
2596 Clouds 2 1024 100 10000 2.6 160 01:37 15.02.2020
2597 Clouds 2 1024 93 10000 1 150 00:36 15.02.2020
2598 Clouds 3 1024 100 10000 1 170 00:18 15.02.2020
2599 Fog 3 1024 100 10000 1 0 23:38 14.02.2020
2600 Fog 3 1024 100 10000 1 0 23:18 14.02.2020
2601 Fog 3 1024 100 10000 2.1 180 22:43 14.02.2020
2602 Fog 3 1024 100 10000 1.5 250 22:22 14.02.2020
2603 Fog 3 1024 100 10000 0.5 0 21:50 14.02.2020
2604 Clouds 4 1023 100 10000 0.5 0 21:31 14.02.2020
2605 Clouds 4 1023 93 10000 1 0 20:58 14.02.2020
2606 Clouds 4 1023 93 10000 1 0 20:39 14.02.2020
2607 Clouds 4 1023 93 10000 1 0 20:19 14.02.2020
2608 Clouds 5 1022 93 10000 1 280 19:42 14.02.2020
2609 Clouds 5 1022 93 10000 1 280 19:24 14.02.2020
2610 Clouds 5 1022 93 10000 1.5 320 18:59 14.02.2020
2611 Clouds 5 1021 87 10000 1.5 330 18:40 14.02.2020
2612 Clouds 5 1021 87 10000 1.5 330 18:21 14.02.2020
2613 Clouds 6 1021 87 8000 2.1 300 17:59 14.02.2020
2614 Clouds 6 1021 87 8000 2.1 300 17:40 14.02.2020
2615 Clouds 6 1020 87 9000 3.6 320 17:18 14.02.2020
2616 Clouds 6 1019 87 8000 3.6 290 16:42 14.02.2020
2617 Clouds 6 1019 87 8000 3.6 290 16:42 14.02.2020
2618 Clouds 6 1019 87 8000 3.6 290 16:24 14.02.2020
2619 Clouds 6 1019 87 7000 3.6 310 15:58 14.02.2020
2620 Clouds 6 1018 87 6000 4.1 290 15:39 14.02.2020
2621 Clouds 6 1018 87 6000 4.1 290 15:21 14.02.2020
2622 Drizzle 6 1018 93 6000 2.6 280 14:59 14.02.2020
2623 Drizzle 6 1018 93 6000 2.6 280 14:41 14.02.2020
2624 Clouds 6 1017 93 7000 3.1 270 14:41 14.02.2020
2625 Clouds 6 1017 93 7000 3.1 270 14:22 14.02.2020
2626 Drizzle 6 1017 93 6000 2.6 290 13:57 14.02.2020
2627 Drizzle 6 1017 93 6000 3.1 280 13:39 14.02.2020
2628 Drizzle 5 1017 93 6000 3.1 280 13:20 14.02.2020
2629 Drizzle 5 1016 93 7000 2.6 300 12:57 14.02.2020
2630 Drizzle 5 1016 93 7000 2.6 300 12:57 14.02.2020
2631 Drizzle 5 1015 86 7000 2.1 300 12:38 14.02.2020
2632 Drizzle 5 1015 86 7000 2.1 300 12:20 14.02.2020
2633 Clouds 5 1015 86 7000 2.1 280 11:57 14.02.2020
2634 Clouds 5 1015 86 7000 2.1 280 11:57 14.02.2020
2635 Drizzle 5 1014 93 7000 1.5 280 11:39 14.02.2020
2636 Drizzle 5 1014 93 7000 1.5 280 11:19 14.02.2020
2637 Clouds 5 1014 93 7000 2.1 290 10:43 14.02.2020
2638 Clouds 4 1013 93 7000 1.5 300 10:23 14.02.2020
2639 Clouds 4 1013 93 7000 1 0 09:56 14.02.2020
2640 Clouds 4 1012 100 7000 1.5 260 09:37 14.02.2020
2641 Clouds 4 1012 100 7000 1.5 260 09:19 14.02.2020
2642 Clouds 3 1011 93 10000 2.1 280 08:40 14.02.2020
2643 Clouds 3 1011 93 10000 2.1 280 08:22 14.02.2020
2644 Clouds 2 1010 100 10000 1 0 07:50 14.02.2020
2645 Rain 2 1009 100 10000 1 0 07:31 14.02.2020
2646 Rain 2 1009 100 6000 1.5 240 06:55 14.02.2020
2647 Mist 2 1008 100 4500 0.5 0 06:23 14.02.2020
2648 Mist 2 1008 100 4000 1 0 05:44 14.02.2020
2649 Clouds 3 1006 93 7000 1.5 310 04:22 14.02.2020
2650 Clouds 3 1005 100 10000 1.5 290 03:28 14.02.2020
2651 Clouds 3 1004 93 10000 1 0 02:20 14.02.2020
2652 Clouds 4 1003 93 10000 1.5 210 01:22 14.02.2020
2653 Clouds 4 1003 93 10000 1 0 00:42 14.02.2020
2654 Clouds 4 1003 93 10000 1 0 00:42 14.02.2020
2655 Clouds 4 1003 93 10000 1 0 00:42 14.02.2020
2656 Clouds 4 1003 93 10000 2.1 150 00:21 14.02.2020
2657 Rain 4 1002 86 10000 3.6 140 23:43 13.02.2020
2658 Rain 4 1002 86 10000 3.6 140 23:20 13.02.2020
2659 Rain 4 1003 86 10000 4.6 130 22:43 13.02.2020
2660 Rain 4 1003 86 10000 4.6 130 22:20 13.02.2020
2661 Rain 4 1003 86 10000 4.1 150 21:59 13.02.2020
2662 Rain 4 1002 86 10000 5.7 140 21:40 13.02.2020
2663 Rain 4 1002 86 10000 5.7 140 21:22 13.02.2020
2664 Rain 4 1003 80 10000 5.7 150 20:56 13.02.2020
2665 Rain 4 1003 86 10000 5.7 140 20:38 13.02.2020
2666 Rain 4 1003 86 10000 5.7 140 20:20 13.02.2020
2667 Rain 4 1003 86 10000 4.6 130 19:55 13.02.2020
2668 Rain 4 1004 80 10000 4.6 140 19:36 13.02.2020
2669 Rain 4 1004 80 10000 4.6 140 19:36 13.02.2020
2670 Rain 4 1004 80 10000 4.6 140 19:36 13.02.2020
2671 Rain 4 1004 80 0 6.2 140 19:18 13.02.2020
2672 Rain 4 1005 78 10000 6.7 160 18:43 13.02.2020
2673 Rain 4 1005 78 10000 6.7 160 18:24 13.02.2020
2674 Rain 5 1005 60 10000 7.2 160 17:59 13.02.2020
2675 Rain 5 1005 60 10000 6.2 140 17:40 13.02.2020
2676 Clouds 5 1005 60 10000 6.2 140 17:20 13.02.2020
2677 Clouds 5 1006 61 10000 4.6 150 16:58 13.02.2020
2678 Clouds 6 1007 61 10000 4.6 150 16:37 13.02.2020
2679 Clouds 6 1007 61 10000 4.6 150 16:19 13.02.2020
2680 Clouds 6 1007 61 10000 4.1 150 15:56 13.02.2020
2681 Clouds 6 1008 61 10000 4.6 150 15:37 13.02.2020
2682 Clouds 6 1008 61 10000 4.6 150 15:19 13.02.2020
2683 Clouds 6 1008 61 10000 4.6 170 14:56 13.02.2020
2684 Clouds 6 1009 61 10000 5.1 170 14:38 13.02.2020
2685 Clouds 6 1010 60 10000 6.2 170 14:20 13.02.2020
2686 Clouds 6 1010 60 10000 5.1 180 13:46 13.02.2020
2687 Clouds 6 1010 61 10000 5.1 180 13:18 13.02.2020
2688 Clouds 6 1010 61 10000 5.1 180 13:18 13.02.2020
2689 Clouds 6 1011 61 10000 6.2 180 12:56 13.02.2020
2690 Clouds 6 1012 61 10000 4.6 180 12:37 13.02.2020
2691 Clouds 6 1012 61 10000 4.6 180 12:37 13.02.2020
2692 Clouds 6 1012 61 10000 4.6 180 12:19 13.02.2020
2693 Clouds 5 1012 61 10000 5.1 200 11:43 13.02.2020
2694 Clear 5 1012 73 10000 4.1 190 11:20 13.02.2020
2695 Clear 5 1012 73 10000 4.6 200 10:55 13.02.2020
2696 Clear 4 1013 69 10000 4.6 210 10:37 13.02.2020
2697 Clear 3 1013 74 10000 4.6 200 10:19 13.02.2020
2698 Clear 3 1013 74 10000 3.6 210 09:41 13.02.2020
2699 Clear 2 1013 74 10000 3.6 210 09:22 13.02.2020
2700 Clear 2 1014 74 10000 5.7 230 08:44 13.02.2020
2701 Clouds 1 1014 74 10000 5.7 230 08:19 13.02.2020
2702 Clouds 1 1013 80 10000 5.1 240 07:42 13.02.2020
2703 Clouds 1 1013 80 10000 5.1 240 07:22 13.02.2020
2704 Clouds 1 1013 80 10000 5.1 240 07:22 13.02.2020
2705 Clouds 1 1013 80 10000 5.7 240 06:52 13.02.2020
2706 Clouds 1 1013 80 10000 7.2 240 06:33 13.02.2020
2707 Clouds 2 1013 80 10000 6.2 250 05:43 13.02.2020
2708 Clouds 2 1013 80 10000 7.2 250 04:45 13.02.2020
2709 Clouds 2 1013 80 10000 6.7 250 04:18 13.02.2020
2710 Clouds 2 1013 80 10000 7.2 250 03:30 13.02.2020
2711 Clouds 3 1013 74 10000 7.2 240 02:56 13.02.2020
2712 Clouds 3 1013 74 10000 6.2 240 02:20 13.02.2020
2713 Clouds 3 1012 74 10000 5.7 250 01:41 13.02.2020
2714 Clouds 3 1012 74 10000 5.7 240 00:57 13.02.2020
2715 Clouds 3 1012 74 10000 6.7 260 00:27 13.02.2020
2716 Clouds 3 1011 74 10000 5.1 250 23:43 12.02.2020
2717 Clouds 3 1011 74 10000 5.1 250 23:23 12.02.2020
2718 Clouds 3 1011 74 10000 5.1 250 23:23 12.02.2020
2719 Clouds 3 1011 74 10000 7.2 250 22:59 12.02.2020
2720 Clouds 3 1011 69 10000 6.7 260 22:41 12.02.2020
2721 Clouds 4 1011 69 10000 6.7 260 22:22 12.02.2020
2722 Clouds 4 1011 64 10000 8.2 260 21:55 12.02.2020
2723 Clouds 4 1010 69 10000 9.3 260 21:37 12.02.2020
2724 Clouds 4 1010 69 10000 9.3 260 21:18 12.02.2020
2725 Clouds 4 1010 69 10000 8.7 260 20:43 12.02.2020
2726 Clouds 4 1010 69 10000 8.7 250 20:25 12.02.2020
2727 Clouds 5 1009 69 10000 8.7 260 20:00 12.02.2020
2728 Clouds 5 1009 65 10000 9.8 260 19:41 12.02.2020
2729 Clouds 5 1009 65 10000 9.8 260 19:22 12.02.2020
2730 Clouds 5 1009 60 10000 10.3 260 18:54 12.02.2020
2731 Clouds 5 1008 65 10000 10.3 260 18:36 12.02.2020
2732 Clouds 5 1008 65 10000 10.3 260 18:18 12.02.2020
2733 Clouds 5 1008 56 10000 10.3 270 17:41 12.02.2020
2734 Clouds 6 1008 56 10000 10.3 270 17:19 12.02.2020
2735 Clouds 6 1007 56 10000 8.2 260 16:57 12.02.2020
2736 Snow 6 1007 56 10000 9.3 260 16:37 12.02.2020
2737 Clouds 6 1007 52 10000 11.8 260 16:18 12.02.2020
2738 Clouds 6 1006 52 10000 10.8 270 15:40 12.02.2020
2739 Clouds 6 1006 52 10000 10.8 270 15:20 12.02.2020
2740 Clouds 6 1006 56 10000 11.8 270 14:56 12.02.2020
2741 Clouds 6 1006 56 10000 11.3 260 14:38 12.02.2020
2742 Clouds 6 1006 56 10000 11.3 260 14:19 12.02.2020
2743 Clouds 6 1006 56 10000 11.3 270 13:56 12.02.2020
2744 Clouds 6 1005 56 10000 13.4 260 13:37 12.02.2020
2745 Clouds 6 1005 56 10000 13.4 260 13:18 12.02.2020
2746 Clouds 6 1005 56 10000 12.9 260 12:56 12.02.2020
2747 Clouds 6 1005 60 10000 12.9 260 12:37 12.02.2020
2748 Clouds 6 1005 60 10000 12.9 260 12:18 12.02.2020
2749 Clouds 5 1005 60 10000 11.3 250 11:55 12.02.2020
2750 Clouds 5 1005 65 10000 9.8 240 11:37 12.02.2020
2751 Clouds 5 1005 65 10000 9.8 240 11:19 12.02.2020
2752 Clouds 5 1005 60 10000 10.3 250 10:54 12.02.2020
2753 Clouds 5 1004 60 10000 10.8 250 10:36 12.02.2020
2754 Clouds 4 1004 64 10000 10.3 240 10:18 12.02.2020
2755 Clouds 4 1004 69 10000 11.3 240 09:41 12.02.2020
2756 Clouds 4 1004 69 10000 11.3 240 09:21 12.02.2020
2757 Clouds 4 1004 69 10000 11.3 240 09:21 12.02.2020
2758 Clouds 4 1004 69 10000 9.8 250 08:57 12.02.2020
2759 Clouds 4 1004 69 10000 9.8 250 08:37 12.02.2020
2760 Clouds 4 1004 69 10000 9.8 250 08:19 12.02.2020
2761 Clouds 3 1004 69 10000 9.3 250 07:44 12.02.2020
2762 Clouds 3 1003 69 10000 9.8 250 07:23 12.02.2020
2763 Clouds 4 1003 64 10000 9.8 250 06:56 12.02.2020
2764 Clouds 3 1003 64 10000 9.8 250 06:23 12.02.2020
2765 Clouds 4 1003 64 10000 9.8 240 05:38 12.02.2020
2766 Clouds 4 1002 64 10000 9.8 250 04:58 12.02.2020
2767 Clouds 3 1002 74 10000 10.3 250 04:39 12.02.2020
2768 Clouds 3 1002 74 10000 9.8 250 03:37 12.02.2020
2769 Clouds 3 1002 74 10000 9.8 250 03:19 12.02.2020
2770 Clouds 3 1002 74 10000 9.3 240 02:30 12.02.2020
2771 Clouds 3 1002 74 10000 10.8 250 01:59 12.02.2020
2772 Clouds 3 1002 74 10000 12.9 260 00:58 12.02.2020
2773 Clouds 3 1001 74 10000 11.8 260 00:39 12.02.2020
2774 Clouds 3 1001 74 10000 11.8 260 00:21 12.02.2020
2775 Clouds 3 1001 64 10000 9.3 250 23:42 11.02.2020
2776 Clouds 3 1001 63 10000 9.3 250 23:24 11.02.2020
2777 Clouds 3 1001 74 10000 9.3 260 22:56 11.02.2020
2778 Clouds 3 1000 74 10000 10.8 260 22:38 11.02.2020
2779 Clouds 4 1000 74 10000 10.8 260 22:19 11.02.2020
2780 Clouds 4 1000 63 10000 9.8 250 21:56 11.02.2020
2781 Clouds 4 1000 63 10000 9.8 250 21:56 11.02.2020
2782 Clouds 4 1000 63 10000 11.3 260 21:37 11.02.2020
2783 Clouds 4 999 69 10000 9.8 260 21:18 11.02.2020
2784 Clouds 4 999 69 10000 9.8 260 21:18 11.02.2020
2785 Clouds 4 999 69 10000 9.8 260 20:56 11.02.2020
2786 Clouds 4 999 62 10000 10.8 250 20:38 11.02.2020
2787 Clouds 4 999 65 10000 10.8 250 20:18 11.02.2020
2788 Clouds 4 999 65 10000 10.8 250 20:18 11.02.2020
2789 Clouds 4 999 80 10000 10.3 250 19:54 11.02.2020
2790 Rain 4 999 80 10000 9.3 250 19:36 11.02.2020
2791 Rain 4 999 80 10000 9.3 250 19:18 11.02.2020
2792 Rain 4 998 75 10000 10.3 260 18:42 11.02.2020
2793 Rain 4 998 75 10000 10.3 260 18:24 11.02.2020
2794 Clouds 5 998 75 10000 10.8 260 17:55 11.02.2020
2795 Rain 5 997 65 10000 12.9 270 17:37 11.02.2020
2796 Rain 6 996 60 10000 13.4 250 17:18 11.02.2020
2797 Rain 6 996 60 10000 13.4 250 16:58 11.02.2020
2798 Clouds 6 996 52 10000 9.8 240 16:38 11.02.2020
2799 Clouds 6 996 52 10000 9.8 240 16:20 11.02.2020
2800 Clouds 6 996 52 10000 10.8 260 15:48 11.02.2020
2801 Clouds 6 996 52 10000 10.8 260 15:29 11.02.2020
2802 Clouds 7 996 56 10000 12.9 260 14:59 11.02.2020
2803 Clouds 7 996 56 10000 11.8 260 14:41 11.02.2020
2804 Clouds 7 996 56 10000 11.8 260 14:19 11.02.2020
2805 Clouds 7 995 56 10000 11.8 250 13:42 11.02.2020
2806 Clouds 6 995 56 10000 11.8 250 13:23 11.02.2020
2807 Clouds 6 995 56 10000 12.3 250 12:59 11.02.2020
2808 Clouds 6 995 56 10000 11.3 250 12:41 11.02.2020
2809 Clouds 6 995 56 10000 11.3 250 12:22 11.02.2020
2810 Clouds 6 995 60 10000 10.3 250 11:58 11.02.2020
2811 Clouds 6 995 56 10000 12.9 240 11:40 11.02.2020
2812 Clouds 6 995 73 10000 12.9 240 11:19 11.02.2020
2813 Clouds 5 995 73 10000 10.3 250 10:54 11.02.2020
2814 Clouds 5 994 73 10000 9.3 250 10:36 11.02.2020
2815 Clouds 5 994 73 10000 9.3 250 10:18 11.02.2020
2816 Clouds 4 994 73 10000 10.8 240 09:42 11.02.2020
2817 Clouds 4 994 73 10000 10.8 240 09:22 11.02.2020
2818 Clouds 4 993 73 10000 10.8 250 08:55 11.02.2020
2819 Rain 4 993 65 10000 10.3 250 08:37 11.02.2020
2820 Rain 4 993 70 10000 10.3 250 08:18 11.02.2020
2821 Clouds 4 993 70 10000 9.8 260 07:41 11.02.2020
2822 Clouds 4 993 70 10000 9.8 260 07:19 11.02.2020
2823 Clouds 4 993 70 10000 9.8 260 07:19 11.02.2020
2824 Clouds 4 992 70 10000 10.8 270 06:40 11.02.2020
2825 Clouds 4 992 70 10000 10.8 270 06:20 11.02.2020
2826 Clouds 4 991 80 10000 9.3 270 05:47 11.02.2020
2827 Clouds 4 991 80 10000 9.3 270 05:21 11.02.2020
2828 Clouds 4 990 86 10000 8.2 270 04:35 11.02.2020
2829 Rain 5 988 86 10000 9.3 240 02:41 11.02.2020
2830 Rain 6 988 81 10000 11.3 240 02:22 11.02.2020
2831 Rain 6 988 75 10000 8.7 220 01:34 11.02.2020
2832 Rain 5 989 80 10000 6.7 200 00:32 11.02.2020
2833 Rain 5 990 75 10000 6.2 200 23:53 10.02.2020
2834 Rain 5 991 75 10000 5.7 200 23:33 10.02.2020
2835 Clouds 4 992 80 10000 5.1 200 22:58 10.02.2020
2836 Clouds 4 993 80 10000 5.7 200 22:39 10.02.2020
2837 Clouds 4 993 80 10000 5.7 200 22:20 10.02.2020
2838 Clouds 4 994 80 10000 6.2 220 21:43 10.02.2020
2839 Clouds 4 994 80 10000 6.2 220 21:43 10.02.2020
2840 Clouds 4 994 80 10000 6.2 220 21:25 10.02.2020
2841 Clouds 4 995 80 10000 7.2 220 20:58 10.02.2020
2842 Clouds 4 995 80 10000 6.2 230 20:39 10.02.2020
2843 Rain 4 995 80 10000 6.2 230 20:20 10.02.2020
2844 Clouds 4 995 75 10000 9.3 240 19:58 10.02.2020
2845 Clouds 5 995 75 10000 8.2 240 19:38 10.02.2020
2846 Clouds 5 995 75 10000 8.2 240 19:19 10.02.2020
2847 Clouds 5 996 80 10000 7.7 250 18:59 10.02.2020
2848 Clouds 5 995 80 10000 10.3 250 18:40 10.02.2020
2849 Clouds 5 995 80 10000 10.3 250 18:21 10.02.2020
2850 Clouds 6 995 75 10000 9.8 260 17:58 10.02.2020
2851 Rain 6 994 75 10000 13.4 260 17:38 10.02.2020
2852 Rain 6 994 75 10000 13.4 260 17:19 10.02.2020
2853 Clouds 6 994 70 10000 11.8 260 16:59 10.02.2020
2854 Clouds 7 993 70 10000 12.9 260 16:40 10.02.2020
2855 Clouds 7 993 70 10000 12.9 260 16:40 10.02.2020
2856 Clouds 7 993 70 10000 12.9 260 16:20 10.02.2020
2857 Clouds 7 993 70 10000 12.9 260 15:56 10.02.2020
2858 Clouds 7 993 70 10000 12.9 260 15:56 10.02.2020
2859 Clouds 7 992 75 10000 13.4 260 15:38 10.02.2020
2860 Clouds 7 992 75 10000 13.4 260 15:20 10.02.2020
2861 Clouds 7 991 75 10000 11.3 260 14:56 10.02.2020
2862 Rain 6 991 87 10000 12.3 250 14:37 10.02.2020
2863 Rain 6 990 81 10000 11.8 260 14:18 10.02.2020
2864 Rain 7 990 81 6000 11.3 260 13:43 10.02.2020
2865 Rain 7 990 81 6000 11.3 260 13:24 10.02.2020
2866 Clouds 7 989 81 10000 11.8 260 12:56 10.02.2020
2867 Rain 7 989 87 10000 12.3 250 12:37 10.02.2020
2868 Rain 7 989 87 10000 12.3 250 12:19 10.02.2020
2869 Rain 7 987 81 10000 9.8 240 11:45 10.02.2020
2870 Rain 8 987 81 10000 9.8 240 11:21 10.02.2020
2871 Rain 8 987 87 10000 8.7 240 10:48 10.02.2020
2872 Rain 8 987 87 10000 8.2 240 10:29 10.02.2020
2873 Rain 8 987 87 10000 7.2 250 09:55 10.02.2020
2874 Rain 8 986 87 10000 5.1 220 09:36 10.02.2020
2875 Rain 8 986 87 10000 5.1 220 09:18 10.02.2020
2876 Clouds 7 985 81 10000 5.7 250 08:40 10.02.2020
2877 Clouds 7 985 81 10000 5.7 250 08:21 10.02.2020
2878 Rain 8 985 93 10000 3.6 260 07:55 10.02.2020
2879 Rain 8 985 93 10000 4.1 280 07:32 10.02.2020
2880 Clouds 8 985 87 10000 7.2 240 06:49 10.02.2020
2881 Rain 9 985 93 9000 5.1 280 05:35 10.02.2020
2882 Rain 8 986 93 9000 6.2 250 03:55 10.02.2020
2883 Rain 10 986 93 2600 10.3 290 03:18 10.02.2020
2884 Rain 13 984 58 10000 13.9 210 02:42 10.02.2020
2885 Rain 13 987 58 10000 12.9 210 01:25 10.02.2020
2886 Clouds 13 989 58 10000 11.3 210 00:40 10.02.2020
2887 Clouds 13 989 58 10000 11.3 210 00:22 10.02.2020
2888 Clouds 12 991 58 10000 10.3 200 23:42 09.02.2020
2889 Rain 12 991 58 10000 10.3 200 23:24 09.02.2020
2890 Rain 12 993 58 10000 9.3 200 22:45 09.02.2020
2891 Rain 12 993 58 10000 9.3 200 22:23 09.02.2020
2892 Rain 12 994 62 10000 9.3 200 21:59 09.02.2020
2893 Rain 12 994 62 10000 10.3 200 21:40 09.02.2020
2894 Rain 12 994 62 10000 10.3 200 21:21 09.02.2020
2895 Rain 12 996 62 10000 10.3 200 20:46 09.02.2020
2896 Rain 12 996 50 10000 11.3 200 20:22 09.02.2020
2897 Rain 12 997 54 10000 12.9 200 19:57 09.02.2020
2898 Clouds 12 998 58 0 9.8 200 19:38 09.02.2020
2899 Clouds 12 998 58 0 9.8 200 19:38 09.02.2020
2900 Clouds 12 998 58 0 9.8 200 19:38 09.02.2020
2901 Clouds 12 998 58 0 9.8 200 19:18 09.02.2020
2902 Clouds 12 1000 58 10000 9.8 190 18:42 09.02.2020
2903 Clouds 12 1000 58 10000 9.8 190 18:23 09.02.2020
2904 Clouds 12 1001 58 10000 9.8 190 17:59 09.02.2020
2905 Clouds 12 1002 58 10000 9.8 200 17:39 09.02.2020
2906 Clouds 12 1002 58 10000 9.8 200 17:21 09.02.2020
2907 Clouds 12 1004 58 10000 9.3 190 16:41 09.02.2020
2908 Clouds 12 1004 58 10000 9.3 190 16:22 09.02.2020
2909 Clouds 12 1005 58 10000 9.3 190 15:59 09.02.2020
2910 Clouds 12 1005 58 10000 9.3 190 15:59 09.02.2020
2911 Clouds 12 1006 58 10000 10.3 200 15:41 09.02.2020
2912 -273 0 0 0 0 0 15:21 09.02.2020
2913 Clouds 12 1007 58 10000 11.3 190 14:57 09.02.2020
2914 Clouds 12 1008 58 10000 8.2 200 14:38 09.02.2020
2915 Clouds 12 1008 58 10000 8.2 200 14:20 09.02.2020
2916 Clouds 12 1010 62 10000 8.2 200 13:44 09.02.2020
2917 Clouds 12 1011 58 10000 8.2 200 13:26 09.02.2020
2918 Clouds 12 1011 62 10000 7.7 190 12:56 09.02.2020
2919 Clouds 11 1013 61 10000 6.7 190 12:38 09.02.2020
2920 Clouds 11 1013 61 10000 6.7 190 12:18 09.02.2020
2921 Clouds 10 1013 61 10000 7.7 200 11:41 09.02.2020
2922 Clear 10 1014 61 10000 7.2 200 11:22 09.02.2020
2923 Clear 9 1014 61 10000 8.2 190 10:59 09.02.2020
2924 Clear 8 1015 65 10000 6.7 190 10:40 09.02.2020
2925 Clear 8 1015 65 10000 6.7 190 10:21 09.02.2020
2926 Clear 7 1015 70 10000 6.2 190 09:46 09.02.2020
2927 Clear 7 1017 70 10000 6.2 190 09:27 09.02.2020
2928 Clear 6 1017 75 10000 5.1 190 08:45 09.02.2020
2929 Clouds 6 1017 75 10000 5.1 190 08:27 09.02.2020
2930 Clouds 6 1017 75 10000 4.6 190 07:59 09.02.2020
2931 Clouds 6 1017 75 10000 4.6 190 07:41 09.02.2020
2932 Clouds 6 1018 75 10000 4.1 190 06:48 09.02.2020
2933 Clouds 6 1018 75 10000 3.6 190 06:29 09.02.2020
2934 Clouds 6 1018 70 10000 4.6 180 05:43 09.02.2020
2935 Clouds 6 1018 70 10000 4.6 180 05:19 09.02.2020
2936 Clouds 6 1019 75 10000 2.6 180 03:53 09.02.2020
2937 Clouds 6 1019 75 10000 3.1 180 02:47 09.02.2020
2938 Rain 6 1020 75 10000 2.6 180 02:26 09.02.2020
2939 Clouds 6 1020 75 10000 3.6 200 01:35 09.02.2020
2940 Clouds 6 1020 75 10000 3.1 190 00:52 09.02.2020
2941 Clouds 6 1020 75 10000 3.6 180 00:28 09.02.2020
2942 Clouds 5 1020 70 10000 3.1 190 23:45 08.02.2020
2943 Clouds 5 1020 70 10000 3.1 190 23:23 08.02.2020
2944 Clouds 5 1020 70 10000 3.1 190 22:56 08.02.2020
2945 Clouds 5 1021 70 10000 3.1 180 22:38 08.02.2020
2946 Clouds 5 1021 70 10000 3.1 180 22:20 08.02.2020
2947 Clouds 5 1021 70 10000 3.6 180 21:44 08.02.2020
2948 Clouds 5 1021 70 10000 3.1 180 21:25 08.02.2020
2949 Clouds 5 1021 70 10000 3.1 180 20:58 08.02.2020
2950 Clouds 5 1021 70 10000 3.1 180 20:39 08.02.2020
2951 Clouds 5 1021 70 10000 3.1 180 20:19 08.02.2020
2952 Clouds 5 1021 70 10000 3.1 170 19:56 08.02.2020
2953 Clouds 5 1021 71 10000 3.1 170 19:38 08.02.2020
2954 Clouds 5 1021 71 10000 3.1 170 19:19 08.02.2020
2955 Clouds 5 1021 71 10000 3.1 190 18:44 08.02.2020
2956 Clouds 5 1021 71 10000 3.1 190 18:26 08.02.2020
2957 Clouds 6 1021 65 10000 4.1 190 17:59 08.02.2020
2958 Clouds 6 1021 71 10000 3.6 190 17:41 08.02.2020
2959 Clear 6 1021 61 10000 3.6 190 17:19 08.02.2020
2960 Clear 7 1021 61 10000 4.1 200 16:41 08.02.2020
2961 Clear 8 1021 61 10000 4.1 200 16:23 08.02.2020
2962 Clear 8 1021 61 10000 4.1 200 16:23 08.02.2020
2963 Clear 9 1022 61 10000 5.1 210 15:58 08.02.2020
2964 Clear 9 1022 61 10000 5.1 190 15:39 08.02.2020
2965 Clear 9 1022 61 10000 5.1 190 15:18 08.02.2020
2966 Clear 9 1022 61 10000 5.1 190 15:18 08.02.2020
2967 Clear 9 1022 61 10000 5.1 190 14:44 08.02.2020
2968 Clear 9 1022 57 10000 5.1 180 14:22 08.02.2020
2969 Clear 9 1022 59 10000 5.1 170 13:58 08.02.2020
2970 Clear 9 1023 61 10000 4.6 190 13:40 08.02.2020
2971 Clear 8 1023 61 10000 4.6 190 13:21 08.02.2020
2972 Clear 8 1023 65 10000 4.6 190 12:40 08.02.2020
2973 Clear 8 1023 65 10000 4.6 190 12:22 08.02.2020
2974 Clear 7 1024 70 10000 5.1 180 11:56 08.02.2020
2975 Clear 7 1024 70 10000 5.1 180 11:38 08.02.2020
2976 Clear 6 1024 70 10000 5.1 180 11:20 08.02.2020
2977 Clear 4 1024 80 10000 3.6 160 10:42 08.02.2020
2978 Clear 4 1024 80 10000 3.6 160 10:22 08.02.2020
2979 Clear 3 1024 86 10000 3.1 160 09:53 08.02.2020
2980 Clear 2 1024 93 10000 3.6 160 09:28 08.02.2020
2981 Clear 2 1024 93 10000 3.6 150 08:55 08.02.2020
2982 Clouds 1 1024 100 10000 3.1 150 08:37 08.02.2020
2983 Clouds 1 1024 100 10000 3.1 150 08:19 08.02.2020
2984 Clouds 1 1024 93 10000 3.1 140 07:45 08.02.2020
2985 Clouds 1 1024 93 10000 3.1 140 07:45 08.02.2020
2986 Clouds 2 1024 93 10000 3.1 140 07:20 08.02.2020
2987 Clear 2 1025 100 8000 3.6 150 06:29 08.02.2020
2988 Clouds 2 1025 100 8000 3.6 140 05:48 08.02.2020
2989 Clouds 3 1025 93 8000 3.1 150 05:30 08.02.2020
2990 Clouds 3 1025 100 8000 3.6 150 04:49 08.02.2020
2991 Clouds 4 1025 93 10000 3.1 150 03:53 08.02.2020
2992 Clear 4 1026 86 10000 3.1 150 02:52 08.02.2020
2993 Clouds 4 1026 80 10000 2.6 170 02:20 08.02.2020
2994 Clouds 5 1027 75 10000 3.1 180 01:26 08.02.2020
2995 Clouds 6 1027 75 10000 3.6 160 00:45 08.02.2020
2996 Clouds 6 1027 75 10000 3.6 160 00:23 08.02.2020
2997 Clouds 6 1027 81 10000 2.6 170 23:56 07.02.2020
2998 Clouds 6 1027 81 10000 2.6 160 23:37 07.02.2020
2999 Clouds 6 1027 81 10000 2.6 160 23:19 07.02.2020
3000 Clouds 6 1028 87 10000 2.1 150 22:41 07.02.2020
3001 Clouds 6 1028 87 10000 2.1 150 22:41 07.02.2020
3002 Clouds 6 1028 87 10000 2.1 150 22:19 07.02.2020
3003 Clouds 5 1028 81 10000 2.1 140 21:45 07.02.2020
3004 Clouds 5 1028 81 10000 2.1 140 21:23 07.02.2020
3005 Clouds 5 1028 81 10000 2.1 140 20:59 07.02.2020
3006 Clouds 5 1028 81 10000 1 0 20:39 07.02.2020
3007 Clouds 6 1028 81 10000 1 0 20:19 07.02.2020
3008 Clouds 6 1028 86 10000 1 110 19:54 07.02.2020
3009 Clouds 6 1029 87 10000 0.5 0 19:36 07.02.2020
3010 Clouds 6 1029 87 10000 0.5 0 19:18 07.02.2020
3011 Clouds 6 1029 87 10000 1 0 18:43 07.02.2020
3012 Clouds 6 1029 87 10000 1 0 18:24 07.02.2020
3013 Clouds 6 1029 87 10000 1 0 17:55 07.02.2020
3014 Clouds 6 1029 87 10000 0.5 0 17:37 07.02.2020
3015 Clouds 6 1029 87 10000 0.5 0 17:18 07.02.2020
3016 Clouds 7 1029 87 10000 1 0 16:42 07.02.2020
3017 Clouds 7 1029 87 10000 1 0 16:23 07.02.2020
3018 Clouds 7 1029 81 10000 1.5 60 15:53 07.02.2020
3019 Clouds 7 1029 81 10000 1 0 15:28 07.02.2020
3020 Clouds 7 1029 81 10000 1.5 100 14:55 07.02.2020
3021 Rain 7 1029 81 10000 1 0 14:37 07.02.2020
3022 Rain 7 1029 81 10000 1 0 14:19 07.02.2020
3023 Rain 7 1030 87 10000 0.5 0 13:56 07.02.2020
3024 Rain 7 1030 93 10000 1 0 13:38 07.02.2020
3025 Rain 7 1030 93 10000 1 0 13:19 07.02.2020
3026 Clouds 7 1030 93 10000 1 0 12:41 07.02.2020
3027 Clouds 6 1030 93 10000 1 0 12:23 07.02.2020
3028 Rain 6 1030 93 9000 1 0 11:45 07.02.2020
3029 Rain 6 1030 93 9000 1 0 11:45 07.02.2020
3030 Clouds 6 1030 87 9000 1.5 280 11:24 07.02.2020
3031 Clouds 6 1030 87 8000 1.5 270 10:58 07.02.2020
3032 Clouds 6 1030 93 8000 1 0 10:39 07.02.2020
3033 Clouds 6 1030 93 8000 1 0 10:19 07.02.2020
3034 Clouds 5 1030 93 8000 1.5 280 09:45 07.02.2020
3035 Clouds 5 1030 93 8000 1.5 280 09:25 07.02.2020
3036 Clouds 5 1029 93 7000 1 0 08:57 07.02.2020
3037 Clouds 5 1029 93 7000 1.5 290 08:36 07.02.2020
3038 Clouds 5 1029 93 7000 1.5 290 08:18 07.02.2020
3039 Clouds 5 1029 93 7000 2.1 280 07:40 07.02.2020
3040 Clouds 5 1029 93 7000 2.1 280 07:19 07.02.2020
3041 Drizzle 5 1029 93 7000 2.1 290 06:42 07.02.2020
3042 Drizzle 5 1029 93 7000 2.1 290 06:22 07.02.2020
3043 Drizzle 5 1028 93 7000 2.6 290 05:43 07.02.2020
3044 Drizzle 5 1028 93 10000 4.1 280 03:57 07.02.2020
3045 Clouds 5 1028 93 10000 3.6 300 02:28 07.02.2020
3046 Clouds 5 1027 86 10000 3.6 280 01:25 07.02.2020
3047 Clouds 5 1027 86 10000 3.6 280 00:38 07.02.2020
3048 Clouds 5 1027 86 10000 3.6 280 23:56 06.02.2020
3049 Rain 5 1027 86 10000 4.1 290 23:36 06.02.2020
3050 Rain 5 1027 86 10000 4.1 290 23:18 06.02.2020
3051 Clouds 5 1027 81 10000 4.6 280 22:42 06.02.2020
3052 Clouds 5 1027 81 10000 4.6 280 22:42 06.02.2020
3053 Clouds 5 1027 81 10000 4.6 280 22:23 06.02.2020
3054 Clouds 6 1027 81 10000 4.6 290 21:37 06.02.2020
3055 Clouds 5 1027 81 10000 4.6 290 21:19 06.02.2020
3056 Clouds 6 1027 81 10000 4.6 280 20:56 06.02.2020
3057 Clouds 5 1027 81 10000 4.6 280 20:38 06.02.2020
3058 Clouds 6 1027 81 10000 4.6 280 20:18 06.02.2020
3059 Rain 6 1027 81 10000 5.1 290 19:58 06.02.2020
3060 Clouds 6 1027 81 10000 5.7 280 19:40 06.02.2020
3061 Clouds 6 1027 81 10000 5.7 280 19:21 06.02.2020
3062 Clouds 6 1027 81 10000 4.1 290 18:58 06.02.2020
3063 Clouds 6 1027 75 10000 4.6 280 18:39 06.02.2020
3064 Clouds 6 1027 75 10000 4.6 280 18:20 06.02.2020
3065 Clouds 6 1026 81 10000 5.1 280 17:42 06.02.2020
3066 Clouds 6 1026 81 10000 5.1 280 17:21 06.02.2020
3067 Clouds 6 1026 81 10000 4.6 270 16:59 06.02.2020
3068 Clouds 6 1026 81 10000 4.1 280 16:40 06.02.2020
3069 Clouds 6 1026 81 10000 4.1 280 16:22 06.02.2020
3070 Clouds 6 1026 81 10000 4.6 280 15:42 06.02.2020
3071 Clouds 6 1026 81 10000 5.7 280 15:22 06.02.2020
3072 Clouds 6 1026 81 10000 4.6 280 14:49 06.02.2020
3073 Clouds 6 1027 81 10000 4.1 280 14:28 06.02.2020
3074 Clouds 6 1027 81 10000 5.7 260 13:57 06.02.2020
3075 Clouds 6 1027 81 10000 5.7 280 13:39 06.02.2020
3076 Clouds 6 1027 81 10000 5.7 280 13:19 06.02.2020
3077 Clouds 6 1027 75 10000 5.1 280 12:44 06.02.2020
3078 Clouds 6 1027 80 10000 5.1 270 12:19 06.02.2020
3079 Clouds 5 1027 80 10000 5.1 270 11:57 06.02.2020
3080 Clouds 5 1027 86 10000 5.1 270 11:39 06.02.2020
3081 Clouds 5 1027 86 10000 5.1 270 11:19 06.02.2020
3082 Clouds 5 1027 86 10000 4.6 260 10:56 06.02.2020
3083 Clouds 4 1027 86 10000 4.6 260 10:38 06.02.2020
3084 Clouds 4 1027 86 10000 4.6 260 10:19 06.02.2020
3085 Drizzle 4 1028 86 10000 4.1 270 09:56 06.02.2020
3086 Drizzle 4 1028 80 10000 3.6 270 09:36 06.02.2020
3087 Drizzle 4 1028 80 10000 3.6 270 09:18 06.02.2020
3088 Clouds 3 1027 86 10000 5.1 260 08:41 06.02.2020
3089 Clouds 3 1027 86 10000 5.1 260 08:20 06.02.2020
3090 Clouds 3 1027 86 0 5.1 270 07:46 06.02.2020
3091 Clouds 3 1027 86 0 5.1 270 07:25 06.02.2020
3092 Clouds 3 1027 86 10000 5.1 290 06:22 06.02.2020
3093 Clouds 3 1027 86 10000 5.1 290 06:22 06.02.2020
3094 Clouds 3 1027 86 10000 5.1 290 06:22 06.02.2020
3095 Clouds 3 1027 89 10000 5.7 280 05:56 06.02.2020
3096 Clouds 3 1028 87 10000 5.7 270 04:24 06.02.2020
3097 Clouds 3 1029 87 10000 4.6 250 03:20 06.02.2020
3098 Clouds 3 1030 80 10000 5.1 250 02:29 06.02.2020
3099 Clouds 3 1030 80 10000 4.6 250 01:35 06.02.2020
3100 Clouds 2 1030 80 10000 4.1 250 00:58 06.02.2020
3101 Clouds 2 1030 80 10000 4.1 260 00:26 06.02.2020
3102 Clouds 2 1031 74 10000 4.1 250 23:47 05.02.2020
3103 Clouds 2 1031 74 10000 4.1 260 23:29 05.02.2020
3104 Clouds 2 1031 80 10000 4.1 260 22:59 05.02.2020
3105 Clouds 2 1031 80 10000 5.1 260 22:40 05.02.2020
3106 Clouds 2 1031 80 10000 5.1 260 22:40 05.02.2020
3107 Clouds 2 1031 80 10000 5.1 260 22:22 05.02.2020
3108 Clouds 2 1031 80 10000 5.1 260 22:22 05.02.2020
3109 Clouds 2 1031 80 10000 5.1 260 22:22 05.02.2020
3110 Clouds 3 1031 80 10000 5.1 260 21:54 05.02.2020
3111 Clouds 3 1031 80 10000 4.6 250 21:36 05.02.2020
3112 Clouds 3 1031 80 10000 4.6 250 21:18 05.02.2020
3113 Clouds 3 1031 74 10000 4.6 270 20:39 05.02.2020
3114 Clear 2 1031 80 10000 4.1 260 20:20 05.02.2020
3115 Clear 2 1032 80 10000 4.1 260 19:58 05.02.2020
3116 Clear 2 1032 80 10000 4.6 260 19:38 05.02.2020
3117 Clear 2 1032 80 10000 4.6 260 19:19 05.02.2020
3118 Clear 2 1031 80 10000 4.1 250 18:56 05.02.2020
3119 Clear 2 1031 86 10000 3.1 260 18:38 05.02.2020
3120 Clear 3 1031 86 10000 3.1 260 18:18 05.02.2020
3121 Clear 4 1032 69 10000 4.1 280 17:38 05.02.2020
3122 Clear 4 1032 69 10000 4.1 280 17:38 05.02.2020
3123 Clear 4 1032 69 10000 4.6 270 17:20 05.02.2020
3124 Clear 4 1032 69 10000 4.6 270 16:57 05.02.2020
3125 Clear 5 1032 60 10000 3.6 290 16:39 05.02.2020
3126 Clear 5 1032 60 10000 3.6 290 16:20 05.02.2020
3127 Clouds 5 1032 65 10000 4.6 290 15:46 05.02.2020
3128 Clouds 5 1032 60 10000 4.6 290 15:20 05.02.2020
3129 Clouds 5 1032 65 10000 5.1 280 14:58 05.02.2020
3130 Clouds 6 1032 65 10000 4.6 280 14:40 05.02.2020
3131 Clouds 6 1032 65 10000 4.6 280 14:21 05.02.2020
3132 Clouds 6 1032 60 10000 4.1 290 13:43 05.02.2020
3133 Clouds 6 1032 60 10000 4.1 310 13:23 05.02.2020
3134 Clouds 5 1032 60 10000 3.1 0 12:58 05.02.2020
3135 Clouds 5 1032 69 10000 3.6 350 12:36 05.02.2020
3136 Clouds 5 1032 69 10000 3.6 350 12:18 05.02.2020
3137 Clouds 4 1031 69 10000 3.6 320 11:41 05.02.2020
3138 Clouds 4 1031 69 10000 3.6 320 11:23 05.02.2020
3139 Clouds 4 1031 74 10000 3.6 330 10:57 05.02.2020
3140 Clouds 3 1030 74 10000 4.1 330 10:39 05.02.2020
3141 Clouds 3 1030 74 10000 4.1 330 10:18 05.02.2020
3142 Clouds 3 1029 80 10000 3.1 340 09:43 05.02.2020
3143 Clouds 2 1029 80 10000 3.1 340 09:22 05.02.2020
3144 Clouds 2 1028 80 10000 3.6 340 08:57 05.02.2020
3145 Clouds 2 1028 80 10000 4.1 350 08:39 05.02.2020
3146 Clouds 2 1028 80 10000 4.1 350 08:21 05.02.2020
3147 Clouds 2 1027 80 10000 4.1 340 07:43 05.02.2020
3148 Clouds 3 1026 81 10000 4.6 360 07:19 05.02.2020
3149 Clouds 3 1024 86 10000 4.6 350 06:40 05.02.2020
3150 Clouds 3 1024 86 10000 4.6 350 06:21 05.02.2020
3151 Clouds 3 1022 93 10000 4.1 350 05:48 05.02.2020
3152 Clouds 3 1022 93 10000 4.1 350 05:18 05.02.2020
3153 Rain 3 1020 93 10000 5.1 350 04:27 05.02.2020
3154 Rain 4 1017 80 10000 6.2 330 02:59 05.02.2020
3155 Rain 4 1016 80 10000 6.2 330 02:22 05.02.2020
3156 Clouds 4 1015 82 10000 6.7 320 01:35 05.02.2020
3157 Clouds 4 1014 80 10000 6.2 310 00:25 05.02.2020
3158 Rain 4 1013 80 10000 5.1 310 23:42 04.02.2020
3159 Rain 4 1013 80 10000 5.1 310 23:23 04.02.2020
3160 Clouds 4 1013 80 10000 6.7 310 22:58 04.02.2020
3161 Rain 4 1012 80 10000 6.2 310 22:40 04.02.2020
3162 Rain 4 1012 80 10000 6.2 310 22:21 04.02.2020
3163 Clouds 4 1012 86 10000 4.6 320 21:57 04.02.2020
3164 Clouds 4 1011 86 10000 5.1 320 21:39 04.02.2020
3165 Rain 4 1011 86 10000 5.1 320 21:19 04.02.2020
3166 Rain 4 1011 93 7000 5.1 320 20:57 04.02.2020
3167 Rain 4 1010 93 10000 5.1 290 20:38 04.02.2020
3168 Rain 4 1010 93 10000 5.1 290 20:19 04.02.2020
3169 Rain 5 1010 93 10000 4.6 310 19:56 04.02.2020
3170 Rain 5 1010 86 10000 6.7 280 19:38 04.02.2020
3171 Rain 5 1010 86 10000 6.7 280 19:19 04.02.2020
3172 Rain 5 1009 86 10000 4.6 290 18:54 04.02.2020
3173 Rain 5 1009 80 10000 5.7 290 18:36 04.02.2020
3174 Rain 5 1009 80 10000 5.7 290 18:18 04.02.2020
3175 Clouds 5 1008 75 10000 5.7 290 17:41 04.02.2020
3176 Rain 5 1007 75 10000 4.6 300 17:20 04.02.2020
3177 Rain 6 1007 75 10000 4.6 300 16:54 04.02.2020
3178 Rain 6 1007 70 10000 6.7 290 16:36 04.02.2020
3179 Rain 6 1007 70 10000 6.7 290 16:18 04.02.2020
3180 Rain 6 1007 75 10000 6.2 290 15:55 04.02.2020
3181 Rain 6 1006 75 10000 6.2 300 15:37 04.02.2020
3182 Rain 6 1006 75 10000 6.2 300 15:18 04.02.2020
3183 Rain 6 1006 70 10000 7.2 290 14:41 04.02.2020
3184 Rain 6 1006 70 10000 7.2 290 14:20 04.02.2020
3185 Clouds 6 1006 70 10000 6.7 290 13:56 04.02.2020
3186 Clouds 6 1006 75 10000 7.2 290 13:38 04.02.2020
3187 Clouds 6 1006 75 10000 7.2 290 13:18 04.02.2020
3188 Clouds 6 1005 75 10000 6.2 280 12:43 04.02.2020
3189 Clouds 6 1005 75 10000 6.7 280 12:24 04.02.2020
3190 Clouds 6 1005 75 10000 7.2 290 11:57 04.02.2020
3191 Clouds 6 1005 75 10000 6.7 290 11:39 04.02.2020
3192 Clouds 6 1005 75 10000 6.7 290 11:19 04.02.2020
3193 Clouds 5 1004 80 10000 6.7 290 10:50 04.02.2020
3194 Clouds 5 1004 80 10000 5.7 280 10:28 04.02.2020
3195 Clouds 5 1003 86 10000 5.1 290 09:58 04.02.2020
3196 Clouds 5 1003 86 10000 4.6 280 09:40 04.02.2020
3197 Clouds 5 1003 86 10000 4.6 280 09:21 04.02.2020
3198 Clouds 5 1001 86 10000 4.1 290 08:50 04.02.2020
3199 Clouds 5 1001 86 10000 4.1 290 08:28 04.02.2020
3200 Clouds 5 1001 80 10000 4.1 300 07:57 04.02.2020
3201 Rain 5 1000 86 10000 4.6 290 07:39 04.02.2020
3202 Rain 5 1000 86 10000 4.6 290 07:21 04.02.2020
3203 Clouds 5 999 86 10000 3.1 290 06:42 04.02.2020
3204 Clouds 5 999 93 0 2.1 290 05:40 04.02.2020
3205 Rain 5 999 93 0 2.1 290 05:22 04.02.2020
3206 Rain 6 1000 87 10000 2.6 280 03:50 04.02.2020
3207 Clouds 6 1000 87 10000 2.1 280 03:31 04.02.2020
3208 Clouds 6 1001 87 10000 3.1 270 02:51 04.02.2020
3209 Clouds 6 1001 87 10000 3.1 250 02:28 04.02.2020
3210 Clouds 6 1002 87 10000 3.1 260 01:50 04.02.2020
3211 Clouds 6 1002 87 10000 3.1 240 01:32 04.02.2020
3212 Clouds 6 1004 93 10000 3.1 250 00:41 04.02.2020
3213 Clouds 7 1004 93 10000 3.1 250 00:20 04.02.2020
3214 Clouds 7 1005 87 10000 4.1 260 23:39 03.02.2020
3215 Rain 7 1005 87 10000 4.1 260 23:19 03.02.2020
3216 Clouds 7 1006 93 10000 5.7 260 22:39 03.02.2020
3217 Clouds 7 1006 93 10000 5.7 260 22:39 03.02.2020
3218 Clouds 7 1006 93 10000 5.7 260 22:20 03.02.2020
3219 Clouds 7 1006 93 10000 5.7 260 22:20 03.02.2020
3220 Clouds 8 1006 93 10000 5.7 260 21:55 03.02.2020
3221 Clouds 8 1006 87 10000 5.7 270 21:37 03.02.2020
3222 Clouds 8 1006 87 10000 5.7 270 21:18 03.02.2020
3223 Clouds 8 1006 87 10000 5.7 270 21:18 03.02.2020
3224 Clouds 8 1006 93 10000 5.7 260 20:42 03.02.2020
3225 Clouds 8 1006 93 10000 5.7 260 20:19 03.02.2020
3226 Clouds 8 1006 93 10000 5.7 260 20:19 03.02.2020
3227 Clouds 8 1007 93 10000 5.7 270 19:57 03.02.2020
3228 Clouds 8 1007 93 10000 6.7 270 19:39 03.02.2020
3229 Clouds 8 1007 93 10000 6.7 270 19:19 03.02.2020
3230 Rain 8 1007 93 10000 4.1 270 18:54 03.02.2020
3231 Rain 8 1007 93 10000 5.7 280 18:36 03.02.2020
3232 Rain 8 1007 93 10000 5.7 280 18:18 03.02.2020
3233 Clouds 8 1007 93 10000 5.1 260 17:40 03.02.2020
3234 Clouds 8 1007 93 10000 5.1 260 17:20 03.02.2020
3235 Clouds 9 1007 93 10000 5.7 260 16:59 03.02.2020
3236 Clouds 9 1007 93 10000 6.2 270 16:39 03.02.2020
3237 Rain 9 1007 93 10000 6.2 270 16:20 03.02.2020
3238 Rain 9 1006 93 8000 6.7 260 15:55 03.02.2020
3239 Rain 9 1006 93 7000 4.6 260 15:37 03.02.2020
3240 Rain 9 1006 93 7000 4.6 260 15:18 03.02.2020
3241 Rain 9 1006 93 10000 4.6 260 14:41 03.02.2020
3242 Rain 10 1007 81 10000 5.7 260 14:23 03.02.2020
3243 Clouds 10 1007 81 10000 5.7 270 13:56 03.02.2020
3244 Clouds 10 1007 81 10000 5.7 270 13:37 03.02.2020
3245 Clouds 10 1007 81 10000 5.7 270 13:37 03.02.2020
3246 Clouds 9 1007 87 10000 5.7 280 13:19 03.02.2020
3247 Clouds 9 1007 87 10000 6.7 270 12:42 03.02.2020
3248 Clouds 9 1007 87 10000 6.7 270 12:23 03.02.2020
3249 Clouds 8 1007 93 10000 4.6 280 11:59 03.02.2020
3250 Rain 8 1007 100 10000 4.6 260 11:38 03.02.2020
3251 Rain 8 1007 100 10000 4.6 260 11:19 03.02.2020
3252 Rain 8 1007 100 10000 5.1 260 10:57 03.02.2020
3253 Rain 7 1006 93 10000 4.6 250 10:38 03.02.2020
3254 Rain 7 1006 93 10000 4.6 250 10:38 03.02.2020
3255 Rain 7 1006 93 10000 4.6 250 10:19 03.02.2020
3256 Rain 6 1006 100 10000 3.6 250 09:39 03.02.2020
3257 Rain 6 1006 100 10000 3.6 250 09:19 03.02.2020
3258 Rain 6 1006 100 9000 4.1 260 08:41 03.02.2020
3259 Rain 6 1006 100 9000 4.1 260 08:23 03.02.2020
3260 Rain 6 1006 93 10000 4.6 270 07:56 03.02.2020
3261 Clouds 6 1005 100 10000 3.1 280 07:38 03.02.2020
3262 Clouds 6 1005 100 10000 3.1 280 07:19 03.02.2020
3263 Clouds 6 1005 93 10000 1 270 06:42 03.02.2020
3264 Clouds 6 1005 93 10000 1 270 06:24 03.02.2020
3265 Clouds 6 1005 100 10000 1.5 300 05:35 03.02.2020
3266 Rain 6 1005 100 3900 2.6 250 04:50 03.02.2020
3267 Rain 5 1005 100 10000 2.6 240 02:58 03.02.2020
3268 Rain 5 1005 100 10000 1.5 250 02:32 03.02.2020
3269 Rain 6 1005 100 10000 2.1 270 01:24 03.02.2020
3270 Rain 6 1005 93 9000 2.1 270 00:37 03.02.2020
3271 Rain 6 1005 93 9000 2.1 270 00:19 03.02.2020
3272 Rain 6 1005 100 10000 2.1 260 23:37 02.02.2020
3273 Rain 6 1005 100 10000 2.6 270 23:19 02.02.2020
3274 Rain 6 1005 100 10000 2.6 270 22:55 02.02.2020
3275 Rain 6 1005 93 10000 2.6 270 22:36 02.02.2020
3276 Rain 6 1005 93 10000 2.6 280 22:18 02.02.2020
3277 Rain 6 1004 93 10000 2.6 260 21:41 02.02.2020
3278 Rain 6 1004 93 10000 2.6 260 21:22 02.02.2020
3279 Rain 6 1004 93 10000 2.6 260 20:58 02.02.2020
3280 Rain 6 1004 93 10000 2.1 280 20:39 02.02.2020
3281 Rain 6 1004 93 10000 2.1 280 20:21 02.02.2020
3282 Rain 6 1004 93 10000 2.1 270 19:59 02.02.2020
3283 Rain 6 1004 93 10000 2.1 270 19:41 02.02.2020
3284 Rain 6 1004 100 10000 2.1 280 19:23 02.02.2020
3285 Rain 6 1004 100 10000 1.5 270 18:58 02.02.2020
3286 Rain 6 1004 100 7000 2.1 270 18:38 02.02.2020
3287 Rain 6 1004 100 7000 2.1 270 18:20 02.02.2020
3288 Rain 6 1004 100 8000 2.6 290 17:58 02.02.2020
3289 Rain 6 1004 93 10000 3.6 240 17:38 02.02.2020
3290 Rain 6 1004 93 10000 3.6 240 17:38 02.02.2020
3291 Rain 6 1004 93 10000 3.6 240 17:19 02.02.2020
3292 Rain 7 1004 93 10000 3.6 230 16:58 02.02.2020
3293 Rain 7 1004 93 10000 3.6 230 16:58 02.02.2020
3294 Rain 7 1004 93 10000 3.6 250 16:39 02.02.2020
3295 Rain 7 1004 93 10000 3.6 250 16:19 02.02.2020
3296 Rain 7 1004 100 10000 1.5 250 15:57 02.02.2020
3297 Rain 7 1004 100 10000 2.1 250 15:39 02.02.2020
3298 Rain 7 1004 100 10000 2.1 250 15:20 02.02.2020
3299 Rain 7 1004 100 10000 2.1 250 15:20 02.02.2020
3300 Rain 7 1005 100 10000 1.5 280 14:56 02.02.2020
3301 Rain 7 1005 100 10000 2.1 280 14:38 02.02.2020
3302 Rain 7 1005 100 10000 2.1 280 14:18 02.02.2020
3303 Rain 7 1005 93 10000 2.6 280 13:54 02.02.2020
3304 Clouds 7 1006 93 10000 3.1 280 13:36 02.02.2020
3305 Rain 7 1006 93 10000 3.6 270 13:18 02.02.2020
3306 Rain 7 1006 93 10000 3.6 290 12:42 02.02.2020
3307 Rain 8 1006 93 10000 3.6 290 12:22 02.02.2020
3308 Rain 8 1006 93 4500 4.6 300 11:56 02.02.2020
3309 Rain 8 1006 81 10000 7.2 270 11:37 02.02.2020
3310 Rain 8 1006 81 10000 7.2 270 11:18 02.02.2020
3311 Rain 8 1005 81 10000 8.2 260 10:55 02.02.2020
3312 Clouds 9 1006 70 10000 8.7 250 10:36 02.02.2020
3313 Clouds 9 1005 70 10000 9.3 250 10:18 02.02.2020
3314 Clouds 8 1005 70 10000 8.7 260 09:41 02.02.2020
3315 Clouds 8 1005 70 10000 8.7 260 09:21 02.02.2020
3316 Clouds 8 1005 70 10000 8.7 260 09:21 02.02.2020
3317 Clouds 8 1005 70 10000 9.8 260 08:58 02.02.2020
3318 Clouds 8 1005 70 10000 9.8 260 08:40 02.02.2020
3319 Rain 8 1005 75 10000 9.3 250 08:21 02.02.2020
3320 Rain 8 1005 75 10000 8.2 250 07:45 02.02.2020
3321 Rain 8 1004 75 10000 9.3 250 07:27 02.02.2020
3322 Clouds 8 1004 70 10000 8.7 250 06:41 02.02.2020
3323 Clouds 8 1004 70 10000 8.7 250 06:23 02.02.2020
3324 Clouds 8 1004 75 10000 9.3 250 05:47 02.02.2020
3325 Clouds 8 1004 70 10000 8.7 250 04:38 02.02.2020
3326 Rain 8 1003 70 10000 8.7 250 03:25 02.02.2020
3327 Clouds 8 1003 75 10000 8.7 250 02:27 02.02.2020
3328 Rain 8 1002 75 10000 7.7 250 01:52 02.02.2020
3329 Rain 8 1002 75 10000 7.7 250 01:52 02.02.2020
3330 Rain 8 1002 75 10000 7.7 250 01:19 02.02.2020
3331 Clouds 8 1002 75 10000 8.2 250 00:43 02.02.2020
3332 Rain 8 1002 75 10000 5.7 250 00:20 02.02.2020
3333 Rain 8 1002 70 10000 6.7 260 23:45 01.02.2020
3334 Rain 8 1002 70 10000 6.7 260 23:21 01.02.2020
3335 Rain 9 1002 76 10000 6.7 260 22:50 01.02.2020
3336 Rain 9 1001 76 10000 6.7 270 22:20 01.02.2020
3337 Clouds 9 1001 76 10000 8.7 260 21:57 01.02.2020
3338 Clouds 10 1000 81 10000 7.7 260 21:38 01.02.2020
3339 Clouds 10 1000 81 10000 7.7 260 21:18 01.02.2020
3340 Clouds 10 1000 87 10000 8.2 250 20:40 01.02.2020
3341 Clouds 11 1000 87 10000 8.2 250 20:20 01.02.2020
3342 Clouds 11 999 87 10000 8.2 260 19:57 01.02.2020
3343 Rain 11 999 93 10000 6.2 250 19:39 01.02.2020
3344 Clouds 11 1000 93 10000 6.7 250 19:19 01.02.2020
3345 Rain 11 999 93 10000 7.2 250 18:57 01.02.2020
3346 Rain 11 999 93 10000 6.7 250 18:39 01.02.2020
3347 Rain 11 999 93 10000 6.7 250 18:21 01.02.2020
3348 Rain 11 999 93 6000 6.2 250 17:57 01.02.2020
3349 Rain 11 998 93 10000 6.2 250 17:39 01.02.2020
3350 Rain 11 999 100 8000 6.7 240 17:19 01.02.2020
3351 Rain 11 999 100 10000 6.7 230 16:43 01.02.2020
3352 Rain 11 999 100 10000 6.7 230 16:24 01.02.2020
3353 Rain 11 999 93 10000 6.7 220 15:58 01.02.2020
3354 Rain 11 999 93 9000 6.2 220 15:40 01.02.2020
3355 Rain 11 999 93 9000 6.2 220 15:20 01.02.2020
3356 Rain 11 1000 93 9000 5.7 220 14:41 01.02.2020
3357 Rain 11 1000 93 9000 5.7 220 14:22 01.02.2020
3358 Rain 11 1000 93 8000 5.7 220 13:59 01.02.2020
3359 Rain 11 1000 93 10000 5.7 210 13:41 01.02.2020
3360 Rain 11 1000 93 10000 5.7 210 13:18 01.02.2020
3361 Rain 11 1001 87 10000 6.2 230 12:43 01.02.2020
3362 Rain 11 1001 87 10000 6.2 230 12:24 01.02.2020
3363 Rain 12 1001 81 10000 5.7 230 11:55 01.02.2020
3364 Rain 12 1001 71 10000 6.2 230 11:37 01.02.2020
3365 Rain 12 1001 71 10000 6.2 230 11:18 01.02.2020
3366 Clouds 12 1001 71 10000 6.2 220 10:54 01.02.2020
3367 Clouds 12 1002 76 10000 6.7 230 10:36 01.02.2020
3368 Clouds 12 1002 76 10000 6.7 230 10:18 01.02.2020
3369 Clouds 12 1002 76 10000 6.7 230 10:18 01.02.2020
3370 Clouds 11 1002 76 10000 5.7 220 09:41 01.02.2020
3371 Clouds 11 1002 76 10000 5.7 220 09:22 01.02.2020
3372 Clouds 11 1002 76 10000 6.2 220 08:58 01.02.2020
3373 Clouds 11 1002 76 10000 5.7 220 08:27 01.02.2020
3374 Clouds 11 1002 81 10000 5.1 220 07:46 01.02.2020
3375 Clouds 11 1002 81 10000 5.7 220 07:24 01.02.2020
3376 Clouds 11 1003 76 10000 4.6 220 06:49 01.02.2020
3377 Clouds 11 1003 76 10000 5.1 220 05:55 01.02.2020
3378 Clouds 11 1004 76 10000 5.7 220 05:37 01.02.2020
3379 Clouds 11 1004 76 10000 5.1 220 03:39 01.02.2020
3380 Clouds 11 1004 76 10000 5.1 220 03:18 01.02.2020
3381 Clouds 11 1005 81 10000 4.6 220 02:41 01.02.2020
3382 Clouds 11 1005 81 10000 4.6 220 02:41 01.02.2020
3383 Clouds 11 1005 81 10000 4.6 220 02:21 01.02.2020
3384 Clouds 11 1005 81 10000 4.1 220 01:48 01.02.2020
3385 Clouds 11 1005 81 10000 4.6 230 01:28 01.02.2020
3386 Clouds 10 1005 81 10000 5.1 230 00:25 01.02.2020
3387 Clouds 10 1005 76 10000 5.1 240 23:42 31.01.2020
3388 Clouds 10 1005 76 10000 5.1 240 23:19 31.01.2020
3389 Clouds 10 1005 76 10000 5.1 240 22:58 31.01.2020
3390 Clouds 10 1005 71 10000 4.6 230 22:40 31.01.2020
3391 Clouds 10 1005 71 10000 4.6 230 22:21 31.01.2020
3392 Clouds 10 1005 71 10000 4.6 240 21:55 31.01.2020
3393 Clouds 10 1005 71 10000 4.1 230 21:37 31.01.2020
3394 Clouds 10 1005 71 10000 4.1 230 21:37 31.01.2020
3395 Clouds 10 1005 71 10000 4.1 230 21:19 31.01.2020
3396 Clouds 10 1005 71 10000 4.1 220 20:56 31.01.2020
3397 Clouds 10 1006 76 10000 3.1 240 20:37 31.01.2020
3398 Clouds 10 1006 76 10000 3.1 240 20:18 31.01.2020
3399 Clouds 10 1006 71 10000 4.6 240 19:55 31.01.2020
3400 Clouds 10 1006 76 10000 4.6 240 19:37 31.01.2020
3401 Clouds 10 1006 76 10000 4.6 240 19:18 31.01.2020
3402 Clouds 10 1006 76 10000 4.1 240 18:41 31.01.2020
3403 Clouds 10 1006 76 10000 4.1 240 18:23 31.01.2020
3404 Clouds 10 1006 76 10000 4.6 250 17:54 31.01.2020
3405 Rain 10 1005 71 10000 5.1 250 17:36 31.01.2020
3406 Clouds 10 1005 71 10000 5.1 250 17:18 31.01.2020
3407 Clouds 11 1005 71 10000 4.6 250 16:54 31.01.2020
3408 Clouds 11 1006 71 10000 4.6 270 16:36 31.01.2020
3409 Clouds 11 1006 71 10000 4.6 270 16:18 31.01.2020
3410 Clouds 11 1005 71 10000 7.2 270 15:41 31.01.2020
3411 Clouds 11 1005 71 10000 6.7 270 15:20 31.01.2020
3412 Clouds 11 1005 71 10000 6.7 270 15:20 31.01.2020
3413 Clouds 11 1005 71 10000 6.7 270 14:55 31.01.2020
3414 Clouds 11 1005 66 10000 7.7 260 14:36 31.01.2020
3415 Clouds 11 1005 66 10000 7.7 260 14:36 31.01.2020
3416 Clouds 11 1005 66 10000 7.7 260 14:18 31.01.2020
3417 Clouds 11 1005 71 10000 8.7 270 13:43 31.01.2020
3418 Clouds 11 1005 71 10000 8.7 270 13:24 31.01.2020
3419 Clouds 11 1004 66 10000 8.7 270 12:45 31.01.2020
3420 Clouds 11 1004 66 10000 9.3 270 12:24 31.01.2020
3421 Clouds 11 1004 71 10000 11.3 280 11:56 31.01.2020
3422 Clouds 10 1004 71 10000 7.2 270 11:38 31.01.2020
3423 Clouds 10 1003 76 10000 7.2 270 11:19 31.01.2020
3424 Clouds 10 1003 76 10000 7.2 270 10:55 31.01.2020
3425 Clouds 10 1003 71 10000 8.2 280 10:37 31.01.2020
3426 Clouds 10 1003 71 10000 8.2 280 10:18 31.01.2020
3427 Clouds 10 1002 76 10000 7.2 280 09:42 31.01.2020
3428 Clouds 9 1002 76 10000 7.2 280 09:22 31.01.2020
3429 Clouds 9 1001 71 10000 7.2 290 08:56 31.01.2020
3430 Clouds 9 1000 76 10000 7.7 280 08:38 31.01.2020
3431 Clouds 10 1000 76 10000 7.7 280 08:20 31.01.2020
3432 Rain 10 999 81 10000 7.2 270 07:47 31.01.2020
3433 Clouds 10 999 81 10000 7.7 270 07:19 31.01.2020
3434 Clouds 10 999 81 10000 7.7 270 07:19 31.01.2020
3435 Clouds 10 998 87 10000 7.7 270 06:34 31.01.2020
3436 Rain 10 997 93 10000 6.7 270 05:55 31.01.2020
3437 Clouds 9 997 100 10000 7.2 260 05:25 31.01.2020
3438 Drizzle 8 996 100 7000 8.7 240 04:20 31.01.2020
3439 Clouds 8 997 93 10000 5.7 230 02:50 31.01.2020
3440 Clouds 6 997 93 10000 6.2 210 01:31 31.01.2020
3441 Drizzle 6 999 100 7000 4.6 210 00:40 31.01.2020
3442 Drizzle 6 999 100 7000 4.6 210 00:22 31.01.2020
3443 Rain 6 999 86 4500 5.7 200 23:42 30.01.2020
3444 Rain 6 1000 81 10000 5.1 200 23:23 30.01.2020
3445 Clouds 6 1001 81 10000 4.6 190 22:39 30.01.2020
3446 Clouds 6 1001 81 10000 4.6 190 22:21 30.01.2020
3447 Clouds 6 1002 81 10000 4.6 180 21:59 30.01.2020
3448 Clouds 6 1002 81 10000 4.6 200 21:40 30.01.2020
3449 Clouds 6 1003 75 10000 4.1 190 21:19 30.01.2020
3450 Clouds 6 1003 75 10000 4.1 190 20:57 30.01.2020
3451 Clouds 6 1004 75 10000 5.1 200 20:38 30.01.2020
3452 Clouds 6 1004 75 10000 5.1 200 20:20 30.01.2020
3453 Clouds 7 1005 75 10000 6.7 220 19:44 30.01.2020
3454 Clouds 7 1004 70 10000 5.1 210 19:19 30.01.2020
3455 Clouds 7 1004 70 10000 5.1 210 19:19 30.01.2020
3456 Clouds 7 1005 70 10000 4.6 220 18:59 30.01.2020
3457 Clouds 7 1005 70 10000 5.1 230 18:38 30.01.2020
3458 Clouds 7 1005 70 10000 5.1 230 18:19 30.01.2020
3459 Clouds 7 1005 75 10000 5.1 240 17:55 30.01.2020
3460 Clouds 8 1005 75 10000 6.7 240 17:36 30.01.2020
3461 Clouds 8 1005 75 10000 7.2 240 17:18 30.01.2020
3462 Clouds 8 1005 75 10000 7.2 240 16:56 30.01.2020
3463 Clouds 8 1006 75 10000 7.7 240 16:36 30.01.2020
3464 Clouds 8 1006 75 10000 7.7 240 16:18 30.01.2020
3465 Clouds 8 1006 75 10000 8.7 250 15:41 30.01.2020
3466 Clouds 8 1006 75 10000 8.7 250 15:19 30.01.2020
3467 Clouds 8 1005 75 10000 8.2 260 14:44 30.01.2020
3468 Clouds 8 1005 75 10000 9.3 250 14:26 30.01.2020
3469 Clouds 8 1005 81 10000 11.3 250 13:43 30.01.2020
3470 Clouds 8 1005 75 10000 10.8 250 13:24 30.01.2020
3471 Clouds 8 1005 75 10000 11.3 250 12:59 30.01.2020
3472 Rain 7 1005 81 10000 11.3 250 12:40 30.01.2020
3473 Rain 7 1005 81 10000 11.3 250 12:22 30.01.2020
3474 Clouds 7 1005 81 10000 10.3 250 11:54 30.01.2020
3475 Clouds 7 1006 81 10000 9.8 250 11:36 30.01.2020
3476 Rain 6 1006 81 10000 9.8 250 11:18 30.01.2020
3477 Rain 6 1006 81 10000 8.7 240 10:41 30.01.2020
3478 Rain 5 1006 81 10000 8.7 240 10:21 30.01.2020
3479 Rain 5 1006 86 10000 8.2 240 09:47 30.01.2020
3480 Rain 5 1006 86 10000 7.2 230 09:29 30.01.2020
3481 Rain 4 1006 93 10000 6.7 230 08:59 30.01.2020
3482 Rain 4 1006 86 10000 7.7 220 08:39 30.01.2020
3483 Rain 4 1006 86 10000 7.7 220 08:20 30.01.2020
3484 Drizzle 4 1006 86 10000 8.2 220 07:49 30.01.2020
3485 Drizzle 4 1006 86 10000 7.2 210 07:28 30.01.2020
3486 Drizzle 3 1007 86 10000 7.2 210 06:47 30.01.2020
3487 Rain 3 1007 86 10000 6.2 210 06:28 30.01.2020
3488 Rain 3 1008 86 10000 8.7 230 05:44 30.01.2020
3489 Rain 3 1008 80 10000 5.7 210 05:20 30.01.2020
3490 Clouds 3 1009 86 10000 5.1 230 03:55 30.01.2020
3491 Clouds 3 1009 86 10000 4.6 240 03:36 30.01.2020
3492 Clouds 3 1009 86 10000 5.1 240 02:42 30.01.2020
3493 Clouds 4 1008 86 10000 6.2 270 00:43 30.01.2020
3494 Clouds 4 1008 86 10000 6.2 270 00:21 30.01.2020
3495 Clouds 4 1008 86 10000 6.2 270 23:46 29.01.2020
3496 Clouds 4 1007 86 10000 7.2 270 23:22 29.01.2020
3497 Clouds 4 1007 86 10000 6.2 280 22:58 29.01.2020
3498 Clouds 4 1007 86 10000 6.2 280 22:39 29.01.2020
3499 Clouds 4 1007 86 10000 5.7 270 22:19 29.01.2020
3500 Clouds 4 1006 93 10000 4.6 270 21:58 29.01.2020
3501 Drizzle 4 1006 93 10000 6.7 280 21:38 29.01.2020
3502 Drizzle 4 1006 93 10000 6.7 280 21:38 29.01.2020
3503 Drizzle 4 1006 93 10000 6.7 280 21:19 29.01.2020
3504 Drizzle 4 1005 86 10000 6.7 280 20:58 29.01.2020
3505 Drizzle 4 1005 86 10000 8.7 280 20:38 29.01.2020
3506 Drizzle 4 1005 86 10000 8.7 280 20:20 29.01.2020
3507 Clouds 5 1004 80 10000 7.7 270 19:56 29.01.2020
3508 Clouds 5 1003 80 10000 7.2 260 19:37 29.01.2020
3509 Clouds 5 1003 80 10000 7.2 260 19:37 29.01.2020
3510 Clouds 5 1003 80 10000 7.2 260 19:19 29.01.2020
3511 Rain 5 1002 70 10000 8.2 260 18:46 29.01.2020
3512 Rain 5 1002 70 10000 8.2 260 18:20 29.01.2020
3513 Rain 5 1002 70 10000 8.2 250 17:58 29.01.2020
3514 Clouds 6 1002 70 10000 9.3 250 17:39 29.01.2020
3515 Clouds 6 1002 70 10000 9.3 250 17:39 29.01.2020
3516 Clouds 6 1002 70 10000 9.3 250 17:21 29.01.2020
3517 Clouds 6 1001 70 10000 9.8 250 16:41 29.01.2020
3518 Clouds 6 1001 70 10000 9.8 250 16:23 29.01.2020
3519 Clouds 6 1001 70 10000 9.3 250 15:56 29.01.2020
3520 Clouds 6 1001 70 10000 9.3 250 15:56 29.01.2020
3521 Clouds 6 1000 70 10000 10.3 250 15:37 29.01.2020
3522 Clouds 6 1000 70 10000 10.3 250 15:19 29.01.2020
3523 Clouds 6 1000 77 10000 10.3 250 14:43 29.01.2020
3524 Clouds 6 1000 69 10000 10.3 250 14:21 29.01.2020
3525 Clouds 6 1000 69 10000 10.3 250 14:21 29.01.2020
3526 Clouds 6 1000 70 10000 9.8 250 13:56 29.01.2020
3527 Clouds 6 1000 70 10000 9.8 240 13:38 29.01.2020
3528 Clouds 6 1000 70 10000 9.8 240 13:19 29.01.2020
3529 Clouds 6 1000 70 10000 10.8 250 12:56 29.01.2020
3530 Rain 6 1000 70 0 10.3 240 12:37 29.01.2020
3531 Rain 6 1000 70 0 10.3 240 12:19 29.01.2020
3532 Clouds 6 1000 75 10000 9.3 240 11:45 29.01.2020
3533 Clouds 5 1000 75 10000 8.2 250 11:22 29.01.2020
3534 Clouds 5 999 75 10000 8.2 240 10:47 29.01.2020
3535 Clouds 4 999 80 10000 8.7 240 10:28 29.01.2020
3536 Clouds 4 999 79 10000 8.2 250 09:59 29.01.2020
3537 Clouds 4 999 79 10000 8.2 250 09:40 29.01.2020
3538 Clouds 4 999 79 10000 8.2 250 09:21 29.01.2020
3539 Clouds 4 998 79 10000 7.7 250 08:56 29.01.2020
3540 Clouds 4 998 79 10000 7.7 250 08:56 29.01.2020
3541 Clouds 4 998 80 10000 7.7 250 08:38 29.01.2020
3542 Clouds 4 998 80 10000 7.7 250 08:18 29.01.2020
3543 Clouds 4 998 76 10000 8.2 250 07:43 29.01.2020
3544 Clouds 4 997 80 10000 8.2 260 07:24 29.01.2020
3545 Clouds 4 997 80 10000 6.2 250 06:39 29.01.2020
3546 Clouds 4 997 80 10000 6.2 250 06:21 29.01.2020
3547 Clouds 4 997 80 10000 6.2 250 05:59 29.01.2020
3548 Clouds 4 996 80 10000 8.2 270 05:39 29.01.2020
3549 Clouds 4 996 80 10000 8.2 270 05:21 29.01.2020
3550 Clouds 4 996 80 10000 8.2 260 04:37 29.01.2020
3551 Clouds 4 994 80 10000 9.3 240 02:43 29.01.2020
3552 Clouds 4 994 80 10000 9.3 240 02:18 29.01.2020
3553 Rain 3 994 93 8000 9.3 240 00:42 29.01.2020
3554 Rain 3 994 93 8000 9.3 240 00:23 29.01.2020
3555 Rain 3 994 86 10000 9.8 250 23:56 28.01.2020
3556 Rain 3 994 86 10000 10.3 250 23:37 28.01.2020
3557 Rain 4 993 80 10000 11.3 250 23:18 28.01.2020
3558 Rain 4 993 67 10000 9.3 250 22:40 28.01.2020
3559 Rain 4 993 67 10000 9.3 250 22:21 28.01.2020
3560 Clouds 4 993 75 10000 8.2 250 21:42 28.01.2020
3561 Clouds 4 993 75 10000 8.2 250 21:42 28.01.2020
3562 Clouds 4 993 75 10000 8.2 250 21:22 28.01.2020
3563 Clouds 4 993 75 10000 8.2 250 20:58 28.01.2020
3564 Clouds 4 993 75 10000 8.2 250 20:40 28.01.2020
3565 Clouds 4 993 75 10000 8.2 250 20:21 28.01.2020
3566 Clouds 5 992 80 10000 8.2 240 19:39 28.01.2020
3567 Clouds 5 992 80 10000 8.2 240 19:20 28.01.2020
3568 Clouds 5 992 86 10000 7.2 230 18:58 28.01.2020
3569 Rain 5 991 86 10000 6.7 230 18:40 28.01.2020
3570 Rain 5 991 86 10000 6.7 230 18:21 28.01.2020
3571 Rain 5 991 86 10000 7.2 240 17:57 28.01.2020
3572 Rain 5 991 86 10000 7.2 250 17:37 28.01.2020
3573 Rain 5 990 86 10000 9.8 270 17:19 28.01.2020
3574 Rain 5 990 86 10000 9.8 270 16:55 28.01.2020
3575 Rain 5 990 86 10000 8.7 250 16:37 28.01.2020
3576 Rain 5 990 86 10000 8.7 250 16:19 28.01.2020
3577 Rain 5 990 87 10000 6.7 240 15:44 28.01.2020
3578 Rain 6 989 87 10000 5.7 210 15:19 28.01.2020
3579 Rain 6 989 81 10000 4.1 190 14:57 28.01.2020
3580 Rain 7 990 75 10000 6.2 200 14:38 28.01.2020
3581 Clouds 7 990 75 10000 4.6 200 14:18 28.01.2020
3582 Clouds 8 990 75 10000 5.1 200 13:40 28.01.2020
3583 Clouds 8 990 75 10000 5.1 200 13:22 28.01.2020
3584 Clouds 9 991 70 10000 6.7 210 12:43 28.01.2020
3585 Clouds 9 991 70 10000 6.7 210 12:24 28.01.2020
3586 Clouds 8 991 81 10000 6.7 210 11:56 28.01.2020
3587 Clouds 8 992 81 10000 7.2 220 11:38 28.01.2020
3588 Clouds 8 992 81 10000 7.2 220 11:19 28.01.2020
3589 Clouds 7 992 87 10000 6.7 210 10:41 28.01.2020
3590 Clouds 7 992 87 10000 6.7 210 10:23 28.01.2020
3591 Clouds 6 993 93 10000 5.7 200 09:58 28.01.2020
3592 Clouds 6 993 93 10000 5.7 200 09:38 28.01.2020
3593 Rain 6 993 93 10000 5.7 200 09:19 28.01.2020
3594 Rain 6 993 93 10000 6.2 210 08:42 28.01.2020
3595 Rain 6 993 93 10000 6.2 210 08:21 28.01.2020
3596 Rain 6 994 93 10000 5.1 190 07:40 28.01.2020
3597 Rain 6 994 93 10000 4.6 180 06:58 28.01.2020
3598 Rain 6 995 87 10000 5.7 180 06:40 28.01.2020
3599 Rain 6 995 87 10000 5.7 180 06:22 28.01.2020
3600 Clouds 6 995 81 10000 5.1 170 05:35 28.01.2020
3601 Clouds 6 997 87 10000 4.6 180 04:40 28.01.2020
3602 Clouds 6 998 87 10000 4.1 180 03:41 28.01.2020
3603 Clouds 6 999 87 10000 5.1 180 02:43 28.01.2020
3604 Clouds 6 999 87 10000 5.1 180 02:24 28.01.2020
3605 Clouds 6 999 87 10000 4.6 180 01:50 28.01.2020
3606 Rain 6 1001 87 10000 4.6 170 00:58 28.01.2020
3607 Rain 6 1001 93 10000 5.1 170 00:39 28.01.2020
3608 Rain 6 1001 93 10000 5.1 170 00:19 28.01.2020
3609 Rain 6 1002 93 10000 5.1 170 23:42 27.01.2020
3610 Rain 6 1002 93 10000 5.7 180 23:18 27.01.2020
3611 Rain 6 1003 87 10000 5.7 180 22:44 27.01.2020
3612 Rain 6 1003 87 10000 5.1 180 22:20 27.01.2020
3613 Rain 6 1003 87 10000 5.1 180 22:20 27.01.2020
3614 Rain 7 1003 87 10000 5.1 180 22:20 27.01.2020
3615 Rain 7 1004 87 10000 5.7 180 21:57 27.01.2020
3616 Rain 7 1004 81 10000 6.2 190 21:38 27.01.2020
3617 Rain 7 1004 81 10000 6.2 190 21:38 27.01.2020
3618 Rain 7 1004 81 10000 6.2 190 21:19 27.01.2020
3619 Clouds 7 1004 75 10000 5.1 180 20:56 27.01.2020
3620 Clouds 8 1005 70 10000 5.1 180 20:37 27.01.2020
3621 Clouds 8 1005 70 10000 5.1 180 20:19 27.01.2020
3622 Clouds 8 1006 75 10000 4.1 180 19:42 27.01.2020
3623 Clouds 8 1006 75 10000 4.1 180 19:24 27.01.2020
3624 Clouds 8 1006 75 10000 4.6 200 19:00 27.01.2020
3625 Clouds 8 1007 75 10000 4.1 200 18:39 27.01.2020
3626 Clouds 8 1007 75 10000 4.1 200 18:39 27.01.2020
3627 Clouds 8 1007 75 10000 4.1 200 18:21 27.01.2020
3628 Clouds 8 1007 75 10000 4.1 200 17:57 27.01.2020
3629 Clouds 8 1007 70 10000 4.6 200 17:37 27.01.2020
3630 Clouds 8 1007 70 10000 4.6 200 17:18 27.01.2020
3631 Clouds 8 1007 70 10000 4.6 200 16:55 27.01.2020
3632 Clouds 8 1008 70 10000 5.7 200 16:36 27.01.2020
3633 Clouds 9 1008 70 10000 5.7 200 16:18 27.01.2020
3634 Clouds 9 1008 70 10000 6.2 210 15:41 27.01.2020
3635 Clouds 9 1008 70 10000 6.2 210 15:19 27.01.2020
3636 Clouds 9 1008 76 10000 5.7 210 14:56 27.01.2020
3637 Clouds 9 1009 76 10000 4.6 220 14:37 27.01.2020
3638 Clouds 9 1009 76 10000 4.6 220 14:37 27.01.2020
3639 Clouds 9 1009 76 10000 4.6 220 14:19 27.01.2020
3640 Clouds 9 1010 81 10000 4.1 210 13:42 27.01.2020
3641 Clouds 9 1010 81 10000 4.1 210 13:22 27.01.2020
3642 Clouds 9 1010 75 10000 5.1 210 12:57 27.01.2020
3643 Clouds 9 1010 75 10000 5.1 210 12:57 27.01.2020
3644 Clouds 8 1010 75 10000 5.7 210 12:39 27.01.2020
3645 Clouds 8 1010 75 10000 5.7 210 12:20 27.01.2020
3646 Clouds 7 1011 87 10000 3.1 190 11:42 27.01.2020
3647 Clouds 6 1011 87 10000 3.1 190 11:22 27.01.2020
3648 Clouds 5 1011 86 10000 3.1 190 10:56 27.01.2020
3649 Clouds 5 1011 86 10000 3.1 200 10:37 27.01.2020
3650 Clouds 4 1011 86 10000 3.1 200 10:18 27.01.2020
3651 Clouds 3 1012 93 10000 3.1 190 09:39 27.01.2020
3652 Clouds 3 1012 93 10000 3.1 190 09:19 27.01.2020
3653 Clouds 2 1012 86 8000 2.6 190 08:55 27.01.2020
3654 Clouds 2 1012 93 7000 2.1 170 08:37 27.01.2020
3655 Clouds 2 1012 93 7000 2.1 170 08:18 27.01.2020
3656 Clouds 1 1012 93 9000 2.1 180 07:45 27.01.2020
3657 Clouds 1 1012 93 9000 2.1 180 07:25 27.01.2020
3658 Clouds 1 1013 100 8000 1.5 180 06:37 27.01.2020
3659 Clouds 1 1013 100 8000 2.6 190 05:43 27.01.2020
3660 Clouds 1 1014 100 8000 2.1 190 04:37 27.01.2020
3661 Clouds 1 1014 92 10000 2.6 200 03:35 27.01.2020
3662 Clouds 1 1014 91 10000 1.5 150 01:55 27.01.2020
3663 Clouds 1 1015 89 10000 1.5 140 01:27 27.01.2020
3664 Clouds 1 1015 89 10000 2.6 140 00:41 27.01.2020
3665 Clouds 1 1015 89 10000 2.6 140 00:21 27.01.2020
3666 Clouds 1 1015 89 10000 2.6 130 23:44 26.01.2020
3667 Clouds 1 1016 84 10000 2.6 140 23:26 26.01.2020
3668 Clouds 0 1016 84 10000 2.1 140 22:59 26.01.2020
3669 Clouds 0 1016 84 10000 2.1 140 22:39 26.01.2020
3670 Mist 0 1016 84 5000 2.6 140 22:20 26.01.2020
3671 Mist 0 1016 84 5000 2.6 140 21:58 26.01.2020
3672 Mist 0 1017 84 5000 2.6 140 21:39 26.01.2020
3673 Mist 0 1017 84 5000 2.6 140 21:21 26.01.2020
3674 Mist 0 1017 84 5000 2.6 140 21:21 26.01.2020
3675 Mist 0 1017 84 5000 2.6 150 20:58 26.01.2020
3676 Mist 0 1017 84 4500 2.6 140 20:38 26.01.2020
3677 Mist 0 1017 80 4500 2.6 140 20:19 26.01.2020
3678 Mist 0 1017 80 4500 3.1 150 19:59 26.01.2020
3679 Mist 0 1017 80 4500 2.1 140 19:39 26.01.2020
3680 Mist 0 1017 80 4500 2.1 140 19:21 26.01.2020
3681 Mist 0 1017 80 4500 1.5 160 18:56 26.01.2020
3682 Mist 0 1017 80 4500 2.1 140 18:38 26.01.2020
3683 Mist 0 1017 80 4500 2.1 140 18:20 26.01.2020
3684 Mist 0 1017 80 4000 1.5 150 17:55 26.01.2020
3685 Mist 0 1017 80 3500 1.5 200 17:37 26.01.2020
3686 Mist 0 1017 64 3500 1.5 200 17:18 26.01.2020
3687 Mist 1 1018 64 4000 2.1 190 16:57 26.01.2020
3688 Mist 1 1018 64 4200 2.1 200 16:39 26.01.2020
3689 Mist 1 1018 64 4200 2.1 200 16:19 26.01.2020
3690 Clouds 1 1017 90 0 0.45 202 15:45 26.01.2020
3691 Clouds 1 1017 90 0 1.79 202 15:22 26.01.2020
3692 Clouds 1 1019 95 0 2.68 198 14:58 26.01.2020
3693 Clouds 1 1017 90 0 0.45 270 14:39 26.01.2020
3694 Clouds 1 1019 95 0 2.68 229 14:19 26.01.2020
3695 Clouds 1 1017 90 0 0.89 225 13:41 26.01.2020
3696 Clouds 1 994 96 0 2.14 199 13:20 26.01.2020
3697 Clouds 1 1018 89 0 0.89 202 12:57 26.01.2020
3698 Clouds 1 1018 90 0 0.89 202 12:38 26.01.2020
3699 Clouds 0 1018 89 0 1.79 202 12:20 26.01.2020
3700 Clouds 0 1018 90 0 0.45 247 11:57 26.01.2020
3701 Clouds 0 1018 90 0 0.45 180 11:37 26.01.2020
3702 Mist 0 1020 59 5000 3.1 240 11:18 26.01.2020
3703 Mist 0 1020 59 5000 3.1 240 10:57 26.01.2020
3704 Mist 0 1020 59 5000 3.1 240 10:38 26.01.2020
3705 Mist 0 1020 59 5000 3.1 240 10:19 26.01.2020
3706 Mist 0 1020 100 5000 3.6 250 09:56 26.01.2020
3707 Mist 0 1020 100 5000 3.6 260 09:38 26.01.2020
3708 Mist 0 1020 100 5000 3.6 260 09:19 26.01.2020
3709 Mist -1 1019 100 4500 3.6 280 08:42 26.01.2020
3710 Mist -1 1019 100 4500 3.6 280 08:22 26.01.2020
3711 Mist -1 1019 100 4000 4.1 260 07:50 26.01.2020
3712 Mist -1 1019 100 4000 3.1 260 07:27 26.01.2020
3713 Mist -1 1019 100 3000 3.6 230 06:55 26.01.2020
3714 Mist -1 1019 100 2700 2.6 210 06:25 26.01.2020
3715 Mist -1 1020 92 2800 2.6 190 05:29 26.01.2020
3716 Mist -1 1020 100 2800 3.6 190 04:43 26.01.2020
3717 Clouds 0 1020 61 6000 3.1 220 02:38 26.01.2020
3718 Drizzle 0 1021 66 4800 3.1 210 01:46 26.01.2020
3719 Drizzle 0 1021 70 4800 3.1 210 01:23 26.01.2020
3720 Drizzle 0 1021 70 4000 2.1 200 00:44 26.01.2020
3721 Drizzle 0 1021 70 4000 2.1 200 00:26 26.01.2020
3722 Clouds 1 1020 90 0 1.79 180 23:40 25.01.2020
3723 Clouds 1 1020 90 0 1.79 180 23:21 25.01.2020
3724 Clouds 1 1020 89 0 1.34 157 22:58 25.01.2020
3725 Clouds 1 1020 89 0 0.89 202 22:39 25.01.2020
3726 Clouds 1 1020 89 0 2.24 202 22:18 25.01.2020
3727 Clouds 1 1020 89 0 1.79 180 21:56 25.01.2020
3728 Clouds 1 1020 89 0 1.79 202 21:38 25.01.2020
3729 Clouds 1 1020 89 0 1.34 157 21:19 25.01.2020
3730 Clouds 1 1021 89 0 1.34 202 20:43 25.01.2020
3731 Clouds 1 1021 89 0 1.79 157 20:25 25.01.2020
3732 Clouds 2 1021 72 0 1.76 229 19:55 25.01.2020
3733 Clouds 1 997 99 0 1.81 224 19:37 25.01.2020
3734 Clouds 1 1020 90 0 1.79 202 19:18 25.01.2020
3735 Clouds 2 1020 90 0 1.34 180 18:41 25.01.2020
3736 Clouds 2 1020 89 0 1.34 202 18:21 25.01.2020
3737 Clouds 2 1020 89 0 1.76 229 17:58 25.01.2020
3738 Clouds 2 997 99 0 1.81 224 17:38 25.01.2020
3739 Clouds 2 997 99 0 1.58 265 17:18 25.01.2020
3740 Clouds 2 997 99 0 1.58 265 16:42 25.01.2020
3741 Clouds 2 1022 95 0 2.24 219 16:23 25.01.2020
3742 Clouds 2 997 99 0 1.58 265 15:58 25.01.2020
3743 Clouds 2 1021 95 0 2.68 224 15:39 25.01.2020
3744 Clouds 2 997 99 0 1.58 265 15:20 25.01.2020
3745 Clouds 2 1020 90 0 0.45 202 14:43 25.01.2020
3746 Clouds 2 1020 90 0 0.45 202 14:19 25.01.2020
3747 Clouds 2 1021 90 0 2.24 225 13:54 25.01.2020
3748 Clouds 2 1021 90 0 0.89 180 13:36 25.01.2020
3749 Clouds 2 1021 90 0 1.34 180 13:18 25.01.2020
3750 Clouds 2 997 99 0 2.77 247 13:18 25.01.2020
3751 Clouds 2 1022 100 6000 4.1 230 12:41 25.01.2020
3752 Clouds 2 1022 100 6000 4.1 230 12:20 25.01.2020
3753 Clouds 1 1022 100 6000 3.6 230 11:40 25.01.2020
3754 Clouds 1 1022 100 6000 3.6 230 11:21 25.01.2020
3755 Drizzle 1 1022 100 5000 4.1 230 10:56 25.01.2020
3756 Drizzle 1 1022 100 5000 4.1 220 10:38 25.01.2020
3757 Drizzle 1 1021 72 4000 3.6 240 10:19 25.01.2020
3758 Drizzle 1 1021 72 3500 4.1 250 09:40 25.01.2020
3759 Drizzle 1 1021 72 3500 4.1 250 09:20 25.01.2020
3760 Drizzle 1 1021 72 3200 3.6 240 08:43 25.01.2020
3761 Drizzle 0 1021 71 3200 3.6 240 08:21 25.01.2020
3762 Drizzle 0 1021 71 2800 4.6 240 07:42 25.01.2020
3763 Drizzle 0 1021 71 2800 4.6 240 07:42 25.01.2020
3764 Drizzle 0 1021 71 2800 4.1 240 06:45 25.01.2020
3765 Drizzle 0 1020 71 2400 2.6 210 06:27 25.01.2020
3766 Drizzle 0 1020 71 2300 3.1 230 05:45 25.01.2020
3767 Drizzle 0 1020 69 3300 4.1 240 04:26 25.01.2020
3768 Drizzle 0 1020 69 3000 4.6 250 03:50 25.01.2020
3769 Drizzle 0 1021 69 2800 4.1 240 02:53 25.01.2020
3770 Drizzle 0 1021 63 2800 4.6 240 01:59 25.01.2020
3771 Drizzle 0 1021 63 2800 4.6 240 01:59 25.01.2020
3772 Drizzle 0 1021 63 2800 3.6 240 01:37 25.01.2020
3773 Mist 0 1021 70 3000 3.6 250 00:43 25.01.2020
3774 Mist 0 1021 70 3000 3.1 270 00:24 25.01.2020
3775 Mist 0 1021 70 3000 3.6 260 23:57 24.01.2020
3776 Mist 0 1021 70 3000 3.6 240 23:38 24.01.2020
3777 Mist 0 1021 70 3000 3.6 240 23:20 24.01.2020
3778 Mist 0 1021 70 3500 4.1 250 22:42 24.01.2020
3779 Mist 0 1021 70 3500 4.1 250 22:24 24.01.2020
3780 Mist 0 1021 70 3300 3.6 260 21:43 24.01.2020
3781 Mist 0 1021 70 3300 3.6 260 21:20 24.01.2020
3782 Mist 0 1021 70 4500 3.6 280 20:57 24.01.2020
3783 Mist 0 1021 70 4500 4.1 270 20:39 24.01.2020
3784 Mist 1 1021 75 4500 4.1 270 20:20 24.01.2020
3785 Mist 1 1021 75 4500 5.1 260 19:57 24.01.2020
3786 Clouds 1 1021 75 6000 3.6 290 19:38 24.01.2020
3787 Clouds 1 1021 75 6000 3.6 290 19:20 24.01.2020
3788 Clouds 1 1022 86 6000 4.1 290 18:43 24.01.2020
3789 Clouds 1 1021 86 8000 5.7 250 18:24 24.01.2020
3790 Clouds 1 1020 86 8000 4.6 270 17:54 24.01.2020
3791 Clouds 2 1021 80 8000 5.1 240 17:36 24.01.2020
3792 Clouds 2 1021 80 9000 5.1 250 17:18 24.01.2020
3793 Clouds 2 1021 80 10000 5.7 260 16:39 24.01.2020
3794 Clouds 3 1021 80 10000 5.7 260 16:20 24.01.2020
3795 Clouds 4 1021 74 10000 5.7 260 15:43 24.01.2020
3796 Clear 4 1020 72 10000 5.1 250 15:23 24.01.2020
3797 Clear 4 1020 69 10000 5.1 220 14:59 24.01.2020
3798 Clear 4 1021 72 10000 3.6 230 14:40 24.01.2020
3799 Clear 4 1021 67 10000 3.6 230 14:21 24.01.2020
3800 Clear 4 1021 74 10000 3.1 240 13:43 24.01.2020
3801 Clear 4 1021 74 10000 3.1 240 13:23 24.01.2020
3802 Clear 3 1022 74 10000 3.1 260 12:45 24.01.2020
3803 Clear 3 1022 74 10000 3.1 260 12:45 24.01.2020
3804 Clear 3 1022 80 10000 2.6 260 12:23 24.01.2020
3805 Clear 2 1022 80 10000 2.1 250 11:58 24.01.2020
3806 Clear 1 1022 86 10000 2.6 260 11:39 24.01.2020
3807 Clear 1 1022 86 10000 2.6 260 11:18 24.01.2020
3808 Clear 0 1022 80 10000 2.6 220 10:42 24.01.2020
3809 Clear 0 1022 77 10000 2.6 230 10:21 24.01.2020
3810 Clear -1 1022 92 9000 2.1 190 09:55 24.01.2020
3811 Clear -1 1023 86 9000 1.5 210 09:37 24.01.2020
3812 Clear -1 1023 86 9000 1.5 210 09:18 24.01.2020
3813 Clear -2 1023 92 8000 0.5 0 08:39 24.01.2020
3814 Clear -2 1023 92 8000 0.5 0 08:19 24.01.2020
3815 Clear -2 1022 92 10000 1 0 07:49 24.01.2020
3816 Clear -2 1023 92 10000 1 200 07:28 24.01.2020
3817 Clear -2 1023 100 10000 1 200 06:46 24.01.2020
3818 Clear -2 1023 100 10000 1 200 06:28 24.01.2020
3819 Clear -2 1023 100 10000 1 180 05:43 24.01.2020
3820 Clear -2 1024 92 10000 0.5 220 04:52 24.01.2020
3821 Clear -1 1025 92 10000 2.06 217 02:52 24.01.2020
3822 Clouds -1 1026 88 10000 1 190 02:23 24.01.2020
3823 Clouds 0 1026 88 10000 0.5 210 01:40 24.01.2020
3824 Clouds 0 1026 88 10000 0.5 210 01:19 24.01.2020
3825 Clouds 0 1027 86 10000 0.5 230 00:19 24.01.2020
3826 Clouds 1 1027 88 10000 1 0 23:45 23.01.2020
3827 Clouds 1 1027 88 10000 2.1 250 23:27 23.01.2020
3828 Clouds 2 1028 84 10000 2.1 270 22:59 23.01.2020
3829 Clouds 3 1028 84 10000 3.1 230 22:37 23.01.2020
3830 Clouds 3 1028 84 10000 3.1 230 22:37 23.01.2020
3831 Clouds 3 1028 84 10000 3.1 230 22:19 23.01.2020
3832 Clouds 3 1028 84 10000 2.6 260 21:57 23.01.2020
3833 Clouds 3 1028 84 10000 1.5 270 21:38 23.01.2020
3834 Clouds 3 1028 84 10000 1.5 270 21:20 23.01.2020
3835 Clouds 3 1028 84 10000 2.1 260 20:58 23.01.2020
3836 Clouds 3 1029 89 10000 2.1 270 20:38 23.01.2020
3837 Clouds 3 1029 80 10000 2.1 270 20:19 23.01.2020
3838 Clouds 3 1029 80 10000 3.1 250 19:56 23.01.2020
3839 Clouds 4 1029 80 10000 3.1 250 19:38 23.01.2020
3840 Clouds 4 1029 80 10000 3.1 250 19:19 23.01.2020
3841 Clouds 4 1029 80 10000 3.1 260 18:42 23.01.2020
3842 Clouds 4 1029 80 10000 3.1 260 18:21 23.01.2020
3843 Clouds 4 1029 80 10000 3.1 260 18:21 23.01.2020
3844 Clouds 4 1029 80 10000 3.6 260 17:58 23.01.2020
3845 Clouds 4 1029 80 10000 3.6 220 17:40 23.01.2020
3846 Clouds 5 1029 82 10000 3.6 220 17:20 23.01.2020
3847 Clouds 5 1030 82 10000 3.6 250 16:57 23.01.2020
3848 Clouds 5 1030 82 10000 4.6 240 16:37 23.01.2020
3849 Clouds 5 1030 82 10000 4.1 240 16:18 23.01.2020
3850 Clouds 5 1030 82 10000 4.1 240 15:56 23.01.2020
3851 Clouds 6 1031 82 10000 3.1 240 15:37 23.01.2020
3852 Clouds 6 1031 82 10000 3.1 240 15:18 23.01.2020
3853 Clouds 6 1031 70 10000 3.6 260 14:56 23.01.2020
3854 Clouds 6 1031 70 10000 3.1 270 14:38 23.01.2020
3855 Clouds 6 1031 70 10000 3.1 270 14:20 23.01.2020
3856 Clouds 6 1032 70 10000 4.1 260 13:44 23.01.2020
3857 Clouds 5 1032 80 10000 3.1 250 13:20 23.01.2020
3858 Clouds 6 1032 80 10000 3.1 250 12:55 23.01.2020
3859 Clouds 6 1033 86 10000 3.1 260 12:36 23.01.2020
3860 Clouds 5 1033 80 10000 3.1 250 12:18 23.01.2020
3861 Clouds 5 1033 80 10000 2.6 260 11:43 23.01.2020
3862 Clouds 5 1033 80 10000 2.6 260 11:24 23.01.2020
3863 Clouds 4 1034 86 10000 1.5 280 10:58 23.01.2020
3864 Clouds 4 1034 93 10000 1.5 270 10:40 23.01.2020
3865 Clouds 4 1034 93 10000 1.5 270 10:18 23.01.2020
3866 Clouds 4 1034 93 10000 1.5 270 09:40 23.01.2020
3867 Clouds 3 1034 93 10000 1.5 270 09:21 23.01.2020
3868 Clouds 3 1034 100 9000 2.1 250 08:56 23.01.2020
3869 Clouds 3 1034 100 8000 1.5 270 08:37 23.01.2020
3870 Clouds 3 1034 100 8000 1.5 270 08:18 23.01.2020
3871 Clouds 3 1034 100 10000 1.5 270 07:37 23.01.2020
3872 Clouds 2 1034 93 10000 1.5 260 07:18 23.01.2020
3873 Clouds 2 1034 93 10000 1.5 260 06:44 23.01.2020
3874 Clouds 2 1034 100 10000 0.5 0 06:18 23.01.2020
3875 Clouds 2 1034 96 10000 0.5 0 04:25 23.01.2020
3876 Fog 1 1034 100 10000 1 260 03:23 23.01.2020
3877 Clouds 2 1034 93 10000 1 280 01:55 23.01.2020
3878 Clouds 3 1034 93 10000 1 270 00:44 23.01.2020
3879 Clouds 3 1034 93 10000 1.5 300 00:24 23.01.2020
3880 Clouds 3 1034 86 10000 1.5 290 23:46 22.01.2020
3881 Clouds 3 1034 88 10000 2.6 260 23:28 22.01.2020
3882 Clouds 4 1034 80 10000 1 260 22:54 22.01.2020
3883 Clouds 4 1034 86 10000 1.5 280 22:36 22.01.2020
3884 Clouds 4 1034 86 10000 1.5 280 22:18 22.01.2020
3885 Clouds 5 1033 80 10000 2.6 280 21:38 22.01.2020
3886 Clouds 5 1033 80 10000 2.6 280 21:19 22.01.2020
3887 Clouds 5 1033 80 10000 2.6 270 20:55 22.01.2020
3888 Clouds 5 1033 75 10000 2.1 290 20:36 22.01.2020
3889 Clouds 5 1033 75 10000 2.1 290 20:18 22.01.2020
3890 Clouds 5 1033 75 10000 2.6 310 19:54 22.01.2020
3891 Clouds 5 1032 75 10000 2.1 300 19:36 22.01.2020
3892 Clouds 6 1032 75 10000 2.1 300 19:18 22.01.2020
3893 Clouds 6 1032 75 10000 2.1 290 18:54 22.01.2020
3894 Clouds 6 1032 81 10000 2.6 300 18:36 22.01.2020
3895 Clouds 6 1032 81 10000 2.6 300 18:18 22.01.2020
3896 Clouds 6 1031 75 10000 3.1 310 17:39 22.01.2020
3897 Clouds 6 1031 75 10000 3.1 310 17:20 22.01.2020
3898 Clouds 6 1031 81 10000 3.6 310 16:57 22.01.2020
3899 Clouds 6 1030 81 10000 4.6 320 16:39 22.01.2020
3900 Clouds 6 1030 81 10000 4.6 320 16:20 22.01.2020
3901 Clouds 6 1030 87 10000 3.1 310 15:55 22.01.2020
3902 Clouds 6 1030 87 10000 3.1 290 15:37 22.01.2020
3903 Clouds 6 1030 87 10000 3.1 290 15:18 22.01.2020
3904 Clouds 6 1030 93 10000 4.1 290 14:39 22.01.2020
3905 Clouds 6 1030 93 10000 4.1 290 14:20 22.01.2020
3906 Clouds 5 1030 100 8000 4.1 290 13:57 22.01.2020
3907 Clouds 5 1030 93 6000 4.6 280 13:37 22.01.2020
3908 Clouds 5 1030 93 6000 4.6 280 13:19 22.01.2020
3909 Drizzle 5 1030 93 4800 4.1 280 12:57 22.01.2020
3910 Drizzle 5 1030 100 4500 5.1 280 12:38 22.01.2020
3911 Drizzle 5 1030 100 4500 5.1 280 12:19 22.01.2020
3912 Drizzle 5 1030 100 3300 5.1 270 11:57 22.01.2020
3913 Drizzle 4 1030 100 3000 4.6 280 11:39 22.01.2020
3914 Drizzle 4 1030 100 3000 4.6 280 11:19 22.01.2020
3915 Drizzle 4 1030 100 3000 5.1 270 10:46 22.01.2020
3916 Drizzle 4 1030 100 3000 5.1 270 10:21 22.01.2020
3917 Drizzle 4 1030 93 3500 5.1 280 09:59 22.01.2020
3918 Mist 4 1030 100 4000 6.2 260 09:40 22.01.2020
3919 Mist 4 1030 100 4000 6.2 260 09:22 22.01.2020
3920 Mist 3 1030 100 3500 5.1 280 08:56 22.01.2020
3921 Mist 3 1030 100 3000 5.1 270 08:37 22.01.2020
3922 Mist 3 1030 100 3000 5.1 270 08:19 22.01.2020
3923 Mist 3 1030 100 3000 5.1 270 08:19 22.01.2020
3924 Drizzle 3 1031 100 3500 4.6 280 07:44 22.01.2020
3925 Drizzle 3 1031 100 3500 4.6 280 07:26 22.01.2020
3926 Mist 3 1031 93 4000 5.7 280 06:38 22.01.2020
3927 Mist 3 1031 93 4000 5.7 280 06:19 22.01.2020
3928 Clouds 3 1032 86 7000 4.6 250 04:27 22.01.2020
3929 Clouds 3 1032 86 7000 5.1 260 03:29 22.01.2020
3930 Clouds 3 1033 86 8000 4.6 270 02:49 22.01.2020
3931 Clouds 3 1033 87 10000 5.1 250 01:35 22.01.2020
3932 Clouds 3 1034 86 10000 4.1 260 00:42 22.01.2020
3933 Clouds 3 1034 86 10000 4.1 260 00:23 22.01.2020
3934 Clouds 3 1035 86 10000 5.7 280 23:38 21.01.2020
3935 Clouds 3 1035 86 10000 5.7 280 23:38 21.01.2020
3936 Clouds 2 1035 79 10000 5.7 280 23:20 21.01.2020
3937 Clouds 2 1035 79 10000 4.1 270 22:55 21.01.2020
3938 Clouds 2 1035 79 10000 4.6 260 22:36 21.01.2020
3939 Clouds 2 1035 79 10000 4.6 260 22:18 21.01.2020
3940 Clouds 2 1035 79 10000 4.6 260 21:55 21.01.2020
3941 Clouds 2 1036 79 10000 3.6 260 21:36 21.01.2020
3942 Clouds 2 1036 86 10000 3.1 270 21:18 21.01.2020
3943 Clouds 2 1036 86 10000 3.6 260 20:39 21.01.2020
3944 Clear 2 1036 86 10000 3.6 260 20:20 21.01.2020
3945 Clear 2 1036 73 10000 4.6 260 19:59 21.01.2020
3946 Clear 2 1036 73 10000 5.1 250 19:40 21.01.2020
3947 Clear 2 1036 73 10000 5.1 250 19:21 21.01.2020
3948 Clear 3 1036 73 10000 3.6 240 18:57 21.01.2020
3949 Clear 3 1036 73 10000 3.6 240 18:39 21.01.2020
3950 Clear 3 1036 73 10000 4.1 240 18:21 21.01.2020
3951 Clear 3 1036 74 10000 3.6 260 17:59 21.01.2020
3952 Clear 3 1037 73 10000 4.6 250 17:40 21.01.2020
3953 Clear 4 1037 65 10000 4.6 250 17:18 21.01.2020
3954 Clear 4 1037 65 10000 4.6 250 16:55 21.01.2020
3955 Clear 5 1037 65 10000 5.1 260 16:36 21.01.2020
3956 Clear 5 1037 65 10000 5.1 260 16:18 21.01.2020
3957 Clear 6 1038 70 10000 4.1 270 15:40 21.01.2020
3958 Clear 6 1038 70 10000 4.1 270 15:20 21.01.2020
3959 Clear 6 1038 70 10000 5.1 260 14:57 21.01.2020
3960 Clear 6 1038 65 10000 6.7 260 14:37 21.01.2020
3961 Clear 6 1038 60 10000 6.7 260 14:18 21.01.2020
3962 Clear 6 1039 60 10000 6.2 260 13:39 21.01.2020
3963 Clear 6 1039 60 10000 6.2 260 13:18 21.01.2020
3964 Clear 6 1039 60 10000 6.2 250 12:43 21.01.2020
3965 Clear 5 1039 60 10000 6.2 250 12:25 21.01.2020
3966 Clear 5 1039 60 10000 6.2 250 11:57 21.01.2020
3967 Clear 4 1040 60 10000 5.7 250 11:38 21.01.2020
3968 Clear 4 1040 70 10000 5.7 250 11:20 21.01.2020
3969 Clear 3 1040 70 10000 5.1 250 10:44 21.01.2020
3970 Clear 2 1040 70 10000 5.1 250 10:23 21.01.2020
3971 Clear 2 1040 70 10000 5.1 250 10:23 21.01.2020
3972 Clear 2 1040 86 10000 4.6 250 09:59 21.01.2020
3973 Clear 1 1040 86 10000 4.6 250 09:40 21.01.2020
3974 Clear 1 1040 86 10000 4.6 250 09:22 21.01.2020
3975 Clear 0 1040 70 10000 3.6 260 08:48 21.01.2020
3976 Clear 0 1040 86 10000 4.6 240 08:29 21.01.2020
3977 Clouds 0 1040 79 10000 4.1 250 07:59 21.01.2020
3978 Clouds 0 1040 79 10000 4.6 250 07:39 21.01.2020
3979 Clouds 0 1040 79 10000 4.6 250 07:21 21.01.2020
3980 Clouds 0 1040 79 10000 4.6 240 06:48 21.01.2020
3981 Clouds 0 1041 79 10000 3.1 250 06:26 21.01.2020
3982 Clouds 0 1041 86 10000 3.1 240 05:42 21.01.2020
3983 Clouds 0 1041 88 10000 3.1 260 04:39 21.01.2020
3984 Clouds 0 1042 88 10000 2.1 240 02:56 21.01.2020
3985 Clouds 0 1043 88 10000 3.1 220 01:53 21.01.2020
3986 Clouds 0 1043 88 10000 4.1 240 01:18 21.01.2020
3987 Clouds 0 1044 88 10000 2.1 240 00:37 21.01.2020
3988 Clouds 1 1044 88 10000 2.1 230 23:59 20.01.2020
3989 Clouds 1 1044 88 10000 2.6 230 23:39 20.01.2020
3990 Clouds 1 1044 88 10000 2.6 230 23:39 20.01.2020
3991 Clouds 1 1044 93 10000 4.6 250 23:19 20.01.2020
3992 Clouds 1 1044 93 10000 4.6 250 22:56 20.01.2020
3993 Clouds 1 1044 93 10000 4.1 250 22:38 20.01.2020
3994 Clouds 1 1044 93 10000 4.1 250 22:20 20.01.2020
3995 Clouds 1 1044 93 10000 3.1 240 21:57 20.01.2020
3996 Clouds 1 1045 100 10000 3.1 230 21:37 20.01.2020
3997 Clouds 1 1045 100 10000 3.1 230 21:19 20.01.2020
3998 Clouds 1 1045 100 10000 3.1 250 20:56 20.01.2020
3999 Clouds 1 1045 100 10000 3.1 250 20:56 20.01.2020
4000 Clouds 2 1045 93 10000 3.1 230 20:38 20.01.2020
4001 Clouds 2 1045 93 10000 3.1 230 20:18 20.01.2020
4002 Clouds 2 1045 93 10000 3.6 240 19:56 20.01.2020
4003 Clouds 2 1045 87 10000 2.6 250 19:38 20.01.2020
4004 Clouds 2 1045 87 10000 2.6 250 19:18 20.01.2020
4005 Clouds 3 1045 93 10000 2.6 220 18:44 20.01.2020
4006 Clouds 3 1045 93 10000 2.1 230 18:22 20.01.2020
4007 Clouds 3 1045 93 8000 2.6 250 17:58 20.01.2020
4008 Clouds 3 1045 93 7000 3.6 250 17:36 20.01.2020
4009 Clouds 3 1045 93 7000 3.6 250 17:36 20.01.2020
4010 Clouds 4 1045 93 7000 3.6 250 17:18 20.01.2020
4011 Clouds 4 1045 93 7000 3.1 250 16:43 20.01.2020
4012 Clouds 4 1045 93 7000 3.6 290 16:25 20.01.2020
4013 Clouds 4 1045 93 7000 3.1 260 15:58 20.01.2020
4014 Clouds 4 1045 93 6000 3.6 260 15:39 20.01.2020
4015 Clouds 4 1045 93 6000 3.6 260 15:21 20.01.2020
4016 Mist 4 1046 93 5000 4.1 280 14:42 20.01.2020
4017 Mist 4 1046 93 5000 4.1 280 14:24 20.01.2020
4018 Drizzle 3 1046 100 5000 4.1 270 13:59 20.01.2020
4019 Mist 3 1046 100 5000 2.1 290 13:40 20.01.2020
4020 Mist 3 1046 100 5000 2.1 290 13:22 20.01.2020
4021 Mist 3 1046 100 4800 2.1 280 12:47 20.01.2020
4022 Mist 3 1046 100 2000 3.6 280 12:29 20.01.2020
4023 Mist 2 1046 68 1000 3.1 280 11:59 20.01.2020
4024 Mist 2 1046 68 4800 3.6 280 11:40 20.01.2020
4025 Mist 2 1046 82 4800 3.6 280 11:22 20.01.2020
4026 Clouds 1 1046 82 8000 2.6 260 10:57 20.01.2020
4027 Clouds 1 1046 82 8000 3.1 260 10:39 20.01.2020
4028 Clouds 1 1046 82 8000 3.1 260 10:19 20.01.2020
4029 Clouds 0 1045 100 8000 2.1 260 09:41 20.01.2020
4030 Clouds 0 1045 100 8000 2.1 260 09:21 20.01.2020
4031 Clouds 0 1045 100 8000 2.1 250 08:49 20.01.2020
4032 Clouds 0 1044 100 10000 1.5 240 08:30 20.01.2020
4033 Clouds 0 1044 100 7000 2.1 250 07:54 20.01.2020
4034 Mist 0 1044 100 5000 1 0 07:30 20.01.2020
4035 Mist 0 1044 100 1900 1 260 06:59 20.01.2020
4036 Mist 0 1044 100 4200 1 260 06:34 20.01.2020
4037 Clouds 1 1044 100 7000 2.1 250 05:49 20.01.2020
4038 Clouds 1 1044 100 8000 1 240 05:30 20.01.2020
4039 Clouds 2 1043 86 10000 3.1 300 04:58 20.01.2020
4040 Clouds 3 1043 93 10000 1 280 03:30 20.01.2020
4041 Clouds 4 1042 80 10000 1 0 01:58 20.01.2020
4042 Clouds 4 1042 80 10000 1.5 280 01:38 20.01.2020
4043 Clouds 4 1042 75 10000 2.1 320 00:46 20.01.2020
4044 Clouds 4 1042 86 10000 1 0 00:26 20.01.2020
4045 Clouds 4 1041 86 10000 1 280 23:55 19.01.2020
4046 Clouds 4 1041 86 10000 1.5 280 23:36 19.01.2020
4047 Clouds 4 1041 86 10000 1 0 23:18 19.01.2020
4048 Clouds 4 1041 86 10000 1 0 22:54 19.01.2020
4049 Clouds 4 1040 86 10000 1.5 290 22:36 19.01.2020
4050 Clouds 4 1040 86 10000 1.5 290 22:18 19.01.2020
4051 Clouds 4 1040 86 10000 1.5 290 21:55 19.01.2020
4052 Clouds 4 1040 86 10000 1.5 290 21:55 19.01.2020
4053 Clouds 4 1040 86 10000 2.1 280 21:36 19.01.2020
4054 Clouds 4 1040 86 10000 2.1 280 21:36 19.01.2020
4055 Clouds 4 1040 86 10000 2.1 280 21:18 19.01.2020
4056 -273 0 0 0 0 0 20:55 19.01.2020
4057 Clouds 4 1039 86 10000 1.5 250 20:37 19.01.2020
4058 Clouds 4 1039 86 10000 1.5 250 20:18 19.01.2020
4059 Clouds 4 1039 80 10000 1.5 300 19:54 19.01.2020
4060 Clouds 4 1038 80 10000 1 0 19:36 19.01.2020
4061 Clouds 4 1038 80 10000 1 0 19:18 19.01.2020
4062 Clouds 4 1038 86 10000 1.5 330 18:54 19.01.2020
4063 Clouds 4 1038 86 10000 2.1 310 18:36 19.01.2020
4064 Clouds 4 1038 86 10000 2.1 310 18:18 19.01.2020
4065 Clouds 4 1037 86 10000 1 0 17:56 19.01.2020
4066 Clouds 4 1037 86 10000 1.5 310 17:38 19.01.2020
4067 Clouds 4 1037 86 10000 1.5 310 17:18 19.01.2020
4068 Clouds 5 1036 86 10000 1.5 310 16:55 19.01.2020
4069 Clouds 5 1036 86 10000 2.1 310 16:36 19.01.2020
4070 Clouds 5 1036 86 10000 2.1 310 16:18 19.01.2020
4071 Clouds 5 1035 86 10000 2.6 310 15:55 19.01.2020
4072 Clouds 5 1035 86 10000 2.6 270 15:36 19.01.2020
4073 Clouds 5 1035 86 10000 2.6 270 15:18 19.01.2020
4074 Clouds 5 1034 86 10000 3.1 290 14:41 19.01.2020
4075 Clouds 5 1034 86 10000 3.1 290 14:41 19.01.2020
4076 Clouds 5 1034 86 10000 3.1 270 14:21 19.01.2020
4077 Clouds 5 1034 86 10000 3.1 270 13:59 19.01.2020
4078 Clouds 5 1034 86 10000 3.1 290 13:40 19.01.2020
4079 Clouds 5 1034 86 10000 3.1 290 13:22 19.01.2020
4080 Clouds 5 1034 86 10000 3.1 290 13:22 19.01.2020
4081 Clouds 5 1033 86 10000 2.6 280 12:59 19.01.2020
4082 Clouds 4 1033 93 10000 2.1 260 12:41 19.01.2020
4083 Clouds 4 1033 93 10000 2.1 260 12:21 19.01.2020
4084 Clouds 4 1033 93 10000 3.1 280 11:57 19.01.2020
4085 Clouds 4 1033 93 10000 3.1 270 11:39 19.01.2020
4086 Clouds 4 1033 93 10000 3.1 270 11:18 19.01.2020
4087 Clouds 4 1032 93 10000 3.1 270 10:54 19.01.2020
4088 Clouds 4 1032 93 10000 2.6 300 10:36 19.01.2020
4089 Clouds 4 1032 93 10000 2.6 300 10:18 19.01.2020
4090 Clouds 4 1031 93 10000 3.1 290 09:41 19.01.2020
4091 Clouds 4 1031 93 10000 3.1 290 09:23 19.01.2020
4092 Clouds 4 1030 86 10000 2.1 290 08:57 19.01.2020
4093 Clouds 4 1029 86 10000 2.6 280 08:38 19.01.2020
4094 Clouds 4 1029 86 10000 2.6 280 08:20 19.01.2020
4095 Clouds 3 1029 100 10000 3.1 280 07:40 19.01.2020
4096 Clouds 4 1029 100 10000 3.1 280 07:21 19.01.2020
4097 Clouds 3 1028 86 10000 3.6 270 06:44 19.01.2020
4098 Clouds 3 1027 86 10000 3.6 260 04:41 19.01.2020
4099 Clouds 4 1026 93 10000 3.1 260 02:43 19.01.2020
4100 Clouds 4 1026 93 10000 3.1 260 02:21 19.01.2020
4101 Clouds 4 1025 93 10000 2.1 270 01:24 19.01.2020
4102 Clouds 4 1025 93 10000 2.1 270 01:24 19.01.2020
4103 Clouds 3 1025 93 10000 2.6 250 00:45 19.01.2020
4104 Clouds 3 1025 86 10000 3.1 250 00:27 19.01.2020
4105 Clouds 3 1025 86 10000 3.1 250 23:56 18.01.2020
4106 Clouds 3 1024 80 10000 3.6 250 23:38 18.01.2020
4107 Clouds 3 1024 80 10000 3.6 250 23:38 18.01.2020
4108 Clouds 3 1024 80 10000 3.6 250 23:19 18.01.2020
4109 Clouds 3 1024 86 10000 3.1 250 22:55 18.01.2020
4110 Clouds 3 1024 86 10000 3.6 250 22:37 18.01.2020
4111 Clouds 3 1024 86 10000 3.6 250 22:19 18.01.2020
4112 Clouds 4 1024 80 10000 4.1 240 21:56 18.01.2020
4113 Clouds 4 1024 80 10000 3.6 230 21:37 18.01.2020
4114 Clouds 4 1024 80 10000 3.6 230 21:18 18.01.2020
4115 Clouds 5 1024 75 10000 4.6 250 20:42 18.01.2020
4116 Clouds 5 1024 75 10000 4.6 250 20:21 18.01.2020
4117 Clouds 5 1023 75 10000 4.6 240 19:57 18.01.2020
4118 Clouds 5 1023 70 10000 3.6 230 19:39 18.01.2020
4119 Clouds 5 1023 70 10000 3.6 230 19:21 18.01.2020
4120 Clouds 5 1023 75 10000 3.1 220 18:42 18.01.2020
4121 Clouds 5 1023 75 10000 3.1 220 18:21 18.01.2020
4122 Clouds 5 1023 79 10000 2.6 250 17:55 18.01.2020
4123 Clouds 6 1023 70 10000 4.1 250 17:37 18.01.2020
4124 Clouds 6 1023 70 10000 4.1 250 17:18 18.01.2020
4125 Clouds 6 1022 70 10000 4.6 250 16:55 18.01.2020
4126 Clouds 6 1022 65 10000 6.2 250 16:36 18.01.2020
4127 Clouds 6 1022 65 10000 6.2 250 16:18 18.01.2020
4128 Clouds 7 1022 65 10000 5.7 240 15:41 18.01.2020
4129 Clouds 7 1022 65 10000 5.7 240 15:23 18.01.2020
4130 Clouds 7 1022 65 10000 4.6 240 14:55 18.01.2020
4131 Clouds 7 1022 65 10000 5.7 240 14:37 18.01.2020
4132 Clouds 7 1022 65 10000 5.7 240 14:18 18.01.2020
4133 Clouds 7 1022 65 10000 5.7 230 13:43 18.01.2020
4134 Clouds 7 1022 65 10000 5.7 230 13:24 18.01.2020
4135 Clouds 7 1022 70 10000 5.1 240 12:57 18.01.2020
4136 Clouds 6 1022 70 10000 5.1 230 12:38 18.01.2020
4137 Clouds 6 1022 70 10000 5.1 230 12:20 18.01.2020
4138 Clouds 6 1022 75 10000 5.1 240 11:44 18.01.2020
4139 Clouds 5 1022 75 10000 5.1 230 11:21 18.01.2020
4140 Clouds 5 1022 70 10000 4.1 220 10:57 18.01.2020
4141 Clouds 5 1022 75 10000 3.6 210 10:38 18.01.2020
4142 Clouds 5 1022 75 10000 3.6 210 10:19 18.01.2020
4143 Clouds 5 1022 80 10000 3.6 230 09:46 18.01.2020
4144 Clouds 4 1021 86 10000 4.1 250 09:28 18.01.2020
4145 Clouds 4 1021 86 10000 4.1 260 08:56 18.01.2020
4146 Clouds 4 1021 80 10000 4.1 250 08:38 18.01.2020
4147 Clouds 4 1021 80 10000 4.1 250 08:19 18.01.2020
4148 Clouds 4 1020 86 10000 4.1 250 07:47 18.01.2020
4149 Clouds 4 1020 86 10000 4.1 250 07:29 18.01.2020
4150 Clouds 5 1020 80 0 4.1 260 06:47 18.01.2020
4151 Clouds 6 1019 81 10000 6.2 250 05:59 18.01.2020
4152 Clouds 6 1018 93 10000 3.6 250 05:24 18.01.2020
4153 Clouds 6 1017 93 10000 4.6 240 02:56 18.01.2020
4154 Rain 6 1016 87 10000 4.1 230 01:56 18.01.2020
4155 Rain 6 1016 87 10000 2.1 200 01:35 18.01.2020
4156 Rain 6 1016 81 10000 2.6 210 00:37 18.01.2020
4157 Clouds 5 1015 86 10000 2.1 210 00:18 18.01.2020
4158 Rain 5 1016 81 10000 2.6 210 00:18 18.01.2020
4159 Rain 5 1016 81 10000 2.6 210 00:18 18.01.2020
4160 Clouds 5 1015 86 10000 2.1 190 23:44 17.01.2020
4161 Clouds 4 1015 86 10000 2.1 190 23:20 17.01.2020
4162 Clouds 4 1015 86 10000 2.1 190 22:59 17.01.2020
4163 Clouds 4 1015 80 10000 2.6 190 22:40 17.01.2020
4164 Clouds 4 1015 80 10000 2.6 190 22:18 17.01.2020
4165 Clouds 4 1015 80 10000 3.1 190 21:41 17.01.2020
4166 Clouds 4 1015 75 10000 3.6 190 21:22 17.01.2020
4167 Clouds 4 1015 75 10000 4.1 180 20:59 17.01.2020
4168 Clouds 4 1014 75 10000 4.1 170 20:40 17.01.2020
4169 Clear 4 1014 75 10000 4.1 170 20:20 17.01.2020
4170 Clear 4 1015 70 10000 4.6 180 19:57 17.01.2020
4171 Clear 4 1015 70 10000 4.1 170 19:38 17.01.2020
4172 Clear 5 1015 70 10000 4.1 170 19:19 17.01.2020
4173 Clear 5 1015 75 10000 4.1 170 18:57 17.01.2020
4174 Clear 5 1015 75 10000 3.1 160 18:37 17.01.2020
4175 Clear 5 1015 75 10000 3.1 160 18:19 17.01.2020
4176 Clouds 6 1015 70 10000 5.1 160 17:39 17.01.2020
4177 Clouds 6 1015 70 10000 5.1 160 17:21 17.01.2020
4178 Clouds 7 1016 65 10000 4.6 160 16:55 17.01.2020
4179 Clouds 7 1016 65 10000 6.2 170 16:36 17.01.2020
4180 Clouds 7 1016 65 10000 6.2 170 16:18 17.01.2020
4181 Clear 8 1016 66 10000 4.6 160 15:43 17.01.2020
4182 Clear 9 1016 66 10000 4.6 160 15:25 17.01.2020
4183 Clear 9 1016 66 10000 5.7 160 14:44 17.01.2020
4184 Clear 9 1017 66 10000 7.2 150 14:25 17.01.2020
4185 Clear 9 1017 66 10000 6.2 150 13:56 17.01.2020
4186 Clear 9 1018 70 10000 6.7 150 13:37 17.01.2020
4187 Clear 9 1018 70 10000 6.7 150 13:18 17.01.2020
4188 Clear 8 1020 75 10000 6.2 150 12:42 17.01.2020
4189 Clear 8 1020 75 10000 6.2 150 12:21 17.01.2020
4190 Clear 6 1021 75 10000 5.1 150 11:38 17.01.2020
4191 Clear 5 1021 75 10000 5.1 150 11:18 17.01.2020
4192 Clear 4 1022 86 10000 4.1 140 10:43 17.01.2020
4193 Clear 4 1022 86 10000 4.1 140 10:23 17.01.2020
4194 Clear 3 1022 86 0 4.1 140 09:58 17.01.2020
4195 Clear 3 1022 86 10000 4.1 140 09:39 17.01.2020
4196 Clear 2 1022 86 10000 4.1 140 09:20 17.01.2020
4197 Clear 2 1023 86 10000 4.1 130 08:45 17.01.2020
4198 Clear 1 1023 93 10000 3.6 130 08:25 17.01.2020
4199 Clear 1 1023 93 10000 3.6 140 07:55 17.01.2020
4200 Clear 1 1023 93 10000 2.6 130 07:32 17.01.2020
4201 Clear 1 1023 93 10000 2.6 130 07:32 17.01.2020
4202 Clear 2 1023 93 10000 3.1 130 06:59 17.01.2020
4203 Clear 2 1023 93 10000 2.6 140 06:41 17.01.2020
4204 Clear 2 1024 86 10000 2.1 140 05:56 17.01.2020
4205 Clear 3 1024 87 0 0.45 157 03:39 17.01.2020
4206 Clear 3 1000 89 0 3.12 159 02:53 17.01.2020
4207 Clouds 3 1001 88 0 3.83 148 01:47 17.01.2020
4208 Clouds 3 1026 89 0 3.58 152 01:29 17.01.2020
4209 Clear 3 1025 86 0 3.94 148 00:51 17.01.2020
4210 Clear 3 1002 86 0 3.94 148 00:28 17.01.2020
4211 Clear 4 1027 81 10000 4.1 150 23:46 16.01.2020
4212 Clear 4 1027 81 10000 4.1 150 23:46 16.01.2020
4213 Clear 4 1027 81 10000 4.1 150 23:26 16.01.2020
4214 Clear 4 1027 81 10000 3.6 150 22:58 16.01.2020
4215 Clear 5 1027 87 10000 3.6 150 22:40 16.01.2020
4216 Clear 5 1027 87 10000 3.6 150 22:21 16.01.2020
4217 Clear 5 1027 87 10000 4.1 140 21:55 16.01.2020
4218 Clear 5 1027 87 10000 3.1 140 21:37 16.01.2020
4219 Clear 5 1027 87 10000 3.1 140 21:18 16.01.2020
4220 Clear 5 1028 81 10000 3.1 150 20:56 16.01.2020
4221 Clear 5 1028 81 10000 3.1 150 20:36 16.01.2020
4222 Clear 5 1028 81 10000 3.1 150 20:18 16.01.2020
4223 Clear 6 1028 81 10000 3.1 150 19:54 16.01.2020
4224 Clear 6 1028 75 10000 2.6 150 19:36 16.01.2020
4225 Clear 6 1028 75 10000 2.6 150 19:18 16.01.2020
4226 Clear 6 1028 75 10000 3.1 140 18:54 16.01.2020
4227 Clear 6 1028 75 10000 3.1 130 18:36 16.01.2020
4228 Clear 6 1028 75 10000 3.1 130 18:18 16.01.2020
4229 Clear 6 1028 65 10000 1.5 140 17:41 16.01.2020
4230 Clear 7 1028 65 10000 1.5 140 17:22 16.01.2020
4231 Clear 7 1028 66 10000 2.1 180 16:57 16.01.2020
4232 Clear 8 1028 66 10000 2.6 190 16:38 16.01.2020
4233 Clear 9 1028 66 10000 2.6 190 16:19 16.01.2020
4234 Clear 10 1028 50 10000 2.6 210 15:44 16.01.2020
4235 Clear 10 1028 50 10000 2.6 210 15:22 16.01.2020
4236 Clear 10 1028 57 10000 4.1 220 14:57 16.01.2020
4237 Clear 10 1028 61 10000 2.6 230 14:38 16.01.2020
4238 Clear 10 1028 61 10000 2.6 230 14:19 16.01.2020
4239 Clear 10 1029 61 10000 3.1 240 13:44 16.01.2020
4240 Clear 10 1029 66 10000 3.1 260 13:25 16.01.2020
4241 Clear 10 1029 70 10000 4.1 250 12:47 16.01.2020
4242 Clear 10 1029 70 10000 4.6 250 12:28 16.01.2020
4243 Clear 9 1029 70 10000 4.1 240 11:59 16.01.2020
4244 Clear 9 1029 75 10000 4.6 240 11:40 16.01.2020
4245 Clear 8 1029 75 10000 4.6 240 11:22 16.01.2020
4246 Clear 7 1028 81 10000 4.6 240 10:55 16.01.2020
4247 Clear 6 1028 87 10000 2.1 240 10:36 16.01.2020
4248 Clear 6 1028 87 10000 2.1 240 10:18 16.01.2020
4249 Clear 5 1028 86 10000 2.6 240 09:42 16.01.2020
4250 Clear 5 1027 86 10000 2.6 250 09:24 16.01.2020
4251 Clear 4 1027 93 10000 2.1 250 08:56 16.01.2020
4252 Clear 4 1027 93 10000 3.1 250 08:36 16.01.2020
4253 Clouds 4 1027 93 10000 3.1 250 08:18 16.01.2020
4254 Clouds 5 1026 93 10000 3.1 240 07:42 16.01.2020
4255 Clouds 5 1026 86 10000 3.6 250 07:23 16.01.2020
4256 Clouds 5 1025 93 10000 3.6 250 06:50 16.01.2020
4257 Clouds 5 1025 93 10000 2.6 230 06:32 16.01.2020
4258 Clouds 6 1025 93 10000 1.5 260 05:49 16.01.2020
4259 Clouds 8 1023 76 10000 2.6 300 04:46 16.01.2020
4260 Clouds 9 1022 71 10000 4.1 280 03:56 16.01.2020
4261 Clouds 9 1021 76 10000 4.1 250 02:46 16.01.2020
4262 Clouds 9 1019 70 10000 2.6 210 01:34 16.01.2020
4263 Clouds 9 1019 66 10000 3.6 210 00:43 16.01.2020
4264 Clouds 8 1018 66 10000 4.1 220 00:23 16.01.2020
4265 Clouds 8 1018 66 10000 5.1 210 23:44 15.01.2020
4266 Clouds 8 1017 70 10000 4.6 200 23:22 15.01.2020
4267 Clouds 8 1017 65 10000 4.6 190 22:56 15.01.2020
4268 Clouds 8 1017 61 10000 4.6 200 22:38 15.01.2020
4269 Clouds 8 1017 61 10000 4.6 200 22:18 15.01.2020
4270 Clouds 8 1016 61 10000 5.7 200 21:56 15.01.2020
4271 Clouds 8 1016 61 10000 5.7 200 21:37 15.01.2020
4272 Clouds 8 1016 61 10000 5.7 200 21:37 15.01.2020
4273 Clouds 9 1016 61 10000 5.7 200 21:18 15.01.2020
4274 Clouds 9 1016 61 10000 5.1 200 20:55 15.01.2020
4275 Clouds 8 1016 61 10000 5.7 200 20:37 15.01.2020
4276 Clear 8 1016 61 10000 5.7 200 20:18 15.01.2020
4277 Clear 8 1015 61 10000 6.2 190 19:54 15.01.2020
4278 Clear 8 1015 57 10000 6.2 190 19:36 15.01.2020
4279 Clear 9 1015 57 10000 6.2 190 19:18 15.01.2020
4280 Clear 9 1015 57 10000 5.1 190 18:56 15.01.2020
4281 Clear 9 1014 57 10000 6.2 190 18:37 15.01.2020
4282 Clear 9 1014 57 10000 6.2 190 18:37 15.01.2020
4283 Clear 9 1014 57 10000 6.2 190 18:19 15.01.2020
4284 Clear 10 1014 53 10000 5.7 190 17:55 15.01.2020
4285 Clear 10 1014 53 10000 5.7 200 17:36 15.01.2020
4286 Clear 11 1014 53 10000 5.7 200 17:18 15.01.2020
4287 Clear 11 1014 54 10000 5.1 200 16:40 15.01.2020
4288 Clear 12 1014 54 10000 5.1 200 16:21 15.01.2020
4289 Clear 12 1013 54 10000 5.7 200 15:57 15.01.2020
4290 Clear 12 1013 50 10000 6.2 200 15:39 15.01.2020
4291 Clear 12 1013 50 10000 6.2 200 15:18 15.01.2020
4292 Clear 13 1013 58 10000 4.6 190 14:43 15.01.2020
4293 Clouds 13 1013 54 10000 6.7 200 14:20 15.01.2020
4294 Clouds 13 1014 50 10000 7.2 200 13:46 15.01.2020
4295 Clouds 13 1014 58 10000 5.1 190 13:26 15.01.2020
4296 Clouds 13 1014 62 10000 6.2 200 12:59 15.01.2020
4297 Clouds 12 1014 58 10000 7.2 210 12:40 15.01.2020
4298 Clouds 12 1014 58 10000 7.2 210 12:20 15.01.2020
4299 Clouds 12 1014 58 10000 6.7 210 11:57 15.01.2020
4300 Clouds 12 1014 58 10000 6.2 200 11:37 15.01.2020
4301 Clouds 12 1014 58 10000 6.2 200 11:19 15.01.2020
4302 Clouds 11 1014 58 10000 6.7 200 10:46 15.01.2020
4303 Clouds 11 1014 62 10000 6.2 190 10:27 15.01.2020
4304 Clouds 11 1014 62 10000 5.7 180 09:46 15.01.2020
4305 Clouds 10 1013 58 10000 6.2 200 09:26 15.01.2020
4306 Clouds 11 1013 58 10000 7.2 210 08:59 15.01.2020
4307 Rain 10 1013 58 10000 6.7 210 08:41 15.01.2020
4308 Clouds 10 1013 58 10000 6.7 210 08:22 15.01.2020
4309 Clouds 10 1013 58 10000 7.2 210 07:52 15.01.2020
4310 Clouds 10 1013 58 10000 6.2 210 07:32 15.01.2020
4311 Rain 10 1012 62 10000 5.7 200 06:46 15.01.2020
4312 Clouds 10 1012 62 10000 5.7 200 06:21 15.01.2020
4313 Clouds 9 1012 70 10000 4.6 190 04:45 15.01.2020
4314 Clouds 9 1011 66 10000 4.6 180 02:39 15.01.2020
4315 Clouds 9 1011 66 10000 4.1 190 01:28 15.01.2020
4316 Clouds 9 1011 61 10000 4.6 190 00:59 15.01.2020
4317 Clouds 9 1011 61 10000 6.2 190 00:36 15.01.2020
4318 Clouds 9 1011 61 10000 6.2 190 00:18 15.01.2020
4319 Clouds 9 1011 66 10000 5.1 200 23:45 14.01.2020
4320 Clouds 9 1010 61 10000 5.1 200 23:24 14.01.2020
4321 Clouds 9 1010 61 10000 5.1 190 22:54 14.01.2020
4322 Clouds 9 1010 61 10000 5.7 200 22:36 14.01.2020
4323 Clouds 9 1010 61 10000 5.7 190 22:18 14.01.2020
4324 Clouds 9 1010 61 10000 5.7 190 21:54 14.01.2020
4325 Clouds 9 1010 61 10000 4.6 190 21:36 14.01.2020
4326 Clouds 9 1010 61 10000 4.6 190 21:18 14.01.2020
4327 Clouds 9 1010 61 10000 4.6 190 21:18 14.01.2020
4328 Clouds 9 1010 66 10000 5.7 200 20:41 14.01.2020
4329 Clouds 9 1010 66 10000 5.7 200 20:22 14.01.2020
4330 Clouds 9 1010 66 10000 5.7 200 19:56 14.01.2020
4331 Clouds 9 1010 66 10000 4.6 190 19:38 14.01.2020
4332 Clouds 9 1010 66 10000 4.6 190 19:20 14.01.2020
4333 Clouds 9 1010 66 10000 4.6 190 19:20 14.01.2020
4334 Clouds 9 1010 66 10000 4.1 200 18:58 14.01.2020
4335 Clouds 9 1010 70 10000 3.6 180 18:39 14.01.2020
4336 Clouds 9 1010 70 10000 3.6 180 18:19 14.01.2020
4337 Clouds 9 1010 70 10000 3.6 180 18:19 14.01.2020
4338 Clouds 9 1010 70 10000 3.6 180 17:39 14.01.2020
4339 Clouds 9 1010 70 10000 3.6 180 17:19 14.01.2020
4340 Clouds 9 1010 66 10000 3.6 200 16:59 14.01.2020
4341 Clouds 9 1010 66 10000 4.6 200 16:41 14.01.2020
4342 Clouds 9 1010 66 10000 4.6 200 16:21 14.01.2020
4343 Clouds 10 1010 66 10000 5.7 210 15:55 14.01.2020
4344 Clouds 10 1010 66 10000 5.7 220 15:37 14.01.2020
4345 Clouds 10 1010 66 10000 5.7 220 15:18 14.01.2020
4346 Clouds 10 1010 62 10000 7.2 220 14:43 14.01.2020
4347 Clouds 10 1009 66 10000 6.7 210 14:20 14.01.2020
4348 Clouds 10 1009 61 10000 6.2 200 13:54 14.01.2020
4349 Clouds 10 1009 66 10000 6.7 200 13:36 14.01.2020
4350 Rain 9 1009 66 10000 6.7 200 13:18 14.01.2020
4351 Rain 9 1009 66 10000 6.7 200 12:41 14.01.2020
4352 Rain 9 1009 66 10000 6.7 200 12:20 14.01.2020
4353 Rain 8 1010 70 10000 6.2 190 11:43 14.01.2020
4354 Rain 8 1010 70 10000 6.2 190 11:25 14.01.2020
4355 Rain 7 1010 65 10000 6.7 200 10:59 14.01.2020
4356 Clouds 7 1010 65 10000 7.2 190 10:40 14.01.2020
4357 Clouds 6 1010 65 10000 7.2 190 10:20 14.01.2020
4358 Clouds 6 1010 70 10000 6.7 200 09:58 14.01.2020
4359 Clouds 6 1010 70 10000 7.2 190 09:40 14.01.2020
4360 Clouds 6 1010 70 10000 7.2 190 09:21 14.01.2020
4361 Clouds 5 1010 75 10000 6.2 180 08:48 14.01.2020
4362 Clouds 5 1010 75 10000 5.7 180 08:25 14.01.2020
4363 Clouds 4 1010 80 10000 6.7 170 07:56 14.01.2020
4364 Clouds 4 1010 80 10000 6.7 180 07:34 14.01.2020
4365 Clouds 4 1010 86 10000 5.1 180 06:57 14.01.2020
4366 Clouds 4 1011 86 10000 6.2 170 06:34 14.01.2020
4367 Clouds 3 1011 86 10000 5.7 170 05:28 14.01.2020
4368 Clouds 3 1012 93 10000 4.1 170 03:57 14.01.2020
4369 Clouds 3 1013 93 10000 4.1 170 03:35 14.01.2020
4370 Clouds 2 1014 93 10000 4.1 170 02:26 14.01.2020
4371 Clouds 2 1015 93 10000 3.1 160 01:18 14.01.2020
4372 Clouds 3 1015 93 10000 4.1 170 00:38 14.01.2020
4373 Clouds 3 1015 93 10000 4.1 170 23:59 13.01.2020
4374 Clouds 3 1016 93 10000 3.6 160 23:37 13.01.2020
4375 Clear 3 1016 93 10000 3.6 160 23:18 13.01.2020
4376 Clear 3 1016 93 10000 3.1 160 22:54 13.01.2020
4377 Clear 3 1016 86 10000 3.6 170 22:36 13.01.2020
4378 Clear 3 1016 86 10000 3.6 170 22:18 13.01.2020
4379 Clear 3 1016 86 10000 3.1 180 21:54 13.01.2020
4380 Clear 3 1016 86 10000 3.1 180 21:54 13.01.2020
4381 Clear 3 1016 86 10000 3.1 180 21:54 13.01.2020
4382 Clouds 3 1017 86 10000 4.1 180 21:36 13.01.2020
4383 Clouds 3 1017 86 10000 4.1 180 21:18 13.01.2020
4384 Clouds 4 1017 86 10000 3.6 180 20:42 13.01.2020
4385 Clouds 4 1017 86 10000 3.6 180 20:23 13.01.2020
4386 Clouds 4 1017 86 10000 4.1 180 19:59 13.01.2020
4387 Clouds 4 1018 86 10000 3.6 180 19:41 13.01.2020
4388 Clouds 5 1018 86 10000 3.6 180 19:20 13.01.2020
4389 Clouds 5 1018 81 10000 4.1 200 18:58 13.01.2020
4390 Clouds 5 1018 81 10000 4.1 200 18:58 13.01.2020
4391 Clouds 5 1018 75 10000 3.6 190 18:38 13.01.2020
4392 Clouds 5 1018 75 10000 3.6 190 18:19 13.01.2020
4393 Clouds 5 1018 75 10000 3.6 190 18:19 13.01.2020
4394 Clouds 5 1018 81 10000 3.6 190 17:58 13.01.2020
4395 Clouds 6 1018 81 10000 3.6 190 17:38 13.01.2020
4396 Clouds 6 1018 81 10000 3.6 190 17:20 13.01.2020
4397 Clouds 6 1018 80 0 0.45 109 16:42 13.01.2020
4398 Clouds 7 1015 79 0 2.57 197 16:23 13.01.2020
4399 Clouds 7 1019 79 0 2.57 197 15:59 13.01.2020
4400 Clouds 7 1018 73 0 2.57 197 15:41 13.01.2020
4401 Clouds 8 1019 73 0 2.57 197 15:21 13.01.2020
4402 Clouds 8 1019 74 0 2.57 197 14:43 13.01.2020
4403 Rain 7 1018 79 0 1.79 202 14:24 13.01.2020
4404 Rain 8 1015 82 0 2.91 212 13:59 13.01.2020
4405 Rain 7 1015 82 0 2.91 212 13:40 13.01.2020
4406 Rain 7 1018 82 0 2.24 180 13:22 13.01.2020
4407 Rain 7 1020 81 10000 4.1 210 12:58 13.01.2020
4408 Rain 7 1020 81 10000 4.1 210 12:40 13.01.2020
4409 Rain 6 1020 81 10000 4.1 210 12:21 13.01.2020
4410 Clouds 7 1020 81 10000 4.1 210 11:54 13.01.2020
4411 Clouds 6 1021 81 10000 4.1 210 11:36 13.01.2020
4412 Clouds 6 1021 81 10000 4.1 210 11:18 13.01.2020
4413 Clouds 6 1021 81 10000 4.1 210 11:18 13.01.2020
4414 Clouds 6 1021 87 10000 2.6 200 10:55 13.01.2020
4415 Clouds 6 1021 93 10000 2.6 200 10:36 13.01.2020
4416 Clouds 5 1021 93 10000 2.6 200 10:18 13.01.2020
4417 Clouds 5 1021 93 10000 2.6 230 09:40 13.01.2020
4418 Clouds 5 1021 93 10000 2.6 230 09:22 13.01.2020
4419 Clouds 5 1020 93 10000 2.6 240 08:42 13.01.2020
4420 Clouds 5 1020 93 10000 3.6 250 08:21 13.01.2020
4421 Clouds 6 1020 87 10000 4.1 250 07:57 13.01.2020
4422 Clouds 6 1020 87 10000 4.6 250 07:38 13.01.2020
4423 Clouds 6 1020 87 10000 6.2 240 06:55 13.01.2020
4424 Clouds 6 1020 87 10000 5.7 250 06:36 13.01.2020
4425 Clouds 6 1020 87 10000 6.2 260 05:36 13.01.2020
4426 Clouds 6 1019 81 10000 7.2 250 04:25 13.01.2020
4427 Clouds 6 1019 81 10000 5.7 240 03:34 13.01.2020
4428 Clouds 6 1019 81 10000 6.2 240 02:48 13.01.2020
4429 Clouds 6 1019 75 10000 7.2 240 02:29 13.01.2020
4430 Rain 6 1019 75 10000 6.7 240 01:32 13.01.2020
4431 Clouds 6 1018 75 10000 8.7 240 00:43 13.01.2020
4432 Clouds 6 1018 75 10000 8.7 240 00:24 13.01.2020
4433 Rain 6 1018 81 10000 8.7 240 23:56 12.01.2020
4434 Clouds 6 1018 75 10000 7.7 240 23:37 12.01.2020
4435 Clouds 6 994 85 0 5.13 245 23:19 12.01.2020
4436 Clouds 5 1018 75 10000 5.7 230 22:42 12.01.2020
4437 Clouds 5 1018 75 10000 5.7 230 22:24 12.01.2020
4438 Clouds 5 1018 75 10000 6.2 230 21:59 12.01.2020
4439 Clouds 5 1018 75 10000 6.2 230 21:59 12.01.2020
4440 Clouds 5 1018 75 10000 5.7 230 21:40 12.01.2020
4441 Clouds 5 1018 75 10000 5.7 230 21:20 12.01.2020
4442 Clouds 5 1018 80 10000 6.7 230 20:58 12.01.2020
4443 Clouds 5 1018 80 10000 6.7 220 20:39 12.01.2020
4444 Clouds 5 1018 80 10000 6.7 220 20:21 12.01.2020
4445 Clouds 5 1018 80 10000 7.2 230 19:56 12.01.2020
4446 Clouds 5 1018 80 10000 7.2 230 19:56 12.01.2020
4447 Rain 5 1018 75 10000 5.7 220 19:38 12.01.2020
4448 Rain 5 1018 75 10000 5.7 220 19:19 12.01.2020
4449 Clouds 5 1018 75 10000 5.7 220 18:58 12.01.2020
4450 Clouds 5 1018 75 10000 5.7 220 18:58 12.01.2020
4451 Rain 5 1018 75 10000 6.2 220 18:40 12.01.2020
4452 Rain 5 1018 75 10000 6.2 220 18:21 12.01.2020
4453 Clouds 5 1018 74 10000 6.2 220 17:58 12.01.2020
4454 Clouds 4 1018 74 10000 6.2 220 17:40 12.01.2020
4455 Clouds 4 1018 70 10000 6.2 220 17:19 12.01.2020
4456 Clouds 4 1018 70 10000 5.1 210 16:56 12.01.2020
4457 Clouds 4 1018 70 10000 6.7 220 16:37 12.01.2020
4458 Clouds 5 1018 70 10000 6.7 220 16:19 12.01.2020
4459 Clouds 5 1018 70 10000 4.6 220 15:43 12.01.2020
4460 Clouds 5 1018 70 10000 4.6 220 15:24 12.01.2020
4461 Clouds 5 1019 70 10000 5.7 220 14:57 12.01.2020
4462 Clouds 5 1019 70 10000 5.7 230 14:38 12.01.2020
4463 Clouds 6 1019 70 10000 5.7 230 14:20 12.01.2020
4464 Clouds 6 1019 70 10000 6.2 230 13:54 12.01.2020
4465 Clouds 6 1020 70 10000 4.6 220 13:36 12.01.2020
4466 Clouds 6 1020 67 10000 4.6 220 13:18 12.01.2020
4467 Clouds 5 1020 67 10000 5.7 220 12:43 12.01.2020
4468 Clouds 5 1020 67 10000 5.7 220 12:21 12.01.2020
4469 Clouds 5 1021 67 10000 5.7 210 11:59 12.01.2020
4470 Clouds 4 1021 67 10000 5.7 210 11:39 12.01.2020
4471 Clouds 4 1021 75 10000 5.7 210 11:21 12.01.2020
4472 Clouds 3 1021 80 10000 5.1 200 10:42 12.01.2020
4473 Clouds 3 1021 80 10000 5.1 200 10:22 12.01.2020
4474 Clouds 2 1021 80 10000 4.6 200 09:59 12.01.2020
4475 Clouds 2 1021 80 10000 4.1 200 09:41 12.01.2020
4476 Clouds 2 1021 80 10000 4.1 200 09:21 12.01.2020
4477 Clouds 1 1022 86 10000 3.1 200 08:47 12.01.2020
4478 Clouds 1 1022 86 10000 3.1 200 08:21 12.01.2020
4479 Clouds 1 1022 86 10000 3.6 210 07:46 12.01.2020
4480 Clouds 1 1023 80 10000 3.1 200 07:25 12.01.2020
4481 Clouds 1 1023 80 10000 3.1 190 06:54 12.01.2020
4482 Clouds 1 1023 80 10000 3.6 200 06:36 12.01.2020
4483 Clouds 1 1023 80 10000 3.6 200 05:50 12.01.2020
4484 Clouds 1 1024 86 10000 4.1 210 04:54 12.01.2020
4485 Clouds 1 1025 80 10000 3.6 200 03:35 12.01.2020
4486 Clouds 2 1025 80 10000 3.6 210 02:46 12.01.2020
4487 Clouds 2 1025 80 10000 3.6 200 02:24 12.01.2020
4488 Clouds 2 1025 80 10000 4.1 210 01:34 12.01.2020
4489 Clouds 2 1026 73 10000 4.6 210 00:46 12.01.2020
4490 Clouds 3 1026 73 10000 4.6 200 00:22 12.01.2020
4491 Clouds 3 1026 73 10000 4.6 200 23:57 11.01.2020
4492 Clouds 3 1027 73 10000 4.1 200 23:39 11.01.2020
4493 Clouds 3 1027 76 10000 4.1 200 23:18 11.01.2020
4494 Clouds 3 1027 76 10000 3.6 200 22:56 11.01.2020
4495 Clouds 3 1027 76 10000 4.1 210 22:38 11.01.2020
4496 Clouds 3 1027 76 10000 4.1 210 22:19 11.01.2020
4497 Clouds 3 1027 76 10000 4.6 210 21:44 11.01.2020
4498 Clouds 3 1027 76 10000 4.6 200 21:20 11.01.2020
4499 Clouds 3 1028 86 10000 4.1 200 20:59 11.01.2020
4500 Clouds 3 1028 86 10000 4.1 190 20:39 11.01.2020
4501 Clouds 3 1028 86 10000 4.1 190 20:20 11.01.2020
4502 Clouds 3 1028 80 0 3.6 200 19:57 11.01.2020
4503 Clouds 4 1029 80 10000 4.1 200 19:38 11.01.2020
4504 Clouds 4 1029 80 10000 3.6 210 19:20 11.01.2020
4505 Clouds 4 1029 80 10000 3.6 210 18:56 11.01.2020
4506 Clouds 4 1029 80 10000 3.6 210 18:37 11.01.2020
4507 Clouds 4 1029 80 10000 3.6 210 18:19 11.01.2020
4508 Clouds 4 1029 75 10000 3.6 200 17:57 11.01.2020
4509 Clouds 4 1029 80 10000 3.6 210 17:39 11.01.2020
4510 Clouds 5 1029 80 10000 3.6 210 17:19 11.01.2020
4511 Clouds 5 1029 80 10000 4.1 200 16:44 11.01.2020
4512 Clouds 5 1029 75 10000 4.1 220 16:25 11.01.2020
4513 Clouds 6 1029 75 10000 5.1 240 15:57 11.01.2020
4514 Clouds 6 1030 75 10000 5.7 240 15:39 11.01.2020
4515 Clouds 6 1030 75 10000 5.7 240 15:20 11.01.2020
4516 Clouds 6 1030 75 10000 5.7 240 15:20 11.01.2020
4517 Clouds 6 1030 70 10000 5.7 250 14:56 11.01.2020
4518 Clouds 7 1030 70 10000 5.7 250 14:37 11.01.2020
4519 Clouds 7 1030 70 10000 5.7 250 14:19 11.01.2020
4520 Clouds 7 1030 70 10000 3.6 260 13:39 11.01.2020
4521 Clouds 7 1031 75 10000 3.6 270 13:20 11.01.2020
4522 Clouds 7 1031 75 10000 3.6 270 12:57 11.01.2020
4523 Clouds 7 1030 81 10000 3.6 260 12:38 11.01.2020
4524 Clouds 6 1030 81 10000 3.6 260 12:20 11.01.2020
4525 Clouds 6 1031 80 10000 2.6 270 11:46 11.01.2020
4526 Clouds 6 1031 80 10000 2.6 270 11:25 11.01.2020
4527 Clouds 5 1031 75 10000 2.6 300 10:50 11.01.2020
4528 Clouds 5 1031 75 10000 2.6 300 10:30 11.01.2020
4529 Clouds 5 1031 75 10000 2.6 300 10:30 11.01.2020
4530 Clouds 5 1030 75 10000 3.6 310 09:55 11.01.2020
4531 Clouds 5 1030 75 10000 4.1 290 09:37 11.01.2020
4532 Clouds 5 1030 75 10000 4.1 290 09:18 11.01.2020
4533 Clouds 5 1029 80 10000 3.6 280 08:41 11.01.2020
4534 Clouds 5 1029 80 10000 3.6 280 08:21 11.01.2020
4535 Clouds 5 1029 86 10000 3.6 290 07:44 11.01.2020
4536 Clouds 5 1029 86 10000 3.6 290 07:25 11.01.2020
4537 Clouds 4 1029 93 10000 3.1 280 06:48 11.01.2020
4538 Clouds 4 1027 93 10000 4.6 280 05:40 11.01.2020
4539 Clouds 5 1026 86 10000 4.6 280 04:46 11.01.2020
4540 Clouds 5 1026 86 10000 4.6 280 04:27 11.01.2020
4541 Rain 5 1025 86 10000 5.1 280 02:49 11.01.2020
4542 Clouds 5 1025 93 10000 4.6 280 02:20 11.01.2020
4543 Rain 5 1024 93 10000 4.6 290 01:42 11.01.2020
4544 Rain 5 1024 93 10000 4.6 290 01:18 11.01.2020
4545 Rain 5 1023 93 10000 5.1 290 00:38 11.01.2020
4546 Rain 5 1022 93 10000 5.1 290 23:59 10.01.2020
4547 Clouds 6 1021 87 10000 5.1 280 23:40 10.01.2020
4548 Clouds 6 1021 87 10000 5.1 280 23:21 10.01.2020
4549 Clouds 6 1020 87 10000 6.2 280 22:58 10.01.2020
4550 Clouds 6 1020 87 10000 6.7 290 22:40 10.01.2020
4551 Clouds 6 1020 87 10000 6.7 290 22:20 10.01.2020
4552 Clouds 6 1019 87 10000 6.7 290 21:57 10.01.2020
4553 Clouds 7 1019 81 10000 9.3 290 21:37 10.01.2020
4554 Clouds 7 1019 81 10000 9.3 290 21:19 10.01.2020
4555 Clouds 8 1017 87 10000 6.7 260 20:43 10.01.2020
4556 Clouds 8 1017 87 10000 6.7 260 20:24 10.01.2020
4557 Clouds 9 1017 76 10000 6.7 270 19:58 10.01.2020
4558 Clouds 9 1016 81 10000 5.7 260 19:38 10.01.2020
4559 Clouds 8 1016 81 10000 5.7 260 19:19 10.01.2020
4560 Rain 9 1015 87 10000 5.1 230 18:43 10.01.2020
4561 Rain 9 1015 87 10000 5.1 230 18:19 10.01.2020
4562 Rain 9 1015 87 10000 5.1 230 17:57 10.01.2020
4563 Rain 9 1015 87 10000 3.6 240 17:39 10.01.2020
4564 Rain 10 1015 87 10000 3.6 240 17:20 10.01.2020
4565 Rain 10 1015 87 10000 6.7 240 16:58 10.01.2020
4566 Rain 10 1014 76 10000 5.1 240 16:39 10.01.2020
4567 Rain 10 1014 76 10000 5.1 240 16:20 10.01.2020
4568 Clouds 10 1014 76 10000 5.1 250 15:56 10.01.2020
4569 Clouds 10 1014 71 10000 6.2 250 15:37 10.01.2020
4570 Clouds 10 1014 71 10000 6.2 250 15:18 10.01.2020
4571 Clouds 11 1014 71 10000 8.7 250 14:55 10.01.2020
4572 Clouds 11 1014 71 10000 7.2 270 14:37 10.01.2020
4573 Clouds 11 1013 76 10000 8.7 260 14:18 10.01.2020
4574 Clouds 11 1013 76 10000 9.8 260 13:44 10.01.2020
4575 Clouds 11 1013 76 10000 9.8 260 13:26 10.01.2020
4576 Clouds 11 1013 81 10000 8.7 250 12:59 10.01.2020
4577 Clouds 11 1013 81 10000 7.2 240 12:39 10.01.2020
4578 Clouds 10 1013 81 10000 7.2 240 12:21 10.01.2020
4579 Clouds 10 1012 87 10000 7.7 230 11:56 10.01.2020
4580 Clouds 10 1012 87 10000 6.7 240 11:38 10.01.2020
4581 Clouds 10 1012 87 10000 6.7 240 11:19 10.01.2020
4582 Clouds 10 1012 93 10000 5.7 240 10:58 10.01.2020
4583 Clouds 9 1012 93 10000 5.1 220 10:38 10.01.2020
4584 Clouds 9 1012 93 10000 5.1 220 10:18 10.01.2020
4585 Clouds 9 1012 93 10000 4.6 220 09:45 10.01.2020
4586 Drizzle 9 1011 93 10000 6.2 240 09:26 10.01.2020
4587 Drizzle 9 1011 93 7000 6.7 240 08:57 10.01.2020
4588 Drizzle 10 1011 93 7000 5.7 240 08:37 10.01.2020
4589 Drizzle 10 1011 93 10000 4.6 230 08:18 10.01.2020
4590 Drizzle 10 1010 93 8000 5.1 230 07:41 10.01.2020
4591 Drizzle 10 1010 93 8000 5.1 230 07:21 10.01.2020
4592 Rain 10 1010 100 10000 4.1 210 06:42 10.01.2020
4593 Rain 10 1010 100 10000 4.1 210 06:24 10.01.2020
4594 Rain 10 1010 100 10000 3.1 210 05:33 10.01.2020
4595 Rain 10 1010 100 10000 3.1 210 05:33 10.01.2020
4596 Rain 10 1010 100 8000 4.1 210 03:34 10.01.2020
4597 Rain 10 1010 100 8000 4.1 210 03:34 10.01.2020
4598 Rain 10 1010 100 7000 3.6 200 02:57 10.01.2020
4599 Rain 10 1010 100 10000 3.6 190 02:36 10.01.2020
4600 Clouds 10 1010 100 10000 3.1 190 01:38 10.01.2020
4601 Clouds 10 1011 100 10000 2.6 190 00:57 10.01.2020
4602 Clouds 10 1011 100 10000 3.1 200 00:38 10.01.2020
4603 Clouds 10 1011 93 10000 3.1 200 23:57 09.01.2020
4604 Clouds 10 1011 93 10000 3.1 190 23:38 09.01.2020
4605 Clouds 10 1011 93 10000 3.1 190 23:38 09.01.2020
4606 Clouds 10 1011 93 10000 3.1 190 23:38 09.01.2020
4607 Clouds 10 1011 93 10000 3.1 190 23:20 09.01.2020
4608 Clouds 9 1011 93 10000 3.6 200 22:57 09.01.2020
4609 Clouds 10 1011 93 10000 3.6 200 22:37 09.01.2020
4610 Clouds 10 1011 93 10000 3.1 200 22:19 09.01.2020
4611 Clouds 9 1011 93 10000 3.1 200 21:56 09.01.2020
4612 Rain 9 1011 93 10000 3.6 200 21:37 09.01.2020
4613 Rain 9 1011 93 10000 3.6 200 21:37 09.01.2020
4614 Rain 9 1011 93 10000 3.6 200 21:18 09.01.2020
4615 Rain 9 1012 93 10000 4.1 210 20:56 09.01.2020
4616 Rain 9 1012 93 10000 4.1 210 20:38 09.01.2020
4617 Rain 9 1011 93 10000 4.1 210 20:19 09.01.2020
4618 Rain 9 1011 93 10000 4.6 200 19:56 09.01.2020
4619 Rain 9 1011 93 10000 4.6 200 19:37 09.01.2020
4620 Clouds 9 1012 93 10000 4.1 200 19:19 09.01.2020
4621 Clouds 9 1012 93 10000 4.1 200 18:55 09.01.2020
4622 Clouds 9 1012 93 10000 4.6 200 18:36 09.01.2020
4623 Rain 9 1012 100 10000 4.1 200 18:18 09.01.2020
4624 Rain 9 1012 100 10000 4.1 190 17:41 09.01.2020
4625 Rain 9 1012 100 10000 4.1 200 17:18 09.01.2020
4626 Rain 9 1013 100 10000 4.6 200 16:49 09.01.2020
4627 Rain 9 1013 100 10000 4.1 200 16:24 09.01.2020
4628 Rain 9 1013 100 10000 4.1 200 15:59 09.01.2020
4629 Rain 9 1013 93 10000 4.1 200 15:40 09.01.2020
4630 Rain 9 1013 93 10000 4.6 200 15:19 09.01.2020
4631 Rain 9 1013 93 10000 4.1 190 14:43 09.01.2020
4632 Rain 9 1014 93 10000 4.6 200 14:22 09.01.2020
4633 Rain 9 1014 93 10000 4.6 200 13:57 09.01.2020
4634 Rain 9 1014 93 10000 5.7 190 13:39 09.01.2020
4635 Clouds 8 1014 93 10000 6.2 190 13:20 09.01.2020
4636 Clouds 8 1015 87 10000 4.6 190 12:59 09.01.2020
4637 Clouds 8 1015 87 10000 4.6 190 12:40 09.01.2020
4638 Clouds 8 1016 93 8000 5.7 170 12:22 09.01.2020
4639 Drizzle 8 1016 93 7000 5.7 160 11:58 09.01.2020
4640 Drizzle 8 1016 93 7000 5.7 160 11:40 09.01.2020
4641 Drizzle 8 1017 93 7000 4.1 150 11:22 09.01.2020
4642 Clouds 8 1017 93 7000 4.1 160 10:44 09.01.2020
4643 Clouds 7 1018 93 7000 4.1 180 10:23 09.01.2020
4644 Clouds 7 1018 93 6000 3.6 180 09:59 09.01.2020
4645 Clouds 7 1018 93 6000 3.6 180 09:40 09.01.2020
4646 Clouds 7 1018 93 6000 3.6 180 09:21 09.01.2020
4647 Clouds 7 1019 93 6000 3.1 190 08:56 09.01.2020
4648 Clouds 7 1019 93 6000 3.1 190 08:37 09.01.2020
4649 Clouds 7 1019 93 6000 3.1 190 08:19 09.01.2020
4650 Clouds 7 1019 93 6000 2.1 190 07:44 09.01.2020
4651 Drizzle 7 1020 93 4900 2.6 180 07:24 09.01.2020
4652 Drizzle 7 1020 93 4800 2.1 180 06:39 09.01.2020
4653 Drizzle 7 1020 93 4800 1 0 06:21 09.01.2020
4654 Rain 7 1021 93 4500 1.5 190 05:50 09.01.2020
4655 Rain 7 1021 93 6000 2.1 180 04:46 09.01.2020
4656 Rain 7 1022 93 5000 2.1 190 03:55 09.01.2020
4657 Rain 7 1022 93 5000 2.1 190 03:26 09.01.2020
4658 Rain 8 1022 93 8000 1.5 200 02:33 09.01.2020
4659 Rain 8 1022 93 10000 2.6 200 01:41 09.01.2020
4660 Clouds 8 1023 93 10000 1.5 220 00:56 09.01.2020
4661 Clouds 8 1023 93 10000 1.5 220 00:36 09.01.2020
4662 Clouds 8 1023 93 10000 3.1 240 00:18 09.01.2020
4663 Clouds 8 1023 93 10000 3.6 250 23:39 08.01.2020
4664 Clouds 8 1022 93 10000 4.1 250 23:20 08.01.2020
4665 Clouds 8 1022 93 10000 3.6 250 22:40 08.01.2020
4666 Clouds 8 1022 87 10000 4.1 240 22:21 08.01.2020
4667 Clouds 8 1022 87 10000 4.6 230 21:58 08.01.2020
4668 Clouds 8 1022 87 10000 4.6 230 21:40 08.01.2020
4669 Clouds 8 1022 87 10000 4.6 240 21:20 08.01.2020
4670 Clouds 8 1022 87 10000 4.6 240 20:59 08.01.2020
4671 Clouds 8 1022 87 10000 5.1 240 20:41 08.01.2020
4672 Clouds 8 1022 87 10000 4.6 240 20:21 08.01.2020
4673 Clouds 8 1022 87 10000 6.2 240 19:58 08.01.2020
4674 Clouds 8 1022 87 10000 6.2 240 19:38 08.01.2020
4675 Clouds 8 1022 93 10000 4.6 240 19:19 08.01.2020
4676 Clouds 8 1022 93 10000 4.6 240 18:58 08.01.2020
4677 Clouds 8 1022 87 10000 4.1 230 18:39 08.01.2020
4678 Clouds 8 1022 87 10000 5.1 240 18:19 08.01.2020
4679 Clouds 8 1022 87 10000 4.6 230 17:57 08.01.2020
4680 Clouds 8 1022 87 10000 4.6 230 17:38 08.01.2020
4681 Clouds 8 1021 87 10000 4.1 220 17:19 08.01.2020
4682 Clouds 8 1021 87 10000 4.1 220 17:19 08.01.2020
4683 Rain 7 1022 87 10000 5.1 240 16:56 08.01.2020
4684 Rain 7 1022 87 10000 5.1 240 16:38 08.01.2020
4685 Rain 8 1021 87 10000 4.6 230 16:19 08.01.2020
4686 Rain 7 1021 81 10000 4.1 220 15:45 08.01.2020
4687 Clouds 7 1021 87 10000 5.1 220 15:22 08.01.2020
4688 Clouds 7 1021 87 10000 5.1 220 15:22 08.01.2020
4689 Clouds 7 1021 87 10000 5.1 220 14:59 08.01.2020
4690 Clouds 7 1021 93 10000 4.6 220 14:40 08.01.2020
4691 Clouds 7 1021 87 10000 5.7 220 14:21 08.01.2020
4692 Clouds 7 1021 87 10000 5.1 230 13:42 08.01.2020
4693 Clouds 7 1021 87 10000 5.7 220 13:22 08.01.2020
4694 Clouds 7 1021 87 10000 5.7 220 12:55 08.01.2020
4695 Clouds 6 1021 87 10000 5.1 220 12:37 08.01.2020
4696 Clouds 6 1021 87 10000 4.6 220 12:18 08.01.2020
4697 Clouds 6 1021 87 10000 4.6 220 12:18 08.01.2020
4698 Clouds 6 1021 93 10000 4.6 220 11:48 08.01.2020
4699 Clouds 6 1021 93 10000 5.1 200 11:19 08.01.2020
4700 Clouds 6 1022 87 9000 5.1 210 10:59 08.01.2020
4701 Clouds 6 1022 87 9000 5.1 210 10:40 08.01.2020
4702 Clouds 6 1022 87 10000 5.7 210 10:21 08.01.2020
4703 Clouds 6 1022 87 10000 5.7 210 09:57 08.01.2020
4704 Rain 5 1022 87 10000 5.7 210 09:36 08.01.2020
4705 Rain 5 1022 81 10000 5.7 200 09:18 08.01.2020
4706 Clouds 6 1022 81 10000 5.7 200 08:41 08.01.2020
4707 Rain 5 1022 81 10000 4.6 210 08:22 08.01.2020
4708 Rain 5 1022 86 10000 4.6 220 07:59 08.01.2020
4709 Rain 5 1022 86 10000 4.6 220 07:40 08.01.2020
4710 Rain 5 1022 80 10000 4.1 190 07:19 08.01.2020
4711 Rain 5 1022 80 10000 4.6 220 06:42 08.01.2020
4712 Rain 5 1022 80 10000 5.1 200 05:57 08.01.2020
4713 Clouds 4 1022 80 10000 4.6 200 05:27 08.01.2020
4714 Rain 4 1022 86 10000 5.1 190 04:37 08.01.2020
4715 Clouds 4 1024 86 10000 4.1 190 03:31 08.01.2020
4716 Clouds 4 1024 86 10000 4.6 200 02:36 08.01.2020
4717 Clouds 4 1024 86 10000 4.6 200 02:18 08.01.2020
4718 Clouds 4 1024 86 10000 4.6 200 02:18 08.01.2020
4719 Clouds 3 1025 93 10000 4.6 200 01:39 08.01.2020
4720 Clouds 3 1025 93 10000 4.6 190 00:53 08.01.2020
4721 Clouds 3 1025 93 10000 4.6 190 00:26 08.01.2020
4722 Clouds 3 1026 93 10000 4.1 190 23:46 07.01.2020
4723 Clouds 3 1026 93 10000 4.1 190 23:22 07.01.2020
4724 Clouds 4 1026 86 10000 4.1 200 22:58 07.01.2020
4725 Clouds 4 1026 86 10000 4.1 200 22:38 07.01.2020
4726 Clouds 4 1026 86 10000 3.1 190 22:19 07.01.2020
4727 Clouds 5 1026 87 10000 3.1 200 21:43 07.01.2020
4728 Clouds 5 1026 93 10000 3.1 210 21:23 07.01.2020
4729 Clouds 5 1027 87 10000 3.6 240 20:59 07.01.2020
4730 Clouds 5 1027 87 10000 3.6 240 20:41 07.01.2020
4731 Clouds 5 1027 93 10000 2.6 230 20:23 07.01.2020
4732 Clouds 5 1026 93 10000 3.6 220 19:59 07.01.2020
4733 Clouds 5 1026 93 10000 3.6 220 19:38 07.01.2020
4734 Clouds 5 1027 87 10000 4.1 240 19:19 07.01.2020
4735 Clouds 5 1027 93 10000 3.1 250 18:58 07.01.2020
4736 Clouds 5 1027 93 10000 3.1 250 18:39 07.01.2020
4737 Clouds 5 1027 93 9000 4.1 260 18:18 07.01.2020
4738 Clouds 5 1027 93 9000 4.1 260 17:58 07.01.2020
4739 Clouds 5 1027 93 8000 3.6 260 17:38 07.01.2020
4740 Clouds 5 1026 93 7000 3.6 260 17:20 07.01.2020
4741 Clouds 5 1026 93 7000 3.6 240 16:56 07.01.2020
4742 Clouds 5 1026 93 7000 3.6 240 16:37 07.01.2020
4743 Clouds 5 1026 93 6000 3.6 230 16:18 07.01.2020
4744 Clouds 4 1025 93 6000 3.1 230 15:57 07.01.2020
4745 Clouds 4 1025 93 6000 3.1 230 15:37 07.01.2020
4746 Clouds 4 1025 100 6000 3.1 250 15:18 07.01.2020
4747 Mist 4 1025 100 5000 3.1 260 14:42 07.01.2020
4748 Mist 4 1025 100 4700 3.6 260 14:24 07.01.2020
4749 Drizzle 4 1025 93 5000 4.6 260 13:57 07.01.2020
4750 Drizzle 4 1025 93 5000 4.6 260 13:39 07.01.2020
4751 Drizzle 3 1025 100 5000 4.1 250 13:18 07.01.2020
4752 Drizzle 3 1025 100 4000 3.6 240 12:41 07.01.2020
4753 Drizzle 3 1024 100 2200 3.6 250 12:19 07.01.2020
4754 Drizzle 3 1024 93 3000 3.6 260 11:55 07.01.2020
4755 Drizzle 3 1024 93 3000 3.6 260 11:36 07.01.2020
4756 Clouds 2 1024 93 10000 4.1 260 11:18 07.01.2020
4757 Clouds 2 1024 93 10000 3.6 250 10:41 07.01.2020
4758 Clouds 2 1023 84 10000 3.1 260 10:23 07.01.2020
4759 Clouds 1 1024 86 10000 3.1 220 09:57 07.01.2020
4760 Clouds 1 1023 84 10000 2.6 260 09:38 07.01.2020
4761 Clouds 1 1022 84 10000 3.1 260 09:20 07.01.2020
4762 Clouds 0 1022 92 10000 2.1 260 08:43 07.01.2020
4763 Clouds 0 1021 87 10000 2.1 270 08:25 07.01.2020
4764 Clouds -1 1021 92 10000 1.5 270 07:54 07.01.2020
4765 Clouds -1 1021 92 10000 1.5 270 07:28 07.01.2020
4766 Clouds -1 1020 100 10000 1.5 220 06:54 07.01.2020
4767 Clouds -1 1020 100 10000 1.5 220 06:34 07.01.2020
4768 Clouds -1 1020 100 10000 1.5 190 05:55 07.01.2020
4769 Clouds -1 1020 92 10000 1.5 210 04:41 07.01.2020
4770 Clouds 0 1020 90 10000 2.1 200 03:29 07.01.2020
4771 Clouds 1 1020 89 10000 3.6 170 02:22 07.01.2020
4772 Clouds 1 1020 89 10000 3.1 170 01:57 07.01.2020
4773 Clouds 2 1020 89 10000 3.1 170 01:32 07.01.2020
4774 Clouds 2 1021 88 10000 3.1 180 00:37 07.01.2020
4775 Clouds 3 1021 88 10000 4.1 170 00:19 07.01.2020
4776 Clouds 3 1021 88 10000 4.1 180 23:55 06.01.2020
4777 Clouds 3 1021 88 10000 4.1 180 23:36 06.01.2020
4778 Clouds 4 1021 82 10000 3.1 180 23:18 06.01.2020
4779 Clouds 4 1022 82 10000 2.6 170 22:43 06.01.2020
4780 Clouds 4 1022 75 10000 3.1 190 22:23 06.01.2020
4781 Clouds 4 1022 75 10000 3.1 190 21:58 06.01.2020
4782 Clouds 4 1023 75 10000 3.1 200 21:39 06.01.2020
4783 Clouds 4 1023 75 10000 3.6 200 21:20 06.01.2020
4784 Clouds 4 1023 75 10000 3.6 200 21:20 06.01.2020
4785 Clouds 4 1023 75 10000 3.6 200 21:20 06.01.2020
4786 Clouds 4 1023 75 10000 4.1 200 20:57 06.01.2020
4787 Clouds 4 1023 75 10000 4.1 200 20:38 06.01.2020
4788 Clouds 5 1023 75 10000 4.1 200 20:20 06.01.2020
4789 Clouds 5 1024 75 10000 3.1 200 19:56 06.01.2020
4790 Clouds 5 1024 75 10000 3.1 200 19:38 06.01.2020
4791 Clouds 5 1024 80 10000 3.6 210 19:20 06.01.2020
4792 Clouds 5 1024 80 10000 3.6 210 18:48 06.01.2020
4793 Clouds 5 1024 80 10000 4.1 210 18:22 06.01.2020
4794 Clouds 5 1025 75 10000 3.6 220 17:58 06.01.2020
4795 Clouds 5 1025 75 10000 3.6 220 17:38 06.01.2020
4796 Clouds 5 1025 75 10000 3.6 220 17:18 06.01.2020
4797 Clouds 5 1025 75 10000 3.6 220 16:44 06.01.2020
4798 Clouds 6 1025 75 10000 3.6 240 16:25 06.01.2020
4799 Clouds 6 1025 75 10000 3.6 240 16:25 06.01.2020
4800 Clouds 6 1025 75 10000 3.6 240 15:59 06.01.2020
4801 Clouds 6 1025 81 10000 3.6 230 15:39 06.01.2020
4802 Clouds 7 1025 75 10000 4.6 240 15:19 06.01.2020
4803 Clouds 7 1025 75 10000 4.6 240 14:58 06.01.2020
4804 Clouds 7 1025 81 10000 4.1 250 14:39 06.01.2020
4805 Clouds 7 1026 75 10000 5.1 240 14:20 06.01.2020
4806 Clouds 7 1026 75 10000 5.1 240 13:55 06.01.2020
4807 Clouds 7 1026 75 10000 4.6 240 13:37 06.01.2020
4808 Clouds 6 1026 75 10000 4.6 240 13:19 06.01.2020
4809 Clouds 6 1026 81 10000 4.1 240 12:42 06.01.2020
4810 Clouds 6 1027 81 10000 4.6 240 12:20 06.01.2020
4811 Clouds 6 1027 81 10000 5.1 250 11:58 06.01.2020
4812 Clouds 6 1027 81 10000 5.1 250 11:39 06.01.2020
4813 Clouds 5 1028 80 10000 4.6 240 11:20 06.01.2020
4814 Clouds 5 1028 75 10000 4.6 250 10:54 06.01.2020
4815 Clouds 5 1028 75 10000 4.6 250 10:36 06.01.2020
4816 Clouds 5 1028 80 10000 6.2 230 10:18 06.01.2020
4817 Clouds 4 1028 80 10000 5.1 250 09:37 06.01.2020
4818 Rain 4 1028 80 10000 4.6 240 09:19 06.01.2020
4819 Rain 4 1028 80 10000 5.1 240 08:43 06.01.2020
4820 Clouds 4 1028 80 10000 4.6 250 08:25 06.01.2020
4821 Clouds 4 1028 86 10000 2.6 230 07:51 06.01.2020
4822 Clouds 4 1028 86 10000 2.6 230 07:28 06.01.2020
4823 Clouds 4 1028 80 10000 3.6 230 06:45 06.01.2020
4824 Clouds 4 1028 80 10000 3.6 230 06:20 06.01.2020
4825 Clouds 4 1029 80 10000 3.6 240 05:45 06.01.2020
4826 Clouds 4 1029 80 10000 3.6 230 04:37 06.01.2020
4827 Clouds 4 1029 80 10000 4.6 240 04:18 06.01.2020
4828 Clouds 4 1030 86 10000 3.6 240 02:46 06.01.2020
4829 Clouds 3 1030 86 10000 3.6 240 02:24 06.01.2020
4830 Clouds 3 1030 86 10000 4.6 240 01:44 06.01.2020
4831 Clouds 3 1030 86 10000 3.6 230 01:26 06.01.2020
4832 Rain 3 1031 86 10000 3.1 230 00:42 06.01.2020
4833 Clouds 3 1031 93 10000 3.1 220 00:21 06.01.2020
4834 Rain 3 1031 86 10000 3.6 210 23:42 05.01.2020
4835 Clouds 3 1031 86 10000 2.6 200 23:22 05.01.2020
4836 Clouds 3 1031 86 10000 2.6 200 22:56 05.01.2020
4837 Clouds 3 1031 86 10000 2.6 200 22:38 05.01.2020
4838 Clouds 3 1031 83 10000 2.6 190 22:19 05.01.2020
4839 Rain 2 1032 83 10000 2.1 190 21:54 05.01.2020
4840 Rain 3 1032 83 10000 2.1 190 21:36 05.01.2020
4841 Clouds 2 1032 83 10000 2.6 210 21:18 05.01.2020
4842 Clouds 2 1032 83 10000 2.1 200 20:55 05.01.2020
4843 Clouds 2 1032 83 10000 2.1 200 20:36 05.01.2020
4844 Clouds 2 1032 86 10000 2.6 190 20:18 05.01.2020
4845 Clouds 2 1032 86 10000 2.6 200 19:56 05.01.2020
4846 Clouds 2 1032 86 10000 2.6 200 19:37 05.01.2020
4847 Clouds 1 1032 86 10000 3.1 220 19:18 05.01.2020
4848 Clouds 1 1032 86 10000 3.1 220 18:54 05.01.2020
4849 Clouds 2 1032 86 10000 3.6 220 18:36 05.01.2020
4850 Clouds 1 1032 86 10000 3.6 210 18:18 05.01.2020
4851 Clouds 2 1033 86 10000 3.1 220 17:55 05.01.2020
4852 Clouds 2 1033 86 10000 3.1 220 17:55 05.01.2020
4853 Clouds 2 1033 86 10000 3.1 220 17:55 05.01.2020
4854 Clouds 2 1033 86 10000 3.1 220 17:37 05.01.2020
4855 Clouds 2 1033 84 10000 3.1 210 17:18 05.01.2020
4856 Clouds 2 1033 84 10000 2.1 210 16:55 05.01.2020
4857 Clouds 3 1033 84 10000 2.1 210 16:36 05.01.2020
4858 Clouds 3 1033 84 10000 3.1 230 16:18 05.01.2020
4859 Clouds 3 1033 86 10000 2.1 230 15:36 05.01.2020
4860 Clouds 3 1033 86 10000 2.1 230 15:36 05.01.2020
4861 Clouds 4 1033 86 10000 1.5 230 15:18 05.01.2020
4862 Clouds 4 1033 84 10000 2.6 240 14:54 05.01.2020
4863 Clouds 4 1033 84 10000 2.6 240 14:36 05.01.2020
4864 Clouds 3 1033 77 10000 2.1 240 14:18 05.01.2020
4865 Clouds 3 1033 77 10000 2.6 250 13:40 05.01.2020
4866 Clouds 3 1033 78 10000 3.1 260 13:21 05.01.2020
4867 Clouds 3 1034 78 10000 2.6 270 12:57 05.01.2020
4868 Clouds 3 1034 78 10000 2.6 270 12:39 05.01.2020
4869 Clouds 3 1034 78 10000 2.6 260 12:21 05.01.2020
4870 Clouds 3 1034 86 10000 3.1 260 11:55 05.01.2020
4871 Clouds 2 1034 86 10000 3.1 260 11:37 05.01.2020
4872 Clouds 1 1034 86 10000 3.1 270 11:19 05.01.2020
4873 Clear 1 1034 86 10000 2.1 260 10:56 05.01.2020
4874 Clear 1 1034 86 10000 2.1 260 10:36 05.01.2020
4875 Clear 1 1034 86 10000 2.1 260 10:36 05.01.2020
4876 Clear 1 1034 86 10000 2.6 0 10:18 05.01.2020
4877 Clear 0 1033 92 10000 2.1 260 09:41 05.01.2020
4878 Clear -1 1033 92 10000 2.6 260 09:21 05.01.2020
4879 Clear -1 1033 92 10000 2.1 270 08:48 05.01.2020
4880 Clear -1 1033 92 10000 2.1 270 08:29 05.01.2020
4881 Clear -1 1032 100 10000 2.1 260 07:55 05.01.2020
4882 Clear -1 1032 100 10000 2.1 260 07:36 05.01.2020
4883 Clear -1 1032 92 10000 3.1 270 06:59 05.01.2020
4884 Clear 0 1031 92 10000 2.6 280 05:59 05.01.2020
4885 Clear 0 1031 92 10000 2.6 280 05:30 05.01.2020
4886 Clear 1 1030 86 10000 3.6 290 04:43 05.01.2020
4887 Clear 1 1029 86 10000 4.1 290 03:52 05.01.2020
4888 Clear 1 1028 86 10000 5.7 300 02:46 05.01.2020
4889 Clouds 1 1028 86 10000 5.1 290 02:24 05.01.2020
4890 Clouds 1 1027 86 10000 5.1 290 01:48 05.01.2020
4891 Clouds 2 1027 86 10000 4.6 300 01:18 05.01.2020
4892 Clouds 2 1027 80 10000 4.6 300 00:41 05.01.2020
4893 Clouds 2 1026 80 10000 4.6 290 00:23 05.01.2020
4894 Clouds 2 1026 80 10000 4.6 290 23:59 04.01.2020
4895 Clouds 2 1026 80 10000 5.1 290 23:40 04.01.2020
4896 Clouds 2 1025 73 10000 5.1 290 23:19 04.01.2020
4897 Clouds 2 1025 73 10000 5.1 290 23:19 04.01.2020
4898 Clouds 2 1025 73 10000 5.1 290 23:19 04.01.2020
4899 Clouds 2 1025 73 0 4.6 290 22:40 04.01.2020
4900 Clouds 3 1024 73 10000 3.6 290 22:22 04.01.2020
4901 Clouds 3 1024 73 10000 3.6 290 21:58 04.01.2020
4902 Clouds 3 1024 73 10000 3.6 290 21:40 04.01.2020
4903 Clouds 3 1023 73 10000 4.6 290 21:20 04.01.2020
4904 Clouds 3 1022 73 10000 5.1 290 20:59 04.01.2020
4905 Clouds 3 1022 73 10000 5.1 290 20:40 04.01.2020
4906 Clouds 3 1022 68 10000 5.1 290 20:21 04.01.2020
4907 Clouds 3 1021 68 10000 4.6 290 19:57 04.01.2020
4908 Clouds 3 1021 68 10000 4.6 290 19:38 04.01.2020
4909 Clouds 3 1020 68 10000 5.7 290 19:20 04.01.2020
4910 Clouds 4 1019 80 10000 5.7 290 18:56 04.01.2020
4911 Clouds 4 1019 80 10000 5.7 290 18:37 04.01.2020
4912 Clouds 4 1019 80 10000 5.7 290 18:18 04.01.2020
4913 Clouds 4 1018 80 10000 5.7 290 17:41 04.01.2020
4914 Clouds 4 1018 80 10000 5.1 290 17:23 04.01.2020
4915 Clouds 4 1017 86 10000 6.2 300 16:59 04.01.2020
4916 Clouds 4 1017 86 10000 6.2 300 16:40 04.01.2020
4917 Clouds 5 1016 86 10000 5.7 300 16:21 04.01.2020
4918 Clouds 5 1016 86 10000 5.7 300 15:56 04.01.2020
4919 Rain 5 1016 86 10000 5.7 300 15:38 04.01.2020
4920 Rain 5 1015 86 10000 7.7 290 15:18 04.01.2020
4921 Rain 6 1015 87 3500 10.3 280 14:54 04.01.2020
4922 Rain 6 1015 87 3500 10.3 280 14:36 04.01.2020
4923 Rain 6 1015 87 8000 9.3 270 14:18 04.01.2020
4924 Rain 5 1015 87 10000 9.8 260 13:39 04.01.2020
4925 Rain 5 1015 93 10000 9.3 260 13:20 04.01.2020
4926 Rain 5 1016 93 10000 9.8 250 12:59 04.01.2020
4927 Rain 5 1016 93 10000 9.8 250 12:40 04.01.2020
4928 Rain 5 1017 86 10000 9.3 250 12:19 04.01.2020
4929 Rain 5 1017 86 10000 8.2 250 11:57 04.01.2020
4930 Rain 5 1017 86 10000 8.2 250 11:38 04.01.2020
4931 Rain 5 1018 86 10000 9.3 250 11:19 04.01.2020
4932 Rain 5 1018 80 10000 8.2 250 10:42 04.01.2020
4933 Rain 5 1019 86 10000 7.7 250 10:23 04.01.2020
4934 Clouds 5 1019 86 10000 7.7 260 09:58 04.01.2020
4935 Clouds 5 1019 86 10000 7.7 260 09:39 04.01.2020
4936 Clouds 5 1019 93 10000 8.2 260 09:21 04.01.2020
4937 Clouds 4 1020 86 10000 7.7 250 08:41 04.01.2020
4938 Clouds 4 1020 86 10000 7.2 260 08:21 04.01.2020
4939 Clouds 4 1020 86 10000 7.7 250 07:42 04.01.2020
4940 Clouds 4 1020 86 10000 6.7 260 07:20 04.01.2020
4941 Clouds 4 1020 86 10000 6.7 270 06:33 04.01.2020
4942 Rain 4 1020 93 10000 5.7 260 05:22 04.01.2020
4943 Clouds 4 1020 93 10000 6.2 270 04:42 04.01.2020
4944 Clouds 4 1020 93 10000 5.7 260 04:24 04.01.2020
4945 Clouds 4 1020 93 10000 5.7 270 03:18 04.01.2020
4946 Clouds 4 1019 93 10000 5.1 280 02:23 04.01.2020
4947 Clouds 4 1019 93 10000 5.1 280 01:56 04.01.2020
4948 Clouds 4 1019 93 10000 6.2 290 01:32 04.01.2020
4949 Clouds 5 1018 86 10000 4.6 290 00:50 04.01.2020
4950 Rain 5 1017 86 10000 5.1 310 00:28 04.01.2020
4951 Rain 6 1017 93 10000 6.7 320 23:52 03.01.2020
4952 Rain 6 1017 93 10000 6.7 320 23:27 03.01.2020
4953 Rain 7 1014 93 9000 5.7 260 22:55 03.01.2020
4954 Rain 7 1014 93 9000 5.7 260 22:55 03.01.2020
4955 Rain 7 1014 93 9000 5.7 260 22:36 03.01.2020
4956 Rain 7 1014 93 10000 6.2 250 22:18 03.01.2020
4957 Rain 7 1014 93 10000 6.2 250 21:56 03.01.2020
4958 Rain 6 1013 93 9000 7.7 240 21:37 03.01.2020
4959 Rain 7 1013 93 10000 7.2 240 21:18 03.01.2020
4960 Rain 7 1013 93 6000 6.2 230 20:54 03.01.2020
4961 Rain 6 1013 93 6000 6.2 230 20:36 03.01.2020
4962 Rain 6 1013 93 3500 6.2 220 20:18 03.01.2020
4963 Rain 6 1013 93 6000 6.2 220 19:41 03.01.2020
4964 Rain 6 1013 87 10000 6.2 220 19:23 03.01.2020
4965 Rain 6 1014 87 10000 5.7 220 18:54 03.01.2020
4966 Rain 6 1014 87 10000 5.7 220 18:36 03.01.2020
4967 Drizzle 6 1014 93 10000 4.6 210 18:18 03.01.2020
4968 Drizzle 6 1014 100 7000 4.1 210 17:41 03.01.2020
4969 Drizzle 6 1014 100 7000 5.7 220 17:21 03.01.2020
4970 Drizzle 6 1014 93 4000 5.1 220 16:58 03.01.2020
4971 Drizzle 6 1014 93 4000 5.1 220 16:39 03.01.2020
4972 Drizzle 6 1014 93 4500 6.2 220 16:20 03.01.2020
4973 Rain 6 1014 81 8000 6.2 220 15:41 03.01.2020
4974 Rain 6 1014 87 10000 6.2 220 15:19 03.01.2020
4975 Rain 6 1015 87 10000 6.7 220 14:40 03.01.2020
4976 Rain 6 1015 87 10000 6.7 220 14:40 03.01.2020
4977 Clouds 7 1015 75 10000 5.7 210 14:20 03.01.2020
4978 Clouds 6 1015 75 10000 5.7 210 13:59 03.01.2020
4979 Clouds 6 1015 81 10000 5.7 210 13:40 03.01.2020
4980 Clouds 6 1015 81 10000 5.7 210 13:22 03.01.2020
4981 Clouds 6 1016 81 10000 6.2 210 12:56 03.01.2020
4982 Clouds 5 1016 81 10000 6.2 210 12:38 03.01.2020
4983 Clouds 5 1016 81 10000 5.7 210 12:19 03.01.2020
4984 Clouds 5 1016 86 10000 6.2 210 11:42 03.01.2020
4985 Clouds 5 1017 80 10000 5.1 210 11:19 03.01.2020
4986 Rain 4 1017 80 10000 5.7 210 10:44 03.01.2020
4987 Clouds 4 1017 80 10000 4.6 210 10:25 03.01.2020
4988 Clouds 4 1017 86 10000 5.1 200 09:57 03.01.2020
4989 Clouds 4 1017 86 10000 5.1 200 09:39 03.01.2020
4990 Clouds 4 1018 86 10000 4.6 210 09:21 03.01.2020
4991 Clouds 4 1018 86 10000 4.6 210 09:21 03.01.2020
4992 Clouds 3 1018 86 10000 4.6 210 08:56 03.01.2020
4993 Rain 3 1018 93 10000 3.6 200 08:37 03.01.2020
4994 Clouds 3 1018 86 10000 3.6 200 08:19 03.01.2020
4995 Clouds 2 1018 93 10000 3.1 200 07:39 03.01.2020
4996 Clouds 2 1019 87 10000 3.1 190 07:18 03.01.2020
4997 Clouds 1 1019 87 10000 3.6 190 06:47 03.01.2020
4998 Clouds 1 1019 87 10000 3.6 190 06:29 03.01.2020
4999 Clouds 2 1020 93 10000 3.1 180 05:30 03.01.2020
5000 Clouds 2 1021 93 10000 3.1 210 04:21 03.01.2020
5001 Clouds 2 1021 93 10000 3.6 200 02:56 03.01.2020
5002 Clouds 2 1021 93 10000 3.6 200 02:56 03.01.2020
5003 Clouds 2 1021 93 10000 3.6 200 02:28 03.01.2020
5004 Clouds 2 1022 89 10000 3.1 190 01:42 03.01.2020
5005 Clouds 1 1023 86 10000 2.1 190 00:49 03.01.2020
5006 Clouds 1 1023 86 10000 2.6 190 00:29 03.01.2020
5007 Clouds 1 1023 86 10000 2.1 190 23:55 02.01.2020
5008 Clouds 1 1023 86 10000 2.1 190 23:37 02.01.2020
5009 Clouds 1 1023 80 10000 2.6 200 23:18 02.01.2020
5010 Clouds 0 1023 80 10000 2.6 230 22:45 02.01.2020
5011 Clouds 0 1023 80 10000 2.6 230 22:45 02.01.2020
5012 Clouds 0 1023 86 10000 3.1 260 22:21 02.01.2020
5013 Clear 0 1023 80 10000 3.1 260 21:59 02.01.2020
5014 Clear 0 1023 80 10000 3.1 260 21:41 02.01.2020
5015 Clear 0 1023 80 10000 3.6 250 21:23 02.01.2020
5016 Clear 0 1023 80 10000 3.6 250 20:59 02.01.2020
5017 Clear 1 1023 77 10000 3.6 250 20:39 02.01.2020
5018 Clear 0 1023 74 10000 2.6 260 20:21 02.01.2020
5019 Clear 1 1023 64 10000 1.5 220 19:55 02.01.2020
5020 Clear 1 1023 64 10000 1.5 220 19:37 02.01.2020
5021 Clear 1 1023 59 10000 2.6 200 19:19 02.01.2020
5022 Clear 1 1023 59 10000 2.6 200 18:58 02.01.2020
5023 Clear 1 1023 55 10000 2.1 190 18:58 02.01.2020
5024 Clear 1 1023 55 10000 2.1 190 18:39 02.01.2020
5025 Clear 1 1023 55 10000 2.6 200 18:21 02.01.2020
5026 Clear 2 1023 55 10000 2.6 180 17:56 02.01.2020
5027 Clear 2 1023 55 10000 2.6 180 17:37 02.01.2020
5028 Clear 3 1023 51 10000 2.6 200 17:19 02.01.2020
5029 Clear 3 1023 52 10000 3.1 210 16:57 02.01.2020
5030 Clear 3 1023 52 10000 3.1 210 16:38 02.01.2020
5031 Clear 4 1023 48 10000 4.1 180 16:20 02.01.2020
5032 Clear 4 1023 48 10000 3.1 190 15:56 02.01.2020
5033 Clear 5 1024 45 10000 3.1 200 15:37 02.01.2020
5034 Clear 5 1024 45 10000 3.1 200 15:19 02.01.2020
5035 Clear 6 1024 45 10000 3.1 190 14:54 02.01.2020
5036 Clear 6 1024 52 10000 2.6 170 14:36 02.01.2020
5037 Clear 6 1024 52 10000 2.6 170 14:18 02.01.2020
5038 Clear 5 1025 52 10000 2.1 190 13:45 02.01.2020
5039 Clear 5 1025 56 10000 2.1 170 13:26 02.01.2020
5040 Clear 4 1026 56 10000 1.5 190 12:43 02.01.2020
5041 Clear 4 1027 64 10000 1.5 180 12:24 02.01.2020
5042 Clear 4 1027 64 10000 1.5 180 12:24 02.01.2020
5043 Clear 3 1027 64 10000 1.5 180 11:43 02.01.2020
5044 Clear 2 1027 69 10000 1.5 210 11:25 02.01.2020
5045 Clear 0 1027 74 10000 2.6 190 10:57 02.01.2020
5046 Clear 0 1027 74 10000 2.6 190 10:38 02.01.2020
5047 Clear -1 1027 47 10000 2.1 210 10:19 02.01.2020
5048 Clear -2 1028 86 10000 2.1 190 09:41 02.01.2020
5049 Clear -2 1028 86 10000 1 0 09:22 02.01.2020
5050 Clear -3 1028 86 10000 2.1 180 08:44 02.01.2020
5051 Clear -3 1028 86 10000 1 0 08:25 02.01.2020
5052 Clear -3 1028 86 10000 2.1 190 07:49 02.01.2020
5053 Clear -3 1028 92 10000 1 0 07:30 02.01.2020
5054 Clear -3 1028 92 10000 1.5 200 06:44 02.01.2020
5055 Clear -3 1028 100 10000 0.5 0 06:26 02.01.2020
5056 Clear -2 1029 100 10000 1.5 120 04:41 02.01.2020
5057 Clear -2 1029 100 10000 1 120 04:21 02.01.2020
5058 Clear -2 1029 100 10000 1 150 02:32 02.01.2020
5059 Fog -2 1029 100 10000 2.16 231 01:58 02.01.2020
5060 Fog -2 1029 100 10000 2.16 231 01:33 02.01.2020
5061 Fog -2 1029 100 10000 0.5 140 00:57 02.01.2020
5062 Fog -1 1029 100 10000 1 120 00:33 02.01.2020
5063 Clear -1 1030 100 10000 1 240 23:49 01.01.2020
5064 Clear -1 1030 100 10000 0.5 0 23:27 01.01.2020
5065 Clear -1 1030 77 10000 2.6 190 22:56 01.01.2020
5066 Clear -1 1030 77 10000 2.6 190 22:38 01.01.2020
5067 Clear -1 1030 77 10000 1.5 180 22:19 01.01.2020
5068 Clear -1 1030 77 10000 1.5 180 21:56 01.01.2020
5069 Clear 0 1030 77 10000 2.6 190 21:37 01.01.2020
5070 Clear 0 1030 77 10000 2.6 200 21:18 01.01.2020
5071 Clear 0 1031 77 10000 2.6 200 20:54 01.01.2020
5072 Clear 0 1031 77 10000 2.6 200 20:36 01.01.2020
5073 Clear 0 1031 88 10000 2.6 200 20:18 01.01.2020
5074 Clear 0 1031 88 10000 2.6 210 19:54 01.01.2020
5075 Clear 1 1031 88 10000 2.6 210 19:36 01.01.2020
5076 Clear 0 1031 93 10000 3.1 200 19:18 01.01.2020
5077 Clear 1 1031 93 10000 3.1 200 18:54 01.01.2020
5078 Clear 1 1031 88 10000 1.5 220 18:36 01.01.2020
5079 Clear 1 1032 100 10000 1 0 18:18 01.01.2020
5080 Clear 1 1032 93 10000 1 230 17:55 01.01.2020
5081 Clear 2 1032 93 10000 1 230 17:36 01.01.2020
5082 Clear 2 1032 93 10000 1.5 240 17:18 01.01.2020
5083 Clear 2 1032 93 10000 2.6 250 16:39 01.01.2020
5084 Clear 3 1032 93 10000 3.6 250 16:20 01.01.2020
5085 Clear 3 1032 93 10000 3.6 250 15:57 01.01.2020
5086 Clouds 4 1032 86 10000 4.1 240 15:39 01.01.2020
5087 Clouds 5 1032 80 10000 4.1 240 15:20 01.01.2020
5088 Clouds 5 1032 80 10000 4.1 240 14:58 01.01.2020
5089 Clouds 5 1032 80 10000 4.1 240 14:39 01.01.2020
5090 Clouds 5 1032 80 10000 3.6 250 14:21 01.01.2020
5091 Clouds 5 1033 75 10000 5.7 260 13:56 01.01.2020
5092 Clouds 5 1033 75 10000 5.7 260 13:37 01.01.2020
5093 Clouds 5 1033 75 10000 5.7 260 13:37 01.01.2020
5094 Clouds 5 1033 75 10000 5.7 260 13:37 01.01.2020
5095 Clouds 5 1033 80 10000 5.1 260 13:18 01.01.2020
5096 Clouds 5 1033 80 10000 4.1 260 12:55 01.01.2020
5097 Clouds 4 1033 80 10000 4.1 260 12:37 01.01.2020
5098 Clouds 4 1034 86 10000 3.6 250 12:18 01.01.2020
5099 Clouds 4 1034 86 10000 2.6 260 11:43 01.01.2020
5100 Clouds 3 1034 93 10000 2.1 260 11:23 01.01.2020
5101 Clouds 3 1034 93 10000 2.1 260 10:59 01.01.2020
5102 Clouds 3 1034 93 7000 1.5 250 10:41 01.01.2020
5103 Clouds 3 1034 93 7000 2.6 260 10:20 01.01.2020
5104 Clouds 2 1034 93 7000 2.6 280 09:57 01.01.2020
5105 Clouds 2 1034 93 7000 2.6 280 09:37 01.01.2020
5106 Clouds 2 1034 93 7000 2.6 280 09:37 01.01.2020
5107 Clouds 2 1034 93 7000 1 0 09:18 01.01.2020
5108 Mist 2 1033 100 5000 2.6 290 08:55 01.01.2020
5109 Mist 2 1033 100 5000 2.6 290 08:36 01.01.2020
5110 Mist 2 1033 93 2500 3.6 300 08:18 01.01.2020
5111 Mist 2 1033 93 3300 4.1 290 07:54 01.01.2020
5112 Mist 2 1033 93 3300 4.1 290 07:35 01.01.2020
5113 Clouds 2 1033 93 6000 3.1 270 06:44 01.01.2020
5114 Clouds 2 1033 93 6000 3.1 280 06:20 01.01.2020
5115 Mist 2 1033 100 4000 1.5 280 05:22 01.01.2020
5116 Mist 2 1033 93 4000 2.6 280 03:45 01.01.2020
5117 Mist 2 1033 100 4000 2.6 270 03:23 01.01.2020
5118 Mist 2 1033 93 4500 3.1 280 02:57 01.01.2020
5119 Mist 3 1033 93 4500 3.1 280 02:35 01.01.2020
5120 Clouds 3 1032 86 8000 3.6 280 01:57 01.01.2020
5121 Clouds 3 1032 86 8000 3.6 280 01:38 01.01.2020
5122 Clouds 3 1033 86 10000 2.1 270 01:20 01.01.2020
5123 Clouds 3 1033 80 10000 2.1 290 00:44 01.01.2020
5124 Clouds 4 1033 75 10000 2.6 290 00:25 01.01.2020
5125 Clouds 4 1033 75 10000 3.1 290 23:41 31.12.2019
5126 Clouds 5 1033 75 10000 2.6 290 23:22 31.12.2019
5127 Clouds 5 1033 75 10000 2.6 290 22:58 31.12.2019
5128 Clouds 4 1032 75 10000 2.6 280 22:39 31.12.2019
5129 Clouds 4 1032 75 10000 2.1 290 22:20 31.12.2019
5130 Clouds 4 1032 75 10000 3.1 290 21:59 31.12.2019
5131 Clouds 4 1032 75 10000 3.1 290 21:40 31.12.2019
5132 Clouds 4 1032 80 10000 3.1 290 21:22 31.12.2019
5133 Clouds 5 1032 80 10000 3.1 290 20:57 31.12.2019
5134 Clouds 6 1032 75 10000 3.1 280 20:37 31.12.2019
5135 Clouds 6 1032 75 10000 3.6 290 20:19 31.12.2019
5136 Clouds 6 1032 75 10000 3.1 300 19:55 31.12.2019
5137 Clouds 6 1032 75 10000 3.1 300 19:37 31.12.2019
5138 Clouds 6 1031 81 10000 3.1 290 19:18 31.12.2019
5139 Clouds 6 1031 81 10000 3.1 290 18:54 31.12.2019
5140 Clouds 6 1031 81 10000 3.1 290 18:54 31.12.2019
5141 Clouds 6 1031 81 10000 3.1 290 18:36 31.12.2019
5142 Clouds 6 1030 75 10000 2.6 280 18:18 31.12.2019
5143 Clouds 6 1030 75 10000 3.6 280 17:55 31.12.2019
5144 Clouds 6 1030 75 10000 3.6 280 17:36 31.12.2019
5145 Clouds 6 1030 75 10000 3.6 290 17:18 31.12.2019
5146 Clouds 7 1030 70 10000 4.1 290 16:55 31.12.2019
5147 Clouds 7 1030 70 10000 4.1 290 16:36 31.12.2019
5148 Clouds 7 1029 75 10000 4.1 300 16:18 31.12.2019
5149 Clouds 7 1029 75 10000 4.6 280 15:55 31.12.2019
5150 Clouds 7 1029 75 10000 4.6 280 15:37 31.12.2019
5151 Clouds 7 1029 70 10000 4.1 290 15:19 31.12.2019
5152 Clouds 8 1028 70 10000 4.1 290 14:55 31.12.2019
5153 Clouds 8 1028 70 10000 4.1 290 14:37 31.12.2019
5154 Clouds 7 1028 81 10000 5.1 290 14:18 31.12.2019
5155 Clouds 7 1028 75 10000 5.7 290 13:56 31.12.2019
5156 Clouds 7 1028 75 10000 5.7 290 13:37 31.12.2019
5157 Clouds 7 1028 75 10000 5.7 290 13:19 31.12.2019
5158 Clouds 7 1028 75 10000 5.7 290 12:55 31.12.2019
5159 Clouds 7 1028 75 10000 5.7 290 12:37 31.12.2019
5160 Clouds 7 1028 81 10000 5.7 280 12:18 31.12.2019
5161 Clouds 7 1027 81 10000 6.7 270 11:55 31.12.2019
5162 Clouds 7 1027 81 10000 6.7 270 11:36 31.12.2019
5163 Clouds 7 1027 81 10000 6.2 280 11:18 31.12.2019
5164 Clouds 6 1027 81 10000 6.2 280 10:55 31.12.2019
5165 Clouds 6 1027 81 10000 5.7 280 10:37 31.12.2019
5166 Clouds 6 1026 81 10000 6.7 280 10:19 31.12.2019
5167 Clouds 6 1025 87 10000 6.7 270 09:57 31.12.2019
5168 Clouds 5 1025 87 10000 6.7 270 09:38 31.12.2019
5169 Clouds 5 1025 86 10000 6.2 270 09:19 31.12.2019
5170 Clouds 5 1025 93 10000 6.2 280 08:42 31.12.2019
5171 Clouds 5 1024 86 10000 6.7 280 08:23 31.12.2019
5172 Clouds 5 1024 86 10000 5.7 280 07:58 31.12.2019
5173 Clouds 5 1024 86 10000 5.7 280 07:40 31.12.2019
5174 Clouds 5 1024 86 10000 5.7 290 07:19 31.12.2019
5175 Clouds 5 1023 86 10000 5.7 280 06:41 31.12.2019
5176 Clouds 5 1022 75 10000 5.7 280 05:45 31.12.2019
5177 Clouds 5 1021 56 10000 5.7 270 04:27 31.12.2019
5178 Clouds 4 1021 44 10000 4.6 260 03:24 31.12.2019
5179 Clouds 4 1021 44 10000 5.1 260 02:39 31.12.2019
5180 Clear 4 1021 41 10000 5.1 260 01:53 31.12.2019
5181 Clear 4 1021 41 10000 5.1 260 01:34 31.12.2019
5182 Clear 4 1021 44 10000 4.6 250 00:56 31.12.2019
5183 Clear 4 1021 44 10000 4.6 250 00:38 31.12.2019
5184 Clear 4 1022 44 10000 4.6 240 00:18 31.12.2019
5185 Clear 4 1022 38 10000 4.6 230 23:56 30.12.2019
5186 Clear 4 1022 38 10000 4.6 230 23:37 30.12.2019
5187 Clear 4 1022 41 10000 3.6 230 23:19 30.12.2019
5188 Clear 5 1022 35 10000 4.6 230 22:56 30.12.2019
5189 Clear 5 1022 35 10000 4.6 230 22:56 30.12.2019
5190 Clear 5 1022 35 10000 4.6 230 22:37 30.12.2019
5191 Clear 5 1022 38 10000 3.6 230 22:18 30.12.2019
5192 Clear 5 1023 38 10000 3.6 220 21:55 30.12.2019
5193 Clear 4 1023 38 10000 3.6 220 21:37 30.12.2019
5194 Clear 4 1023 38 10000 2.6 220 21:18 30.12.2019
5195 Clear 4 1023 38 10000 2.6 220 20:56 30.12.2019
5196 Clear 4 1023 38 10000 3.1 220 20:37 30.12.2019
5197 Clouds 5 1023 41 10000 3.1 190 20:19 30.12.2019
5198 Clouds 5 1024 41 10000 3.1 200 19:55 30.12.2019
5199 Clouds 5 1024 41 10000 3.1 200 19:37 30.12.2019
5200 Clouds 5 1024 33 10000 3.6 210 19:18 30.12.2019
5201 Clouds 5 1024 38 10000 3.1 210 18:56 30.12.2019
5202 Clouds 5 1024 38 10000 3.1 210 18:37 30.12.2019
5203 Clouds 6 1025 36 10000 3.6 220 18:19 30.12.2019
5204 Clouds 5 1025 45 10000 5.1 220 17:54 30.12.2019
5205 Clouds 6 1025 36 10000 3.1 210 17:36 30.12.2019
5206 Clouds 6 1025 39 10000 4.1 230 17:18 30.12.2019
5207 Clouds 6 1025 36 10000 4.1 230 16:54 30.12.2019
5208 Clouds 6 1025 36 10000 4.1 230 16:36 30.12.2019
5209 Clouds 6 1026 42 10000 4.6 220 16:18 30.12.2019
5210 Clouds 6 1026 42 10000 5.1 230 15:54 30.12.2019
5211 Clouds 7 1026 42 10000 5.1 230 15:36 30.12.2019
5212 Clouds 7 1026 42 10000 5.7 230 15:18 30.12.2019
5213 Clouds 7 1027 48 10000 4.1 230 14:42 30.12.2019
5214 Clouds 7 1027 42 10000 6.2 220 14:19 30.12.2019
5215 Clouds 7 1027 42 10000 6.2 220 13:54 30.12.2019
5216 Clouds 7 1027 45 10000 5.7 220 13:36 30.12.2019
5217 Clouds 6 1028 45 10000 6.2 220 13:18 30.12.2019
5218 Clouds 6 1028 42 10000 3.1 190 12:42 30.12.2019
5219 Clouds 5 1028 45 10000 3.1 190 12:20 30.12.2019
5220 Clouds 5 1028 45 10000 3.1 190 11:58 30.12.2019
5221 Clouds 5 1028 45 10000 3.1 190 11:40 30.12.2019
5222 Clouds 5 1029 48 10000 3.1 180 11:19 30.12.2019
5223 Clouds 4 1029 48 10000 2.6 180 10:44 30.12.2019
5224 Clouds 4 1029 44 10000 2.6 180 10:22 30.12.2019
5225 Clouds 4 1029 44 10000 2.6 180 09:58 30.12.2019
5226 Clouds 4 1029 48 10000 2.6 190 09:40 30.12.2019
5227 Clouds 3 1029 55 10000 2.6 190 09:20 30.12.2019
5228 Clouds 3 1029 59 10000 2.1 190 08:54 30.12.2019
5229 Clouds 3 1029 59 10000 2.1 190 08:36 30.12.2019
5230 Clouds 3 1030 59 10000 2.6 190 08:18 30.12.2019
5231 Clouds 3 1030 59 10000 2.1 180 07:39 30.12.2019
5232 Clouds 3 1031 59 10000 2.1 180 06:52 30.12.2019
5233 Clouds 2 1031 59 10000 3.1 200 05:24 30.12.2019
5234 Clouds 2 1032 69 10000 3.6 180 03:58 30.12.2019
5235 Clouds 2 1032 69 10000 2.6 170 03:32 30.12.2019
5236 Clouds 2 1033 69 10000 1.5 200 02:40 30.12.2019
5237 Clouds 2 1033 69 10000 1.5 210 01:56 30.12.2019
5238 Clouds 2 1033 69 10000 2.6 160 01:25 30.12.2019
5239 Clouds 1 1034 74 10000 1 0 00:46 30.12.2019
5240 Clouds 1 1034 74 10000 1.5 210 00:23 30.12.2019
5241 Clouds 1 1034 74 10000 2.6 190 23:40 29.12.2019
5242 Clouds 1 1034 74 10000 2.1 200 23:22 29.12.2019
5243 Clouds 1 1035 74 10000 2.1 210 22:56 29.12.2019
5244 Clouds 1 1035 74 10000 2.1 210 22:38 29.12.2019
5245 Clouds 1 1035 74 10000 2.6 200 22:19 29.12.2019
5246 Clouds 1 1035 74 10000 3.1 190 21:54 29.12.2019
5247 Clouds 1 1035 74 10000 3.1 190 21:36 29.12.2019
5248 Clouds 1 1035 74 10000 2.6 190 21:18 29.12.2019
5249 Clouds 1 1035 74 10000 3.1 190 20:55 29.12.2019
5250 Clouds 1 1035 74 10000 3.1 190 20:36 29.12.2019
5251 Clouds 1 1036 74 10000 3.1 200 20:18 29.12.2019
5252 Clouds 1 1036 74 10000 4.1 190 19:55 29.12.2019
5253 Clouds 1 1036 74 10000 4.1 190 19:37 29.12.2019
5254 Clouds 1 1036 74 10000 4.1 180 19:18 29.12.2019
5255 Clouds 1 1037 74 10000 2.6 230 18:54 29.12.2019
5256 Clouds 1 1037 74 10000 3.1 200 18:36 29.12.2019
5257 Clouds 1 1037 74 10000 3.1 200 18:18 29.12.2019
5258 Clouds 1 1037 74 10000 3.6 190 17:54 29.12.2019
5259 Clouds 1 1037 74 10000 3.6 190 17:36 29.12.2019
5260 Clouds 1 1037 69 10000 4.1 190 17:18 29.12.2019
5261 Clouds 1 1037 64 10000 4.1 180 16:54 29.12.2019
5262 Clouds 2 1037 64 10000 4.1 180 16:36 29.12.2019
5263 Clouds 2 1037 64 10000 4.1 180 16:18 29.12.2019
5264 Clouds 2 1037 64 10000 4.1 200 15:54 29.12.2019
5265 Clouds 2 1037 64 10000 4.1 200 15:36 29.12.2019
5266 Clouds 2 1037 64 10000 3.6 200 15:18 29.12.2019
5267 Clouds 2 1037 64 10000 4.6 190 14:46 29.12.2019
5268 Clouds 2 1037 64 10000 4.1 180 14:19 29.12.2019
5269 Clouds 2 1038 64 10000 4.1 170 13:59 29.12.2019
5270 Clouds 2 1038 64 10000 4.1 170 13:40 29.12.2019
5271 Clouds 2 1039 64 10000 4.1 180 13:22 29.12.2019
5272 Clouds 2 1039 64 10000 4.1 180 12:58 29.12.2019
5273 Clouds 2 1039 69 10000 4.1 200 12:40 29.12.2019
5274 Clouds 2 1040 64 10000 4.1 200 12:22 29.12.2019
5275 Clouds 2 1040 64 10000 4.1 200 12:22 29.12.2019
5276 Clouds 1 1040 64 10000 4.1 190 11:43 29.12.2019
5277 Clouds 1 1040 74 10000 3.1 210 11:23 29.12.2019
5278 Clouds 0 1040 74 10000 3.6 210 11:00 29.12.2019
5279 Clouds 0 1040 74 10000 3.6 210 10:41 29.12.2019
5280 Clouds -1 1040 74 10000 3.1 200 10:20 29.12.2019
5281 Clouds -1 1040 74 10000 2.6 180 09:54 29.12.2019
5282 Clouds -1 1040 74 10000 2.6 180 09:36 29.12.2019
5283 Clouds -2 1040 79 10000 2.1 180 09:18 29.12.2019
5284 Clouds -2 1040 74 10000 3.1 200 08:44 29.12.2019
5285 Clouds -2 1040 74 10000 4.1 210 08:24 29.12.2019
5286 Clouds -2 1040 74 10000 3.1 180 07:54 29.12.2019
5287 Clouds -2 1040 74 10000 3.1 180 07:54 29.12.2019
5288 Clouds -2 1040 74 10000 3.1 180 07:27 29.12.2019
5289 Clouds -2 1040 80 10000 2.1 160 06:53 29.12.2019
5290 Clouds -2 1040 92 10000 1.5 160 06:23 29.12.2019
5291 Clouds -3 1040 100 10000 0.5 130 05:50 29.12.2019
5292 Clouds -3 1041 100 10000 0.5 200 04:35 29.12.2019
5293 Clouds -3 1041 100 10000 0.5 150 03:40 29.12.2019
5294 Clouds -2 1041 92 10000 0.5 0 03:19 29.12.2019
5295 Clouds -2 1041 92 10000 0.77 221 02:19 29.12.2019
5296 Clouds -2 1042 92 10000 0.5 280 01:31 29.12.2019
5297 Clouds -2 1041 100 10000 0.5 260 01:31 29.12.2019
5298 Clouds -1 1042 86 10000 0.5 300 00:55 29.12.2019
5299 Clouds -1 1042 86 10000 0.5 300 00:36 29.12.2019
5300 Clouds -1 1042 86 10000 0.5 210 00:18 29.12.2019
5301 Clouds -1 1042 80 10000 1 260 23:41 28.12.2019
5302 Clouds 0 1043 80 10000 1 270 23:18 28.12.2019
5303 Clouds 0 1043 80 10000 1.5 260 22:39 28.12.2019
5304 Clouds 0 1043 86 10000 1.5 260 22:20 28.12.2019
5305 Clouds 0 1043 74 10000 1 0 21:58 28.12.2019
5306 Clouds 0 1043 74 10000 1 0 21:39 28.12.2019
5307 Clouds 1 1043 69 10000 1 0 21:21 28.12.2019
5308 Clouds 1 1043 69 10000 1 0 20:57 28.12.2019
5309 Clouds 1 1043 69 10000 1 0 20:37 28.12.2019
5310 Clouds 1 1043 69 10000 1 0 20:19 28.12.2019
5311 Clouds 1 1042 69 10000 1.5 260 19:56 28.12.2019
5312 Clouds 1 1042 69 10000 1.5 260 19:38 28.12.2019
5313 Clouds 1 1042 74 10000 2.1 290 19:19 28.12.2019
5314 Clouds 1 1042 74 10000 2.1 290 18:57 28.12.2019
5315 Clouds 1 1042 74 10000 1.5 280 18:39 28.12.2019
5316 Clouds 1 1042 74 10000 2.1 320 18:18 28.12.2019
5317 Clouds 1 1042 74 10000 2.6 310 17:54 28.12.2019
5318 Clouds 1 1042 74 10000 2.6 310 17:36 28.12.2019
5319 Clouds 2 1042 74 10000 2.6 300 17:18 28.12.2019
5320 Clouds 2 1042 69 10000 2.6 310 16:46 28.12.2019
5321 Clouds 2 1042 69 10000 3.1 300 16:25 28.12.2019
5322 Clouds 2 1042 69 10000 2.6 310 15:44 28.12.2019
5323 Clouds 2 1042 69 10000 2.1 300 15:24 28.12.2019
5324 Clouds 2 1042 69 10000 2.1 300 14:59 28.12.2019
5325 Clouds 2 1042 69 10000 2.6 290 14:39 28.12.2019
5326 Clouds 2 1041 64 10000 2.6 310 14:20 28.12.2019
5327 Clouds 2 1042 64 10000 2.6 340 13:56 28.12.2019
5328 Clouds 2 1042 64 10000 2.6 340 13:37 28.12.2019
5329 Clouds 2 1042 64 10000 2.6 310 13:18 28.12.2019
5330 Clouds 2 1042 64 10000 3.1 340 12:42 28.12.2019
5331 Clouds 2 1042 64 10000 3.1 330 12:23 28.12.2019
5332 Clouds 2 1042 64 10000 2.1 330 11:56 28.12.2019
5333 Clouds 2 1042 64 10000 2.1 330 11:56 28.12.2019
5334 Clouds 2 1042 64 10000 2.1 330 11:38 28.12.2019
5335 Clouds 2 1042 69 10000 2.1 360 11:19 28.12.2019
5336 Clouds 2 1042 69 10000 2.1 340 10:44 28.12.2019
5337 Clouds 2 1041 74 10000 2.1 350 10:22 28.12.2019
5338 Clouds 1 1041 74 10000 2.1 350 09:58 28.12.2019
5339 Clouds 1 1041 80 10000 1.5 350 09:40 28.12.2019
5340 Clouds 1 1041 80 10000 2.6 340 09:20 28.12.2019
5341 Clouds 1 1041 80 10000 2.1 340 08:44 28.12.2019
5342 Clouds 1 1040 80 10000 2.1 330 08:26 28.12.2019
5343 Clouds 1 1040 74 10000 2.1 330 07:55 28.12.2019
5344 Clouds 1 1040 74 10000 2.1 330 07:31 28.12.2019
5345 Clouds 1 1040 80 10000 1.5 350 06:41 28.12.2019
5346 Clouds 1 1039 86 10000 2.1 350 04:59 28.12.2019
5347 Clouds 1 1038 86 10000 3.1 350 03:47 28.12.2019
5348 Clouds 1 1038 86 10000 2.1 350 02:49 28.12.2019
5349 Clouds 1 1038 86 10000 2.6 350 02:19 28.12.2019
5350 Clouds 1 1038 80 10000 2.1 360 01:42 28.12.2019
5351 Clouds 1 1038 81 10000 2.1 350 01:18 28.12.2019
5352 Clouds 1 1037 81 10000 2.6 340 00:40 28.12.2019
5353 Clouds 1 1037 81 10000 2.6 340 00:21 28.12.2019
5354 Clouds 1 1037 81 10000 2.1 340 23:45 27.12.2019
5355 Clouds 1 1037 88 10000 2.1 340 23:20 27.12.2019
5356 Clouds 1 1037 88 10000 2.1 340 22:58 27.12.2019
5357 Clouds 1 1036 88 10000 2.6 340 22:39 27.12.2019
5358 Clouds 1 1036 88 10000 2.1 340 22:20 27.12.2019
5359 Clouds 1 1036 88 10000 2.1 340 22:20 27.12.2019
5360 Clouds 1 1036 88 10000 2.6 340 21:59 27.12.2019
5361 Clouds 1 1036 88 10000 2.6 340 21:40 27.12.2019
5362 Clouds 1 1035 88 10000 2.1 340 21:22 27.12.2019
5363 Clouds 2 1035 88 10000 2.1 340 20:42 27.12.2019
5364 Clouds 2 1034 93 10000 2.6 330 20:23 27.12.2019
5365 Clouds 2 1034 93 10000 2.6 330 19:55 27.12.2019
5366 Clouds 3 1034 93 10000 2.1 340 19:36 27.12.2019
5367 Clouds 3 1033 86 10000 2.6 350 19:18 27.12.2019
5368 Clouds 3 1033 86 10000 2.6 350 19:18 27.12.2019
5369 Clouds 3 1033 93 10000 2.1 330 18:42 27.12.2019
5370 Rain 3 1032 86 10000 2.6 360 18:24 27.12.2019
5371 Rain 3 1032 86 10000 3.1 360 18:00 27.12.2019
5372 Rain 3 1032 86 10000 3.1 360 17:41 27.12.2019
5373 Rain 4 1032 86 10000 2.1 350 17:20 27.12.2019
5374 Rain 4 1031 86 10000 2.6 20 16:59 27.12.2019
5375 Rain 4 1031 86 10000 2.6 20 16:59 27.12.2019
5376 Rain 4 1031 86 10000 2.6 20 16:41 27.12.2019
5377 Rain 4 1031 93 10000 2.6 350 16:22 27.12.2019
5378 Clouds 4 1030 86 10000 2.1 340 15:57 27.12.2019
5379 Clouds 4 1030 86 10000 2.1 340 15:37 27.12.2019
5380 Rain 4 1030 86 10000 2.6 340 15:18 27.12.2019
5381 Rain 4 1030 86 10000 2.6 340 14:55 27.12.2019
5382 Clouds 4 1030 86 10000 2.6 330 14:37 27.12.2019
5383 Clouds 4 1029 93 10000 3.1 330 14:19 27.12.2019
5384 Clouds 4 1029 93 10000 2.6 330 13:44 27.12.2019
5385 Drizzle 4 1029 93 10000 2.6 340 13:22 27.12.2019
5386 Drizzle 4 1029 93 10000 3.1 340 12:48 27.12.2019
5387 Clouds 4 1028 86 10000 3.1 340 12:29 27.12.2019
5388 Clouds 4 1028 86 10000 3.1 340 11:59 27.12.2019
5389 Clouds 3 1028 86 10000 2.6 360 11:41 27.12.2019
5390 Clouds 3 1028 86 10000 2.6 350 11:20 27.12.2019
5391 Clouds 3 1028 86 10000 2.6 350 11:20 27.12.2019
5392 Clouds 3 1028 86 10000 2.6 350 11:20 27.12.2019
5393 Clouds 3 1028 86 10000 3.1 340 10:47 27.12.2019
5394 Clouds 3 1027 86 10000 2.1 340 10:24 27.12.2019
5395 Clouds 3 1027 93 10000 2.1 350 09:57 27.12.2019
5396 Clouds 3 1027 93 10000 2.1 350 09:38 27.12.2019
5397 Clouds 3 1026 86 10000 3.1 40 09:20 27.12.2019
5398 Clouds 3 1026 93 10000 2.6 10 08:49 27.12.2019
5399 Clouds 3 1025 100 10000 2.6 350 08:30 27.12.2019
5400 Clouds 3 1025 100 10000 2.1 350 07:48 27.12.2019
5401 Clouds 3 1024 100 10000 1.5 330 07:25 27.12.2019
5402 Clouds 3 1024 100 10000 1 0 06:33 27.12.2019
5403 Clouds 4 1023 100 10000 0.5 0 04:51 27.12.2019
5404 Rain 4 1023 100 10000 1.5 290 02:49 27.12.2019
5405 Rain 4 1023 100 10000 2.6 280 01:56 27.12.2019
5406 Rain 4 1023 100 10000 2.6 280 01:23 27.12.2019
5407 Rain 4 1023 100 10000 3.1 270 00:53 27.12.2019
5408 Rain 4 1023 100 10000 3.1 270 00:34 27.12.2019
5409 Rain 4 1023 100 10000 2.6 280 23:59 26.12.2019
5410 Rain 4 1023 100 10000 2.6 280 23:41 26.12.2019
5411 Clouds 4 1023 93 10000 2.6 280 23:21 26.12.2019
5412 Clouds 4 1023 100 10000 3.1 280 22:45 26.12.2019
5413 Rain 4 1022 100 10000 2.6 270 22:22 26.12.2019
5414 Rain 4 1022 100 10000 3.1 270 21:58 26.12.2019
5415 Clouds 4 1022 100 10000 3.1 270 21:38 26.12.2019
5416 Clouds 5 1023 100 10000 3.1 260 21:20 26.12.2019
5417 Clouds 5 1023 100 10000 3.1 270 20:46 26.12.2019
5418 Clouds 5 1023 86 10000 2.6 280 20:23 26.12.2019
5419 Clouds 5 1023 86 10000 2.6 280 20:23 26.12.2019
5420 Clouds 5 1023 93 10000 2.1 270 19:59 26.12.2019
5421 Clouds 5 1023 93 10000 2.1 270 19:40 26.12.2019
5422 Clouds 5 1022 93 10000 2.1 270 19:21 26.12.2019
5423 Rain 5 1022 86 10000 2.6 280 18:58 26.12.2019
5424 Rain 5 1022 86 10000 2.6 280 18:39 26.12.2019
5425 Drizzle 5 1022 86 10000 2.6 320 18:19 26.12.2019
5426 Rain 5 1022 93 10000 3.6 270 17:57 26.12.2019
5427 Rain 5 1022 93 10000 3.6 270 17:38 26.12.2019
5428 Drizzle 5 1022 87 10000 4.1 270 17:18 26.12.2019
5429 Clouds 5 1022 87 10000 3.6 280 16:43 26.12.2019
5430 Clouds 6 1022 87 10000 3.6 270 16:23 26.12.2019
5431 Clouds 6 1022 87 10000 3.1 280 15:56 26.12.2019
5432 Clouds 6 1022 87 10000 3.1 280 15:38 26.12.2019
5433 Clouds 6 1022 87 10000 4.1 280 15:18 26.12.2019
5434 Clouds 6 1022 87 10000 4.1 270 14:40 26.12.2019
5435 Clouds 6 1022 87 10000 3.6 280 14:22 26.12.2019
5436 Clouds 6 1022 87 10000 4.6 270 13:44 26.12.2019
5437 Clouds 6 1022 87 10000 4.6 290 13:22 26.12.2019
5438 Clouds 6 1022 87 10000 3.1 280 12:58 26.12.2019
5439 Clouds 6 1022 87 10000 3.1 280 12:39 26.12.2019
5440 Clouds 6 1022 87 10000 3.1 280 12:39 26.12.2019
5441 Drizzle 6 1022 87 10000 3.1 280 12:20 26.12.2019
5442 Drizzle 6 1022 87 10000 3.1 280 11:57 26.12.2019
5443 Clouds 6 1022 93 10000 3.6 280 11:39 26.12.2019
5444 Drizzle 5 1022 93 10000 5.1 260 11:20 26.12.2019
5445 Clouds 5 1023 93 10000 3.6 270 10:49 26.12.2019
5446 Drizzle 5 1022 93 10000 4.1 260 10:20 26.12.2019
5447 Clouds 5 1022 93 10000 3.6 270 09:53 26.12.2019
5448 Clouds 5 1022 93 10000 3.6 270 09:32 26.12.2019
5449 Drizzle 5 1022 100 10000 3.1 280 08:57 26.12.2019
5450 Drizzle 4 1022 100 10000 3.1 280 08:38 26.12.2019
5451 Drizzle 5 1022 93 10000 2.6 280 08:20 26.12.2019
5452 Clouds 5 1022 93 10000 3.6 270 07:31 26.12.2019
5453 Clouds 5 1022 100 10000 2.6 260 06:56 26.12.2019
5454 Clouds 4 1022 100 10000 2.6 260 06:34 26.12.2019
5455 Clouds 4 1021 100 10000 3.1 260 05:57 26.12.2019
5456 Clouds 4 1021 100 10000 3.1 260 05:38 26.12.2019
5457 Clouds 4 1022 93 10000 3.1 270 04:32 26.12.2019
5458 Rain 4 1021 100 10000 3.6 270 03:20 26.12.2019
5459 Clouds 4 1021 93 10000 3.6 270 02:46 26.12.2019
5460 Clouds 4 1021 93 10000 3.1 270 02:25 26.12.2019
5461 Rain 4 1021 100 10000 2.1 270 01:44 26.12.2019
5462 Clouds 4 1021 93 10000 2.6 270 01:24 26.12.2019
5463 Clouds 4 1021 93 10000 2.6 260 00:43 26.12.2019
5464 Clouds 5 1021 93 10000 2.6 290 00:23 26.12.2019
5465 Rain 5 1020 93 10000 3.1 290 23:57 25.12.2019
5466 Rain 5 1020 93 10000 3.1 290 23:37 25.12.2019
5467 Drizzle 5 1020 93 10000 3.1 300 23:18 25.12.2019
5468 Drizzle 5 1020 93 10000 3.1 280 22:55 25.12.2019
5469 Drizzle 5 1020 93 10000 3.1 280 22:37 25.12.2019
5470 Clouds 5 1020 93 10000 3.6 290 22:18 25.12.2019
5471 Clouds 5 1019 93 10000 3.1 290 21:55 25.12.2019
5472 Clouds 5 1019 93 10000 3.1 290 21:37 25.12.2019
5473 Clouds 5 1019 93 10000 2.6 280 21:18 25.12.2019
5474 Drizzle 5 1019 93 10000 3.6 290 20:40 25.12.2019
5475 Clouds 5 1019 93 10000 3.1 280 20:21 25.12.2019
5476 Clouds 5 1019 93 10000 2.6 270 19:59 25.12.2019
5477 Clouds 5 1019 93 10000 2.6 270 19:41 25.12.2019
5478 Clouds 5 1018 93 10000 3.1 280 19:21 25.12.2019
5479 Clouds 5 1018 93 10000 3.1 280 18:40 25.12.2019
5480 Clouds 6 1018 100 10000 3.6 280 18:21 25.12.2019
5481 Clouds 6 1018 100 10000 3.1 280 17:58 25.12.2019
5482 Clouds 6 1018 100 10000 3.1 280 17:39 25.12.2019
5483 Clouds 6 1017 93 10000 2.6 280 17:18 25.12.2019
5484 Drizzle 6 1017 93 10000 2.6 290 16:55 25.12.2019
5485 Drizzle 6 1017 93 10000 2.6 290 16:36 25.12.2019
5486 Drizzle 6 1016 93 10000 3.1 300 16:18 25.12.2019
5487 Drizzle 6 1016 93 10000 2.6 300 15:55 25.12.2019
5488 Drizzle 6 1016 93 10000 2.6 300 15:36 25.12.2019
5489 Drizzle 6 1015 93 10000 2.6 310 15:18 25.12.2019
5490 Drizzle 6 1015 93 10000 3.1 300 14:54 25.12.2019
5491 Drizzle 6 1015 93 10000 3.1 300 14:36 25.12.2019
5492 Drizzle 6 1014 87 10000 3.1 310 14:18 25.12.2019
5493 Clouds 6 1014 87 10000 3.1 330 13:41 25.12.2019
5494 Drizzle 6 1014 87 10000 3.1 320 13:20 25.12.2019
5495 Drizzle 6 1013 87 10000 3.1 320 12:44 25.12.2019
5496 Clouds 6 1013 93 10000 3.1 320 12:22 25.12.2019
5497 Clouds 6 1013 100 10000 2.6 320 11:58 25.12.2019
5498 Clouds 6 1013 100 10000 2.6 320 11:40 25.12.2019
5499 Drizzle 5 1012 100 10000 3.6 310 11:21 25.12.2019
5500 Drizzle 5 1012 93 10000 2.6 320 10:39 25.12.2019
5501 Drizzle 5 1011 93 10000 2.6 320 10:21 25.12.2019
5502 Drizzle 5 1011 93 10000 2.6 320 09:59 25.12.2019
5503 Drizzle 5 1011 93 10000 2.6 320 09:40 25.12.2019
5504 Drizzle 5 1011 93 10000 3.1 310 09:22 25.12.2019
5505 Drizzle 5 1010 93 7000 2.6 320 08:43 25.12.2019
5506 Drizzle 5 1010 93 10000 2.1 310 08:24 25.12.2019
5507 Drizzle 5 1009 93 7000 3.6 300 07:44 25.12.2019
5508 Clouds 5 1009 93 10000 2.6 310 07:23 25.12.2019
5509 Clouds 5 1008 93 10000 3.1 310 06:24 25.12.2019
5510 Clouds 5 1008 93 10000 3.1 310 05:51 25.12.2019
5511 Drizzle 5 1007 100 5000 3.1 290 04:46 25.12.2019
5512 Clouds 6 1007 100 10000 3.1 300 04:24 25.12.2019
5513 Clouds 6 1007 100 10000 3.6 290 03:46 25.12.2019
5514 Clouds 6 1007 100 10000 2.6 290 03:18 25.12.2019
5515 Clouds 6 1006 93 8000 2.6 290 02:32 25.12.2019
5516 Clouds 6 1005 93 10000 3.6 270 01:54 25.12.2019
5517 Drizzle 6 1005 93 10000 3.1 260 01:24 25.12.2019
5518 Drizzle 6 1005 100 8000 1.5 250 00:46 25.12.2019
5519 Drizzle 6 1005 100 8000 1.5 250 00:27 25.12.2019
5520 Clouds 5 1005 100 10000 2.1 220 23:55 24.12.2019
5521 Drizzle 5 1005 100 5000 1.5 150 23:36 24.12.2019
5522 Drizzle 5 1005 100 2800 2.1 130 23:18 24.12.2019
5523 Drizzle 5 1005 100 4500 1.5 140 22:38 24.12.2019
5524 Clouds 5 1005 100 10000 2.6 150 22:20 24.12.2019
5525 Clouds 5 1005 100 10000 2.6 150 22:20 24.12.2019
5526 Drizzle 5 1005 100 6000 2.6 150 21:42 24.12.2019
5527 Clouds 5 1005 93 10000 3.1 150 21:22 24.12.2019
5528 Clouds 5 1005 93 10000 3.1 150 21:22 24.12.2019
5529 Rain 5 1005 93 10000 3.6 150 20:45 24.12.2019
5530 Rain 5 1006 93 10000 4.1 150 20:24 24.12.2019
5531 Rain 5 1006 93 10000 4.1 150 19:57 24.12.2019
5532 Rain 5 1006 93 10000 3.1 170 19:39 24.12.2019
5533 Rain 6 1006 87 10000 3.6 180 19:19 24.12.2019
5534 Rain 6 1006 87 10000 3.6 190 18:42 24.12.2019
5535 Rain 6 1006 87 10000 4.1 180 18:23 24.12.2019
5536 Rain 6 1006 81 10000 3.1 160 17:58 24.12.2019
5537 Rain 6 1006 81 10000 3.1 160 17:37 24.12.2019
5538 Clouds 6 1006 81 10000 2.6 170 17:19 24.12.2019
5539 Clouds 6 1006 75 10000 3.1 160 16:55 24.12.2019
5540 Clouds 6 1006 75 10000 3.1 160 16:36 24.12.2019
5541 Clouds 7 1007 81 10000 3.1 180 16:18 24.12.2019
5542 Clouds 7 1007 81 10000 3.1 180 15:54 24.12.2019
5543 Clouds 7 1007 81 10000 4.1 180 15:36 24.12.2019
5544 Clouds 7 1007 81 10000 3.1 180 15:18 24.12.2019
5545 Clouds 8 1008 70 10000 3.6 190 14:54 24.12.2019
5546 Clouds 8 1008 70 10000 3.6 190 14:36 24.12.2019
5547 Clouds 8 1008 75 10000 2.1 190 14:18 24.12.2019
5548 Clouds 8 1009 70 10000 2.6 210 13:54 24.12.2019
5549 Clouds 8 1009 70 10000 2.6 210 13:36 24.12.2019
5550 Clouds 8 1009 70 10000 4.6 220 13:18 24.12.2019
5551 Clouds 8 1010 75 10000 4.1 220 12:54 24.12.2019
5552 Clouds 8 1010 75 10000 4.1 220 12:36 24.12.2019
5553 Clouds 7 1010 75 10000 3.6 220 12:18 24.12.2019
5554 Clouds 7 1011 75 10000 4.1 220 11:54 24.12.2019
5555 Clouds 7 1011 75 10000 4.1 220 11:36 24.12.2019
5556 Clouds 6 1011 81 10000 4.1 230 11:18 24.12.2019
5557 Clouds 6 1012 87 10000 3.6 240 10:54 24.12.2019
5558 Clouds 6 1012 87 10000 3.6 240 10:36 24.12.2019
5559 Clouds 6 1012 87 10000 3.6 230 10:18 24.12.2019
5560 Clouds 6 1012 87 10000 4.1 240 09:54 24.12.2019
5561 Clouds 6 1012 87 10000 4.1 240 09:36 24.12.2019
5562 Clouds 6 1012 87 10000 3.1 230 09:18 24.12.2019
5563 Clouds 5 1012 93 10000 4.1 240 08:42 24.12.2019
5564 Clouds 6 1012 93 10000 4.6 240 08:19 24.12.2019
5565 Clouds 5 1012 93 10000 3.1 250 07:44 24.12.2019
5566 Clouds 5 1012 93 10000 3.6 250 07:22 24.12.2019
5567 Clouds 5 1012 93 10000 3.1 260 06:41 24.12.2019
5568 Clouds 5 1012 86 10000 4.6 260 06:22 24.12.2019
5569 Clouds 5 1012 93 10000 4.6 260 05:56 24.12.2019
5570 Clouds 6 1012 93 10000 3.6 250 05:20 24.12.2019
5571 Clouds 6 1012 93 10000 4.6 250 04:33 24.12.2019
5572 Clouds 7 1011 93 10000 5.1 250 03:50 24.12.2019
5573 Clouds 6 1011 93 10000 4.6 250 02:59 24.12.2019
5574 Clouds 6 1011 93 10000 4.1 260 02:18 24.12.2019
5575 Rain 6 1010 93 10000 4.1 250 01:42 24.12.2019
5576 Rain 6 1010 93 10000 4.6 260 01:20 24.12.2019
5577 Rain 6 1010 93 10000 4.6 250 00:43 24.12.2019
5578 Clouds 6 1010 93 10000 3.1 250 00:23 24.12.2019
5579 Drizzle 7 1010 93 10000 4.1 260 23:55 23.12.2019
5580 Drizzle 7 1010 93 10000 4.1 260 23:37 23.12.2019
5581 Drizzle 7 1009 93 10000 4.1 260 23:19 23.12.2019
5582 Drizzle 7 1009 93 10000 4.1 260 22:55 23.12.2019
5583 Drizzle 7 1009 93 10000 5.1 270 22:36 23.12.2019
5584 Clouds 7 1009 87 10000 4.6 250 22:18 23.12.2019
5585 Clouds 7 1008 87 10000 5.1 250 21:55 23.12.2019
5586 Clouds 7 1008 87 10000 5.1 250 21:36 23.12.2019
5587 Clouds 7 1008 87 10000 5.1 250 21:36 23.12.2019
5588 Rain 7 1008 87 10000 4.6 240 21:18 23.12.2019
5589 Clouds 7 1008 81 10000 4.1 240 20:56 23.12.2019
5590 Clouds 7 1008 81 10000 4.1 240 20:56 23.12.2019
5591 Clouds 7 1008 81 10000 4.1 240 20:38 23.12.2019
5592 Clouds 7 1008 81 10000 3.6 250 20:18 23.12.2019
5593 Clouds 7 1007 81 10000 4.1 270 19:55 23.12.2019
5594 Clouds 7 1007 81 10000 4.1 270 19:55 23.12.2019
5595 Clouds 7 1007 81 10000 4.1 270 19:55 23.12.2019
5596 Clouds 7 1007 81 10000 4.1 270 19:37 23.12.2019
5597 Clouds 7 1007 81 10000 5.1 270 19:19 23.12.2019
5598 Clouds 7 1006 75 10000 4.6 260 18:55 23.12.2019
5599 Clouds 7 1006 75 10000 4.6 260 18:37 23.12.2019
5600 Clouds 7 1006 81 10000 4.6 260 18:19 23.12.2019
5601 Clouds 8 1006 87 10000 3.6 260 17:55 23.12.2019
5602 Clouds 7 1006 87 10000 3.6 260 17:37 23.12.2019
5603 Clouds 8 1005 81 10000 3.1 260 17:18 23.12.2019
5604 Clouds 8 1005 81 10000 4.1 270 16:42 23.12.2019
5605 Clouds 8 1004 81 10000 4.1 270 16:19 23.12.2019
5606 Clouds 8 1004 81 10000 3.6 270 15:59 23.12.2019
5607 Clouds 8 1004 81 10000 3.6 270 15:39 23.12.2019
5608 Clouds 8 1003 81 10000 4.1 270 15:20 23.12.2019
5609 Clouds 8 1003 81 10000 3.6 270 14:59 23.12.2019
5610 Clouds 8 1003 81 10000 3.6 270 14:41 23.12.2019
5611 Clouds 8 1002 81 10000 4.1 270 14:23 23.12.2019
5612 Clouds 8 1002 81 10000 4.1 280 13:59 23.12.2019
5613 Clouds 8 1002 81 10000 4.1 280 13:40 23.12.2019
5614 Clouds 8 1002 81 10000 4.1 280 13:40 23.12.2019
5615 Clouds 8 1001 81 10000 4.6 280 13:22 23.12.2019
5616 Clouds 8 1001 81 10000 4.6 280 13:22 23.12.2019
5617 Clouds 8 1001 87 10000 5.7 280 12:58 23.12.2019
5618 Clouds 8 1001 87 10000 5.7 280 12:39 23.12.2019
5619 Clouds 8 1001 87 10000 5.1 280 12:20 23.12.2019
5620 Rain 7 1000 93 10000 5.7 270 11:55 23.12.2019
5621 Rain 7 1000 93 10000 5.7 270 11:37 23.12.2019
5622 Rain 7 1000 93 10000 5.7 270 11:18 23.12.2019
5623 Rain 7 1000 93 10000 5.1 260 10:54 23.12.2019
5624 Rain 7 1000 93 10000 5.1 260 10:36 23.12.2019
5625 Rain 7 999 93 10000 4.1 270 10:18 23.12.2019
5626 Rain 7 999 93 10000 4.1 270 10:18 23.12.2019
5627 Rain 7 999 93 6000 4.6 280 09:40 23.12.2019
5628 Rain 7 998 93 6000 5.7 270 09:22 23.12.2019
5629 Rain 7 998 93 6000 5.7 270 08:58 23.12.2019
5630 Drizzle 7 997 100 3800 4.1 280 08:40 23.12.2019
5631 Drizzle 7 997 93 5000 3.6 280 08:22 23.12.2019
5632 Rain 6 996 93 10000 4.1 260 07:48 23.12.2019
5633 Clouds 6 995 93 10000 4.1 260 07:21 23.12.2019
5634 Clouds 6 995 93 10000 2.6 260 06:57 23.12.2019
5635 Clouds 6 995 93 10000 2.6 260 06:30 23.12.2019
5636 Clouds 6 994 93 10000 1.5 200 05:56 23.12.2019
5637 Clouds 5 994 93 10000 1 180 05:30 23.12.2019
5638 Drizzle 5 993 93 9000 1 180 04:40 23.12.2019
5639 Clouds 5 993 93 10000 1 160 03:36 23.12.2019
5640 Clouds 5 992 93 10000 1.5 140 02:43 23.12.2019
5641 Clouds 5 992 93 10000 1.5 140 02:19 23.12.2019
5642 Clouds 5 991 93 10000 2.1 150 01:46 23.12.2019
5643 Clouds 5 991 93 10000 2.1 150 01:27 23.12.2019
5644 Clouds 5 991 87 10000 2.6 150 00:46 23.12.2019
5645 Clouds 5 991 93 10000 2.6 140 00:25 23.12.2019
5646 Clouds 5 991 93 10000 2.6 140 23:56 22.12.2019
5647 Clouds 5 991 93 10000 2.6 140 23:37 22.12.2019
5648 Clouds 5 990 93 10000 2.1 120 23:19 22.12.2019
5649 Clouds 5 990 93 10000 2.1 120 22:55 22.12.2019
5650 Clouds 5 990 93 10000 2.1 120 22:37 22.12.2019
5651 Clouds 5 990 93 10000 2.6 130 22:18 22.12.2019
5652 Clouds 5 990 93 9000 3.6 130 21:54 22.12.2019
5653 Clouds 5 990 93 9000 3.6 130 21:36 22.12.2019
5654 Clouds 5 990 93 10000 3.6 120 21:18 22.12.2019
5655 Clouds 4 990 93 10000 3.1 120 20:40 22.12.2019
5656 Clouds 4 990 100 10000 3.1 130 20:19 22.12.2019
5657 Clouds 4 990 93 0 3.6 130 19:57 22.12.2019
5658 Clouds 4 990 93 0 3.6 130 19:39 22.12.2019
5659 Clouds 4 990 93 10000 3.1 130 19:20 22.12.2019
5660 Clouds 4 990 93 10000 3.6 120 18:55 22.12.2019
5661 Clouds 4 990 93 10000 3.6 120 18:37 22.12.2019
5662 Clouds 4 990 93 10000 3.1 110 18:18 22.12.2019
5663 Clouds 4 989 100 10000 3.6 130 17:54 22.12.2019
5664 Clouds 4 989 100 10000 3.6 130 17:36 22.12.2019
5665 Clouds 4 989 93 10000 2.1 130 17:18 22.12.2019
5666 Clouds 4 989 93 10000 3.1 130 16:42 22.12.2019
5667 Clouds 4 989 93 10000 3.1 130 16:23 22.12.2019
5668 Clouds 4 989 93 10000 3.1 130 15:57 22.12.2019
5669 Clouds 4 989 93 10000 3.1 130 15:39 22.12.2019
5670 Clouds 4 989 93 10000 3.6 130 15:21 22.12.2019
5671 Clouds 4 989 93 10000 3.6 130 14:57 22.12.2019
5672 Clouds 4 989 86 10000 3.6 120 14:38 22.12.2019
5673 Clouds 4 989 86 10000 2.6 120 14:19 22.12.2019
5674 Clouds 4 989 93 10000 3.6 120 13:56 22.12.2019
5675 Clouds 4 989 93 10000 3.6 120 13:38 22.12.2019
5676 Clouds 3 989 93 10000 3.1 130 13:19 22.12.2019
5677 Clouds 3 989 93 9000 2.6 120 12:57 22.12.2019
5678 Clouds 3 989 93 9000 2.6 120 12:38 22.12.2019
5679 Clouds 3 989 100 6000 3.1 110 12:19 22.12.2019
5680 Clouds 3 989 100 6000 3.1 110 12:19 22.12.2019
5681 Clouds 3 989 100 6000 3.1 110 11:58 22.12.2019
5682 Mist 3 989 93 5000 3.1 130 11:39 22.12.2019
5683 Mist 2 989 93 4800 3.6 110 11:20 22.12.2019
5684 Mist 2 989 93 4800 3.6 110 10:57 22.12.2019
5685 Mist 1 989 100 4500 3.1 120 10:39 22.12.2019
5686 Mist 1 989 100 3500 3.1 100 10:19 22.12.2019
5687 Mist 1 989 100 1500 3.1 120 09:58 22.12.2019
5688 Mist 1 989 100 1500 3.1 120 09:39 22.12.2019
5689 Mist 1 989 100 1400 3.6 130 09:21 22.12.2019
5690 Mist 1 989 100 2200 3.1 160 08:45 22.12.2019
5691 Mist 1 989 100 2200 3.1 160 08:45 22.12.2019
5692 Mist 1 989 100 2000 2.1 180 08:23 22.12.2019
5693 Mist 1 989 100 1600 2.6 150 07:50 22.12.2019
5694 Mist 1 989 100 1200 1.5 140 07:22 22.12.2019
5695 Fog 1 988 100 700 4.1 120 06:57 22.12.2019
5696 Fog 1 989 100 600 2.6 110 06:30 22.12.2019
5697 Fog 1 989 100 450 2.6 100 05:49 22.12.2019
5698 Fog 1 989 100 600 2.6 80 05:21 22.12.2019
5699 Clouds 1 990 100 6000 1 120 04:27 22.12.2019
5700 Clouds 1 990 100 7000 1.5 100 03:45 22.12.2019
5701 Clouds 1 990 100 10000 2.6 130 02:38 22.12.2019
5702 Clouds 2 990 100 10000 2.6 130 01:37 22.12.2019
5703 Clouds 2 990 93 10000 2.1 120 01:18 22.12.2019
5704 Clouds 2 990 100 10000 2.1 120 00:45 22.12.2019
5705 Clouds 2 991 93 10000 2.1 150 00:21 22.12.2019
5706 Clouds 2 991 93 10000 2.1 150 23:55 21.12.2019
5707 Clouds 3 991 93 10000 2.6 140 23:37 21.12.2019
5708 Clouds 3 991 93 10000 2.6 130 23:18 21.12.2019
5709 Clouds 3 991 93 10000 2.1 130 22:40 21.12.2019
5710 Clouds 3 991 93 10000 2.1 130 22:40 21.12.2019
5711 Clouds 3 992 93 10000 2.6 140 22:19 21.12.2019
5712 Clouds 3 992 93 10000 2.6 140 21:57 21.12.2019
5713 Clouds 3 992 93 10000 3.1 160 21:37 21.12.2019
5714 Clouds 3 992 93 10000 2.1 160 21:19 21.12.2019
5715 Clouds 3 992 93 10000 2.6 160 20:58 21.12.2019
5716 Clouds 4 992 93 10000 2.6 160 20:39 21.12.2019
5717 Clouds 4 992 93 10000 2.6 140 20:21 21.12.2019
5718 Clouds 4 992 87 10000 2.6 160 19:58 21.12.2019
5719 Clouds 4 992 87 10000 2.6 160 19:40 21.12.2019
5720 Clouds 5 992 87 10000 2.6 150 19:19 21.12.2019
5721 Clouds 5 993 87 10000 2.6 150 18:45 21.12.2019
5722 Clouds 5 993 87 10000 2.6 160 18:24 21.12.2019
5723 Clouds 5 993 87 10000 2.6 160 17:58 21.12.2019
5724 Clouds 5 993 87 10000 2.6 160 17:58 21.12.2019
5725 Clouds 6 993 87 10000 2.6 170 17:39 21.12.2019
5726 Clouds 6 993 87 10000 2.6 180 17:21 21.12.2019
5727 Clouds 6 993 87 10000 2.6 180 16:59 21.12.2019
5728 Clouds 7 994 81 10000 3.6 170 16:41 21.12.2019
5729 Clouds 7 994 81 10000 3.6 180 16:19 21.12.2019
5730 Clouds 7 994 81 10000 3.6 180 16:19 21.12.2019
5731 Clouds 8 994 81 10000 3.6 180 15:57 21.12.2019
5732 Clouds 8 994 81 10000 3.6 180 15:38 21.12.2019
5733 Clouds 8 994 81 10000 3.6 180 15:38 21.12.2019
5734 Clouds 8 994 81 10000 3.6 180 15:38 21.12.2019
5735 Clouds 9 994 76 10000 3.1 180 15:19 21.12.2019
5736 Clouds 9 994 76 10000 3.1 180 14:57 21.12.2019
5737 Clouds 9 994 76 10000 3.6 190 14:38 21.12.2019
5738 Clouds 9 993 71 10000 2.1 290 14:19 21.12.2019
5739 Clouds 9 993 71 10000 2.1 260 13:56 21.12.2019
5740 Clouds 9 993 71 10000 2.1 260 13:37 21.12.2019
5741 Clouds 9 994 76 10000 3.1 220 13:18 21.12.2019
5742 Clouds 9 995 81 10000 3.6 210 12:55 21.12.2019
5743 Clouds 9 995 81 10000 3.6 210 12:37 21.12.2019
5744 Clouds 9 995 81 10000 3.6 210 12:18 21.12.2019
5745 Clouds 9 994 81 10000 2.1 200 11:43 21.12.2019
5746 Clouds 8 994 93 10000 3.1 200 11:25 21.12.2019
5747 Clouds 8 994 87 10000 3.1 200 10:57 21.12.2019
5748 Clouds 8 994 87 10000 3.1 200 10:57 21.12.2019
5749 Clouds 7 994 87 10000 3.1 200 10:38 21.12.2019
5750 Clouds 7 994 93 10000 2.6 200 10:20 21.12.2019
5751 Clouds 7 994 87 10000 2.6 210 09:56 21.12.2019
5752 Clouds 7 994 87 10000 2.6 210 09:37 21.12.2019
5753 Clouds 7 993 93 10000 2.6 240 09:18 21.12.2019
5754 Clouds 7 993 87 10000 4.1 240 08:44 21.12.2019
5755 Clouds 7 993 87 10000 4.1 240 08:25 21.12.2019
5756 Clouds 8 993 93 10000 3.6 240 07:46 21.12.2019
5757 Clouds 8 993 93 10000 3.6 240 07:22 21.12.2019
5758 Rain 8 993 93 10000 3.1 240 06:46 21.12.2019
5759 Rain 8 993 100 10000 3.6 250 06:26 21.12.2019
5760 Rain 8 993 100 10000 4.1 240 05:55 21.12.2019
5761 Rain 8 992 100 10000 4.1 240 04:58 21.12.2019
5762 Rain 8 992 100 10000 4.1 240 04:58 21.12.2019
5763 Rain 8 992 100 10000 3.1 250 03:59 21.12.2019
5764 Rain 8 992 100 10000 3.6 260 03:37 21.12.2019
5765 Rain 7 991 100 10000 1 0 02:19 21.12.2019
5766 Rain 7 991 93 10000 2.1 210 01:41 21.12.2019
5767 Rain 7 991 93 10000 1.5 180 01:22 21.12.2019
5768 Rain 7 991 93 10000 1 0 00:37 21.12.2019
5769 Rain 7 991 93 10000 1.5 150 00:18 21.12.2019
5770 Rain 7 990 87 10000 1 0 23:38 20.12.2019
5771 Clouds 7 990 81 10000 1.5 190 23:19 20.12.2019
5772 Clouds 7 990 81 10000 2.1 170 22:57 20.12.2019
5773 Clouds 7 990 81 10000 2.1 170 22:36 20.12.2019
5774 Clouds 7 990 81 10000 2.6 160 22:18 20.12.2019
5775 Clouds 7 990 87 10000 2.6 160 21:40 20.12.2019
5776 Clouds 7 991 87 10000 2.6 150 21:20 20.12.2019
5777 Clouds 7 991 87 10000 2.6 150 20:57 20.12.2019
5778 Clouds 7 991 87 10000 2.6 150 20:38 20.12.2019
5779 Clouds 7 991 81 10000 3.6 150 20:18 20.12.2019
5780 Clouds 7 991 87 10000 3.1 150 19:42 20.12.2019
5781 Clouds 7 991 87 10000 3.6 150 19:21 20.12.2019
5782 Clouds 8 991 81 10000 4.1 140 18:58 20.12.2019
5783 Clouds 8 991 81 10000 4.1 140 18:39 20.12.2019
5784 Clouds 8 991 81 10000 3.6 140 18:21 20.12.2019
5785 Clouds 8 991 81 10000 3.6 140 18:21 20.12.2019
5786 Clouds 8 991 87 10000 4.6 120 17:57 20.12.2019
5787 Clouds 8 991 87 10000 4.6 120 17:39 20.12.2019
5788 Clouds 8 991 87 10000 4.6 120 17:39 20.12.2019
5789 Clear 8 992 87 10000 4.1 120 17:20 20.12.2019
5790 Clear 8 992 87 10000 4.1 120 16:56 20.12.2019
5791 Clear 8 992 87 10000 3.6 130 16:38 20.12.2019
5792 Clear 8 992 87 10000 3.6 130 16:19 20.12.2019
5793 Clear 9 993 81 10000 4.6 130 15:54 20.12.2019
5794 Clear 9 993 81 10000 4.1 130 15:36 20.12.2019
5795 Clear 10 993 81 10000 4.1 130 15:18 20.12.2019
5796 Clear 10 994 81 10000 4.1 130 14:42 20.12.2019
5797 Clear 10 994 81 10000 4.1 130 14:24 20.12.2019
5798 Clear 10 994 76 10000 3.1 120 13:57 20.12.2019
5799 Clear 10 995 76 10000 2.1 130 13:37 20.12.2019
5800 Clear 10 995 76 10000 2.1 130 13:19 20.12.2019
5801 Clear 10 995 76 10000 2.6 120 12:56 20.12.2019
5802 Clear 9 996 81 10000 3.1 140 12:36 20.12.2019
5803 Clear 9 996 81 10000 3.1 140 12:18 20.12.2019
5804 Clear 9 997 81 10000 3.1 160 11:57 20.12.2019
5805 Clear 8 997 87 10000 3.1 140 11:38 20.12.2019
5806 Clear 8 997 87 10000 3.1 140 11:38 20.12.2019
5807 Clear 7 997 87 10000 3.1 140 11:18 20.12.2019
5808 Clear 6 998 87 10000 2.1 140 10:56 20.12.2019
5809 Clear 6 997 93 10000 4.1 120 10:37 20.12.2019
5810 Clear 5 997 93 10000 4.1 120 10:19 20.12.2019
5811 Clear 4 999 100 10000 3.1 110 09:43 20.12.2019
5812 Clear 4 999 100 10000 3.1 110 09:21 20.12.2019
5813 Clear 4 999 93 10000 1.5 100 08:57 20.12.2019
5814 Clear 3 999 100 10000 1 0 08:38 20.12.2019
5815 Clouds 3 1000 100 10000 2.6 120 08:20 20.12.2019
5816 Clouds 3 999 100 10000 1 0 08:20 20.12.2019
5817 Clouds 3 1000 100 10000 2.6 120 07:57 20.12.2019
5818 Clouds 3 1000 100 10000 3.1 130 07:38 20.12.2019
5819 Clouds 3 1000 100 10000 3.1 130 07:18 20.12.2019
5820 Clouds 4 1001 93 10000 1.5 120 06:46 20.12.2019
5821 Clouds 3 1002 100 10000 1.5 130 06:28 20.12.2019
5822 Fog 3 1003 100 10000 1 140 05:48 20.12.2019
5823 Fog 3 1003 100 10000 1 140 05:20 20.12.2019
5824 Clouds 4 1004 100 8000 1 0 03:50 20.12.2019
5825 Clouds 4 1004 100 10000 2.6 110 03:21 20.12.2019
5826 Clouds 5 1005 93 6000 4.1 140 02:30 20.12.2019
5827 Clouds 5 1006 93 6000 3.1 120 01:36 20.12.2019
5828 Clouds 6 1006 100 6000 3.6 140 00:58 20.12.2019
5829 Clouds 6 1007 100 6000 4.1 140 00:36 20.12.2019
5830 Mist 6 1008 100 5000 4.1 150 23:58 19.12.2019
5831 Mist 6 1008 100 3500 3.6 140 23:40 19.12.2019
5832 Mist 6 1008 100 3500 3.6 140 23:21 19.12.2019
5833 Mist 6 1009 100 3000 4.6 130 22:40 19.12.2019
5834 Mist 6 1009 100 3000 4.6 130 22:22 19.12.2019
5835 Clouds 6 1010 100 6000 3.6 110 21:59 19.12.2019
5836 Clouds 6 1010 93 6000 4.1 110 21:41 19.12.2019
5837 Clouds 6 1010 93 6000 4.1 110 21:20 19.12.2019
5838 Clouds 6 1010 93 8000 3.6 100 20:58 19.12.2019
5839 Clouds 6 1011 93 8000 4.1 110 20:38 19.12.2019
5840 Clouds 6 1011 93 8000 4.1 110 20:20 19.12.2019
5841 Clouds 6 1011 93 8000 4.1 110 20:20 19.12.2019
5842 Clouds 6 1012 93 9000 3.6 120 19:59 19.12.2019
5843 Clouds 6 1012 93 9000 3.6 130 19:40 19.12.2019
5844 Clouds 6 1012 93 9000 3.6 130 19:20 19.12.2019
5845 Clouds 5 1013 93 10000 3.6 130 18:59 19.12.2019
5846 Clouds 6 1013 93 10000 4.1 120 18:40 19.12.2019
5847 Clouds 6 1013 93 10000 4.1 120 18:20 19.12.2019
5848 Clouds 6 1013 87 10000 3.6 110 17:57 19.12.2019
5849 Clouds 6 1013 87 10000 3.1 120 17:38 19.12.2019
5850 Clouds 6 1013 87 10000 3.1 120 17:18 19.12.2019
5851 Clouds 6 1013 93 10000 3.6 110 16:57 19.12.2019
5852 Clouds 6 1014 87 10000 3.1 110 16:38 19.12.2019
5853 Clouds 7 1014 87 10000 3.1 110 16:20 19.12.2019
5854 Clouds 7 1014 87 10000 3.1 110 16:20 19.12.2019
5855 Clouds 7 1014 87 10000 3.1 110 16:20 19.12.2019
5856 Clouds 7 1014 87 10000 2.6 90 15:58 19.12.2019
5857 Clouds 7 1014 87 10000 3.1 100 15:39 19.12.2019
5858 Clouds 7 1014 87 10000 3.1 100 15:19 19.12.2019
5859 Clouds 7 1015 87 10000 3.1 100 14:58 19.12.2019
5860 Clouds 7 1015 87 10000 3.1 110 14:40 19.12.2019
5861 Clouds 8 1015 87 10000 3.1 110 14:18 19.12.2019
5862 Clouds 7 1016 81 10000 3.1 100 13:56 19.12.2019
5863 Clouds 7 1016 87 10000 3.1 120 13:37 19.12.2019
5864 Clear 7 1016 87 10000 3.1 120 13:18 19.12.2019
5865 Clear 7 1017 87 10000 3.1 120 12:54 19.12.2019
5866 Clear 6 1017 93 10000 3.6 120 12:36 19.12.2019
5867 Clear 6 1017 93 10000 3.6 120 12:18 19.12.2019
5868 Clear 6 1018 93 9000 3.6 120 11:56 19.12.2019
5869 Clouds 6 1018 93 6000 4.1 120 11:38 19.12.2019
5870 Clouds 5 1018 93 6000 4.1 120 11:18 19.12.2019
5871 Mist 4 1019 100 3500 3.6 120 10:39 19.12.2019
5872 Mist 4 1019 100 3500 3.6 120 10:20 19.12.2019
5873 Mist 3 1019 100 3500 3.1 130 09:59 19.12.2019
5874 Mist 3 1019 100 3500 2.6 130 09:38 19.12.2019
5875 Mist 3 1019 100 3500 2.6 130 09:20 19.12.2019
5876 Mist 3 1019 100 3500 2.6 130 09:20 19.12.2019
5877 Mist 3 1019 100 4000 2.6 130 08:57 19.12.2019
5878 Mist 3 1019 100 4000 3.1 120 08:39 19.12.2019
5879 Mist 3 1019 100 4000 3.1 120 08:19 19.12.2019
5880 Mist 3 1019 100 3000 3.1 120 07:56 19.12.2019
5881 Mist 3 1019 100 2500 3.6 130 07:37 19.12.2019
5882 Mist 2 1019 100 2500 3.6 130 07:19 19.12.2019
5883 Fog 2 1019 100 600 3.1 130 06:46 19.12.2019
5884 Fog 2 1019 100 600 3.1 130 06:27 19.12.2019
5885 Fog 2 1020 100 500 2.6 120 05:52 19.12.2019
5886 Fog 2 1020 100 550 3.6 110 05:32 19.12.2019
5887 Fog 2 1020 100 800 3.1 130 04:43 19.12.2019
5888 Fog 1 1021 100 10000 1.5 80 02:49 19.12.2019
5889 Fog 1 1021 100 10000 1 70 01:47 19.12.2019
5890 Fog 1 1021 100 10000 1 70 01:22 19.12.2019
5891 Fog 1 1021 100 10000 1.5 90 00:40 19.12.2019
5892 Fog 2 1021 100 10000 1.5 90 00:21 19.12.2019
5893 Clouds 2 1021 100 10000 0.5 0 23:56 18.12.2019
5894 Clouds 2 1021 93 10000 1 0 23:38 18.12.2019
5895 Clear 2 1021 93 10000 1 0 23:18 18.12.2019
5896 Clear 2 1021 93 10000 1 0 22:55 18.12.2019
5897 Clear 2 1021 93 10000 0.5 0 22:36 18.12.2019
5898 Clear 2 1021 93 10000 0.5 0 22:18 18.12.2019
5899 Clear 2 1021 93 10000 0.5 0 21:55 18.12.2019
5900 Clouds 2 1021 93 10000 0.5 0 21:37 18.12.2019
5901 Clouds 2 1021 93 10000 0.5 0 21:18 18.12.2019
5902 Clouds 3 1021 87 10000 1.5 200 20:54 18.12.2019
5903 Clouds 3 1021 87 10000 1.5 190 20:36 18.12.2019
5904 Clouds 3 1021 87 10000 1.5 190 20:18 18.12.2019
5905 Clouds 4 1021 87 10000 1 0 19:54 18.12.2019
5906 Clouds 4 1020 87 10000 1 0 19:36 18.12.2019
5907 Clouds 4 1020 87 10000 0.5 0 19:18 18.12.2019
5908 Clouds 4 1020 87 10000 0.5 0 19:18 18.12.2019
5909 Clouds 4 1020 81 10000 1 0 18:43 18.12.2019
5910 Clouds 5 1020 81 10000 1 0 18:25 18.12.2019
5911 Clouds 5 1020 81 10000 1 0 18:25 18.12.2019
5912 Clouds 5 1020 87 10000 1 0 17:57 18.12.2019
5913 Clouds 5 1019 81 10000 2.1 210 17:38 18.12.2019
5914 Clouds 6 1019 81 10000 2.1 210 17:19 18.12.2019
5915 Clouds 6 1019 81 10000 1 260 16:55 18.12.2019
5916 Clouds 7 1019 81 10000 1 260 16:37 18.12.2019
5917 Clouds 7 1019 81 10000 3.1 250 16:18 18.12.2019
5918 Clouds 8 1018 70 10000 4.1 240 15:55 18.12.2019
5919 Clouds 8 1018 70 10000 4.1 240 15:37 18.12.2019
5920 Clouds 9 1018 70 10000 3.6 250 15:18 18.12.2019
5921 Clouds 9 1018 71 10000 4.1 260 14:42 18.12.2019
5922 Clouds 9 1018 71 10000 4.1 260 14:42 18.12.2019
5923 Clouds 10 1017 71 10000 3.6 250 14:22 18.12.2019
5924 Clouds 9 1017 76 10000 4.1 250 13:57 18.12.2019
5925 Clouds 9 1017 76 10000 4.1 250 13:39 18.12.2019
5926 Clouds 9 1017 76 10000 4.1 250 13:20 18.12.2019
5927 Clouds 9 1017 70 10000 4.1 260 12:59 18.12.2019
5928 Clouds 9 1017 70 10000 4.1 260 12:38 18.12.2019
5929 Clouds 9 1016 70 10000 3.6 250 12:20 18.12.2019
5930 Clouds 9 1016 70 10000 3.6 270 11:56 18.12.2019
5931 Clouds 9 1016 70 10000 3.6 270 11:38 18.12.2019
5932 Clouds 9 1016 70 10000 3.6 270 11:38 18.12.2019
5933 Clouds 9 1016 70 10000 4.1 290 11:19 18.12.2019
5934 Clouds 9 1015 76 10000 4.1 300 10:57 18.12.2019
5935 Clouds 9 1015 76 10000 4.1 300 10:39 18.12.2019
5936 Clouds 10 1015 70 10000 4.1 300 10:20 18.12.2019
5937 Clouds 10 1014 71 10000 4.1 300 09:52 18.12.2019
5938 Clouds 10 1013 76 10000 5.7 270 09:19 18.12.2019
5939 Clouds 10 1013 76 10000 6.2 280 08:42 18.12.2019
5940 Clouds 11 1012 71 10000 6.7 280 08:24 18.12.2019
5941 Clouds 10 1013 76 10000 6.2 280 08:24 18.12.2019
5942 Clouds 11 1011 71 10000 7.7 270 07:56 18.12.2019
5943 Clouds 11 1011 71 10000 7.7 270 07:38 18.12.2019
5944 Clouds 11 1010 71 10000 7.7 280 07:19 18.12.2019
5945 Clouds 10 1009 71 10000 4.6 270 06:50 18.12.2019
5946 Clouds 10 1008 66 10000 5.1 230 06:22 18.12.2019
5947 Clouds 9 1008 71 10000 3.6 250 05:30 18.12.2019
5948 Rain 10 1007 62 10000 5.1 210 03:46 18.12.2019
5949 Rain 10 1006 66 10000 4.6 240 02:44 18.12.2019
5950 Rain 10 1007 76 10000 5.1 190 02:26 18.12.2019
5951 Clouds 10 1005 66 10000 4.1 180 01:43 18.12.2019
5952 Clouds 10 1005 62 10000 4.6 170 01:25 18.12.2019
5953 Clouds 10 1005 62 10000 4.1 170 00:42 18.12.2019
5954 Rain 10 1006 62 10000 5.1 170 00:24 18.12.2019
5955 Clouds 10 1006 71 10000 3.1 180 23:58 17.12.2019
5956 Clouds 10 1006 71 10000 3.1 180 23:40 17.12.2019
5957 Clouds 10 1006 71 10000 3.1 170 23:21 17.12.2019
5958 Clouds 10 1006 71 10000 2.6 170 22:57 17.12.2019
5959 Clouds 10 1006 71 10000 2.6 170 22:39 17.12.2019
5960 Clouds 10 1007 71 10000 2.6 170 22:20 17.12.2019
5961 Clouds 10 1007 71 10000 2.1 160 21:57 17.12.2019
5962 Clouds 10 1007 71 10000 3.1 190 21:39 17.12.2019
5963 Clouds 10 1007 71 10000 3.6 190 21:20 17.12.2019
5964 Clouds 10 1007 71 10000 3.6 190 20:59 17.12.2019
5965 Clouds 10 1007 71 10000 3.6 190 20:40 17.12.2019
5966 Clouds 10 1006 71 10000 3.6 180 20:19 17.12.2019
5967 Clouds 10 1006 71 10000 3.6 180 19:59 17.12.2019
5968 Clouds 10 1006 71 10000 3.6 180 19:41 17.12.2019
5969 Clouds 10 1006 71 10000 2.6 180 19:20 17.12.2019
5970 Clouds 10 1006 66 10000 3.1 190 18:58 17.12.2019
5971 Clouds 10 1006 66 10000 3.1 190 18:39 17.12.2019
5972 Clouds 10 1006 66 10000 3.1 190 18:21 17.12.2019
5973 Clouds 10 1006 66 10000 4.1 190 17:56 17.12.2019
5974 Clouds 10 1006 66 10000 4.1 190 17:38 17.12.2019
5975 Clouds 10 1006 66 10000 4.6 190 17:18 17.12.2019
5976 Clouds 10 1006 66 10000 3.1 180 16:56 17.12.2019
5977 Clouds 10 1006 66 10000 3.1 180 16:37 17.12.2019
5978 Clouds 10 1006 66 10000 3.1 180 16:37 17.12.2019
5979 Clouds 10 1006 66 10000 3.6 200 16:18 17.12.2019
5980 Clouds 10 1005 66 10000 3.1 200 15:54 17.12.2019
5981 Clouds 11 1005 66 10000 3.1 200 15:36 17.12.2019
5982 Clouds 11 1005 66 10000 3.1 190 15:18 17.12.2019
5983 Clouds 11 1005 62 0 4.6 180 14:54 17.12.2019
5984 Clouds 11 1005 62 0 4.6 180 14:36 17.12.2019
5985 Clouds 11 1005 66 10000 4.1 180 14:18 17.12.2019
5986 Clouds 11 1005 62 10000 4.1 190 13:55 17.12.2019
5987 Clouds 11 1005 62 10000 4.1 190 13:37 17.12.2019
5988 Clouds 10 1005 66 10000 4.1 180 13:18 17.12.2019
5989 Clouds 10 1005 66 10000 3.6 200 12:41 17.12.2019
5990 Clouds 10 1005 71 10000 4.6 190 12:19 17.12.2019
5991 Clouds 10 1005 71 10000 4.6 190 12:19 17.12.2019
5992 Clouds 10 1005 71 10000 4.6 190 12:19 17.12.2019
5993 Clouds 9 1005 71 10000 4.6 190 11:59 17.12.2019
5994 Clouds 9 1005 76 10000 5.1 180 11:37 17.12.2019
5995 Clouds 9 1005 76 10000 5.1 180 11:19 17.12.2019
5996 Clouds 9 1005 76 10000 5.1 180 11:19 17.12.2019
5997 Clouds 8 1005 70 10000 4.1 180 10:59 17.12.2019
5998 Clouds 8 1005 70 10000 4.1 180 10:41 17.12.2019
5999 Clouds 8 1005 70 10000 4.1 180 10:41 17.12.2019
6000 Clouds 7 1005 75 10000 3.1 180 10:22 17.12.2019
6001 Clouds 7 1005 75 10000 3.1 180 09:59 17.12.2019
6002 Clouds 7 1005 81 10000 4.1 170 09:41 17.12.2019
6003 Clouds 6 1005 81 10000 4.1 160 09:20 17.12.2019
6004 Rain 6 1005 81 10000 3.1 160 08:56 17.12.2019
6005 Rain 6 1005 81 10000 3.1 160 08:38 17.12.2019
6006 Rain 6 1004 81 10000 3.6 160 08:19 17.12.2019
6007 Rain 6 1004 87 10000 3.1 160 07:54 17.12.2019
6008 Rain 5 1004 87 10000 3.1 160 07:36 17.12.2019
6009 Clouds 5 1004 87 10000 5.7 150 07:18 17.12.2019
6010 Clouds 5 1005 86 10000 3.6 150 06:35 17.12.2019
6011 Clouds 4 1005 86 10000 3.1 130 05:54 17.12.2019
6012 Clouds 4 1005 93 10000 2.1 140 05:36 17.12.2019
6013 Clouds 4 1005 93 10000 2.6 130 04:33 17.12.2019
6014 Clouds 5 1006 93 10000 1.5 140 02:45 17.12.2019
6015 Clouds 5 1006 93 10000 1.5 80 01:56 17.12.2019
6016 Clouds 5 1007 93 10000 1.5 130 01:20 17.12.2019
6017 Clouds 5 1006 93 10000 1 0 00:38 17.12.2019
6018 Clouds 5 1007 93 10000 2.1 160 00:20 17.12.2019
6019 Clouds 5 1007 93 10000 1.5 140 23:42 16.12.2019
6020 Clouds 5 1007 93 10000 1.5 140 23:42 16.12.2019
6021 Clouds 5 1007 93 10000 1.5 130 23:19 16.12.2019
6022 Clouds 5 1007 93 10000 1.5 140 22:58 16.12.2019
6023 Clouds 6 1007 93 10000 1.5 140 22:38 16.12.2019
6024 Clouds 6 1007 87 10000 2.6 150 22:20 16.12.2019
6025 Clouds 6 1007 87 10000 2.6 150 22:20 16.12.2019
6026 Clouds 6 1007 87 10000 1.5 110 21:56 16.12.2019
6027 Clouds 6 1007 87 10000 1.5 110 21:38 16.12.2019
6028 Clouds 6 1007 87 10000 1.5 110 21:38 16.12.2019
6029 Clouds 6 1007 93 10000 1.5 150 21:20 16.12.2019
6030 Clouds 6 1007 93 10000 1.5 150 20:58 16.12.2019
6031 Clouds 7 1007 87 10000 1.5 170 20:38 16.12.2019
6032 Clouds 7 1007 87 10000 1 0 20:19 16.12.2019
6033 Clouds 7 1007 87 10000 1.5 160 19:56 16.12.2019
6034 Clouds 7 1007 87 10000 1.5 160 19:37 16.12.2019
6035 Clouds 7 1007 93 10000 1 0 19:19 16.12.2019
6036 Rain 7 1007 87 10000 2.1 190 18:58 16.12.2019
6037 Clouds 7 1007 93 10000 1 0 18:58 16.12.2019
6038 Rain 7 1007 87 10000 2.1 190 18:40 16.12.2019
6039 Rain 8 1007 87 10000 2.6 190 18:20 16.12.2019
6040 Rain 8 1008 87 10000 3.6 200 17:57 16.12.2019
6041 Rain 8 1008 87 10000 3.6 200 17:57 16.12.2019
6042 Rain 7 1008 87 10000 3.6 200 17:39 16.12.2019
6043 Rain 7 1007 87 10000 3.1 180 17:21 16.12.2019
6044 Rain 8 1008 87 10000 2.1 170 16:57 16.12.2019
6045 Rain 7 1008 87 10000 2.1 170 16:38 16.12.2019
6046 Rain 8 1008 87 10000 2.1 150 16:19 16.12.2019
6047 Rain 8 1008 87 10000 3.1 150 15:58 16.12.2019
6048 Rain 8 1008 87 10000 3.1 150 15:38 16.12.2019
6049 Clouds 8 1008 81 10000 3.1 160 15:20 16.12.2019
6050 Clouds 8 1008 81 10000 3.1 160 14:57 16.12.2019
6051 Clouds 8 1008 81 10000 2.6 140 14:37 16.12.2019
6052 Clouds 8 1008 81 10000 2.6 140 14:37 16.12.2019
6053 Clouds 8 1008 81 10000 3.1 160 14:19 16.12.2019
6054 Clouds 8 1008 81 10000 3.1 160 14:19 16.12.2019
6055 Clouds 8 1008 81 10000 3.1 160 14:19 16.12.2019
6056 Clouds 8 1008 81 10000 3.1 160 14:19 16.12.2019
6057 Clouds 8 1008 81 10000 3.1 160 13:56 16.12.2019
6058 Clouds 8 1008 81 10000 3.1 160 13:37 16.12.2019
6059 Clouds 7 1008 81 10000 3.6 170 13:19 16.12.2019
6060 Clouds 7 1009 81 10000 3.1 170 12:58 16.12.2019
6061 Clouds 7 1009 81 10000 3.1 170 12:39 16.12.2019
6062 Clouds 7 1009 81 10000 3.6 170 12:19 16.12.2019
6063 Clouds 7 1009 81 10000 3.6 170 11:58 16.12.2019
6064 Clouds 7 1009 81 10000 3.6 170 11:40 16.12.2019
6065 Clouds 7 1010 87 10000 4.6 180 11:20 16.12.2019
6066 Clouds 6 1010 81 10000 4.6 180 10:57 16.12.2019
6067 Clouds 6 1010 81 10000 4.6 180 10:39 16.12.2019
6068 Clouds 6 1010 81 10000 3.6 160 10:19 16.12.2019
6069 Clouds 5 1010 87 10000 3.1 150 09:45 16.12.2019
6070 Clouds 5 1010 87 10000 3.1 150 09:27 16.12.2019
6071 Clouds 5 1010 86 10000 2.6 150 09:27 16.12.2019
6072 Clouds 4 1009 81 10000 2.6 150 08:56 16.12.2019
6073 Clouds 4 1009 81 10000 2.6 150 08:37 16.12.2019
6074 Clouds 4 1009 80 10000 3.1 150 08:18 16.12.2019
6075 Clouds 4 1010 80 10000 3.1 180 07:44 16.12.2019
6076 Clouds 4 1010 80 10000 3.1 190 07:22 16.12.2019
6077 Clouds 4 1010 80 10000 3.1 180 06:45 16.12.2019
6078 Clouds 4 1010 86 10000 1.5 200 06:25 16.12.2019
6079 Clouds 4 1010 80 10000 2.6 190 05:50 16.12.2019
6080 Clouds 4 1010 80 10000 3.1 190 05:31 16.12.2019
6081 Clouds 4 1010 86 10000 2.1 160 04:22 16.12.2019
6082 Clouds 5 1009 75 10000 3.1 210 02:31 16.12.2019
6083 Clouds 5 1009 75 10000 3.1 210 01:45 16.12.2019
6084 Clouds 5 1009 75 10000 3.1 210 01:45 16.12.2019
6085 Clouds 5 1008 75 10000 4.1 220 00:43 16.12.2019
6086 Clouds 5 1008 75 10000 4.6 230 00:25 16.12.2019
6087 Clouds 6 1007 75 10000 5.7 220 23:59 15.12.2019
6088 Clouds 6 1007 75 10000 5.7 220 23:40 15.12.2019
6089 Clouds 6 1007 75 10000 6.2 220 23:21 15.12.2019
6090 Clouds 6 1007 65 10000 6.7 220 22:56 15.12.2019
6091 Clouds 6 1007 65 10000 6.7 220 22:38 15.12.2019
6092 Clouds 6 1006 65 10000 7.2 220 22:18 15.12.2019
6093 Clouds 6 1006 65 10000 6.7 220 21:57 15.12.2019
6094 Clouds 6 1006 65 10000 6.7 220 21:38 15.12.2019
6095 Clouds 6 1005 70 10000 6.7 220 21:19 15.12.2019
6096 Clouds 6 1005 70 10000 6.7 220 20:57 15.12.2019
6097 Clouds 6 1004 70 10000 7.2 220 20:38 15.12.2019
6098 Clouds 6 1004 70 10000 7.2 220 20:38 15.12.2019
6099 Clouds 6 1004 65 10000 6.2 210 20:19 15.12.2019
6100 Clouds 6 1004 67 10000 7.7 220 19:58 15.12.2019
6101 Clouds 6 1004 67 10000 7.7 220 19:39 15.12.2019
6102 Clouds 7 1003 62 10000 8.2 220 19:19 15.12.2019
6103 Clouds 7 1003 67 10000 8.2 220 18:57 15.12.2019
6104 Clouds 7 1003 67 10000 8.2 230 18:38 15.12.2019
6105 Clouds 7 1003 61 10000 8.2 230 18:18 15.12.2019
6106 Clouds 7 1002 70 10000 7.7 220 17:56 15.12.2019
6107 Clouds 7 1002 70 10000 7.7 220 17:56 15.12.2019
6108 Clouds 7 1002 70 10000 7.7 220 17:37 15.12.2019
6109 Clouds 7 1002 70 10000 7.7 230 17:19 15.12.2019
6110 Clouds 7 1001 65 10000 7.2 230 16:57 15.12.2019
6111 Clouds 7 1001 65 10000 7.2 230 16:39 15.12.2019
6112 Clouds 8 1000 70 10000 6.2 230 16:20 15.12.2019
6113 Clouds 8 1000 70 10000 6.7 230 15:55 15.12.2019
6114 Clouds 8 1000 70 10000 6.7 230 15:37 15.12.2019
6115 Clouds 9 999 66 10000 7.7 240 15:18 15.12.2019
6116 Clouds 9 999 66 10000 8.7 240 14:55 15.12.2019
6117 Clouds 9 999 66 10000 8.7 240 14:36 15.12.2019
6118 Clouds 9 998 66 10000 7.2 230 14:18 15.12.2019
6119 Clouds 9 998 66 10000 7.2 230 13:56 15.12.2019
6120 Clouds 9 998 71 10000 7.7 240 13:37 15.12.2019
6121 Clouds 9 997 76 10000 5.7 230 13:19 15.12.2019
6122 Clouds 9 997 87 10000 6.7 210 12:56 15.12.2019
6123 Clouds 9 997 87 10000 6.7 210 12:38 15.12.2019
6124 Clouds 8 996 87 10000 5.7 210 12:20 15.12.2019
6125 Rain 8 996 93 0 8.2 200 11:55 15.12.2019
6126 Rain 7 996 93 10000 5.7 200 11:36 15.12.2019
6127 Rain 7 996 93 10000 5.7 200 11:18 15.12.2019
6128 Drizzle 6 996 93 9000 6.2 180 10:54 15.12.2019
6129 Drizzle 6 996 93 9000 6.2 180 10:36 15.12.2019
6130 Rain 5 996 93 10000 6.2 180 10:18 15.12.2019
6131 Clouds 4 996 86 10000 4.6 150 09:39 15.12.2019
6132 Rain 4 996 93 10000 5.7 150 09:20 15.12.2019
6133 Rain 4 996 93 10000 5.7 150 09:20 15.12.2019
6134 Rain 4 997 86 10000 5.1 150 08:57 15.12.2019
6135 Rain 4 997 86 10000 5.1 150 08:39 15.12.2019
6136 Rain 4 998 80 10000 5.7 170 08:20 15.12.2019
6137 Clouds 3 998 80 10000 4.6 160 07:55 15.12.2019
6138 Clouds 3 998 80 10000 4.6 160 07:34 15.12.2019
6139 Clouds 3 998 76 10000 4.1 170 06:44 15.12.2019
6140 Clouds 3 999 76 10000 4.1 170 06:19 15.12.2019
6141 Clouds 2 999 76 10000 4.1 190 05:26 15.12.2019
6142 Clouds 2 1000 75 10000 4.1 200 04:47 15.12.2019
6143 Clouds 3 1000 75 10000 3.6 210 03:29 15.12.2019
6144 Clouds 4 1000 80 10000 5.1 240 02:34 15.12.2019
6145 Clouds 4 999 80 10000 7.2 250 01:47 15.12.2019
6146 Clouds 4 999 80 10000 7.2 250 01:28 15.12.2019
6147 Clouds 4 998 86 10000 7.7 260 00:57 15.12.2019
6148 Clouds 4 998 86 10000 7.7 260 00:38 15.12.2019
6149 Rain 5 997 86 10000 9.8 290 00:20 15.12.2019
6150 Rain 5 995 86 10000 9.3 230 23:40 14.12.2019
6151 Rain 5 994 86 10000 7.7 210 23:21 14.12.2019
6152 Clouds 5 994 86 10000 6.2 200 22:58 14.12.2019
6153 Clouds 5 994 86 10000 6.2 200 22:40 14.12.2019
6154 Clouds 5 994 86 10000 5.7 210 22:21 14.12.2019
6155 Rain 5 994 80 10000 7.7 230 21:56 14.12.2019
6156 Rain 5 994 80 10000 7.7 230 21:56 14.12.2019
6157 Rain 5 994 80 10000 7.7 230 21:37 14.12.2019
6158 Rain 5 994 80 10000 7.7 220 21:19 14.12.2019
6159 Rain 5 994 80 10000 7.7 220 21:19 14.12.2019
6160 Rain 5 994 80 10000 7.7 220 20:56 14.12.2019
6161 Clouds 5 994 80 10000 5.7 210 20:38 14.12.2019
6162 Clouds 4 994 86 10000 5.7 210 20:19 14.12.2019
6163 Rain 4 993 80 10000 4.6 210 19:56 14.12.2019
6164 Rain 4 993 80 10000 4.6 210 19:37 14.12.2019
6165 Clouds 4 993 80 10000 5.1 220 19:18 14.12.2019
6166 Clouds 4 993 93 10000 4.6 230 18:56 14.12.2019
6167 Clouds 4 993 93 10000 4.6 230 18:36 14.12.2019
6168 Rain 4 992 93 10000 6.2 240 18:18 14.12.2019
6169 Rain 4 992 86 10000 6.7 240 17:43 14.12.2019
6170 Rain 4 992 80 10000 8.2 250 17:23 14.12.2019
6171 Rain 5 991 86 10000 5.1 230 16:58 14.12.2019
6172 Rain 4 991 86 10000 5.1 230 16:38 14.12.2019
6173 Clouds 4 990 86 10000 5.7 230 16:18 14.12.2019
6174 Clouds 4 990 93 10000 5.1 250 15:43 14.12.2019
6175 Clouds 4 989 93 10000 5.1 240 15:21 14.12.2019
6176 Clouds 4 988 93 10000 4.1 230 14:58 14.12.2019
6177 Rain 3 988 93 10000 4.1 230 14:38 14.12.2019
6178 Rain 3 988 93 10000 5.1 240 14:19 14.12.2019
6179 Rain 3 987 93 10000 5.1 220 13:55 14.12.2019
6180 Rain 3 987 93 10000 5.1 220 13:37 14.12.2019
6181 Rain 3 987 93 10000 5.1 240 13:18 14.12.2019
6182 Rain 4 986 93 9000 4.6 210 12:54 14.12.2019
6183 Rain 4 986 93 9000 4.6 210 12:36 14.12.2019
6184 Rain 4 985 93 9000 5.7 210 12:18 14.12.2019
6185 Rain 4 985 86 10000 5.1 200 11:54 14.12.2019
6186 Rain 4 985 86 10000 5.1 200 11:36 14.12.2019
6187 Rain 5 985 86 10000 5.1 200 11:18 14.12.2019
6188 Rain 5 985 80 10000 4.1 180 10:55 14.12.2019
6189 Clouds 5 985 80 10000 4.1 180 10:36 14.12.2019
6190 Clouds 4 985 86 10000 4.6 190 10:18 14.12.2019
6191 Clouds 4 985 86 10000 5.1 190 09:40 14.12.2019
6192 Clouds 4 985 93 10000 5.7 190 09:20 14.12.2019
6193 Clouds 4 985 93 10000 4.6 200 08:44 14.12.2019
6194 Rain 4 985 93 10000 4.1 190 08:20 14.12.2019
6195 Clouds 4 985 100 10000 4.6 190 07:57 14.12.2019
6196 Clouds 3 985 100 10000 4.6 190 07:38 14.12.2019
6197 Clouds 3 985 93 10000 4.1 200 07:19 14.12.2019
6198 Clouds 3 985 93 10000 4.1 200 07:19 14.12.2019
6199 Clouds 3 985 93 10000 3.1 200 06:41 14.12.2019
6200 Drizzle 3 985 93 7000 2.6 200 06:22 14.12.2019
6201 Drizzle 3 985 93 10000 4.1 220 05:22 14.12.2019
6202 Rain 2 984 93 10000 3.1 210 02:49 14.12.2019
6203 Clouds 2 984 93 10000 2.6 200 02:22 14.12.2019
6204 Clouds 2 984 89 10000 2.6 200 01:43 14.12.2019
6205 Clouds 2 984 89 0 2.1 170 00:55 14.12.2019
6206 Clouds 2 984 89 0 2.1 170 00:37 14.12.2019
6207 Clouds 2 984 89 10000 2.6 150 00:18 14.12.2019
6208 Clouds 2 983 89 10000 3.1 140 23:41 13.12.2019
6209 Clouds 2 983 87 10000 2.6 140 23:19 13.12.2019
6210 Clouds 2 983 87 10000 2.6 140 23:19 13.12.2019
6211 Clouds 2 983 87 10000 2.6 130 22:56 13.12.2019
6212 Clouds 2 983 87 10000 2.6 130 22:37 13.12.2019
6213 Clouds 2 983 87 10000 2.6 130 22:37 13.12.2019
6214 Clouds 2 983 87 10000 2.1 140 22:18 13.12.2019
6215 Clouds 2 983 87 10000 2.6 140 21:42 13.12.2019
6216 Clouds 2 983 87 10000 3.6 140 21:21 13.12.2019
6217 Clouds 2 983 87 10000 4.1 150 20:59 13.12.2019
6218 Clouds 2 983 87 10000 4.1 150 20:39 13.12.2019
6219 Clouds 2 983 83 10000 4.1 140 20:20 13.12.2019
6220 Clouds 2 983 83 10000 4.1 140 19:56 13.12.2019
6221 Clouds 2 983 83 10000 5.1 140 19:38 13.12.2019
6222 Clouds 2 982 83 10000 4.1 150 19:19 13.12.2019
6223 Clouds 2 982 83 10000 4.1 150 18:55 13.12.2019
6224 Clouds 2 982 83 10000 3.1 130 18:36 13.12.2019
6225 Clouds 2 982 83 10000 3.1 130 18:18 13.12.2019
6226 Clouds 2 982 80 10000 4.1 110 17:40 13.12.2019
6227 Clouds 2 982 80 10000 4.1 110 17:40 13.12.2019
6228 Clouds 2 982 80 10000 4.1 110 17:19 13.12.2019
6229 Clouds 2 983 86 10000 4.1 110 16:58 13.12.2019
6230 Clouds 2 982 86 10000 4.1 110 16:39 13.12.2019
6231 Clouds 1 982 86 10000 4.1 110 16:20 13.12.2019
6232 Clouds 2 982 80 10000 3.6 100 15:43 13.12.2019
6233 Clouds 2 982 80 10000 4.1 90 15:22 13.12.2019
6234 Clouds 2 982 74 10000 5.1 120 14:58 13.12.2019
6235 Clouds 2 982 74 10000 4.6 140 14:39 13.12.2019
6236 Clouds 2 982 74 10000 4.6 140 14:20 13.12.2019
6237 Clouds 3 982 74 10000 5.1 120 13:56 13.12.2019
6238 Clouds 2 982 80 10000 6.7 120 13:37 13.12.2019
6239 Clouds 2 982 80 10000 6.7 120 13:37 13.12.2019
6240 Clouds 3 983 74 10000 5.1 130 13:18 13.12.2019
6241 Clouds 2 983 80 10000 5.7 130 12:42 13.12.2019
6242 Clouds 2 983 80 10000 5.7 130 12:20 13.12.2019
6243 Clouds 2 984 80 10000 6.2 130 11:57 13.12.2019
6244 Clear 2 984 80 10000 6.2 120 11:39 13.12.2019
6245 Clear 2 984 80 10000 6.2 120 11:19 13.12.2019
6246 Clear 1 985 86 10000 5.7 110 10:41 13.12.2019
6247 Clear 1 985 86 10000 5.7 110 10:22 13.12.2019
6248 Clear 0 985 86 10000 5.1 110 09:54 13.12.2019
6249 Clouds 0 986 76 10000 5.7 110 09:36 13.12.2019
6250 Clouds 0 986 76 10000 6.2 120 09:18 13.12.2019
6251 Clear 0 987 75 10000 5.1 120 08:41 13.12.2019
6252 -273 0 0 0 0 0 08:23 13.12.2019
6253 Clouds 0 988 86 10000 5.7 120 07:44 13.12.2019
6254 Clouds 0 988 86 10000 5.7 120 07:21 13.12.2019
6255 Clouds 0 988 84 10000 4.1 120 06:51 13.12.2019
6256 Clouds 0 989 84 10000 4.1 130 06:28 13.12.2019
6257 Clouds 0 989 84 10000 5.1 120 05:45 13.12.2019
6258 Clouds 0 990 91 10000 4.1 120 05:24 13.12.2019
6259 Clouds 0 991 91 10000 3.6 130 04:35 13.12.2019
6260 Clouds 0 993 86 10000 4.1 150 03:39 13.12.2019
6261 Clouds 0 994 91 10000 4.6 150 02:34 13.12.2019
6262 Clouds 1 995 86 10000 4.1 150 01:44 13.12.2019
6263 Clouds 1 995 82 10000 4.6 150 00:56 13.12.2019
6264 Clouds 1 996 82 10000 4.6 150 00:37 13.12.2019
6265 Clouds 1 997 93 10000 4.6 140 23:59 12.12.2019
6266 Clouds 1 997 93 10000 4.6 140 23:59 12.12.2019
6267 Clouds 1 997 93 10000 4.1 150 23:39 12.12.2019
6268 Clouds 1 997 93 10000 4.1 150 23:21 12.12.2019
6269 Clouds 2 998 93 10000 4.1 150 22:56 12.12.2019
6270 Clouds 2 998 93 10000 3.6 150 22:37 12.12.2019
6271 Clouds 2 998 93 10000 3.6 150 22:18 12.12.2019
6272 Clouds 2 999 93 10000 4.1 150 21:55 12.12.2019
6273 Clouds 2 999 93 10000 3.1 150 21:36 12.12.2019
6274 Clouds 2 999 93 10000 3.1 150 21:36 12.12.2019
6275 Clouds 2 999 86 10000 2.6 160 21:18 12.12.2019
6276 Clouds 2 999 86 10000 2.6 160 20:55 12.12.2019
6277 Clouds 2 1000 86 10000 3.6 170 20:37 12.12.2019
6278 Clouds 2 1000 86 10000 3.6 170 20:19 12.12.2019
6279 Clouds 2 1000 86 10000 3.1 190 19:42 12.12.2019
6280 Clouds 2 1000 86 10000 3.1 190 19:23 12.12.2019
6281 Clouds 3 1000 93 10000 3.1 180 18:58 12.12.2019
6282 Clouds 3 1001 93 10000 4.1 170 18:40 12.12.2019
6283 Clouds 3 1001 93 10000 4.1 170 18:40 12.12.2019
6284 Clouds 3 1001 93 10000 4.1 170 18:21 12.12.2019
6285 Clouds 3 1001 86 10000 3.6 170 17:59 12.12.2019
6286 Clouds 3 1001 86 10000 4.1 180 17:40 12.12.2019
6287 Clouds 3 1001 86 10000 4.1 180 17:21 12.12.2019
6288 Clouds 3 1001 86 10000 4.1 170 16:59 12.12.2019
6289 Clouds 4 1001 86 10000 4.1 190 16:41 12.12.2019
6290 Clouds 4 1001 86 10000 4.1 190 16:21 12.12.2019
6291 Clouds 4 1001 86 10000 4.1 190 15:58 12.12.2019
6292 Clouds 4 1001 86 10000 2.6 200 15:40 12.12.2019
6293 Clouds 4 1001 86 10000 2.6 200 15:19 12.12.2019
6294 Clouds 4 1001 86 10000 3.6 190 14:57 12.12.2019
6295 Clouds 4 1002 93 10000 3.1 200 14:36 12.12.2019
6296 Clouds 4 1002 93 10000 3.1 200 14:18 12.12.2019
6297 Clouds 4 1002 93 10000 3.1 210 13:54 12.12.2019
6298 Clouds 4 1002 93 10000 3.6 220 13:36 12.12.2019
6299 Clouds 4 1002 93 10000 3.6 220 13:18 12.12.2019
6300 Clouds 4 1002 93 10000 3.6 220 13:18 12.12.2019
6301 Clouds 4 1003 93 10000 4.1 210 12:42 12.12.2019
6302 Clouds 4 1003 93 10000 4.1 210 12:22 12.12.2019
6303 Clouds 3 1003 93 9000 3.6 200 11:59 12.12.2019
6304 Clouds 3 1003 93 8000 3.6 200 11:40 12.12.2019
6305 Clouds 3 1003 93 8000 3.6 200 11:21 12.12.2019
6306 Clouds 3 1003 93 8000 3.1 220 10:59 12.12.2019
6307 Clouds 3 1003 93 8000 2.6 220 10:40 12.12.2019
6308 Clouds 3 1003 93 8000 2.6 220 10:22 12.12.2019
6309 Clouds 2 1003 93 7000 2.6 210 09:56 12.12.2019
6310 Mist 2 1003 100 5000 3.1 220 09:38 12.12.2019
6311 Mist 2 1003 100 5000 3.1 220 09:20 12.12.2019
6312 Mist 2 1002 100 5000 3.6 240 08:48 12.12.2019
6313 Drizzle 2 1002 100 7000 3.6 230 08:29 12.12.2019
6314 Drizzle 2 1002 93 6000 4.1 240 07:59 12.12.2019
6315 Drizzle 2 1002 93 10000 3.6 240 07:39 12.12.2019
6316 Drizzle 2 1002 93 10000 3.6 240 07:20 12.12.2019
6317 Snow 1 1002 100 9000 3.6 220 06:42 12.12.2019
6318 Snow 1 1002 100 9000 3.6 220 06:23 12.12.2019
6319 Rain 1 1002 100 8000 3.1 210 05:34 12.12.2019
6320 Snow 1 1002 100 7000 2.6 200 04:49 12.12.2019
6321 Snow 2 1003 93 10000 3.1 190 02:44 12.12.2019
6322 Snow 2 1003 93 10000 3.1 190 02:26 12.12.2019
6323 Snow 2 1003 78 10000 2.6 200 01:59 12.12.2019
6324 Rain 2 1004 74 10000 3.1 190 01:36 12.12.2019
6325 Clouds 2 1004 69 10000 3.1 180 01:18 12.12.2019
6326 Clouds 2 1004 69 10000 2.1 170 00:40 12.12.2019
6327 Clouds 2 1004 69 10000 2.1 170 00:18 12.12.2019
6328 Clouds 2 1005 60 10000 3.6 180 23:42 11.12.2019
6329 Clouds 3 1005 60 10000 3.6 180 23:20 11.12.2019
6330 Clouds 3 1005 60 10000 3.6 190 22:57 11.12.2019
6331 Clouds 3 1005 60 10000 3.6 180 22:38 11.12.2019
6332 Clouds 3 1005 60 10000 3.6 180 22:19 11.12.2019
6333 Clouds 3 1005 60 10000 3.1 170 21:57 11.12.2019
6334 Clouds 3 1006 64 10000 2.6 160 21:37 11.12.2019
6335 Clouds 3 1006 64 10000 2.6 160 21:19 11.12.2019
6336 Clouds 3 1006 64 10000 3.1 150 20:56 11.12.2019
6337 Clouds 3 1006 64 10000 3.1 150 20:56 11.12.2019
6338 Clouds 3 1006 64 10000 3.1 160 20:37 11.12.2019
6339 Clouds 3 1006 64 10000 3.1 160 20:19 11.12.2019
6340 Clouds 3 1006 64 10000 3.6 160 19:57 11.12.2019
6341 Clouds 3 1007 64 10000 3.1 150 19:38 11.12.2019
6342 Clouds 3 1007 64 10000 3.1 150 19:18 11.12.2019
6343 Clouds 4 1007 56 10000 4.1 170 18:41 11.12.2019
6344 Clouds 4 1007 56 10000 4.1 170 18:21 11.12.2019
6345 Clouds 4 1008 56 10000 4.6 170 17:57 11.12.2019
6346 Clouds 4 1008 56 10000 4.6 170 17:57 11.12.2019
6347 Clouds 4 1008 64 10000 4.6 170 17:39 11.12.2019
6348 Clouds 4 1008 64 10000 4.6 170 17:18 11.12.2019
6349 Clouds 4 1008 60 10000 4.6 180 16:57 11.12.2019
6350 Clouds 4 1008 60 10000 4.1 170 16:39 11.12.2019
6351 Clouds 4 1008 60 10000 4.1 170 16:21 11.12.2019
6352 Clouds 4 1009 60 10000 4.6 180 15:59 11.12.2019
6353 Clouds 4 1009 60 10000 4.1 190 15:40 11.12.2019
6354 Clouds 4 1009 60 10000 4.1 190 15:22 11.12.2019
6355 Clouds 4 1009 60 10000 5.7 180 14:56 11.12.2019
6356 Clouds 4 1009 60 10000 5.7 180 14:37 11.12.2019
6357 Clouds 4 1010 60 10000 5.7 190 14:19 11.12.2019
6358 Clouds 4 1010 60 10000 5.7 190 13:55 11.12.2019
6359 Clouds 4 1010 60 10000 6.2 190 13:36 11.12.2019
6360 Clouds 4 1010 60 10000 6.2 190 13:18 11.12.2019
6361 Clouds 4 1011 64 10000 5.7 190 12:55 11.12.2019
6362 Clouds 4 1011 64 10000 5.1 190 12:37 11.12.2019
6363 Clouds 4 1011 64 10000 5.1 190 12:18 11.12.2019
6364 Clouds 4 1011 64 10000 5.1 190 12:18 11.12.2019
6365 Clouds 4 1012 64 10000 5.1 180 11:57 11.12.2019
6366 Clouds 4 1012 64 10000 5.1 180 11:57 11.12.2019
6367 Clouds 4 1012 64 10000 5.1 180 11:38 11.12.2019
6368 Clouds 4 1012 64 10000 5.1 180 11:38 11.12.2019
6369 Clouds 4 1012 64 10000 5.1 180 11:18 11.12.2019
6370 Clouds 3 1013 69 10000 5.1 170 10:45 11.12.2019
6371 Clouds 3 1013 69 10000 5.1 170 10:27 11.12.2019
6372 Clouds 3 1013 69 10000 5.7 180 09:59 11.12.2019
6373 Clouds 3 1013 69 10000 5.7 180 09:40 11.12.2019
6374 Clouds 2 1013 69 10000 5.1 180 09:21 11.12.2019
6375 Clouds 2 1013 69 10000 5.1 180 08:58 11.12.2019
6376 Clouds 2 1013 69 10000 4.6 180 08:38 11.12.2019
6377 Clouds 2 1013 69 10000 5.1 180 08:19 11.12.2019
6378 Clouds 2 1013 69 10000 5.1 180 07:55 11.12.2019
6379 Clouds 2 1013 69 10000 5.1 190 07:37 11.12.2019
6380 Clouds 2 1013 69 10000 5.1 190 07:18 11.12.2019
6381 Clouds 2 1013 69 10000 5.1 190 07:18 11.12.2019
6382 Clouds 2 1014 74 10000 5.1 180 06:43 11.12.2019
6383 Clouds 2 1014 74 10000 5.1 180 06:22 11.12.2019
6384 Clouds 2 1014 74 10000 6.2 180 05:41 11.12.2019
6385 Clouds 2 1014 74 10000 6.2 180 05:20 11.12.2019
6386 Clouds 1 1015 74 10000 5.1 180 04:28 11.12.2019
6387 Clouds 1 1017 86 10000 5.7 170 02:49 11.12.2019
6388 Clear 1 1019 86 10000 5.1 180 01:26 11.12.2019
6389 Clear 1 1019 86 10000 5.7 180 00:49 11.12.2019
6390 Clear 1 1019 86 10000 6.2 180 00:23 11.12.2019
6391 Clear 1 1020 80 10000 5.7 180 23:58 10.12.2019
6392 Clear 1 1021 73 10000 5.1 180 23:39 10.12.2019
6393 Clear 1 1021 77 10000 5.1 180 23:21 10.12.2019
6394 Clear 1 1021 77 10000 4.1 190 22:40 10.12.2019
6395 Clear 1 1021 77 10000 4.1 190 22:22 10.12.2019
6396 Clear 1 1022 77 10000 4.1 190 21:57 10.12.2019
6397 Clear 1 1022 77 10000 4.1 190 21:39 10.12.2019
6398 Clear 1 1022 77 10000 4.1 190 21:39 10.12.2019
6399 Clear 1 1022 77 10000 4.1 190 21:21 10.12.2019
6400 Clear 1 1022 93 10000 4.1 190 20:57 10.12.2019
6401 Clear 1 1022 93 10000 3.6 190 20:38 10.12.2019
6402 Clear 1 1022 93 10000 3.6 190 20:19 10.12.2019
6403 Clear 1 1022 93 10000 3.6 190 20:19 10.12.2019
6404 Clear 1 1022 93 10000 3.6 190 20:19 10.12.2019
6405 Clear 2 1022 86 10000 3.6 210 19:56 10.12.2019
6406 Clear 2 1022 86 10000 3.1 190 19:37 10.12.2019
6407 Clear 1 1022 86 10000 3.1 190 19:19 10.12.2019
6408 Clear 2 1023 86 10000 2.6 190 18:42 10.12.2019
6409 Clear 2 1023 86 10000 2.6 190 18:21 10.12.2019
6410 Clear 2 1023 86 10000 2.6 210 17:59 10.12.2019
6411 Clear 2 1023 86 10000 2.6 210 17:41 10.12.2019
6412 Clear 3 1023 80 10000 2.6 210 17:22 10.12.2019
6413 Clear 3 1023 80 10000 2.6 210 16:57 10.12.2019
6414 Clear 3 1023 86 10000 2.6 230 16:39 10.12.2019
6415 Clear 4 1023 80 10000 3.1 250 16:19 10.12.2019
6416 Clear 5 1023 80 10000 3.6 250 15:39 10.12.2019
6417 Clear 5 1023 80 10000 3.6 250 15:19 10.12.2019
6418 Clouds 6 1023 70 10000 4.1 250 14:57 10.12.2019
6419 Clouds 6 1023 70 10000 4.6 260 14:38 10.12.2019
6420 Clouds 6 1023 70 10000 4.6 260 14:20 10.12.2019
6421 Clouds 6 1023 75 10000 3.6 270 13:58 10.12.2019
6422 Clouds 6 1023 75 10000 4.1 270 13:40 10.12.2019
6423 Clouds 6 1023 80 10000 4.6 260 13:20 10.12.2019
6424 Clouds 5 1023 80 10000 4.6 260 12:55 10.12.2019
6425 Clouds 5 1023 75 10000 4.1 280 12:36 10.12.2019
6426 Clouds 5 1023 75 10000 4.1 280 12:18 10.12.2019
6427 Clear 5 1022 80 10000 4.1 280 11:40 10.12.2019
6428 Clear 4 1022 80 10000 4.1 280 11:22 10.12.2019
6429 Clear 4 1022 80 10000 4.1 290 10:55 10.12.2019
6430 Clear 3 1021 86 10000 4.1 290 10:36 10.12.2019
6431 Clear 3 1021 86 10000 4.1 290 10:18 10.12.2019
6432 Clear 3 1021 86 10000 4.6 290 09:54 10.12.2019
6433 Clear 3 1020 93 10000 4.6 290 09:36 10.12.2019
6434 Clear 3 1020 93 10000 4.6 290 09:18 10.12.2019
6435 Clouds 2 1019 93 10000 4.6 280 08:41 10.12.2019
6436 Clouds 2 1019 93 10000 4.6 280 08:22 10.12.2019
6437 Clouds 2 1019 93 10000 4.6 280 08:22 10.12.2019
6438 Clouds 3 1018 86 10000 5.1 280 07:57 10.12.2019
6439 Clouds 3 1018 86 10000 5.1 280 07:39 10.12.2019
6440 Clouds 3 1018 86 10000 5.1 280 07:21 10.12.2019
6441 Clouds 3 1017 86 10000 4.6 280 06:46 10.12.2019
6442 Clouds 3 1016 86 10000 6.2 280 06:19 10.12.2019
6443 Clouds 3 1016 86 10000 5.7 280 05:53 10.12.2019
6444 Clouds 3 1014 86 10000 5.1 290 04:52 10.12.2019
6445 Clouds 4 1013 80 10000 6.2 290 03:37 10.12.2019
6446 Clouds 4 1012 80 10000 5.7 290 02:45 10.12.2019
6447 Clouds 5 1009 80 10000 6.2 290 01:44 10.12.2019
6448 Rain 5 1009 80 10000 6.2 290 01:21 10.12.2019
6449 Clouds 5 1008 86 10000 5.7 280 00:42 10.12.2019
6450 Clouds 5 1008 86 10000 5.7 280 00:21 10.12.2019
6451 Clouds 6 1006 87 10000 4.6 280 23:42 09.12.2019
6452 Clouds 6 1006 87 10000 4.6 280 23:23 09.12.2019
6453 Clouds 6 1006 87 10000 4.6 280 23:23 09.12.2019
6454 Clouds 6 1006 93 10000 4.1 280 22:58 09.12.2019
6455 Clouds 6 1005 93 10000 4.1 280 22:40 09.12.2019
6456 Rain 6 1005 93 10000 4.1 280 22:20 09.12.2019
6457 Drizzle 6 1004 93 10000 4.6 280 21:57 09.12.2019
6458 Drizzle 6 1003 93 10000 5.1 280 21:39 09.12.2019
6459 Drizzle 6 1003 93 10000 5.1 280 21:19 09.12.2019
6460 Clouds 6 1003 93 10000 5.7 270 20:57 09.12.2019
6461 Drizzle 7 1002 100 10000 4.6 270 20:39 09.12.2019
6462 Drizzle 7 1002 100 10000 4.6 270 20:20 09.12.2019
6463 Rain 7 1001 93 10000 4.1 270 19:56 09.12.2019
6464 Rain 7 1001 93 10000 6.7 260 19:38 09.12.2019
6465 Rain 7 1001 93 10000 6.7 260 19:19 09.12.2019
6466 Rain 7 1000 81 10000 5.1 230 18:58 09.12.2019
6467 Rain 7 999 81 10000 6.7 220 18:39 09.12.2019
6468 Rain 7 999 81 10000 6.7 220 18:20 09.12.2019
6469 Rain 8 999 75 10000 4.1 200 17:59 09.12.2019
6470 Rain 8 999 75 10000 3.6 200 17:40 09.12.2019
6471 Rain 8 999 75 10000 3.6 200 17:21 09.12.2019
6472 Rain 8 999 75 10000 4.6 210 16:56 09.12.2019
6473 Rain 8 998 70 10000 5.7 210 16:38 09.12.2019
6474 Clouds 9 998 66 10000 4.6 210 16:20 09.12.2019
6475 Clouds 9 998 66 10000 4.6 210 16:20 09.12.2019
6476 Clouds 9 998 66 10000 4.6 210 15:56 09.12.2019
6477 Clouds 9 998 66 10000 4.6 210 15:56 09.12.2019
6478 Rain 9 998 66 10000 5.7 210 15:37 09.12.2019
6479 Clouds 9 998 66 10000 6.7 210 15:19 09.12.2019
6480 Clouds 9 998 66 10000 6.7 210 14:58 09.12.2019
6481 Clouds 9 998 66 10000 6.7 210 14:39 09.12.2019
6482 Clouds 9 998 66 10000 6.7 210 14:18 09.12.2019
6483 Clouds 10 998 66 10000 7.2 210 13:55 09.12.2019
6484 Clouds 10 998 61 10000 6.7 210 13:36 09.12.2019
6485 Clouds 10 998 61 10000 6.7 210 13:18 09.12.2019
6486 Clouds 9 998 66 10000 6.2 210 12:54 09.12.2019
6487 Clouds 9 998 66 10000 6.7 210 12:36 09.12.2019
6488 Clouds 9 998 70 10000 6.2 200 12:18 09.12.2019
6489 Clouds 9 998 75 10000 5.7 190 11:40 09.12.2019
6490 Clouds 8 998 75 10000 5.7 190 11:22 09.12.2019
6491 Clouds 8 998 81 10000 4.6 200 10:59 09.12.2019
6492 Clouds 7 998 81 10000 4.1 200 10:39 09.12.2019
6493 Clouds 7 998 81 10000 4.1 200 10:19 09.12.2019
6494 Clouds 6 998 75 10000 4.6 200 09:55 09.12.2019
6495 Clouds 6 998 75 10000 5.1 200 09:36 09.12.2019
6496 Clouds 6 998 75 10000 5.1 200 09:18 09.12.2019
6497 Clouds 5 998 75 10000 4.6 200 08:40 09.12.2019
6498 Clouds 5 998 75 10000 4.6 200 08:22 09.12.2019
6499 Clouds 6 998 75 10000 5.7 210 07:52 09.12.2019
6500 Clouds 6 998 75 10000 5.7 220 07:34 09.12.2019
6501 Clouds 6 998 70 10000 6.2 240 06:59 09.12.2019
6502 Clouds 6 998 70 10000 7.2 230 06:37 09.12.2019
6503 Clouds 7 998 70 10000 7.2 230 06:19 09.12.2019
6504 Clouds 7 997 75 10000 8.2 240 05:25 09.12.2019
6505 Clouds 8 997 75 10000 6.7 220 04:29 09.12.2019
6506 Clouds 7 997 75 10000 5.1 200 03:18 09.12.2019
6507 Clouds 8 997 70 10000 4.1 200 01:48 09.12.2019
6508 Clouds 8 997 70 10000 4.6 200 01:28 09.12.2019
6509 Clouds 8 997 70 10000 5.7 220 00:45 09.12.2019
6510 Clouds 8 997 70 10000 5.1 230 00:24 09.12.2019
6511 Clouds 8 997 70 10000 4.6 230 23:39 08.12.2019
6512 Clouds 9 997 70 10000 4.6 230 23:21 08.12.2019
6513 Clouds 9 997 75 10000 4.6 250 22:56 08.12.2019
6514 Clouds 9 997 76 10000 7.2 260 22:38 08.12.2019
6515 Clouds 9 997 76 10000 7.2 260 22:18 08.12.2019
6516 Clouds 9 997 76 10000 7.2 260 22:18 08.12.2019
6517 Clouds 10 997 71 10000 8.7 260 21:57 08.12.2019
6518 Clouds 10 997 71 10000 8.7 260 21:39 08.12.2019
6519 Clouds 10 997 71 10000 8.7 260 21:39 08.12.2019
6520 Clouds 10 997 81 10000 6.7 240 21:19 08.12.2019
6521 Clouds 10 997 81 10000 7.2 240 20:57 08.12.2019
6522 Clouds 10 997 81 10000 6.2 240 20:38 08.12.2019
6523 Clouds 10 997 81 10000 6.2 240 20:20 08.12.2019
6524 Clouds 10 997 87 10000 4.1 230 19:57 08.12.2019
6525 Clouds 10 997 93 10000 4.6 240 19:39 08.12.2019
6526 Clouds 10 997 93 10000 4.6 240 19:21 08.12.2019
6527 Rain 11 997 93 10000 4.6 250 18:55 08.12.2019
6528 Drizzle 10 997 93 5000 4.6 280 18:37 08.12.2019
6529 Drizzle 10 997 93 5000 4.6 280 18:37 08.12.2019
6530 Drizzle 10 997 93 5000 4.6 280 18:18 08.12.2019
6531 Rain 10 997 76 8000 9.3 210 17:56 08.12.2019
6532 Clouds 10 997 76 10000 8.2 210 17:38 08.12.2019
6533 Clouds 10 997 76 10000 8.2 210 17:19 08.12.2019
6534 Clouds 10 997 71 10000 8.7 220 16:56 08.12.2019
6535 Clouds 10 998 71 10000 8.2 220 16:38 08.12.2019
6536 Clouds 10 998 71 10000 8.2 220 16:20 08.12.2019
6537 Clouds 10 998 76 10000 8.2 210 15:55 08.12.2019
6538 Rain 10 998 76 10000 7.7 210 15:36 08.12.2019
6539 Rain 10 998 76 10000 7.7 210 15:18 08.12.2019
6540 Rain 9 998 87 10000 5.1 210 14:43 08.12.2019
6541 Rain 9 999 87 10000 5.7 200 14:24 08.12.2019
6542 Rain 9 999 81 10000 6.7 210 13:58 08.12.2019
6543 Rain 9 999 71 10000 6.7 210 13:40 08.12.2019
6544 Rain 9 999 71 10000 6.7 210 13:21 08.12.2019
6545 Clouds 10 1000 71 10000 7.2 210 12:56 08.12.2019
6546 Clouds 10 1000 66 10000 7.7 210 12:38 08.12.2019
6547 Clouds 10 1000 66 10000 7.7 210 12:18 08.12.2019
6548 Clouds 10 1001 66 10000 8.2 210 11:57 08.12.2019
6549 Clouds 10 1002 70 10000 6.2 210 11:37 08.12.2019
6550 Clouds 9 1002 70 10000 6.2 210 11:19 08.12.2019
6551 Clouds 9 1003 70 10000 6.7 210 10:40 08.12.2019
6552 Clouds 9 1003 70 10000 6.7 210 10:22 08.12.2019
6553 Clouds 8 1003 75 10000 7.2 200 09:58 08.12.2019
6554 Clouds 8 1004 75 10000 5.1 190 09:39 08.12.2019
6555 Clouds 8 1004 75 10000 5.1 190 09:20 08.12.2019
6556 Clouds 8 1004 75 10000 5.7 190 08:59 08.12.2019
6557 Clouds 8 1005 75 10000 6.2 200 08:41 08.12.2019
6558 Clouds 8 1005 75 10000 6.2 200 08:22 08.12.2019
6559 Clouds 8 1005 75 10000 6.2 210 07:49 08.12.2019
6560 Clouds 8 1006 75 10000 5.7 210 07:21 08.12.2019
6561 Clouds 8 1006 70 10000 5.7 200 06:59 08.12.2019
6562 Clouds 8 1006 70 10000 5.7 210 06:39 08.12.2019
6563 Clouds 8 1006 70 10000 5.7 210 06:19 08.12.2019
6564 Clouds 8 1007 70 10000 6.2 210 05:23 08.12.2019
6565 Clouds 8 1008 75 10000 6.2 220 04:46 08.12.2019
6566 Clouds 7 1009 75 10000 6.2 230 03:39 08.12.2019
6567 Clouds 8 1009 81 10000 6.2 240 02:43 08.12.2019
6568 Clouds 8 1009 81 10000 6.7 240 02:20 08.12.2019
6569 Clouds 8 1010 81 10000 6.7 250 01:41 08.12.2019
6570 Clouds 8 1010 81 10000 7.2 240 00:56 08.12.2019
6571 Clouds 8 1010 87 10000 6.7 240 00:37 08.12.2019
6572 Clouds 8 1010 87 10000 6.7 240 00:18 08.12.2019
6573 Rain 8 1010 87 8000 6.2 240 23:39 07.12.2019
6574 Rain 8 1010 87 8000 6.2 240 23:20 07.12.2019
6575 Rain 8 1010 87 8000 6.2 240 23:20 07.12.2019
6576 Clouds 8 1010 87 10000 5.7 250 22:56 07.12.2019
6577 Clouds 8 1010 87 10000 6.2 240 22:37 07.12.2019
6578 Clouds 8 1010 87 10000 6.2 240 22:19 07.12.2019
6579 Clouds 8 1010 87 10000 5.7 240 21:56 07.12.2019
6580 Clouds 8 1010 87 10000 5.7 250 21:37 07.12.2019
6581 Clouds 8 1010 87 10000 5.7 250 21:19 07.12.2019
6582 Clouds 8 1010 87 10000 5.1 260 20:54 07.12.2019
6583 Clouds 8 1010 87 10000 5.1 270 20:36 07.12.2019
6584 Rain 8 1010 87 10000 5.1 270 20:18 07.12.2019
6585 Rain 8 1010 93 10000 4.1 270 19:55 07.12.2019
6586 Rain 8 1010 87 10000 6.7 260 19:36 07.12.2019
6587 Rain 8 1010 87 10000 6.7 260 19:18 07.12.2019
6588 Rain 9 1009 81 10000 7.2 260 18:43 07.12.2019
6589 Clouds 9 1008 81 10000 7.2 250 18:19 07.12.2019
6590 Clouds 9 1009 81 10000 7.2 260 18:19 07.12.2019
6591 Clouds 9 1008 81 10000 7.2 250 17:57 07.12.2019
6592 Clouds 9 1008 81 10000 7.2 250 17:39 07.12.2019
6593 Clouds 9 1008 81 10000 7.2 250 17:20 07.12.2019
6594 Clouds 9 1008 81 10000 8.2 250 16:56 07.12.2019
6595 Clouds 9 1007 81 10000 7.7 260 16:38 07.12.2019
6596 Clouds 9 1007 81 10000 7.7 260 16:19 07.12.2019
6597 Clouds 9 1007 81 10000 8.2 260 15:56 07.12.2019
6598 Clouds 9 1007 76 10000 8.7 260 15:38 07.12.2019
6599 Clouds 10 1007 76 10000 8.7 260 15:18 07.12.2019
6600 Clouds 10 1007 76 10000 8.7 260 15:18 07.12.2019
6601 Clouds 10 1006 76 10000 8.7 260 14:42 07.12.2019
6602 Clouds 10 1006 76 10000 8.7 260 14:19 07.12.2019
6603 Clouds 9 1006 76 10000 8.7 260 13:55 07.12.2019
6604 Clouds 10 1006 76 10000 8.7 260 13:37 07.12.2019
6605 Clouds 10 1006 76 10000 8.7 260 13:18 07.12.2019
6606 Clouds 9 1006 81 10000 9.3 250 12:41 07.12.2019
6607 Clouds 9 1006 81 10000 9.3 250 12:22 07.12.2019
6608 Clouds 9 1005 81 10000 9.3 260 11:58 07.12.2019
6609 Clouds 9 1005 87 10000 8.2 260 11:40 07.12.2019
6610 Clouds 9 1005 87 10000 8.2 260 11:22 07.12.2019
6611 Clouds 9 1004 87 10000 7.7 250 10:39 07.12.2019
6612 Clouds 8 1004 87 10000 7.7 250 10:39 07.12.2019
6613 Clouds 8 1004 87 10000 7.7 250 10:20 07.12.2019
6614 Clouds 8 1004 93 10000 7.2 260 09:59 07.12.2019
6615 Clouds 8 1003 93 10000 7.7 250 09:38 07.12.2019
6616 Clouds 8 1003 93 10000 8.2 250 09:20 07.12.2019
6617 Clouds 7 1003 93 10000 8.2 250 08:45 07.12.2019
6618 Clouds 7 1003 93 10000 8.2 250 08:21 07.12.2019
6619 Rain 7 1002 93 10000 7.2 240 07:47 07.12.2019
6620 Rain 7 1002 87 10000 7.2 240 07:28 07.12.2019
6621 Clouds 7 1001 87 10000 7.7 220 06:52 07.12.2019
6622 Clouds 7 1001 87 10000 6.7 220 06:26 07.12.2019
6623 Clouds 6 1001 87 10000 7.2 220 05:47 07.12.2019
6624 Rain 6 1002 93 10000 6.7 220 04:43 07.12.2019
6625 Rain 6 1002 93 10000 6.7 220 03:50 07.12.2019
6626 Clouds 6 1002 93 10000 6.2 220 02:22 07.12.2019
6627 Clouds 6 1003 93 10000 5.1 210 01:41 07.12.2019
6628 Clouds 6 1003 93 10000 5.1 210 01:22 07.12.2019
6629 Clouds 5 1004 93 10000 5.1 210 00:21 07.12.2019
6630 Drizzle 5 1004 93 10000 5.7 210 23:59 06.12.2019
6631 Drizzle 5 1004 93 10000 5.7 210 23:40 06.12.2019
6632 Drizzle 5 1004 93 10000 5.7 210 23:20 06.12.2019
6633 Rain 4 1005 93 10000 5.7 200 22:39 06.12.2019
6634 Rain 4 1005 93 10000 5.7 200 22:39 06.12.2019
6635 Rain 4 1005 93 10000 5.7 200 22:21 06.12.2019
6636 Rain 4 1005 93 10000 5.1 210 21:59 06.12.2019
6637 Rain 4 1006 93 10000 5.7 210 21:41 06.12.2019
6638 Rain 4 1006 93 10000 6.2 210 21:21 06.12.2019
6639 Rain 4 1006 93 10000 6.2 210 20:59 06.12.2019
6640 Rain 4 1006 93 10000 6.7 210 20:41 06.12.2019
6641 Rain 4 1006 93 10000 6.7 210 20:20 06.12.2019
6642 Rain 4 1006 86 9000 6.7 210 19:43 06.12.2019
6643 Rain 4 1006 86 9000 6.7 210 19:24 06.12.2019
6644 Rain 4 1007 93 9000 6.2 210 18:59 06.12.2019
6645 Rain 4 1007 93 7000 6.2 210 18:40 06.12.2019
6646 Rain 3 1007 93 7000 6.2 210 18:22 06.12.2019
6647 Rain 3 1007 93 6000 5.7 210 17:58 06.12.2019
6648 Rain 3 1007 93 7000 5.7 210 17:40 06.12.2019
6649 Rain 3 1007 93 7000 5.7 210 17:22 06.12.2019
6650 Rain 3 1008 93 10000 6.2 210 16:58 06.12.2019
6651 Rain 3 1008 93 7000 5.1 210 16:39 06.12.2019
6652 Rain 3 1008 93 7000 5.1 210 16:20 06.12.2019
6653 Rain 3 1008 86 6000 6.2 210 15:41 06.12.2019
6654 -273 0 0 0 0 0 15:23 06.12.2019
6655 Rain 3 1009 86 7000 5.7 210 14:59 06.12.2019
6656 Rain 3 1009 86 7000 5.1 210 14:40 06.12.2019
6657 Rain 3 1009 86 7000 5.1 210 14:20 06.12.2019
6658 Rain 3 1009 86 8000 5.1 200 13:58 06.12.2019
6659 Rain 3 1010 60 10000 6.2 200 13:40 06.12.2019
6660 Rain 3 1010 56 10000 6.2 200 13:21 06.12.2019
6661 Rain 3 1010 56 10000 6.2 200 13:21 06.12.2019
6662 Rain 3 1010 56 10000 5.1 210 12:40 06.12.2019
6663 Rain 3 1010 56 10000 5.1 210 12:21 06.12.2019
6664 Clouds 3 1010 69 10000 6.2 210 11:43 06.12.2019
6665 Clouds 3 1011 69 10000 5.1 200 11:24 06.12.2019
6666 Clouds 3 1011 74 10000 4.6 200 10:59 06.12.2019
6667 Rain 3 1011 69 10000 4.6 200 10:40 06.12.2019
6668 Rain 2 1011 69 10000 4.6 200 10:21 06.12.2019
6669 Clouds 3 1011 64 10000 5.1 200 09:56 06.12.2019
6670 Clouds 2 1011 69 10000 5.7 200 09:37 06.12.2019
6671 Clouds 2 1011 69 10000 5.7 200 09:19 06.12.2019
6672 Clouds 2 1011 69 10000 4.6 200 08:44 06.12.2019
6673 Clouds 1 1011 74 10000 4.6 200 08:26 06.12.2019
6674 Clouds 1 1011 74 10000 4.6 200 07:44 06.12.2019
6675 Clouds 1 1011 74 10000 4.6 200 07:23 06.12.2019
6676 Clouds 1 1011 55 10000 4.6 200 06:58 06.12.2019
6677 Clouds 0 1011 55 10000 5.1 200 06:26 06.12.2019
6678 Clouds 0 1011 55 10000 4.1 200 05:52 06.12.2019
6679 Clouds 0 1012 57 10000 3.6 200 05:21 06.12.2019
6680 Clear -1 1014 64 10000 4.6 200 02:19 06.12.2019
6681 Clouds -1 1015 69 10000 4.1 200 01:29 06.12.2019
6682 Clouds -1 1015 69 10000 4.1 190 00:40 06.12.2019
6683 Clouds -1 1016 69 10000 3.6 200 00:20 06.12.2019
6684 Clouds 0 1016 69 10000 4.1 200 23:45 05.12.2019
6685 Clouds 0 1016 70 10000 4.1 200 23:19 05.12.2019
6686 Clouds 0 1016 70 10000 4.1 200 22:57 05.12.2019
6687 Clouds 0 1016 70 10000 3.1 200 22:38 05.12.2019
6688 Clouds 1 1017 86 10000 3.1 200 22:18 05.12.2019
6689 Clouds 0 1016 70 10000 3.1 200 22:18 05.12.2019
6690 Clouds 1 1017 80 10000 2.6 200 21:44 05.12.2019
6691 Clouds 1 1017 80 10000 2.6 200 21:25 05.12.2019
6692 Clouds 1 1017 80 10000 3.6 210 20:59 05.12.2019
6693 Clouds 1 1017 80 10000 3.6 210 20:40 05.12.2019
6694 Clouds 1 1017 80 10000 3.6 210 20:40 05.12.2019
6695 Clear 2 1017 86 10000 3.6 210 20:21 05.12.2019
6696 Clear 2 1017 80 10000 3.6 200 19:58 05.12.2019
6697 Clear 2 1017 80 10000 3.6 200 19:58 05.12.2019
6698 Clear 2 1017 80 10000 3.6 200 19:40 05.12.2019
6699 Clear 2 1017 80 10000 3.6 210 19:21 05.12.2019
6700 Clear 2 1017 80 10000 3.6 210 18:57 05.12.2019
6701 Clear 2 1017 80 10000 4.1 200 18:38 05.12.2019
6702 Clear 2 1018 80 10000 4.1 210 18:20 05.12.2019
6703 Clear 3 1018 70 10000 3.6 200 17:40 05.12.2019
6704 Clear 3 1018 70 10000 3.6 190 17:20 05.12.2019
6705 Clear 3 1018 70 10000 3.6 190 16:58 05.12.2019
6706 Clear 3 1018